<?xml version="1.0" encoding="UTF-8" standalone="no" ?>
<gpx xmlns="http://www.topografix.com/GPX/1/1" xmlns:xsi="http://www.w3.org/2001/XMLSchema-instance" xsi:schemaLocation="http://www.topografix.com/GPX/1/1 http://www.topografix.com/GPX/1/1/gpx.xsd" version="1.1" creator="VisuGPX - https://www.visugpx.com">
  <metadata>
    <name>lundi 2015 02 09</name>
    <desc><![CDATA[rando du lundi]]></desc>
  </metadata>
  <trk>
    <name><![CDATA[09/02/2015 20:19]]></name>
    <desc><![CDATA[]]></desc>
    <trkseg>
      <trkpt lat="48.85734" lon="2.34745">
        <ele>89.6</ele>
        <time>2015-02-09T19:19:22.832Z</time>
      </trkpt>
      <trkpt lat="48.85734" lon="2.34741">
        <ele>90.1</ele>
        <time>2015-02-09T19:19:56.616Z</time>
      </trkpt>
      <trkpt lat="48.85734" lon="2.34741">
        <ele>90.1</ele>
        <time>2015-02-09T19:19:57.638Z</time>
      </trkpt>
      <trkpt lat="48.85734" lon="2.34742">
        <ele>90</ele>
        <time>2015-02-09T19:19:58.537Z</time>
      </trkpt>
      <trkpt lat="48.85734" lon="2.3475">
        <ele>89.2</ele>
        <time>2015-02-09T19:20:02.591Z</time>
      </trkpt>
      <trkpt lat="48.85735" lon="2.34751">
        <ele>89.2</ele>
        <time>2015-02-09T19:20:03.615Z</time>
      </trkpt>
      <trkpt lat="48.85735" lon="2.34751">
        <ele>89.3</ele>
        <time>2015-02-09T19:20:08.543Z</time>
      </trkpt>
      <trkpt lat="48.85735" lon="2.34754">
        <ele>89.8</ele>
        <time>2015-02-09T19:20:09.596Z</time>
      </trkpt>
      <trkpt lat="48.85735" lon="2.34756">
        <ele>89.9</ele>
        <time>2015-02-09T19:20:10.528Z</time>
      </trkpt>
      <trkpt lat="48.85736" lon="2.34757">
        <ele>89.9</ele>
        <time>2015-02-09T19:20:11.543Z</time>
      </trkpt>
      <trkpt lat="48.85736" lon="2.34758">
        <ele>90.1</ele>
        <time>2015-02-09T19:20:30.604Z</time>
      </trkpt>
      <trkpt lat="48.85737" lon="2.34771">
        <ele>91.6</ele>
        <time>2015-02-09T19:20:31.631Z</time>
      </trkpt>
      <trkpt lat="48.85737" lon="2.34769">
        <ele>92.3</ele>
        <time>2015-02-09T19:20:35.555Z</time>
      </trkpt>
      <trkpt lat="48.85738" lon="2.34769">
        <ele>92.4</ele>
        <time>2015-02-09T19:20:36.569Z</time>
      </trkpt>
      <trkpt lat="48.85738" lon="2.34768">
        <ele>92.8</ele>
        <time>2015-02-09T19:20:54.600Z</time>
      </trkpt>
      <trkpt lat="48.85739" lon="2.34771">
        <ele>93.9</ele>
        <time>2015-02-09T19:20:55.619Z</time>
      </trkpt>
      <trkpt lat="48.85739" lon="2.34771">
        <ele>94</ele>
        <time>2015-02-09T19:20:56.728Z</time>
      </trkpt>
      <trkpt lat="48.85739" lon="2.34772">
        <ele>94</ele>
        <time>2015-02-09T19:20:57.566Z</time>
      </trkpt>
      <trkpt lat="48.85738" lon="2.34773">
        <ele>94</ele>
        <time>2015-02-09T19:20:58.579Z</time>
      </trkpt>
      <trkpt lat="48.85738" lon="2.34774">
        <ele>94.1</ele>
        <time>2015-02-09T19:21:03.551Z</time>
      </trkpt>
      <trkpt lat="48.85738" lon="2.34774">
        <ele>94.1</ele>
        <time>2015-02-09T19:21:04.574Z</time>
      </trkpt>
      <trkpt lat="48.85738" lon="2.34775">
        <ele>94.2</ele>
        <time>2015-02-09T19:21:05.658Z</time>
      </trkpt>
      <trkpt lat="48.85738" lon="2.34778">
        <ele>94.4</ele>
        <time>2015-02-09T19:21:11.581Z</time>
      </trkpt>
      <trkpt lat="48.85738" lon="2.34778">
        <ele>94.4</ele>
        <time>2015-02-09T19:21:12.534Z</time>
      </trkpt>
      <trkpt lat="48.85738" lon="2.34778">
        <ele>94.5</ele>
        <time>2015-02-09T19:21:13.577Z</time>
      </trkpt>
      <trkpt lat="48.85738" lon="2.34777">
        <ele>94.5</ele>
        <time>2015-02-09T19:21:14.583Z</time>
      </trkpt>
      <trkpt lat="48.85738" lon="2.34778">
        <ele>94.9</ele>
        <time>2015-02-09T19:21:35.528Z</time>
      </trkpt>
      <trkpt lat="48.8574" lon="2.34755">
        <ele>94.8</ele>
        <time>2015-02-09T19:21:36.545Z</time>
      </trkpt>
      <trkpt lat="48.8574" lon="2.34741">
        <ele>92.8</ele>
        <time>2015-02-09T19:21:40.531Z</time>
      </trkpt>
      <trkpt lat="48.8574" lon="2.34738">
        <ele>92.3</ele>
        <time>2015-02-09T19:21:41.527Z</time>
      </trkpt>
      <trkpt lat="48.8574" lon="2.34725">
        <ele>90.5</ele>
        <time>2015-02-09T19:21:46.609Z</time>
      </trkpt>
      <trkpt lat="48.85739" lon="2.34722">
        <ele>90.1</ele>
        <time>2015-02-09T19:21:47.572Z</time>
      </trkpt>
      <trkpt lat="48.85737" lon="2.3471">
        <ele>91.4</ele>
        <time>2015-02-09T19:21:52.566Z</time>
      </trkpt>
      <trkpt lat="48.85737" lon="2.34706">
        <ele>91.2</ele>
        <time>2015-02-09T19:21:53.575Z</time>
      </trkpt>
      <trkpt lat="48.85735" lon="2.34693">
        <ele>90.1</ele>
        <time>2015-02-09T19:22:00.592Z</time>
      </trkpt>
      <trkpt lat="48.85732" lon="2.34692">
        <ele>89.9</ele>
        <time>2015-02-09T19:22:01.621Z</time>
      </trkpt>
      <trkpt lat="48.85725" lon="2.34692">
        <ele>89.4</ele>
        <time>2015-02-09T19:22:04.574Z</time>
      </trkpt>
      <trkpt lat="48.85723" lon="2.34692">
        <ele>89.1</ele>
        <time>2015-02-09T19:22:05.585Z</time>
      </trkpt>
      <trkpt lat="48.85714" lon="2.34691">
        <ele>87.9</ele>
        <time>2015-02-09T19:22:09.714Z</time>
      </trkpt>
      <trkpt lat="48.85712" lon="2.3469">
        <ele>87.8</ele>
        <time>2015-02-09T19:22:10.579Z</time>
      </trkpt>
      <trkpt lat="48.85704" lon="2.34688">
        <ele>87</ele>
        <time>2015-02-09T19:22:14.656Z</time>
      </trkpt>
      <trkpt lat="48.85702" lon="2.34687">
        <ele>86.7</ele>
        <time>2015-02-09T19:22:15.567Z</time>
      </trkpt>
      <trkpt lat="48.85695" lon="2.34683">
        <ele>86.4</ele>
        <time>2015-02-09T19:22:18.614Z</time>
      </trkpt>
      <trkpt lat="48.85692" lon="2.34682">
        <ele>86.2</ele>
        <time>2015-02-09T19:22:19.628Z</time>
      </trkpt>
      <trkpt lat="48.85685" lon="2.34677">
        <ele>85.8</ele>
        <time>2015-02-09T19:22:22.607Z</time>
      </trkpt>
      <trkpt lat="48.85683" lon="2.34676">
        <ele>85.6</ele>
        <time>2015-02-09T19:22:23.626Z</time>
      </trkpt>
      <trkpt lat="48.85675" lon="2.34672">
        <ele>85.2</ele>
        <time>2015-02-09T19:22:26.549Z</time>
      </trkpt>
      <trkpt lat="48.85673" lon="2.34669">
        <ele>85.2</ele>
        <time>2015-02-09T19:22:27.554Z</time>
      </trkpt>
      <trkpt lat="48.85665" lon="2.34664">
        <ele>84.8</ele>
        <time>2015-02-09T19:22:30.549Z</time>
      </trkpt>
      <trkpt lat="48.85662" lon="2.34662">
        <ele>84.8</ele>
        <time>2015-02-09T19:22:31.620Z</time>
      </trkpt>
      <trkpt lat="48.85655" lon="2.34655">
        <ele>83.9</ele>
        <time>2015-02-09T19:22:34.553Z</time>
      </trkpt>
      <trkpt lat="48.85652" lon="2.34653">
        <ele>83.8</ele>
        <time>2015-02-09T19:22:35.550Z</time>
      </trkpt>
      <trkpt lat="48.85644" lon="2.34647">
        <ele>83.7</ele>
        <time>2015-02-09T19:22:38.592Z</time>
      </trkpt>
      <trkpt lat="48.85641" lon="2.34645">
        <ele>83.8</ele>
        <time>2015-02-09T19:22:39.612Z</time>
      </trkpt>
      <trkpt lat="48.85633" lon="2.34641">
        <ele>83.1</ele>
        <time>2015-02-09T19:22:43.616Z</time>
      </trkpt>
      <trkpt lat="48.85632" lon="2.3464">
        <ele>83.1</ele>
        <time>2015-02-09T19:22:44.615Z</time>
      </trkpt>
      <trkpt lat="48.85624" lon="2.34637">
        <ele>83.3</ele>
        <time>2015-02-09T19:22:49.605Z</time>
      </trkpt>
      <trkpt lat="48.85622" lon="2.34636">
        <ele>83.3</ele>
        <time>2015-02-09T19:22:50.619Z</time>
      </trkpt>
      <trkpt lat="48.85614" lon="2.34631">
        <ele>84.1</ele>
        <time>2015-02-09T19:22:54.559Z</time>
      </trkpt>
      <trkpt lat="48.85612" lon="2.3463">
        <ele>84.1</ele>
        <time>2015-02-09T19:22:55.597Z</time>
      </trkpt>
      <trkpt lat="48.85605" lon="2.34626">
        <ele>84.4</ele>
        <time>2015-02-09T19:22:57.615Z</time>
      </trkpt>
      <trkpt lat="48.85602" lon="2.34624">
        <ele>84.5</ele>
        <time>2015-02-09T19:22:58.620Z</time>
      </trkpt>
      <trkpt lat="48.85594" lon="2.34619">
        <ele>84.2</ele>
        <time>2015-02-09T19:23:00.542Z</time>
      </trkpt>
      <trkpt lat="48.8559" lon="2.34618">
        <ele>84.1</ele>
        <time>2015-02-09T19:23:01.624Z</time>
      </trkpt>
      <trkpt lat="48.85583" lon="2.34614">
        <ele>84.1</ele>
        <time>2015-02-09T19:23:03.529Z</time>
      </trkpt>
      <trkpt lat="48.8558" lon="2.34613">
        <ele>84.3</ele>
        <time>2015-02-09T19:23:04.542Z</time>
      </trkpt>
      <trkpt lat="48.85573" lon="2.34606">
        <ele>84.1</ele>
        <time>2015-02-09T19:23:08.542Z</time>
      </trkpt>
      <trkpt lat="48.85571" lon="2.34603">
        <ele>84</ele>
        <time>2015-02-09T19:23:09.550Z</time>
      </trkpt>
      <trkpt lat="48.85564" lon="2.34598">
        <ele>84.3</ele>
        <time>2015-02-09T19:23:11.646Z</time>
      </trkpt>
      <trkpt lat="48.85561" lon="2.34595">
        <ele>84.5</ele>
        <time>2015-02-09T19:23:12.553Z</time>
      </trkpt>
      <trkpt lat="48.85554" lon="2.34589">
        <ele>85.3</ele>
        <time>2015-02-09T19:23:15.622Z</time>
      </trkpt>
      <trkpt lat="48.85552" lon="2.34588">
        <ele>85.6</ele>
        <time>2015-02-09T19:23:16.546Z</time>
      </trkpt>
      <trkpt lat="48.85545" lon="2.34586">
        <ele>87.1</ele>
        <time>2015-02-09T19:23:19.624Z</time>
      </trkpt>
      <trkpt lat="48.85542" lon="2.34585">
        <ele>87.5</ele>
        <time>2015-02-09T19:23:20.548Z</time>
      </trkpt>
      <trkpt lat="48.85536" lon="2.34585">
        <ele>88.5</ele>
        <time>2015-02-09T19:23:22.547Z</time>
      </trkpt>
      <trkpt lat="48.85532" lon="2.34584">
        <ele>89</ele>
        <time>2015-02-09T19:23:23.548Z</time>
      </trkpt>
      <trkpt lat="48.85525" lon="2.34583">
        <ele>89.6</ele>
        <time>2015-02-09T19:23:25.577Z</time>
      </trkpt>
      <trkpt lat="48.8552" lon="2.34582">
        <ele>89.9</ele>
        <time>2015-02-09T19:23:26.584Z</time>
      </trkpt>
      <trkpt lat="48.85513" lon="2.34579">
        <ele>90.5</ele>
        <time>2015-02-09T19:23:28.546Z</time>
      </trkpt>
      <trkpt lat="48.85509" lon="2.34578">
        <ele>90.9</ele>
        <time>2015-02-09T19:23:29.721Z</time>
      </trkpt>
      <trkpt lat="48.85502" lon="2.34575">
        <ele>91.7</ele>
        <time>2015-02-09T19:23:31.595Z</time>
      </trkpt>
      <trkpt lat="48.85499" lon="2.34573">
        <ele>92</ele>
        <time>2015-02-09T19:23:32.616Z</time>
      </trkpt>
      <trkpt lat="48.85493" lon="2.34572">
        <ele>92.3</ele>
        <time>2015-02-09T19:23:34.533Z</time>
      </trkpt>
      <trkpt lat="48.8549" lon="2.34572">
        <ele>92.7</ele>
        <time>2015-02-09T19:23:35.540Z</time>
      </trkpt>
      <trkpt lat="48.85481" lon="2.3457">
        <ele>93.2</ele>
        <time>2015-02-09T19:23:38.626Z</time>
      </trkpt>
      <trkpt lat="48.85479" lon="2.34567">
        <ele>93.3</ele>
        <time>2015-02-09T19:23:39.543Z</time>
      </trkpt>
      <trkpt lat="48.85473" lon="2.34562">
        <ele>93.1</ele>
        <time>2015-02-09T19:23:41.600Z</time>
      </trkpt>
      <trkpt lat="48.85469" lon="2.34559">
        <ele>92.5</ele>
        <time>2015-02-09T19:23:42.607Z</time>
      </trkpt>
      <trkpt lat="48.85463" lon="2.34553">
        <ele>92.2</ele>
        <time>2015-02-09T19:23:44.522Z</time>
      </trkpt>
      <trkpt lat="48.8546" lon="2.34552">
        <ele>92</ele>
        <time>2015-02-09T19:23:45.590Z</time>
      </trkpt>
      <trkpt lat="48.85455" lon="2.34547">
        <ele>91.3</ele>
        <time>2015-02-09T19:23:47.538Z</time>
      </trkpt>
      <trkpt lat="48.85452" lon="2.34545">
        <ele>91</ele>
        <time>2015-02-09T19:23:48.543Z</time>
      </trkpt>
      <trkpt lat="48.85446" lon="2.34538">
        <ele>90.2</ele>
        <time>2015-02-09T19:23:50.581Z</time>
      </trkpt>
      <trkpt lat="48.85443" lon="2.34535">
        <ele>89.8</ele>
        <time>2015-02-09T19:23:51.592Z</time>
      </trkpt>
      <trkpt lat="48.85437" lon="2.34531">
        <ele>89.3</ele>
        <time>2015-02-09T19:23:53.658Z</time>
      </trkpt>
      <trkpt lat="48.85434" lon="2.34529">
        <ele>89.1</ele>
        <time>2015-02-09T19:23:54.570Z</time>
      </trkpt>
      <trkpt lat="48.85427" lon="2.3453">
        <ele>88.3</ele>
        <time>2015-02-09T19:23:58.594Z</time>
      </trkpt>
      <trkpt lat="48.85425" lon="2.3453">
        <ele>88.1</ele>
        <time>2015-02-09T19:23:59.602Z</time>
      </trkpt>
      <trkpt lat="48.85418" lon="2.34536">
        <ele>88.3</ele>
        <time>2015-02-09T19:24:04.601Z</time>
      </trkpt>
      <trkpt lat="48.85417" lon="2.34538">
        <ele>88.2</ele>
        <time>2015-02-09T19:24:05.584Z</time>
      </trkpt>
      <trkpt lat="48.8541" lon="2.34547">
        <ele>88.2</ele>
        <time>2015-02-09T19:24:09.540Z</time>
      </trkpt>
      <trkpt lat="48.85409" lon="2.3455">
        <ele>88.1</ele>
        <time>2015-02-09T19:24:10.606Z</time>
      </trkpt>
      <trkpt lat="48.85404" lon="2.34557">
        <ele>88.1</ele>
        <time>2015-02-09T19:24:13.591Z</time>
      </trkpt>
      <trkpt lat="48.85402" lon="2.3456">
        <ele>87.9</ele>
        <time>2015-02-09T19:24:14.597Z</time>
      </trkpt>
      <trkpt lat="48.85399" lon="2.34568">
        <ele>87.7</ele>
        <time>2015-02-09T19:24:16.531Z</time>
      </trkpt>
      <trkpt lat="48.85397" lon="2.34572">
        <ele>87.7</ele>
        <time>2015-02-09T19:24:17.580Z</time>
      </trkpt>
      <trkpt lat="48.85394" lon="2.3458">
        <ele>87.8</ele>
        <time>2015-02-09T19:24:19.607Z</time>
      </trkpt>
      <trkpt lat="48.85392" lon="2.34584">
        <ele>87.8</ele>
        <time>2015-02-09T19:24:20.627Z</time>
      </trkpt>
      <trkpt lat="48.85389" lon="2.34591">
        <ele>87.9</ele>
        <time>2015-02-09T19:24:22.557Z</time>
      </trkpt>
      <trkpt lat="48.85388" lon="2.34596">
        <ele>87.9</ele>
        <time>2015-02-09T19:24:23.581Z</time>
      </trkpt>
      <trkpt lat="48.85383" lon="2.34607">
        <ele>87.8</ele>
        <time>2015-02-09T19:24:26.545Z</time>
      </trkpt>
      <trkpt lat="48.85382" lon="2.34611">
        <ele>87.8</ele>
        <time>2015-02-09T19:24:27.619Z</time>
      </trkpt>
      <trkpt lat="48.85377" lon="2.34621">
        <ele>87.7</ele>
        <time>2015-02-09T19:24:30.594Z</time>
      </trkpt>
      <trkpt lat="48.85376" lon="2.34624">
        <ele>87.6</ele>
        <time>2015-02-09T19:24:31.584Z</time>
      </trkpt>
      <trkpt lat="48.85371" lon="2.34635">
        <ele>88</ele>
        <time>2015-02-09T19:24:34.544Z</time>
      </trkpt>
      <trkpt lat="48.8537" lon="2.3464">
        <ele>88.1</ele>
        <time>2015-02-09T19:24:35.549Z</time>
      </trkpt>
      <trkpt lat="48.85366" lon="2.34649">
        <ele>88.4</ele>
        <time>2015-02-09T19:24:37.614Z</time>
      </trkpt>
      <trkpt lat="48.85365" lon="2.34654">
        <ele>88.4</ele>
        <time>2015-02-09T19:24:38.628Z</time>
      </trkpt>
      <trkpt lat="48.85361" lon="2.34663">
        <ele>88.2</ele>
        <time>2015-02-09T19:24:40.534Z</time>
      </trkpt>
      <trkpt lat="48.8536" lon="2.34667">
        <ele>88</ele>
        <time>2015-02-09T19:24:41.543Z</time>
      </trkpt>
      <trkpt lat="48.8536" lon="2.34679">
        <ele>84.1</ele>
        <time>2015-02-09T19:24:43.610Z</time>
      </trkpt>
      <trkpt lat="48.85358" lon="2.34683">
        <ele>83.1</ele>
        <time>2015-02-09T19:24:44.620Z</time>
      </trkpt>
      <trkpt lat="48.85353" lon="2.34688">
        <ele>82.5</ele>
        <time>2015-02-09T19:24:46.563Z</time>
      </trkpt>
      <trkpt lat="48.85348" lon="2.34692">
        <ele>81.8</ele>
        <time>2015-02-09T19:24:47.600Z</time>
      </trkpt>
      <trkpt lat="48.85341" lon="2.34694">
        <ele>81.1</ele>
        <time>2015-02-09T19:24:49.641Z</time>
      </trkpt>
      <trkpt lat="48.85337" lon="2.34695">
        <ele>81</ele>
        <time>2015-02-09T19:24:50.546Z</time>
      </trkpt>
      <trkpt lat="48.8533" lon="2.34695">
        <ele>80.8</ele>
        <time>2015-02-09T19:24:52.569Z</time>
      </trkpt>
      <trkpt lat="48.85327" lon="2.34694">
        <ele>80.7</ele>
        <time>2015-02-09T19:24:53.591Z</time>
      </trkpt>
      <trkpt lat="48.85319" lon="2.34692">
        <ele>80.5</ele>
        <time>2015-02-09T19:24:56.558Z</time>
      </trkpt>
      <trkpt lat="48.85316" lon="2.34691">
        <ele>80.3</ele>
        <time>2015-02-09T19:24:57.552Z</time>
      </trkpt>
      <trkpt lat="48.85309" lon="2.34689">
        <ele>79.8</ele>
        <time>2015-02-09T19:25:01.593Z</time>
      </trkpt>
      <trkpt lat="48.85309" lon="2.34689">
        <ele>79.8</ele>
        <time>2015-02-09T19:25:02.607Z</time>
      </trkpt>
      <trkpt lat="48.85309" lon="2.34689">
        <ele>79.8</ele>
        <time>2015-02-09T19:25:25.597Z</time>
      </trkpt>
      <trkpt lat="48.85308" lon="2.34691">
        <ele>79.3</ele>
        <time>2015-02-09T19:25:26.619Z</time>
      </trkpt>
      <trkpt lat="48.85302" lon="2.34685">
        <ele>79.8</ele>
        <time>2015-02-09T19:25:30.563Z</time>
      </trkpt>
      <trkpt lat="48.853" lon="2.34683">
        <ele>80.1</ele>
        <time>2015-02-09T19:25:31.586Z</time>
      </trkpt>
      <trkpt lat="48.85294" lon="2.34674">
        <ele>80.4</ele>
        <time>2015-02-09T19:25:34.634Z</time>
      </trkpt>
      <trkpt lat="48.85291" lon="2.34672">
        <ele>80.5</ele>
        <time>2015-02-09T19:25:35.532Z</time>
      </trkpt>
      <trkpt lat="48.85284" lon="2.34664">
        <ele>80.8</ele>
        <time>2015-02-09T19:25:38.558Z</time>
      </trkpt>
      <trkpt lat="48.8528" lon="2.34662">
        <ele>80.9</ele>
        <time>2015-02-09T19:25:39.578Z</time>
      </trkpt>
      <trkpt lat="48.85273" lon="2.34657">
        <ele>81.1</ele>
        <time>2015-02-09T19:25:41.521Z</time>
      </trkpt>
      <trkpt lat="48.8527" lon="2.34655">
        <ele>81.2</ele>
        <time>2015-02-09T19:25:42.534Z</time>
      </trkpt>
      <trkpt lat="48.85263" lon="2.34652">
        <ele>80.9</ele>
        <time>2015-02-09T19:25:44.552Z</time>
      </trkpt>
      <trkpt lat="48.8526" lon="2.3465">
        <ele>80.9</ele>
        <time>2015-02-09T19:25:45.567Z</time>
      </trkpt>
      <trkpt lat="48.85255" lon="2.34645">
        <ele>80.9</ele>
        <time>2015-02-09T19:25:47.610Z</time>
      </trkpt>
      <trkpt lat="48.85252" lon="2.34642">
        <ele>80.8</ele>
        <time>2015-02-09T19:25:48.537Z</time>
      </trkpt>
      <trkpt lat="48.85248" lon="2.34639">
        <ele>80.6</ele>
        <time>2015-02-09T19:25:49.568Z</time>
      </trkpt>
      <trkpt lat="48.85243" lon="2.34636">
        <ele>80.7</ele>
        <time>2015-02-09T19:25:50.638Z</time>
      </trkpt>
      <trkpt lat="48.85237" lon="2.34632">
        <ele>80.9</ele>
        <time>2015-02-09T19:25:52.629Z</time>
      </trkpt>
      <trkpt lat="48.85235" lon="2.34628">
        <ele>80.9</ele>
        <time>2015-02-09T19:25:53.651Z</time>
      </trkpt>
      <trkpt lat="48.85228" lon="2.34623">
        <ele>81.4</ele>
        <time>2015-02-09T19:25:55.553Z</time>
      </trkpt>
      <trkpt lat="48.85223" lon="2.34621">
        <ele>82.1</ele>
        <time>2015-02-09T19:25:56.565Z</time>
      </trkpt>
      <trkpt lat="48.85215" lon="2.34617">
        <ele>82.9</ele>
        <time>2015-02-09T19:25:58.602Z</time>
      </trkpt>
      <trkpt lat="48.85211" lon="2.34614">
        <ele>83</ele>
        <time>2015-02-09T19:25:59.611Z</time>
      </trkpt>
      <trkpt lat="48.85203" lon="2.34609">
        <ele>83.4</ele>
        <time>2015-02-09T19:26:01.564Z</time>
      </trkpt>
      <trkpt lat="48.85199" lon="2.34608">
        <ele>83.6</ele>
        <time>2015-02-09T19:26:02.591Z</time>
      </trkpt>
      <trkpt lat="48.85192" lon="2.34601">
        <ele>83.9</ele>
        <time>2015-02-09T19:26:04.513Z</time>
      </trkpt>
      <trkpt lat="48.85189" lon="2.34599">
        <ele>84</ele>
        <time>2015-02-09T19:26:05.523Z</time>
      </trkpt>
      <trkpt lat="48.85181" lon="2.34593">
        <ele>84.3</ele>
        <time>2015-02-09T19:26:07.577Z</time>
      </trkpt>
      <trkpt lat="48.85178" lon="2.34591">
        <ele>84.4</ele>
        <time>2015-02-09T19:26:08.597Z</time>
      </trkpt>
      <trkpt lat="48.8517" lon="2.34587">
        <ele>84.5</ele>
        <time>2015-02-09T19:26:10.533Z</time>
      </trkpt>
      <trkpt lat="48.85166" lon="2.34586">
        <ele>84.6</ele>
        <time>2015-02-09T19:26:11.546Z</time>
      </trkpt>
      <trkpt lat="48.85158" lon="2.34584">
        <ele>84.5</ele>
        <time>2015-02-09T19:26:13.597Z</time>
      </trkpt>
      <trkpt lat="48.85155" lon="2.34583">
        <ele>84.4</ele>
        <time>2015-02-09T19:26:14.609Z</time>
      </trkpt>
      <trkpt lat="48.85148" lon="2.34582">
        <ele>84.3</ele>
        <time>2015-02-09T19:26:16.517Z</time>
      </trkpt>
      <trkpt lat="48.85145" lon="2.34581">
        <ele>84.2</ele>
        <time>2015-02-09T19:26:17.542Z</time>
      </trkpt>
      <trkpt lat="48.8514" lon="2.34577">
        <ele>83.9</ele>
        <time>2015-02-09T19:26:19.536Z</time>
      </trkpt>
      <trkpt lat="48.85136" lon="2.34577">
        <ele>83.8</ele>
        <time>2015-02-09T19:26:20.576Z</time>
      </trkpt>
      <trkpt lat="48.85131" lon="2.34573">
        <ele>83.8</ele>
        <time>2015-02-09T19:26:22.608Z</time>
      </trkpt>
      <trkpt lat="48.85126" lon="2.34567">
        <ele>84.1</ele>
        <time>2015-02-09T19:26:24.516Z</time>
      </trkpt>
      <trkpt lat="48.85121" lon="2.3456">
        <ele>84.6</ele>
        <time>2015-02-09T19:26:26.567Z</time>
      </trkpt>
      <trkpt lat="48.85118" lon="2.34557">
        <ele>84.9</ele>
        <time>2015-02-09T19:26:27.579Z</time>
      </trkpt>
      <trkpt lat="48.85112" lon="2.34552">
        <ele>85.6</ele>
        <time>2015-02-09T19:26:30.568Z</time>
      </trkpt>
      <trkpt lat="48.85109" lon="2.34551">
        <ele>85.9</ele>
        <time>2015-02-09T19:26:31.578Z</time>
      </trkpt>
      <trkpt lat="48.85101" lon="2.34552">
        <ele>87.4</ele>
        <time>2015-02-09T19:26:39.561Z</time>
      </trkpt>
      <trkpt lat="48.851" lon="2.34552">
        <ele>87.7</ele>
        <time>2015-02-09T19:26:40.569Z</time>
      </trkpt>
      <trkpt lat="48.85093" lon="2.34552">
        <ele>88.8</ele>
        <time>2015-02-09T19:26:58.592Z</time>
      </trkpt>
      <trkpt lat="48.85091" lon="2.34551">
        <ele>90.1</ele>
        <time>2015-02-09T19:26:59.626Z</time>
      </trkpt>
      <trkpt lat="48.85086" lon="2.34542">
        <ele>91</ele>
        <time>2015-02-09T19:27:11.500Z</time>
      </trkpt>
      <trkpt lat="48.85083" lon="2.3454">
        <ele>91.1</ele>
        <time>2015-02-09T19:27:12.575Z</time>
      </trkpt>
      <trkpt lat="48.85076" lon="2.34536">
        <ele>91.4</ele>
        <time>2015-02-09T19:27:14.515Z</time>
      </trkpt>
      <trkpt lat="48.85073" lon="2.34534">
        <ele>91.6</ele>
        <time>2015-02-09T19:27:15.532Z</time>
      </trkpt>
      <trkpt lat="48.85065" lon="2.34532">
        <ele>92.9</ele>
        <time>2015-02-09T19:27:17.569Z</time>
      </trkpt>
      <trkpt lat="48.85064" lon="2.3453">
        <ele>93.2</ele>
        <time>2015-02-09T19:27:18.582Z</time>
      </trkpt>
      <trkpt lat="48.85062" lon="2.34537">
        <ele>94.8</ele>
        <time>2015-02-09T19:27:29.530Z</time>
      </trkpt>
      <trkpt lat="48.8506" lon="2.34542">
        <ele>94.7</ele>
        <time>2015-02-09T19:27:30.541Z</time>
      </trkpt>
      <trkpt lat="48.85056" lon="2.34551">
        <ele>94.8</ele>
        <time>2015-02-09T19:27:32.594Z</time>
      </trkpt>
      <trkpt lat="48.85053" lon="2.34556">
        <ele>94.9</ele>
        <time>2015-02-09T19:27:33.499Z</time>
      </trkpt>
      <trkpt lat="48.85045" lon="2.34563">
        <ele>95.2</ele>
        <time>2015-02-09T19:27:35.588Z</time>
      </trkpt>
      <trkpt lat="48.85042" lon="2.34568">
        <ele>95.2</ele>
        <time>2015-02-09T19:27:36.602Z</time>
      </trkpt>
      <trkpt lat="48.85035" lon="2.34576">
        <ele>95.5</ele>
        <time>2015-02-09T19:27:38.537Z</time>
      </trkpt>
      <trkpt lat="48.85033" lon="2.34582">
        <ele>95.8</ele>
        <time>2015-02-09T19:27:39.556Z</time>
      </trkpt>
      <trkpt lat="48.85025" lon="2.34587">
        <ele>96.4</ele>
        <time>2015-02-09T19:27:42.558Z</time>
      </trkpt>
      <trkpt lat="48.85023" lon="2.34589">
        <ele>96.5</ele>
        <time>2015-02-09T19:27:43.657Z</time>
      </trkpt>
      <trkpt lat="48.85016" lon="2.34596">
        <ele>96.6</ele>
        <time>2015-02-09T19:27:47.580Z</time>
      </trkpt>
      <trkpt lat="48.85015" lon="2.34597">
        <ele>96.6</ele>
        <time>2015-02-09T19:27:48.591Z</time>
      </trkpt>
      <trkpt lat="48.85014" lon="2.34603">
        <ele>96.7</ele>
        <time>2015-02-09T19:27:50.573Z</time>
      </trkpt>
      <trkpt lat="48.8501" lon="2.34609">
        <ele>97.1</ele>
        <time>2015-02-09T19:27:51.583Z</time>
      </trkpt>
      <trkpt lat="48.85004" lon="2.34617">
        <ele>97</ele>
        <time>2015-02-09T19:27:53.534Z</time>
      </trkpt>
      <trkpt lat="48.84998" lon="2.3462">
        <ele>96.9</ele>
        <time>2015-02-09T19:27:54.564Z</time>
      </trkpt>
      <trkpt lat="48.84994" lon="2.34624">
        <ele>96.8</ele>
        <time>2015-02-09T19:27:55.596Z</time>
      </trkpt>
      <trkpt lat="48.8499" lon="2.34628">
        <ele>96.7</ele>
        <time>2015-02-09T19:27:56.640Z</time>
      </trkpt>
      <trkpt lat="48.84986" lon="2.34633">
        <ele>96.5</ele>
        <time>2015-02-09T19:27:57.522Z</time>
      </trkpt>
      <trkpt lat="48.84982" lon="2.34639">
        <ele>96.4</ele>
        <time>2015-02-09T19:27:58.528Z</time>
      </trkpt>
      <trkpt lat="48.84979" lon="2.34644">
        <ele>96.3</ele>
        <time>2015-02-09T19:27:59.546Z</time>
      </trkpt>
      <trkpt lat="48.84976" lon="2.34651">
        <ele>96.3</ele>
        <time>2015-02-09T19:28:00.583Z</time>
      </trkpt>
      <trkpt lat="48.84972" lon="2.34658">
        <ele>96.3</ele>
        <time>2015-02-09T19:28:01.608Z</time>
      </trkpt>
      <trkpt lat="48.84958" lon="2.34675">
        <ele>98.1</ele>
        <time>2015-02-09T19:28:03.643Z</time>
      </trkpt>
      <trkpt lat="48.84957" lon="2.34687">
        <ele>98.3</ele>
        <time>2015-02-09T19:28:05.513Z</time>
      </trkpt>
      <trkpt lat="48.84956" lon="2.3469">
        <ele>98.2</ele>
        <time>2015-02-09T19:28:06.528Z</time>
      </trkpt>
      <trkpt lat="48.84954" lon="2.34691">
        <ele>98.5</ele>
        <time>2015-02-09T19:28:09.513Z</time>
      </trkpt>
      <trkpt lat="48.84954" lon="2.34691">
        <ele>98.7</ele>
        <time>2015-02-09T19:28:10.606Z</time>
      </trkpt>
      <trkpt lat="48.84954" lon="2.34692">
        <ele>99</ele>
        <time>2015-02-09T19:28:11.505Z</time>
      </trkpt>
      <trkpt lat="48.84951" lon="2.34679">
        <ele>97.9</ele>
        <time>2015-02-09T19:28:36.508Z</time>
      </trkpt>
      <trkpt lat="48.8495" lon="2.34679">
        <ele>97.7</ele>
        <time>2015-02-09T19:28:37.537Z</time>
      </trkpt>
      <trkpt lat="48.84948" lon="2.3468">
        <ele>97.6</ele>
        <time>2015-02-09T19:28:39.550Z</time>
      </trkpt>
      <trkpt lat="48.84947" lon="2.34679">
        <ele>97.4</ele>
        <time>2015-02-09T19:28:40.558Z</time>
      </trkpt>
      <trkpt lat="48.84945" lon="2.34677">
        <ele>97.1</ele>
        <time>2015-02-09T19:28:41.565Z</time>
      </trkpt>
      <trkpt lat="48.84944" lon="2.34676">
        <ele>96.8</ele>
        <time>2015-02-09T19:28:42.565Z</time>
      </trkpt>
      <trkpt lat="48.84942" lon="2.34676">
        <ele>96.7</ele>
        <time>2015-02-09T19:28:43.574Z</time>
      </trkpt>
      <trkpt lat="48.84941" lon="2.34675">
        <ele>96.6</ele>
        <time>2015-02-09T19:28:44.584Z</time>
      </trkpt>
      <trkpt lat="48.8494" lon="2.34676">
        <ele>96.6</ele>
        <time>2015-02-09T19:28:45.595Z</time>
      </trkpt>
      <trkpt lat="48.84931" lon="2.34674">
        <ele>96.1</ele>
        <time>2015-02-09T19:28:51.441Z</time>
      </trkpt>
      <trkpt lat="48.8493" lon="2.34673">
        <ele>95.9</ele>
        <time>2015-02-09T19:28:51.533Z</time>
      </trkpt>
      <trkpt lat="48.84924" lon="2.34667">
        <ele>95.2</ele>
        <time>2015-02-09T19:28:56.558Z</time>
      </trkpt>
      <trkpt lat="48.84922" lon="2.34665">
        <ele>95.3</ele>
        <time>2015-02-09T19:28:57.666Z</time>
      </trkpt>
      <trkpt lat="48.84916" lon="2.34661">
        <ele>95.2</ele>
        <time>2015-02-09T19:28:59.526Z</time>
      </trkpt>
      <trkpt lat="48.84914" lon="2.34658">
        <ele>95.2</ele>
        <time>2015-02-09T19:29:00.534Z</time>
      </trkpt>
      <trkpt lat="48.84908" lon="2.34657">
        <ele>95.4</ele>
        <time>2015-02-09T19:29:02.530Z</time>
      </trkpt>
      <trkpt lat="48.84905" lon="2.34657">
        <ele>95.6</ele>
        <time>2015-02-09T19:29:03.542Z</time>
      </trkpt>
      <trkpt lat="48.84898" lon="2.34653">
        <ele>97</ele>
        <time>2015-02-09T19:29:06.660Z</time>
      </trkpt>
      <trkpt lat="48.84896" lon="2.34652">
        <ele>97.6</ele>
        <time>2015-02-09T19:29:07.581Z</time>
      </trkpt>
      <trkpt lat="48.84888" lon="2.34646">
        <ele>99</ele>
        <time>2015-02-09T19:29:10.547Z</time>
      </trkpt>
      <trkpt lat="48.84886" lon="2.34645">
        <ele>99.3</ele>
        <time>2015-02-09T19:29:11.591Z</time>
      </trkpt>
      <trkpt lat="48.84884" lon="2.34649">
        <ele>99.5</ele>
        <time>2015-02-09T19:29:20.583Z</time>
      </trkpt>
      <trkpt lat="48.8483" lon="2.34724">
        <ele>92.9</ele>
        <time>2015-02-09T19:30:09.535Z</time>
      </trkpt>
      <trkpt lat="48.84824" lon="2.34725">
        <ele>93.2</ele>
        <time>2015-02-09T19:30:10.546Z</time>
      </trkpt>
      <trkpt lat="48.84821" lon="2.34728">
        <ele>93</ele>
        <time>2015-02-09T19:30:11.557Z</time>
      </trkpt>
      <trkpt lat="48.84814" lon="2.34732">
        <ele>93.6</ele>
        <time>2015-02-09T19:30:13.680Z</time>
      </trkpt>
      <trkpt lat="48.84812" lon="2.34735">
        <ele>93.5</ele>
        <time>2015-02-09T19:30:14.586Z</time>
      </trkpt>
      <trkpt lat="48.84806" lon="2.34741">
        <ele>93.4</ele>
        <time>2015-02-09T19:30:17.522Z</time>
      </trkpt>
      <trkpt lat="48.84802" lon="2.34742">
        <ele>93.5</ele>
        <time>2015-02-09T19:30:18.518Z</time>
      </trkpt>
      <trkpt lat="48.84794" lon="2.34744">
        <ele>93.6</ele>
        <time>2015-02-09T19:30:21.557Z</time>
      </trkpt>
      <trkpt lat="48.84791" lon="2.34745">
        <ele>93.6</ele>
        <time>2015-02-09T19:30:22.569Z</time>
      </trkpt>
      <trkpt lat="48.84784" lon="2.34748">
        <ele>93.4</ele>
        <time>2015-02-09T19:30:24.597Z</time>
      </trkpt>
      <trkpt lat="48.8478" lon="2.34752">
        <ele>93.3</ele>
        <time>2015-02-09T19:30:25.614Z</time>
      </trkpt>
      <trkpt lat="48.84774" lon="2.34761">
        <ele>93.3</ele>
        <time>2015-02-09T19:30:27.995Z</time>
      </trkpt>
      <trkpt lat="48.84771" lon="2.34765">
        <ele>93.2</ele>
        <time>2015-02-09T19:30:28.558Z</time>
      </trkpt>
      <trkpt lat="48.84765" lon="2.34772">
        <ele>93</ele>
        <time>2015-02-09T19:30:30.600Z</time>
      </trkpt>
      <trkpt lat="48.84761" lon="2.34776">
        <ele>93.2</ele>
        <time>2015-02-09T19:30:31.614Z</time>
      </trkpt>
      <trkpt lat="48.84755" lon="2.34785">
        <ele>93.7</ele>
        <time>2015-02-09T19:30:33.515Z</time>
      </trkpt>
      <trkpt lat="48.84753" lon="2.3479">
        <ele>94</ele>
        <time>2015-02-09T19:30:34.562Z</time>
      </trkpt>
      <trkpt lat="48.8475" lon="2.34799">
        <ele>93.9</ele>
        <time>2015-02-09T19:30:36.477Z</time>
      </trkpt>
      <trkpt lat="48.84749" lon="2.34803">
        <ele>93.9</ele>
        <time>2015-02-09T19:30:37.522Z</time>
      </trkpt>
      <trkpt lat="48.84746" lon="2.34816">
        <ele>94.1</ele>
        <time>2015-02-09T19:30:43.175Z</time>
      </trkpt>
      <trkpt lat="48.84746" lon="2.34817">
        <ele>94.3</ele>
        <time>2015-02-09T19:30:43.632Z</time>
      </trkpt>
      <trkpt lat="48.84744" lon="2.34816">
        <ele>94.8</ele>
        <time>2015-02-09T19:30:46.599Z</time>
      </trkpt>
      <trkpt lat="48.84743" lon="2.34816">
        <ele>95.1</ele>
        <time>2015-02-09T19:30:47.543Z</time>
      </trkpt>
      <trkpt lat="48.84743" lon="2.34816">
        <ele>95.1</ele>
        <time>2015-02-09T19:30:48.183Z</time>
      </trkpt>
      <trkpt lat="48.84743" lon="2.34815">
        <ele>95.7</ele>
        <time>2015-02-09T19:30:48.523Z</time>
      </trkpt>
      <trkpt lat="48.84734" lon="2.34814">
        <ele>96.8</ele>
        <time>2015-02-09T19:30:53.240Z</time>
      </trkpt>
      <trkpt lat="48.84731" lon="2.34814">
        <ele>96.9</ele>
        <time>2015-02-09T19:30:53.523Z</time>
      </trkpt>
      <trkpt lat="48.84728" lon="2.34813">
        <ele>97</ele>
        <time>2015-02-09T19:30:54.538Z</time>
      </trkpt>
      <trkpt lat="48.8469" lon="2.34804">
        <ele>96.1</ele>
        <time>2015-02-09T19:31:09.585Z</time>
      </trkpt>
      <trkpt lat="48.84656" lon="2.34883">
        <ele>92.6</ele>
        <time>2015-02-09T19:31:36.499Z</time>
      </trkpt>
      <trkpt lat="48.84652" lon="2.34892">
        <ele>89.6</ele>
        <time>2015-02-09T19:31:40.565Z</time>
      </trkpt>
      <trkpt lat="48.8465" lon="2.34894">
        <ele>91.1</ele>
        <time>2015-02-09T19:31:41.581Z</time>
      </trkpt>
      <trkpt lat="48.84642" lon="2.34896">
        <ele>97.8</ele>
        <time>2015-02-09T19:31:44.544Z</time>
      </trkpt>
      <trkpt lat="48.84637" lon="2.34893">
        <ele>102.7</ele>
        <time>2015-02-09T19:31:45.549Z</time>
      </trkpt>
      <trkpt lat="48.84629" lon="2.34896">
        <ele>110.2</ele>
        <time>2015-02-09T19:31:49.566Z</time>
      </trkpt>
      <trkpt lat="48.84628" lon="2.34898">
        <ele>111</ele>
        <time>2015-02-09T19:31:50.637Z</time>
      </trkpt>
      <trkpt lat="48.84621" lon="2.34903">
        <ele>118.1</ele>
        <time>2015-02-09T19:31:55.536Z</time>
      </trkpt>
      <trkpt lat="48.8462" lon="2.34905">
        <ele>117.3</ele>
        <time>2015-02-09T19:31:56.551Z</time>
      </trkpt>
      <trkpt lat="48.84622" lon="2.34908">
        <ele>117.6</ele>
        <time>2015-02-09T19:32:03.651Z</time>
      </trkpt>
      <trkpt lat="48.84622" lon="2.34907">
        <ele>117.3</ele>
        <time>2015-02-09T19:32:03.694Z</time>
      </trkpt>
      <trkpt lat="48.84621" lon="2.34906">
        <ele>117</ele>
        <time>2015-02-09T19:32:04.520Z</time>
      </trkpt>
      <trkpt lat="48.8462" lon="2.34906">
        <ele>117</ele>
        <time>2015-02-09T19:32:05.515Z</time>
      </trkpt>
      <trkpt lat="48.8462" lon="2.34906">
        <ele>117.9</ele>
        <time>2015-02-09T19:32:06.509Z</time>
      </trkpt>
      <trkpt lat="48.84619" lon="2.34909">
        <ele>117.8</ele>
        <time>2015-02-09T19:32:07.544Z</time>
      </trkpt>
      <trkpt lat="48.8462" lon="2.34905">
        <ele>117.6</ele>
        <time>2015-02-09T19:32:13.874Z</time>
      </trkpt>
      <trkpt lat="48.8462" lon="2.34905">
        <ele>117.7</ele>
        <time>2015-02-09T19:32:14.514Z</time>
      </trkpt>
      <trkpt lat="48.8462" lon="2.34906">
        <ele>117.8</ele>
        <time>2015-02-09T19:32:15.522Z</time>
      </trkpt>
      <trkpt lat="48.84619" lon="2.34905">
        <ele>117.6</ele>
        <time>2015-02-09T19:32:19.570Z</time>
      </trkpt>
      <trkpt lat="48.84619" lon="2.34905">
        <ele>117.5</ele>
        <time>2015-02-09T19:32:20.580Z</time>
      </trkpt>
      <trkpt lat="48.84619" lon="2.34905">
        <ele>117.3</ele>
        <time>2015-02-09T19:32:21.591Z</time>
      </trkpt>
      <trkpt lat="48.84618" lon="2.34905">
        <ele>117.3</ele>
        <time>2015-02-09T19:32:23.589Z</time>
      </trkpt>
      <trkpt lat="48.84618" lon="2.34905">
        <ele>117.4</ele>
        <time>2015-02-09T19:32:24.517Z</time>
      </trkpt>
      <trkpt lat="48.84618" lon="2.34906">
        <ele>117.4</ele>
        <time>2015-02-09T19:32:51.548Z</time>
      </trkpt>
      <trkpt lat="48.84612" lon="2.34909">
        <ele>118.2</ele>
        <time>2015-02-09T19:32:52.612Z</time>
      </trkpt>
      <trkpt lat="48.84611" lon="2.34922">
        <ele>116.2</ele>
        <time>2015-02-09T19:33:00.516Z</time>
      </trkpt>
      <trkpt lat="48.84609" lon="2.34924">
        <ele>116.2</ele>
        <time>2015-02-09T19:33:01.552Z</time>
      </trkpt>
      <trkpt lat="48.84604" lon="2.34931">
        <ele>116.1</ele>
        <time>2015-02-09T19:33:04.610Z</time>
      </trkpt>
      <trkpt lat="48.84603" lon="2.34934">
        <ele>116</ele>
        <time>2015-02-09T19:33:05.524Z</time>
      </trkpt>
      <trkpt lat="48.84597" lon="2.34945">
        <ele>115.8</ele>
        <time>2015-02-09T19:33:08.541Z</time>
      </trkpt>
      <trkpt lat="48.84596" lon="2.34948">
        <ele>115.7</ele>
        <time>2015-02-09T19:33:09.569Z</time>
      </trkpt>
      <trkpt lat="48.84591" lon="2.34958">
        <ele>115.4</ele>
        <time>2015-02-09T19:33:12.554Z</time>
      </trkpt>
      <trkpt lat="48.84589" lon="2.34962">
        <ele>115.3</ele>
        <time>2015-02-09T19:33:13.582Z</time>
      </trkpt>
      <trkpt lat="48.84584" lon="2.34969">
        <ele>115.2</ele>
        <time>2015-02-09T19:33:15.559Z</time>
      </trkpt>
      <trkpt lat="48.84582" lon="2.34976">
        <ele>115.4</ele>
        <time>2015-02-09T19:33:16.600Z</time>
      </trkpt>
      <trkpt lat="48.8458" lon="2.34982">
        <ele>115.5</ele>
        <time>2015-02-09T19:33:17.501Z</time>
      </trkpt>
      <trkpt lat="48.84578" lon="2.34989">
        <ele>115.5</ele>
        <time>2015-02-09T19:33:18.515Z</time>
      </trkpt>
      <trkpt lat="48.84578" lon="2.34997">
        <ele>115.4</ele>
        <time>2015-02-09T19:33:19.580Z</time>
      </trkpt>
      <trkpt lat="48.84579" lon="2.35004">
        <ele>115.4</ele>
        <time>2015-02-09T19:33:20.586Z</time>
      </trkpt>
      <trkpt lat="48.84583" lon="2.35015">
        <ele>115.2</ele>
        <time>2015-02-09T19:33:22.479Z</time>
      </trkpt>
      <trkpt lat="48.84586" lon="2.35019">
        <ele>115</ele>
        <time>2015-02-09T19:33:23.502Z</time>
      </trkpt>
      <trkpt lat="48.84593" lon="2.35026">
        <ele>114.2</ele>
        <time>2015-02-09T19:33:24.522Z</time>
      </trkpt>
      <trkpt lat="48.84604" lon="2.35034">
        <ele>113</ele>
        <time>2015-02-09T19:33:25.540Z</time>
      </trkpt>
      <trkpt lat="48.84642" lon="2.35075">
        <ele>108.9</ele>
        <time>2015-02-09T19:33:31.546Z</time>
      </trkpt>
      <trkpt lat="48.84647" lon="2.35086">
        <ele>108.6</ele>
        <time>2015-02-09T19:33:33.572Z</time>
      </trkpt>
      <trkpt lat="48.84649" lon="2.3509">
        <ele>108.2</ele>
        <time>2015-02-09T19:33:34.496Z</time>
      </trkpt>
      <trkpt lat="48.84652" lon="2.35094">
        <ele>107.8</ele>
        <time>2015-02-09T19:33:35.517Z</time>
      </trkpt>
      <trkpt lat="48.84653" lon="2.35103">
        <ele>107</ele>
        <time>2015-02-09T19:33:36.533Z</time>
      </trkpt>
      <trkpt lat="48.84652" lon="2.35116">
        <ele>105.7</ele>
        <time>2015-02-09T19:33:37.548Z</time>
      </trkpt>
      <trkpt lat="48.84654" lon="2.35122">
        <ele>105.2</ele>
        <time>2015-02-09T19:33:38.553Z</time>
      </trkpt>
      <trkpt lat="48.84657" lon="2.35128">
        <ele>105.1</ele>
        <time>2015-02-09T19:33:39.466Z</time>
      </trkpt>
      <trkpt lat="48.8466" lon="2.35133">
        <ele>104.9</ele>
        <time>2015-02-09T19:33:40.485Z</time>
      </trkpt>
      <trkpt lat="48.84665" lon="2.35142">
        <ele>105.2</ele>
        <time>2015-02-09T19:33:42.529Z</time>
      </trkpt>
      <trkpt lat="48.84665" lon="2.35145">
        <ele>105.4</ele>
        <time>2015-02-09T19:33:43.559Z</time>
      </trkpt>
      <trkpt lat="48.84662" lon="2.35156">
        <ele>104.5</ele>
        <time>2015-02-09T19:33:46.510Z</time>
      </trkpt>
      <trkpt lat="48.84657" lon="2.3516">
        <ele>104.3</ele>
        <time>2015-02-09T19:33:47.510Z</time>
      </trkpt>
      <trkpt lat="48.84654" lon="2.35164">
        <ele>104.2</ele>
        <time>2015-02-09T19:33:48.552Z</time>
      </trkpt>
      <trkpt lat="48.84645" lon="2.35169">
        <ele>101</ele>
        <time>2015-02-09T19:33:49.563Z</time>
      </trkpt>
      <trkpt lat="48.84641" lon="2.35173">
        <ele>100.6</ele>
        <time>2015-02-09T19:33:50.575Z</time>
      </trkpt>
      <trkpt lat="48.84637" lon="2.35176">
        <ele>100.2</ele>
        <time>2015-02-09T19:33:51.588Z</time>
      </trkpt>
      <trkpt lat="48.84629" lon="2.35181">
        <ele>97.9</ele>
        <time>2015-02-09T19:33:52.500Z</time>
      </trkpt>
      <trkpt lat="48.84617" lon="2.35185">
        <ele>93.6</ele>
        <time>2015-02-09T19:33:53.508Z</time>
      </trkpt>
      <trkpt lat="48.84609" lon="2.3519">
        <ele>91.6</ele>
        <time>2015-02-09T19:33:54.513Z</time>
      </trkpt>
      <trkpt lat="48.84602" lon="2.35192">
        <ele>89.9</ele>
        <time>2015-02-09T19:33:55.528Z</time>
      </trkpt>
      <trkpt lat="48.84596" lon="2.35194">
        <ele>88.8</ele>
        <time>2015-02-09T19:33:56.592Z</time>
      </trkpt>
      <trkpt lat="48.84593" lon="2.35196">
        <ele>88.7</ele>
        <time>2015-02-09T19:33:57.498Z</time>
      </trkpt>
      <trkpt lat="48.84585" lon="2.352">
        <ele>89</ele>
        <time>2015-02-09T19:34:00.541Z</time>
      </trkpt>
      <trkpt lat="48.84582" lon="2.35202">
        <ele>89</ele>
        <time>2015-02-09T19:34:01.591Z</time>
      </trkpt>
      <trkpt lat="48.84575" lon="2.35206">
        <ele>89.2</ele>
        <time>2015-02-09T19:34:04.621Z</time>
      </trkpt>
      <trkpt lat="48.84573" lon="2.35207">
        <ele>89.2</ele>
        <time>2015-02-09T19:34:05.503Z</time>
      </trkpt>
      <trkpt lat="48.84565" lon="2.35211">
        <ele>88.8</ele>
        <time>2015-02-09T19:34:08.571Z</time>
      </trkpt>
      <trkpt lat="48.84562" lon="2.35213">
        <ele>88.9</ele>
        <time>2015-02-09T19:34:09.716Z</time>
      </trkpt>
      <trkpt lat="48.84554" lon="2.35219">
        <ele>88.8</ele>
        <time>2015-02-09T19:34:12.561Z</time>
      </trkpt>
      <trkpt lat="48.84551" lon="2.3522">
        <ele>88.7</ele>
        <time>2015-02-09T19:34:13.571Z</time>
      </trkpt>
      <trkpt lat="48.84542" lon="2.35223">
        <ele>88.6</ele>
        <time>2015-02-09T19:34:17.574Z</time>
      </trkpt>
      <trkpt lat="48.84539" lon="2.35224">
        <ele>88.6</ele>
        <time>2015-02-09T19:34:18.502Z</time>
      </trkpt>
      <trkpt lat="48.84532" lon="2.35227">
        <ele>88.6</ele>
        <time>2015-02-09T19:34:21.582Z</time>
      </trkpt>
      <trkpt lat="48.84529" lon="2.35227">
        <ele>88.6</ele>
        <time>2015-02-09T19:34:22.470Z</time>
      </trkpt>
      <trkpt lat="48.84522" lon="2.3523">
        <ele>88.4</ele>
        <time>2015-02-09T19:34:25.535Z</time>
      </trkpt>
      <trkpt lat="48.8452" lon="2.35232">
        <ele>88.4</ele>
        <time>2015-02-09T19:34:26.545Z</time>
      </trkpt>
      <trkpt lat="48.84514" lon="2.35235">
        <ele>88.4</ele>
        <time>2015-02-09T19:34:28.502Z</time>
      </trkpt>
      <trkpt lat="48.84511" lon="2.35236">
        <ele>88.5</ele>
        <time>2015-02-09T19:34:29.521Z</time>
      </trkpt>
      <trkpt lat="48.84502" lon="2.35238">
        <ele>88.5</ele>
        <time>2015-02-09T19:34:31.581Z</time>
      </trkpt>
      <trkpt lat="48.84495" lon="2.3524">
        <ele>87.9</ele>
        <time>2015-02-09T19:34:32.493Z</time>
      </trkpt>
      <trkpt lat="48.84489" lon="2.35242">
        <ele>87.6</ele>
        <time>2015-02-09T19:34:33.529Z</time>
      </trkpt>
      <trkpt lat="48.84485" lon="2.35244">
        <ele>87.5</ele>
        <time>2015-02-09T19:34:34.587Z</time>
      </trkpt>
      <trkpt lat="48.84479" lon="2.35246">
        <ele>87.6</ele>
        <time>2015-02-09T19:34:36.529Z</time>
      </trkpt>
      <trkpt lat="48.84475" lon="2.35247">
        <ele>87.7</ele>
        <time>2015-02-09T19:34:37.536Z</time>
      </trkpt>
      <trkpt lat="48.84469" lon="2.35248">
        <ele>87.9</ele>
        <time>2015-02-09T19:34:39.552Z</time>
      </trkpt>
      <trkpt lat="48.84466" lon="2.35249">
        <ele>87.9</ele>
        <time>2015-02-09T19:34:40.566Z</time>
      </trkpt>
      <trkpt lat="48.84458" lon="2.35252">
        <ele>87.6</ele>
        <time>2015-02-09T19:34:43.535Z</time>
      </trkpt>
      <trkpt lat="48.84456" lon="2.35254">
        <ele>87.4</ele>
        <time>2015-02-09T19:34:44.564Z</time>
      </trkpt>
      <trkpt lat="48.84448" lon="2.3526">
        <ele>88.4</ele>
        <time>2015-02-09T19:34:49.548Z</time>
      </trkpt>
      <trkpt lat="48.84447" lon="2.3526">
        <ele>88.7</ele>
        <time>2015-02-09T19:34:50.550Z</time>
      </trkpt>
      <trkpt lat="48.84443" lon="2.3527">
        <ele>88.9</ele>
        <time>2015-02-09T19:34:57.523Z</time>
      </trkpt>
      <trkpt lat="48.84442" lon="2.35273">
        <ele>88.9</ele>
        <time>2015-02-09T19:34:58.573Z</time>
      </trkpt>
      <trkpt lat="48.84442" lon="2.35274">
        <ele>89</ele>
        <time>2015-02-09T19:34:59.594Z</time>
      </trkpt>
      <trkpt lat="48.84442" lon="2.35274">
        <ele>89.1</ele>
        <time>2015-02-09T19:35:00.599Z</time>
      </trkpt>
      <trkpt lat="48.84441" lon="2.35275">
        <ele>89.2</ele>
        <time>2015-02-09T19:35:01.626Z</time>
      </trkpt>
      <trkpt lat="48.84438" lon="2.35284">
        <ele>89.5</ele>
        <time>2015-02-09T19:35:07.548Z</time>
      </trkpt>
      <trkpt lat="48.84437" lon="2.3529">
        <ele>90.4</ele>
        <time>2015-02-09T19:35:08.577Z</time>
      </trkpt>
      <trkpt lat="48.84438" lon="2.353">
        <ele>89.2</ele>
        <time>2015-02-09T19:35:10.505Z</time>
      </trkpt>
      <trkpt lat="48.84439" lon="2.35305">
        <ele>88.8</ele>
        <time>2015-02-09T19:35:11.616Z</time>
      </trkpt>
      <trkpt lat="48.84441" lon="2.35317">
        <ele>88.9</ele>
        <time>2015-02-09T19:35:14.603Z</time>
      </trkpt>
      <trkpt lat="48.84442" lon="2.35321">
        <ele>89.3</ele>
        <time>2015-02-09T19:35:15.613Z</time>
      </trkpt>
      <trkpt lat="48.84446" lon="2.35333">
        <ele>90.5</ele>
        <time>2015-02-09T19:35:20.506Z</time>
      </trkpt>
      <trkpt lat="48.84447" lon="2.35334">
        <ele>90.8</ele>
        <time>2015-02-09T19:35:21.528Z</time>
      </trkpt>
      <trkpt lat="48.84453" lon="2.35341">
        <ele>91.2</ele>
        <time>2015-02-09T19:35:24.588Z</time>
      </trkpt>
      <trkpt lat="48.84454" lon="2.35344">
        <ele>91.3</ele>
        <time>2015-02-09T19:35:25.606Z</time>
      </trkpt>
      <trkpt lat="48.84461" lon="2.35352">
        <ele>91.6</ele>
        <time>2015-02-09T19:35:28.520Z</time>
      </trkpt>
      <trkpt lat="48.84466" lon="2.35357">
        <ele>91</ele>
        <time>2015-02-09T19:35:29.577Z</time>
      </trkpt>
      <trkpt lat="48.8447" lon="2.35362">
        <ele>90.3</ele>
        <time>2015-02-09T19:35:30.500Z</time>
      </trkpt>
      <trkpt lat="48.84474" lon="2.35367">
        <ele>90</ele>
        <time>2015-02-09T19:35:31.544Z</time>
      </trkpt>
      <trkpt lat="48.8448" lon="2.35373">
        <ele>90.5</ele>
        <time>2015-02-09T19:35:33.503Z</time>
      </trkpt>
      <trkpt lat="48.84483" lon="2.35375">
        <ele>90.5</ele>
        <time>2015-02-09T19:35:34.511Z</time>
      </trkpt>
      <trkpt lat="48.84488" lon="2.35382">
        <ele>90.3</ele>
        <time>2015-02-09T19:35:36.547Z</time>
      </trkpt>
      <trkpt lat="48.84491" lon="2.35387">
        <ele>90.3</ele>
        <time>2015-02-09T19:35:37.558Z</time>
      </trkpt>
      <trkpt lat="48.84496" lon="2.35396">
        <ele>90.3</ele>
        <time>2015-02-09T19:35:39.552Z</time>
      </trkpt>
      <trkpt lat="48.84497" lon="2.35401">
        <ele>90.3</ele>
        <time>2015-02-09T19:35:40.508Z</time>
      </trkpt>
      <trkpt lat="48.84501" lon="2.35412">
        <ele>90.5</ele>
        <time>2015-02-09T19:35:42.541Z</time>
      </trkpt>
      <trkpt lat="48.84503" lon="2.35416">
        <ele>90.5</ele>
        <time>2015-02-09T19:35:43.567Z</time>
      </trkpt>
      <trkpt lat="48.84507" lon="2.35424">
        <ele>90.7</ele>
        <time>2015-02-09T19:35:45.509Z</time>
      </trkpt>
      <trkpt lat="48.84509" lon="2.35428">
        <ele>90.8</ele>
        <time>2015-02-09T19:35:46.516Z</time>
      </trkpt>
      <trkpt lat="48.84511" lon="2.3544">
        <ele>90.7</ele>
        <time>2015-02-09T19:35:49.595Z</time>
      </trkpt>
      <trkpt lat="48.8451" lon="2.35443">
        <ele>90.7</ele>
        <time>2015-02-09T19:35:50.523Z</time>
      </trkpt>
      <trkpt lat="48.84506" lon="2.35451">
        <ele>90.7</ele>
        <time>2015-02-09T19:35:54.518Z</time>
      </trkpt>
      <trkpt lat="48.84504" lon="2.35454">
        <ele>90.8</ele>
        <time>2015-02-09T19:35:55.552Z</time>
      </trkpt>
      <trkpt lat="48.84497" lon="2.35462">
        <ele>90</ele>
        <time>2015-02-09T19:36:00.544Z</time>
      </trkpt>
      <trkpt lat="48.84496" lon="2.35461">
        <ele>89.9</ele>
        <time>2015-02-09T19:36:01.566Z</time>
      </trkpt>
      <trkpt lat="48.8449" lon="2.35466">
        <ele>90.6</ele>
        <time>2015-02-09T19:36:04.549Z</time>
      </trkpt>
      <trkpt lat="48.84488" lon="2.35468">
        <ele>91.2</ele>
        <time>2015-02-09T19:36:05.572Z</time>
      </trkpt>
      <trkpt lat="48.8448" lon="2.35473">
        <ele>92.8</ele>
        <time>2015-02-09T19:36:08.579Z</time>
      </trkpt>
      <trkpt lat="48.84478" lon="2.35473">
        <ele>93.3</ele>
        <time>2015-02-09T19:36:09.506Z</time>
      </trkpt>
      <trkpt lat="48.84471" lon="2.35472">
        <ele>94.2</ele>
        <time>2015-02-09T19:36:12.570Z</time>
      </trkpt>
      <trkpt lat="48.84469" lon="2.35472">
        <ele>94.5</ele>
        <time>2015-02-09T19:36:13.587Z</time>
      </trkpt>
      <trkpt lat="48.84462" lon="2.35471">
        <ele>94.9</ele>
        <time>2015-02-09T19:36:16.477Z</time>
      </trkpt>
      <trkpt lat="48.84459" lon="2.35473">
        <ele>94.3</ele>
        <time>2015-02-09T19:36:17.502Z</time>
      </trkpt>
      <trkpt lat="48.84454" lon="2.35477">
        <ele>93.4</ele>
        <time>2015-02-09T19:36:19.535Z</time>
      </trkpt>
      <trkpt lat="48.84451" lon="2.35478">
        <ele>93.2</ele>
        <time>2015-02-09T19:36:20.544Z</time>
      </trkpt>
      <trkpt lat="48.84444" lon="2.3548">
        <ele>92.9</ele>
        <time>2015-02-09T19:36:22.481Z</time>
      </trkpt>
      <trkpt lat="48.8444" lon="2.35481">
        <ele>92.7</ele>
        <time>2015-02-09T19:36:23.513Z</time>
      </trkpt>
      <trkpt lat="48.84433" lon="2.35484">
        <ele>92.6</ele>
        <time>2015-02-09T19:36:25.538Z</time>
      </trkpt>
      <trkpt lat="48.8443" lon="2.35486">
        <ele>92.5</ele>
        <time>2015-02-09T19:36:26.549Z</time>
      </trkpt>
      <trkpt lat="48.84423" lon="2.35486">
        <ele>92.4</ele>
        <time>2015-02-09T19:36:28.588Z</time>
      </trkpt>
      <trkpt lat="48.84419" lon="2.35487">
        <ele>92.4</ele>
        <time>2015-02-09T19:36:29.623Z</time>
      </trkpt>
      <trkpt lat="48.84411" lon="2.35488">
        <ele>92.4</ele>
        <time>2015-02-09T19:36:32.548Z</time>
      </trkpt>
      <trkpt lat="48.84409" lon="2.35489">
        <ele>92.4</ele>
        <time>2015-02-09T19:36:33.558Z</time>
      </trkpt>
      <trkpt lat="48.84402" lon="2.35495">
        <ele>92.7</ele>
        <time>2015-02-09T19:36:37.535Z</time>
      </trkpt>
      <trkpt lat="48.84401" lon="2.35495">
        <ele>93</ele>
        <time>2015-02-09T19:36:38.583Z</time>
      </trkpt>
      <trkpt lat="48.84393" lon="2.3549">
        <ele>94.1</ele>
        <time>2015-02-09T19:36:42.544Z</time>
      </trkpt>
      <trkpt lat="48.84392" lon="2.35489">
        <ele>94.4</ele>
        <time>2015-02-09T19:36:43.588Z</time>
      </trkpt>
      <trkpt lat="48.84386" lon="2.35499">
        <ele>95.3</ele>
        <time>2015-02-09T19:36:49.551Z</time>
      </trkpt>
      <trkpt lat="48.84383" lon="2.35501">
        <ele>95.3</ele>
        <time>2015-02-09T19:36:50.674Z</time>
      </trkpt>
      <trkpt lat="48.84374" lon="2.35503">
        <ele>95.5</ele>
        <time>2015-02-09T19:36:52.509Z</time>
      </trkpt>
      <trkpt lat="48.84371" lon="2.35505">
        <ele>95.5</ele>
        <time>2015-02-09T19:36:53.522Z</time>
      </trkpt>
      <trkpt lat="48.84364" lon="2.35507">
        <ele>95.4</ele>
        <time>2015-02-09T19:36:55.597Z</time>
      </trkpt>
      <trkpt lat="48.84361" lon="2.35507">
        <ele>95.3</ele>
        <time>2015-02-09T19:36:56.523Z</time>
      </trkpt>
      <trkpt lat="48.84353" lon="2.35508">
        <ele>95.1</ele>
        <time>2015-02-09T19:36:58.528Z</time>
      </trkpt>
      <trkpt lat="48.84348" lon="2.35508">
        <ele>95</ele>
        <time>2015-02-09T19:36:59.555Z</time>
      </trkpt>
      <trkpt lat="48.84343" lon="2.35509">
        <ele>94.8</ele>
        <time>2015-02-09T19:37:00.588Z</time>
      </trkpt>
      <trkpt lat="48.84337" lon="2.35508">
        <ele>94.7</ele>
        <time>2015-02-09T19:37:01.605Z</time>
      </trkpt>
      <trkpt lat="48.84326" lon="2.35507">
        <ele>93.5</ele>
        <time>2015-02-09T19:37:02.506Z</time>
      </trkpt>
      <trkpt lat="48.84317" lon="2.35507">
        <ele>92.8</ele>
        <time>2015-02-09T19:37:03.510Z</time>
      </trkpt>
      <trkpt lat="48.84308" lon="2.35508">
        <ele>92.3</ele>
        <time>2015-02-09T19:37:04.519Z</time>
      </trkpt>
      <trkpt lat="48.84298" lon="2.35508">
        <ele>91.7</ele>
        <time>2015-02-09T19:37:05.601Z</time>
      </trkpt>
      <trkpt lat="48.8429" lon="2.35509">
        <ele>91.2</ele>
        <time>2015-02-09T19:37:06.503Z</time>
      </trkpt>
      <trkpt lat="48.84282" lon="2.35511">
        <ele>91.1</ele>
        <time>2015-02-09T19:37:07.533Z</time>
      </trkpt>
      <trkpt lat="48.84276" lon="2.35513">
        <ele>90.9</ele>
        <time>2015-02-09T19:37:08.532Z</time>
      </trkpt>
      <trkpt lat="48.8427" lon="2.35518">
        <ele>90.8</ele>
        <time>2015-02-09T19:37:09.537Z</time>
      </trkpt>
      <trkpt lat="48.84263" lon="2.35527">
        <ele>90.5</ele>
        <time>2015-02-09T19:37:10.543Z</time>
      </trkpt>
      <trkpt lat="48.8415" lon="2.35588">
        <ele>90.5</ele>
        <time>2015-02-09T19:37:29.508Z</time>
      </trkpt>
      <trkpt lat="48.84143" lon="2.3559">
        <ele>90.4</ele>
        <time>2015-02-09T19:37:31.558Z</time>
      </trkpt>
      <trkpt lat="48.84141" lon="2.35589">
        <ele>90.3</ele>
        <time>2015-02-09T19:37:32.574Z</time>
      </trkpt>
      <trkpt lat="48.84141" lon="2.35584">
        <ele>87.8</ele>
        <time>2015-02-09T19:37:37.547Z</time>
      </trkpt>
      <trkpt lat="48.84142" lon="2.35584">
        <ele>87.2</ele>
        <time>2015-02-09T19:37:38.570Z</time>
      </trkpt>
      <trkpt lat="48.84141" lon="2.35584">
        <ele>87</ele>
        <time>2015-02-09T19:37:39.587Z</time>
      </trkpt>
      <trkpt lat="48.84135" lon="2.35586">
        <ele>86.4</ele>
        <time>2015-02-09T19:37:43.578Z</time>
      </trkpt>
      <trkpt lat="48.84132" lon="2.35586">
        <ele>86.3</ele>
        <time>2015-02-09T19:37:44.597Z</time>
      </trkpt>
      <trkpt lat="48.84125" lon="2.35585">
        <ele>86.2</ele>
        <time>2015-02-09T19:37:46.504Z</time>
      </trkpt>
      <trkpt lat="48.84122" lon="2.35586">
        <ele>86.2</ele>
        <time>2015-02-09T19:37:47.544Z</time>
      </trkpt>
      <trkpt lat="48.84115" lon="2.35588">
        <ele>86.3</ele>
        <time>2015-02-09T19:37:50.572Z</time>
      </trkpt>
      <trkpt lat="48.84113" lon="2.35589">
        <ele>86.4</ele>
        <time>2015-02-09T19:37:51.588Z</time>
      </trkpt>
      <trkpt lat="48.84106" lon="2.35591">
        <ele>86.6</ele>
        <time>2015-02-09T19:37:54.519Z</time>
      </trkpt>
      <trkpt lat="48.84104" lon="2.35592">
        <ele>86.6</ele>
        <time>2015-02-09T19:37:55.594Z</time>
      </trkpt>
      <trkpt lat="48.84097" lon="2.35598">
        <ele>87.4</ele>
        <time>2015-02-09T19:38:01.574Z</time>
      </trkpt>
      <trkpt lat="48.84096" lon="2.35599">
        <ele>87.6</ele>
        <time>2015-02-09T19:38:02.582Z</time>
      </trkpt>
      <trkpt lat="48.84089" lon="2.35608">
        <ele>87.5</ele>
        <time>2015-02-09T19:38:10.520Z</time>
      </trkpt>
      <trkpt lat="48.84087" lon="2.3561">
        <ele>87.5</ele>
        <time>2015-02-09T19:38:11.547Z</time>
      </trkpt>
      <trkpt lat="48.8408" lon="2.35613">
        <ele>86.8</ele>
        <time>2015-02-09T19:38:12.554Z</time>
      </trkpt>
      <trkpt lat="48.84074" lon="2.35614">
        <ele>86.7</ele>
        <time>2015-02-09T19:38:13.562Z</time>
      </trkpt>
      <trkpt lat="48.84068" lon="2.35618">
        <ele>86.5</ele>
        <time>2015-02-09T19:38:14.599Z</time>
      </trkpt>
      <trkpt lat="48.84063" lon="2.35622">
        <ele>86.4</ele>
        <time>2015-02-09T19:38:15.502Z</time>
      </trkpt>
      <trkpt lat="48.84053" lon="2.35627">
        <ele>85.7</ele>
        <time>2015-02-09T19:38:16.553Z</time>
      </trkpt>
      <trkpt lat="48.84048" lon="2.35631">
        <ele>85.6</ele>
        <time>2015-02-09T19:38:17.558Z</time>
      </trkpt>
      <trkpt lat="48.84044" lon="2.35634">
        <ele>85.5</ele>
        <time>2015-02-09T19:38:18.560Z</time>
      </trkpt>
      <trkpt lat="48.84037" lon="2.35639">
        <ele>85.4</ele>
        <time>2015-02-09T19:38:20.503Z</time>
      </trkpt>
      <trkpt lat="48.84035" lon="2.35641">
        <ele>85.4</ele>
        <time>2015-02-09T19:38:21.580Z</time>
      </trkpt>
      <trkpt lat="48.84028" lon="2.3565">
        <ele>85.3</ele>
        <time>2015-02-09T19:38:27.513Z</time>
      </trkpt>
      <trkpt lat="48.84027" lon="2.3565">
        <ele>85.4</ele>
        <time>2015-02-09T19:38:28.516Z</time>
      </trkpt>
      <trkpt lat="48.84026" lon="2.35651">
        <ele>85.3</ele>
        <time>2015-02-09T19:38:29.526Z</time>
      </trkpt>
      <trkpt lat="48.84025" lon="2.35652">
        <ele>85.4</ele>
        <time>2015-02-09T19:38:30.550Z</time>
      </trkpt>
      <trkpt lat="48.84024" lon="2.35653">
        <ele>85.3</ele>
        <time>2015-02-09T19:38:31.598Z</time>
      </trkpt>
      <trkpt lat="48.84023" lon="2.35653">
        <ele>85.6</ele>
        <time>2015-02-09T19:38:32.499Z</time>
      </trkpt>
      <trkpt lat="48.84016" lon="2.35659">
        <ele>88</ele>
        <time>2015-02-09T19:38:35.608Z</time>
      </trkpt>
      <trkpt lat="48.84014" lon="2.35661">
        <ele>88.7</ele>
        <time>2015-02-09T19:38:36.542Z</time>
      </trkpt>
      <trkpt lat="48.84008" lon="2.3567">
        <ele>90</ele>
        <time>2015-02-09T19:38:39.523Z</time>
      </trkpt>
      <trkpt lat="48.84006" lon="2.35673">
        <ele>90.5</ele>
        <time>2015-02-09T19:38:40.533Z</time>
      </trkpt>
      <trkpt lat="48.83998" lon="2.35679">
        <ele>91.4</ele>
        <time>2015-02-09T19:38:44.614Z</time>
      </trkpt>
      <trkpt lat="48.83997" lon="2.3568">
        <ele>91.6</ele>
        <time>2015-02-09T19:38:45.579Z</time>
      </trkpt>
      <trkpt lat="48.83994" lon="2.35686">
        <ele>91.7</ele>
        <time>2015-02-09T19:38:48.585Z</time>
      </trkpt>
      <trkpt lat="48.83992" lon="2.35694">
        <ele>91.3</ele>
        <time>2015-02-09T19:38:50.519Z</time>
      </trkpt>
      <trkpt lat="48.83992" lon="2.35707">
        <ele>91</ele>
        <time>2015-02-09T19:38:53.564Z</time>
      </trkpt>
      <trkpt lat="48.83992" lon="2.35712">
        <ele>90.8</ele>
        <time>2015-02-09T19:38:54.514Z</time>
      </trkpt>
      <trkpt lat="48.83991" lon="2.35723">
        <ele>90.6</ele>
        <time>2015-02-09T19:38:56.539Z</time>
      </trkpt>
      <trkpt lat="48.83991" lon="2.35729">
        <ele>90.5</ele>
        <time>2015-02-09T19:38:57.565Z</time>
      </trkpt>
      <trkpt lat="48.83991" lon="2.35739">
        <ele>90.4</ele>
        <time>2015-02-09T19:38:59.608Z</time>
      </trkpt>
      <trkpt lat="48.83991" lon="2.35745">
        <ele>90.2</ele>
        <time>2015-02-09T19:39:00.544Z</time>
      </trkpt>
      <trkpt lat="48.83992" lon="2.35754">
        <ele>90</ele>
        <time>2015-02-09T19:39:02.574Z</time>
      </trkpt>
      <trkpt lat="48.83993" lon="2.35759">
        <ele>90</ele>
        <time>2015-02-09T19:39:03.593Z</time>
      </trkpt>
      <trkpt lat="48.83992" lon="2.3577">
        <ele>89.9</ele>
        <time>2015-02-09T19:39:06.529Z</time>
      </trkpt>
      <trkpt lat="48.83991" lon="2.35774">
        <ele>89.9</ele>
        <time>2015-02-09T19:39:07.566Z</time>
      </trkpt>
      <trkpt lat="48.83991" lon="2.35786">
        <ele>90.7</ele>
        <time>2015-02-09T19:39:10.528Z</time>
      </trkpt>
      <trkpt lat="48.83991" lon="2.35791">
        <ele>91.1</ele>
        <time>2015-02-09T19:39:11.534Z</time>
      </trkpt>
      <trkpt lat="48.83992" lon="2.358">
        <ele>91.8</ele>
        <time>2015-02-09T19:39:13.555Z</time>
      </trkpt>
      <trkpt lat="48.83994" lon="2.35805">
        <ele>92.1</ele>
        <time>2015-02-09T19:39:14.562Z</time>
      </trkpt>
      <trkpt lat="48.83994" lon="2.35815">
        <ele>92.8</ele>
        <time>2015-02-09T19:39:16.511Z</time>
      </trkpt>
      <trkpt lat="48.83995" lon="2.35822">
        <ele>93</ele>
        <time>2015-02-09T19:39:17.525Z</time>
      </trkpt>
      <trkpt lat="48.83995" lon="2.35828">
        <ele>93.1</ele>
        <time>2015-02-09T19:39:18.551Z</time>
      </trkpt>
      <trkpt lat="48.83992" lon="2.35912">
        <ele>92.8</ele>
        <time>2015-02-09T19:39:31.596Z</time>
      </trkpt>
      <trkpt lat="48.83993" lon="2.35919">
        <ele>92.5</ele>
        <time>2015-02-09T19:39:32.479Z</time>
      </trkpt>
      <trkpt lat="48.83995" lon="2.35927">
        <ele>92.2</ele>
        <time>2015-02-09T19:39:33.494Z</time>
      </trkpt>
      <trkpt lat="48.83997" lon="2.35939">
        <ele>91.8</ele>
        <time>2015-02-09T19:39:35.532Z</time>
      </trkpt>
      <trkpt lat="48.83997" lon="2.35944">
        <ele>91.8</ele>
        <time>2015-02-09T19:39:36.539Z</time>
      </trkpt>
      <trkpt lat="48.83996" lon="2.35953">
        <ele>91.6</ele>
        <time>2015-02-09T19:39:39.421Z</time>
      </trkpt>
      <trkpt lat="48.83993" lon="2.35958">
        <ele>91.5</ele>
        <time>2015-02-09T19:39:39.500Z</time>
      </trkpt>
      <trkpt lat="48.83987" lon="2.35966">
        <ele>91.3</ele>
        <time>2015-02-09T19:39:41.511Z</time>
      </trkpt>
      <trkpt lat="48.83984" lon="2.3597">
        <ele>91.1</ele>
        <time>2015-02-09T19:39:42.516Z</time>
      </trkpt>
      <trkpt lat="48.83978" lon="2.35977">
        <ele>90.8</ele>
        <time>2015-02-09T19:39:44.569Z</time>
      </trkpt>
      <trkpt lat="48.83976" lon="2.35981">
        <ele>90.6</ele>
        <time>2015-02-09T19:39:45.609Z</time>
      </trkpt>
      <trkpt lat="48.83972" lon="2.35988">
        <ele>90.3</ele>
        <time>2015-02-09T19:39:48.405Z</time>
      </trkpt>
      <trkpt lat="48.83971" lon="2.35993">
        <ele>90</ele>
        <time>2015-02-09T19:39:48.531Z</time>
      </trkpt>
      <trkpt lat="48.83966" lon="2.36001">
        <ele>89.5</ele>
        <time>2015-02-09T19:39:50.524Z</time>
      </trkpt>
      <trkpt lat="48.83966" lon="2.36006">
        <ele>90.4</ele>
        <time>2015-02-09T19:39:51.540Z</time>
      </trkpt>
      <trkpt lat="48.8396" lon="2.36011">
        <ele>90.6</ele>
        <time>2015-02-09T19:39:53.583Z</time>
      </trkpt>
      <trkpt lat="48.83957" lon="2.36015">
        <ele>90.4</ele>
        <time>2015-02-09T19:39:54.505Z</time>
      </trkpt>
      <trkpt lat="48.83949" lon="2.36021">
        <ele>90.7</ele>
        <time>2015-02-09T19:39:56.536Z</time>
      </trkpt>
      <trkpt lat="48.83948" lon="2.36025">
        <ele>91.4</ele>
        <time>2015-02-09T19:39:57.558Z</time>
      </trkpt>
      <trkpt lat="48.83941" lon="2.36032">
        <ele>92.3</ele>
        <time>2015-02-09T19:39:59.516Z</time>
      </trkpt>
      <trkpt lat="48.83938" lon="2.36036">
        <ele>92.6</ele>
        <time>2015-02-09T19:40:00.538Z</time>
      </trkpt>
      <trkpt lat="48.83938" lon="2.36046">
        <ele>93</ele>
        <time>2015-02-09T19:40:02.585Z</time>
      </trkpt>
      <trkpt lat="48.83941" lon="2.3605">
        <ele>93.4</ele>
        <time>2015-02-09T19:40:03.624Z</time>
      </trkpt>
      <trkpt lat="48.83944" lon="2.36056">
        <ele>93.4</ele>
        <time>2015-02-09T19:40:04.486Z</time>
      </trkpt>
      <trkpt lat="48.83951" lon="2.36063">
        <ele>94.3</ele>
        <time>2015-02-09T19:40:05.523Z</time>
      </trkpt>
      <trkpt lat="48.83954" lon="2.36071">
        <ele>93.3</ele>
        <time>2015-02-09T19:40:06.571Z</time>
      </trkpt>
      <trkpt lat="48.8396" lon="2.36076">
        <ele>94.5</ele>
        <time>2015-02-09T19:40:07.577Z</time>
      </trkpt>
      <trkpt lat="48.83965" lon="2.36081">
        <ele>95.2</ele>
        <time>2015-02-09T19:40:09.442Z</time>
      </trkpt>
      <trkpt lat="48.83968" lon="2.36087">
        <ele>95.8</ele>
        <time>2015-02-09T19:40:09.586Z</time>
      </trkpt>
      <trkpt lat="48.83982" lon="2.36097">
        <ele>96.9</ele>
        <time>2015-02-09T19:40:10.602Z</time>
      </trkpt>
      <trkpt lat="48.83994" lon="2.36106">
        <ele>97.9</ele>
        <time>2015-02-09T19:40:11.495Z</time>
      </trkpt>
      <trkpt lat="48.83996" lon="2.36114">
        <ele>97</ele>
        <time>2015-02-09T19:40:12.546Z</time>
      </trkpt>
      <trkpt lat="48.84014" lon="2.3613">
        <ele>89.4</ele>
        <time>2015-02-09T19:40:13.569Z</time>
      </trkpt>
      <trkpt lat="48.84025" lon="2.36143">
        <ele>83.4</ele>
        <time>2015-02-09T19:40:14.572Z</time>
      </trkpt>
      <trkpt lat="48.84029" lon="2.36151">
        <ele>80.6</ele>
        <time>2015-02-09T19:40:17.959Z</time>
      </trkpt>
      <trkpt lat="48.84034" lon="2.36161">
        <ele>78.9</ele>
        <time>2015-02-09T19:40:18.543Z</time>
      </trkpt>
      <trkpt lat="48.84034" lon="2.36161">
        <ele>78.9</ele>
        <time>2015-02-09T19:41:12.575Z</time>
      </trkpt>
      <trkpt lat="48.84033" lon="2.36188">
        <ele>80.6</ele>
        <time>2015-02-09T19:41:13.581Z</time>
      </trkpt>
      <trkpt lat="48.84033" lon="2.36188">
        <ele>80.6</ele>
        <time>2015-02-09T19:41:14.142Z</time>
      </trkpt>
      <trkpt lat="48.84032" lon="2.36189">
        <ele>80.6</ele>
        <time>2015-02-09T19:41:24.540Z</time>
      </trkpt>
      <trkpt lat="48.84032" lon="2.36195">
        <ele>82.7</ele>
        <time>2015-02-09T19:41:25.577Z</time>
      </trkpt>
      <trkpt lat="48.84034" lon="2.36207">
        <ele>84.1</ele>
        <time>2015-02-09T19:41:30.575Z</time>
      </trkpt>
      <trkpt lat="48.84035" lon="2.36211">
        <ele>84.2</ele>
        <time>2015-02-09T19:41:31.592Z</time>
      </trkpt>
      <trkpt lat="48.84039" lon="2.36222">
        <ele>84.4</ele>
        <time>2015-02-09T19:41:34.574Z</time>
      </trkpt>
      <trkpt lat="48.84041" lon="2.36225">
        <ele>84.3</ele>
        <time>2015-02-09T19:41:35.564Z</time>
      </trkpt>
      <trkpt lat="48.84047" lon="2.36234">
        <ele>84.4</ele>
        <time>2015-02-09T19:41:38.614Z</time>
      </trkpt>
      <trkpt lat="48.8405" lon="2.36236">
        <ele>84.3</ele>
        <time>2015-02-09T19:41:39.525Z</time>
      </trkpt>
      <trkpt lat="48.84058" lon="2.36242">
        <ele>84.2</ele>
        <time>2015-02-09T19:41:43.255Z</time>
      </trkpt>
      <trkpt lat="48.84061" lon="2.36244">
        <ele>84.1</ele>
        <time>2015-02-09T19:41:43.621Z</time>
      </trkpt>
      <trkpt lat="48.84068" lon="2.36247">
        <ele>84.1</ele>
        <time>2015-02-09T19:41:45.534Z</time>
      </trkpt>
      <trkpt lat="48.84071" lon="2.36249">
        <ele>84.1</ele>
        <time>2015-02-09T19:41:46.580Z</time>
      </trkpt>
      <trkpt lat="48.84078" lon="2.36254">
        <ele>84.5</ele>
        <time>2015-02-09T19:41:48.612Z</time>
      </trkpt>
      <trkpt lat="48.84081" lon="2.36256">
        <ele>84.7</ele>
        <time>2015-02-09T19:41:49.633Z</time>
      </trkpt>
      <trkpt lat="48.84087" lon="2.36259">
        <ele>84.8</ele>
        <time>2015-02-09T19:41:51.545Z</time>
      </trkpt>
      <trkpt lat="48.84091" lon="2.3626">
        <ele>85.1</ele>
        <time>2015-02-09T19:41:52.580Z</time>
      </trkpt>
      <trkpt lat="48.84098" lon="2.36265">
        <ele>85.6</ele>
        <time>2015-02-09T19:41:55.627Z</time>
      </trkpt>
      <trkpt lat="48.84102" lon="2.36267">
        <ele>85.9</ele>
        <time>2015-02-09T19:41:56.525Z</time>
      </trkpt>
      <trkpt lat="48.84108" lon="2.36273">
        <ele>86.3</ele>
        <time>2015-02-09T19:41:58.578Z</time>
      </trkpt>
      <trkpt lat="48.84111" lon="2.36276">
        <ele>86.5</ele>
        <time>2015-02-09T19:41:59.608Z</time>
      </trkpt>
      <trkpt lat="48.84118" lon="2.36281">
        <ele>86.8</ele>
        <time>2015-02-09T19:42:01.646Z</time>
      </trkpt>
      <trkpt lat="48.84121" lon="2.36283">
        <ele>86.9</ele>
        <time>2015-02-09T19:42:02.524Z</time>
      </trkpt>
      <trkpt lat="48.84127" lon="2.36289">
        <ele>87.6</ele>
        <time>2015-02-09T19:42:04.493Z</time>
      </trkpt>
      <trkpt lat="48.8413" lon="2.36291">
        <ele>87.7</ele>
        <time>2015-02-09T19:42:05.525Z</time>
      </trkpt>
      <trkpt lat="48.84134" lon="2.36296">
        <ele>87.8</ele>
        <time>2015-02-09T19:42:06.544Z</time>
      </trkpt>
      <trkpt lat="48.84141" lon="2.363">
        <ele>87.6</ele>
        <time>2015-02-09T19:42:07.694Z</time>
      </trkpt>
      <trkpt lat="48.84148" lon="2.36303">
        <ele>87.4</ele>
        <time>2015-02-09T19:42:08.519Z</time>
      </trkpt>
      <trkpt lat="48.84155" lon="2.36307">
        <ele>87.2</ele>
        <time>2015-02-09T19:42:09.522Z</time>
      </trkpt>
      <trkpt lat="48.8416" lon="2.3631">
        <ele>87.4</ele>
        <time>2015-02-09T19:42:10.539Z</time>
      </trkpt>
      <trkpt lat="48.84165" lon="2.36313">
        <ele>87.4</ele>
        <time>2015-02-09T19:42:11.555Z</time>
      </trkpt>
      <trkpt lat="48.84171" lon="2.36316">
        <ele>87.4</ele>
        <time>2015-02-09T19:42:12.586Z</time>
      </trkpt>
      <trkpt lat="48.84176" lon="2.36319">
        <ele>87.2</ele>
        <time>2015-02-09T19:42:13.589Z</time>
      </trkpt>
      <trkpt lat="48.84181" lon="2.36323">
        <ele>87.2</ele>
        <time>2015-02-09T19:42:14.607Z</time>
      </trkpt>
      <trkpt lat="48.84185" lon="2.36325">
        <ele>87.5</ele>
        <time>2015-02-09T19:42:15.622Z</time>
      </trkpt>
      <trkpt lat="48.84189" lon="2.36328">
        <ele>87.7</ele>
        <time>2015-02-09T19:42:16.502Z</time>
      </trkpt>
      <trkpt lat="48.84194" lon="2.36331">
        <ele>88</ele>
        <time>2015-02-09T19:42:17.522Z</time>
      </trkpt>
      <trkpt lat="48.84198" lon="2.36334">
        <ele>88.2</ele>
        <time>2015-02-09T19:42:18.533Z</time>
      </trkpt>
      <trkpt lat="48.84202" lon="2.36337">
        <ele>88.5</ele>
        <time>2015-02-09T19:42:19.568Z</time>
      </trkpt>
      <trkpt lat="48.8421" lon="2.36339">
        <ele>90.9</ele>
        <time>2015-02-09T19:42:20.577Z</time>
      </trkpt>
      <trkpt lat="48.84215" lon="2.36341">
        <ele>91.1</ele>
        <time>2015-02-09T19:42:21.593Z</time>
      </trkpt>
      <trkpt lat="48.84219" lon="2.36343">
        <ele>91.3</ele>
        <time>2015-02-09T19:42:22.982Z</time>
      </trkpt>
      <trkpt lat="48.84224" lon="2.36346">
        <ele>91.4</ele>
        <time>2015-02-09T19:42:23.610Z</time>
      </trkpt>
      <trkpt lat="48.8423" lon="2.36354">
        <ele>91.7</ele>
        <time>2015-02-09T19:42:25.634Z</time>
      </trkpt>
      <trkpt lat="48.84233" lon="2.36358">
        <ele>91.7</ele>
        <time>2015-02-09T19:42:26.539Z</time>
      </trkpt>
      <trkpt lat="48.8424" lon="2.36364">
        <ele>92</ele>
        <time>2015-02-09T19:42:28.537Z</time>
      </trkpt>
      <trkpt lat="48.84243" lon="2.36366">
        <ele>92</ele>
        <time>2015-02-09T19:42:29.548Z</time>
      </trkpt>
      <trkpt lat="48.84248" lon="2.36369">
        <ele>92.1</ele>
        <time>2015-02-09T19:42:30.553Z</time>
      </trkpt>
      <trkpt lat="48.84253" lon="2.36372">
        <ele>92.3</ele>
        <time>2015-02-09T19:42:31.576Z</time>
      </trkpt>
      <trkpt lat="48.84258" lon="2.36375">
        <ele>92.5</ele>
        <time>2015-02-09T19:42:33.118Z</time>
      </trkpt>
      <trkpt lat="48.84263" lon="2.36378">
        <ele>92.5</ele>
        <time>2015-02-09T19:42:33.609Z</time>
      </trkpt>
      <trkpt lat="48.84268" lon="2.36381">
        <ele>92.6</ele>
        <time>2015-02-09T19:42:34.622Z</time>
      </trkpt>
      <trkpt lat="48.84272" lon="2.36384">
        <ele>92.8</ele>
        <time>2015-02-09T19:42:35.538Z</time>
      </trkpt>
      <trkpt lat="48.8428" lon="2.36388">
        <ele>93.3</ele>
        <time>2015-02-09T19:42:38.182Z</time>
      </trkpt>
      <trkpt lat="48.84283" lon="2.36391">
        <ele>93.5</ele>
        <time>2015-02-09T19:42:38.597Z</time>
      </trkpt>
      <trkpt lat="48.8429" lon="2.36396">
        <ele>93.9</ele>
        <time>2015-02-09T19:42:40.619Z</time>
      </trkpt>
      <trkpt lat="48.84293" lon="2.36399">
        <ele>94.3</ele>
        <time>2015-02-09T19:42:41.531Z</time>
      </trkpt>
      <trkpt lat="48.843" lon="2.36404">
        <ele>94.6</ele>
        <time>2015-02-09T19:42:43.579Z</time>
      </trkpt>
      <trkpt lat="48.84306" lon="2.3641">
        <ele>94.3</ele>
        <time>2015-02-09T19:42:44.596Z</time>
      </trkpt>
      <trkpt lat="48.84313" lon="2.36416">
        <ele>94.4</ele>
        <time>2015-02-09T19:42:46.551Z</time>
      </trkpt>
      <trkpt lat="48.84317" lon="2.36419">
        <ele>94.6</ele>
        <time>2015-02-09T19:42:47.562Z</time>
      </trkpt>
      <trkpt lat="48.84323" lon="2.36428">
        <ele>94.9</ele>
        <time>2015-02-09T19:42:50.593Z</time>
      </trkpt>
      <trkpt lat="48.84325" lon="2.36431">
        <ele>95</ele>
        <time>2015-02-09T19:42:51.613Z</time>
      </trkpt>
      <trkpt lat="48.84329" lon="2.36441">
        <ele>95.2</ele>
        <time>2015-02-09T19:42:54.537Z</time>
      </trkpt>
      <trkpt lat="48.8433" lon="2.36444">
        <ele>95.4</ele>
        <time>2015-02-09T19:42:55.559Z</time>
      </trkpt>
      <trkpt lat="48.84338" lon="2.3645">
        <ele>95.5</ele>
        <time>2015-02-09T19:42:58.601Z</time>
      </trkpt>
      <trkpt lat="48.84341" lon="2.36452">
        <ele>95.6</ele>
        <time>2015-02-09T19:42:59.516Z</time>
      </trkpt>
      <trkpt lat="48.84345" lon="2.36462">
        <ele>95.8</ele>
        <time>2015-02-09T19:43:02.602Z</time>
      </trkpt>
      <trkpt lat="48.84346" lon="2.36465">
        <ele>96</ele>
        <time>2015-02-09T19:43:03.550Z</time>
      </trkpt>
      <trkpt lat="48.8435" lon="2.36476">
        <ele>97.1</ele>
        <time>2015-02-09T19:43:08.560Z</time>
      </trkpt>
      <trkpt lat="48.84352" lon="2.36483">
        <ele>95.4</ele>
        <time>2015-02-09T19:43:09.636Z</time>
      </trkpt>
      <trkpt lat="48.84355" lon="2.36493">
        <ele>95.5</ele>
        <time>2015-02-09T19:43:13.593Z</time>
      </trkpt>
      <trkpt lat="48.84355" lon="2.36496">
        <ele>95.6</ele>
        <time>2015-02-09T19:43:14.627Z</time>
      </trkpt>
      <trkpt lat="48.84358" lon="2.36506">
        <ele>95.9</ele>
        <time>2015-02-09T19:43:17.545Z</time>
      </trkpt>
      <trkpt lat="48.84359" lon="2.36509">
        <ele>95.9</ele>
        <time>2015-02-09T19:43:18.550Z</time>
      </trkpt>
      <trkpt lat="48.84361" lon="2.36521">
        <ele>93.8</ele>
        <time>2015-02-09T19:43:20.586Z</time>
      </trkpt>
      <trkpt lat="48.84361" lon="2.36526">
        <ele>93.3</ele>
        <time>2015-02-09T19:43:21.587Z</time>
      </trkpt>
      <trkpt lat="48.84362" lon="2.36535">
        <ele>92.1</ele>
        <time>2015-02-09T19:43:23.619Z</time>
      </trkpt>
      <trkpt lat="48.84363" lon="2.3654">
        <ele>91.5</ele>
        <time>2015-02-09T19:43:24.578Z</time>
      </trkpt>
      <trkpt lat="48.84362" lon="2.36551">
        <ele>90</ele>
        <time>2015-02-09T19:43:28.574Z</time>
      </trkpt>
      <trkpt lat="48.84362" lon="2.36554">
        <ele>90</ele>
        <time>2015-02-09T19:43:29.578Z</time>
      </trkpt>
      <trkpt lat="48.84359" lon="2.36566">
        <ele>89.8</ele>
        <time>2015-02-09T19:43:32.667Z</time>
      </trkpt>
      <trkpt lat="48.84358" lon="2.3657">
        <ele>90</ele>
        <time>2015-02-09T19:43:33.523Z</time>
      </trkpt>
      <trkpt lat="48.84354" lon="2.36578">
        <ele>90.5</ele>
        <time>2015-02-09T19:43:35.592Z</time>
      </trkpt>
      <trkpt lat="48.84352" lon="2.36583">
        <ele>91.1</ele>
        <time>2015-02-09T19:43:36.619Z</time>
      </trkpt>
      <trkpt lat="48.84346" lon="2.36592">
        <ele>92</ele>
        <time>2015-02-09T19:43:38.542Z</time>
      </trkpt>
      <trkpt lat="48.84342" lon="2.36597">
        <ele>92.4</ele>
        <time>2015-02-09T19:43:39.593Z</time>
      </trkpt>
      <trkpt lat="48.84338" lon="2.36603">
        <ele>92.9</ele>
        <time>2015-02-09T19:43:40.629Z</time>
      </trkpt>
      <trkpt lat="48.84334" lon="2.36608">
        <ele>93.2</ele>
        <time>2015-02-09T19:43:41.646Z</time>
      </trkpt>
      <trkpt lat="48.84329" lon="2.36614">
        <ele>93.5</ele>
        <time>2015-02-09T19:43:42.547Z</time>
      </trkpt>
      <trkpt lat="48.84324" lon="2.3662">
        <ele>93.7</ele>
        <time>2015-02-09T19:43:43.691Z</time>
      </trkpt>
      <trkpt lat="48.84321" lon="2.36625">
        <ele>93.9</ele>
        <time>2015-02-09T19:43:44.625Z</time>
      </trkpt>
      <trkpt lat="48.84317" lon="2.3663">
        <ele>94.1</ele>
        <time>2015-02-09T19:43:45.631Z</time>
      </trkpt>
      <trkpt lat="48.84312" lon="2.36635">
        <ele>94.4</ele>
        <time>2015-02-09T19:43:46.635Z</time>
      </trkpt>
      <trkpt lat="48.84308" lon="2.36642">
        <ele>94.8</ele>
        <time>2015-02-09T19:43:47.551Z</time>
      </trkpt>
      <trkpt lat="48.84303" lon="2.36649">
        <ele>95.1</ele>
        <time>2015-02-09T19:43:48.657Z</time>
      </trkpt>
      <trkpt lat="48.84296" lon="2.36654">
        <ele>92.5</ele>
        <time>2015-02-09T19:43:49.595Z</time>
      </trkpt>
      <trkpt lat="48.8429" lon="2.36658">
        <ele>90.7</ele>
        <time>2015-02-09T19:43:50.608Z</time>
      </trkpt>
      <trkpt lat="48.84284" lon="2.36663">
        <ele>89.6</ele>
        <time>2015-02-09T19:43:51.617Z</time>
      </trkpt>
      <trkpt lat="48.8428" lon="2.36665">
        <ele>88.7</ele>
        <time>2015-02-09T19:43:52.628Z</time>
      </trkpt>
      <trkpt lat="48.84274" lon="2.3667">
        <ele>87.9</ele>
        <time>2015-02-09T19:43:53.594Z</time>
      </trkpt>
      <trkpt lat="48.84268" lon="2.36675">
        <ele>86.8</ele>
        <time>2015-02-09T19:43:54.594Z</time>
      </trkpt>
      <trkpt lat="48.84263" lon="2.36679">
        <ele>86.4</ele>
        <time>2015-02-09T19:43:55.594Z</time>
      </trkpt>
      <trkpt lat="48.84258" lon="2.36682">
        <ele>85.9</ele>
        <time>2015-02-09T19:43:56.620Z</time>
      </trkpt>
      <trkpt lat="48.84254" lon="2.36685">
        <ele>85.5</ele>
        <time>2015-02-09T19:43:57.521Z</time>
      </trkpt>
      <trkpt lat="48.8425" lon="2.36689">
        <ele>85.1</ele>
        <time>2015-02-09T19:43:58.597Z</time>
      </trkpt>
      <trkpt lat="48.84246" lon="2.36692">
        <ele>84.8</ele>
        <time>2015-02-09T19:43:59.649Z</time>
      </trkpt>
      <trkpt lat="48.84239" lon="2.367">
        <ele>84.4</ele>
        <time>2015-02-09T19:44:01.615Z</time>
      </trkpt>
      <trkpt lat="48.84236" lon="2.36704">
        <ele>84.5</ele>
        <time>2015-02-09T19:44:02.624Z</time>
      </trkpt>
      <trkpt lat="48.84229" lon="2.36712">
        <ele>84.5</ele>
        <time>2015-02-09T19:44:04.549Z</time>
      </trkpt>
      <trkpt lat="48.84226" lon="2.36716">
        <ele>84.3</ele>
        <time>2015-02-09T19:44:05.549Z</time>
      </trkpt>
      <trkpt lat="48.84219" lon="2.36724">
        <ele>84.4</ele>
        <time>2015-02-09T19:44:07.601Z</time>
      </trkpt>
      <trkpt lat="48.84216" lon="2.36729">
        <ele>84.3</ele>
        <time>2015-02-09T19:44:08.603Z</time>
      </trkpt>
      <trkpt lat="48.8421" lon="2.36738">
        <ele>84.1</ele>
        <time>2015-02-09T19:44:11.139Z</time>
      </trkpt>
      <trkpt lat="48.84207" lon="2.36742">
        <ele>84.1</ele>
        <time>2015-02-09T19:44:11.584Z</time>
      </trkpt>
      <trkpt lat="48.84201" lon="2.3675">
        <ele>84</ele>
        <time>2015-02-09T19:44:13.617Z</time>
      </trkpt>
      <trkpt lat="48.84198" lon="2.36755">
        <ele>83.9</ele>
        <time>2015-02-09T19:44:14.633Z</time>
      </trkpt>
      <trkpt lat="48.84193" lon="2.36764">
        <ele>83.9</ele>
        <time>2015-02-09T19:44:16.546Z</time>
      </trkpt>
      <trkpt lat="48.84191" lon="2.36769">
        <ele>84</ele>
        <time>2015-02-09T19:44:17.554Z</time>
      </trkpt>
      <trkpt lat="48.84188" lon="2.36776">
        <ele>84.1</ele>
        <time>2015-02-09T19:44:18.559Z</time>
      </trkpt>
      <trkpt lat="48.84186" lon="2.36782">
        <ele>84.4</ele>
        <time>2015-02-09T19:44:19.630Z</time>
      </trkpt>
      <trkpt lat="48.84183" lon="2.36789">
        <ele>84.5</ele>
        <time>2015-02-09T19:44:21.272Z</time>
      </trkpt>
      <trkpt lat="48.8418" lon="2.36795">
        <ele>84.4</ele>
        <time>2015-02-09T19:44:21.544Z</time>
      </trkpt>
      <trkpt lat="48.84175" lon="2.36805">
        <ele>84.6</ele>
        <time>2015-02-09T19:44:23.645Z</time>
      </trkpt>
      <trkpt lat="48.84172" lon="2.36809">
        <ele>84.7</ele>
        <time>2015-02-09T19:44:24.519Z</time>
      </trkpt>
      <trkpt lat="48.84168" lon="2.36814">
        <ele>84.5</ele>
        <time>2015-02-09T19:44:25.598Z</time>
      </trkpt>
      <trkpt lat="48.84165" lon="2.3682">
        <ele>84.3</ele>
        <time>2015-02-09T19:44:26.601Z</time>
      </trkpt>
      <trkpt lat="48.84161" lon="2.36824">
        <ele>84.3</ele>
        <time>2015-02-09T19:44:27.994Z</time>
      </trkpt>
      <trkpt lat="48.84158" lon="2.36829">
        <ele>84.4</ele>
        <time>2015-02-09T19:44:28.539Z</time>
      </trkpt>
      <trkpt lat="48.84154" lon="2.36834">
        <ele>84.3</ele>
        <time>2015-02-09T19:44:29.538Z</time>
      </trkpt>
      <trkpt lat="48.8415" lon="2.3684">
        <ele>84.2</ele>
        <time>2015-02-09T19:44:30.585Z</time>
      </trkpt>
      <trkpt lat="48.84146" lon="2.36847">
        <ele>84.1</ele>
        <time>2015-02-09T19:44:31.588Z</time>
      </trkpt>
      <trkpt lat="48.84142" lon="2.36853">
        <ele>84.1</ele>
        <time>2015-02-09T19:44:32.598Z</time>
      </trkpt>
      <trkpt lat="48.84137" lon="2.36858">
        <ele>84.1</ele>
        <time>2015-02-09T19:44:33.608Z</time>
      </trkpt>
      <trkpt lat="48.84132" lon="2.36863">
        <ele>84.1</ele>
        <time>2015-02-09T19:44:34.619Z</time>
      </trkpt>
      <trkpt lat="48.84127" lon="2.36869">
        <ele>84.2</ele>
        <time>2015-02-09T19:44:35.503Z</time>
      </trkpt>
      <trkpt lat="48.84122" lon="2.36874">
        <ele>84.3</ele>
        <time>2015-02-09T19:44:36.521Z</time>
      </trkpt>
      <trkpt lat="48.84118" lon="2.36879">
        <ele>84.4</ele>
        <time>2015-02-09T19:44:37.573Z</time>
      </trkpt>
      <trkpt lat="48.84114" lon="2.36883">
        <ele>84.5</ele>
        <time>2015-02-09T19:44:38.644Z</time>
      </trkpt>
      <trkpt lat="48.84109" lon="2.36888">
        <ele>84.5</ele>
        <time>2015-02-09T19:44:39.523Z</time>
      </trkpt>
      <trkpt lat="48.84105" lon="2.36893">
        <ele>84.6</ele>
        <time>2015-02-09T19:44:40.528Z</time>
      </trkpt>
      <trkpt lat="48.84101" lon="2.36897">
        <ele>84.8</ele>
        <time>2015-02-09T19:44:41.557Z</time>
      </trkpt>
      <trkpt lat="48.84097" lon="2.36902">
        <ele>85</ele>
        <time>2015-02-09T19:44:42.567Z</time>
      </trkpt>
      <trkpt lat="48.84092" lon="2.36908">
        <ele>85.1</ele>
        <time>2015-02-09T19:44:43.616Z</time>
      </trkpt>
      <trkpt lat="48.84087" lon="2.36913">
        <ele>85.2</ele>
        <time>2015-02-09T19:44:44.602Z</time>
      </trkpt>
      <trkpt lat="48.84081" lon="2.3692">
        <ele>85.5</ele>
        <time>2015-02-09T19:44:45.528Z</time>
      </trkpt>
      <trkpt lat="48.84074" lon="2.36925">
        <ele>85.7</ele>
        <time>2015-02-09T19:44:46.527Z</time>
      </trkpt>
      <trkpt lat="48.84069" lon="2.36932">
        <ele>86</ele>
        <time>2015-02-09T19:44:47.527Z</time>
      </trkpt>
      <trkpt lat="48.84064" lon="2.3694">
        <ele>86.1</ele>
        <time>2015-02-09T19:44:48.532Z</time>
      </trkpt>
      <trkpt lat="48.84055" lon="2.36948">
        <ele>86.9</ele>
        <time>2015-02-09T19:44:49.571Z</time>
      </trkpt>
      <trkpt lat="48.84047" lon="2.36955">
        <ele>87</ele>
        <time>2015-02-09T19:44:50.575Z</time>
      </trkpt>
      <trkpt lat="48.84041" lon="2.36961">
        <ele>87.3</ele>
        <time>2015-02-09T19:44:51.587Z</time>
      </trkpt>
      <trkpt lat="48.84036" lon="2.36967">
        <ele>87.5</ele>
        <time>2015-02-09T19:44:52.591Z</time>
      </trkpt>
      <trkpt lat="48.84029" lon="2.36974">
        <ele>87.7</ele>
        <time>2015-02-09T19:44:53.607Z</time>
      </trkpt>
      <trkpt lat="48.84022" lon="2.36981">
        <ele>87.8</ele>
        <time>2015-02-09T19:44:54.615Z</time>
      </trkpt>
      <trkpt lat="48.84013" lon="2.36987">
        <ele>88.4</ele>
        <time>2015-02-09T19:44:55.562Z</time>
      </trkpt>
      <trkpt lat="48.84006" lon="2.36993">
        <ele>89.3</ele>
        <time>2015-02-09T19:44:56.558Z</time>
      </trkpt>
      <trkpt lat="48.83999" lon="2.37001">
        <ele>89.9</ele>
        <time>2015-02-09T19:44:57.581Z</time>
      </trkpt>
      <trkpt lat="48.83991" lon="2.37011">
        <ele>90.1</ele>
        <time>2015-02-09T19:44:58.515Z</time>
      </trkpt>
      <trkpt lat="48.83988" lon="2.37025">
        <ele>89</ele>
        <time>2015-02-09T19:44:59.519Z</time>
      </trkpt>
      <trkpt lat="48.83984" lon="2.37033">
        <ele>89.6</ele>
        <time>2015-02-09T19:45:00.561Z</time>
      </trkpt>
      <trkpt lat="48.83978" lon="2.37043">
        <ele>90</ele>
        <time>2015-02-09T19:45:01.569Z</time>
      </trkpt>
      <trkpt lat="48.83972" lon="2.37049">
        <ele>90</ele>
        <time>2015-02-09T19:45:02.572Z</time>
      </trkpt>
      <trkpt lat="48.83966" lon="2.37053">
        <ele>90.1</ele>
        <time>2015-02-09T19:45:03.589Z</time>
      </trkpt>
      <trkpt lat="48.83962" lon="2.37059">
        <ele>90.6</ele>
        <time>2015-02-09T19:45:04.630Z</time>
      </trkpt>
      <trkpt lat="48.8396" lon="2.37065">
        <ele>91.5</ele>
        <time>2015-02-09T19:45:05.514Z</time>
      </trkpt>
      <trkpt lat="48.83957" lon="2.3707">
        <ele>92.2</ele>
        <time>2015-02-09T19:45:06.516Z</time>
      </trkpt>
      <trkpt lat="48.83953" lon="2.37074">
        <ele>92.6</ele>
        <time>2015-02-09T19:45:07.561Z</time>
      </trkpt>
      <trkpt lat="48.83948" lon="2.37079">
        <ele>92.9</ele>
        <time>2015-02-09T19:45:08.565Z</time>
      </trkpt>
      <trkpt lat="48.83942" lon="2.37084">
        <ele>92.8</ele>
        <time>2015-02-09T19:45:09.576Z</time>
      </trkpt>
      <trkpt lat="48.83935" lon="2.37091">
        <ele>92.6</ele>
        <time>2015-02-09T19:45:10.596Z</time>
      </trkpt>
      <trkpt lat="48.8393" lon="2.37099">
        <ele>92.4</ele>
        <time>2015-02-09T19:45:11.599Z</time>
      </trkpt>
      <trkpt lat="48.83924" lon="2.37105">
        <ele>92.6</ele>
        <time>2015-02-09T19:45:12.521Z</time>
      </trkpt>
      <trkpt lat="48.83918" lon="2.37109">
        <ele>93</ele>
        <time>2015-02-09T19:45:13.556Z</time>
      </trkpt>
      <trkpt lat="48.83915" lon="2.37114">
        <ele>93.6</ele>
        <time>2015-02-09T19:45:14.559Z</time>
      </trkpt>
      <trkpt lat="48.83911" lon="2.37119">
        <ele>94.2</ele>
        <time>2015-02-09T19:45:15.576Z</time>
      </trkpt>
      <trkpt lat="48.83907" lon="2.37126">
        <ele>94.4</ele>
        <time>2015-02-09T19:45:16.592Z</time>
      </trkpt>
      <trkpt lat="48.83903" lon="2.37133">
        <ele>94.9</ele>
        <time>2015-02-09T19:45:17.598Z</time>
      </trkpt>
      <trkpt lat="48.839" lon="2.3714">
        <ele>95.3</ele>
        <time>2015-02-09T19:45:18.602Z</time>
      </trkpt>
      <trkpt lat="48.83896" lon="2.37147">
        <ele>96.1</ele>
        <time>2015-02-09T19:45:19.603Z</time>
      </trkpt>
      <trkpt lat="48.83895" lon="2.3716">
        <ele>99.2</ele>
        <time>2015-02-09T19:45:21.524Z</time>
      </trkpt>
      <trkpt lat="48.83894" lon="2.37168">
        <ele>101.6</ele>
        <time>2015-02-09T19:45:22.553Z</time>
      </trkpt>
      <trkpt lat="48.83891" lon="2.37174">
        <ele>102.5</ele>
        <time>2015-02-09T19:45:23.577Z</time>
      </trkpt>
      <trkpt lat="48.83888" lon="2.37179">
        <ele>103.6</ele>
        <time>2015-02-09T19:45:24.588Z</time>
      </trkpt>
      <trkpt lat="48.83884" lon="2.37186">
        <ele>105</ele>
        <time>2015-02-09T19:45:25.604Z</time>
      </trkpt>
      <trkpt lat="48.83879" lon="2.37192">
        <ele>105.9</ele>
        <time>2015-02-09T19:45:26.509Z</time>
      </trkpt>
      <trkpt lat="48.83875" lon="2.37199">
        <ele>106.6</ele>
        <time>2015-02-09T19:45:27.526Z</time>
      </trkpt>
      <trkpt lat="48.8387" lon="2.37206">
        <ele>106.9</ele>
        <time>2015-02-09T19:45:28.552Z</time>
      </trkpt>
      <trkpt lat="48.83866" lon="2.37214">
        <ele>107.7</ele>
        <time>2015-02-09T19:45:29.555Z</time>
      </trkpt>
      <trkpt lat="48.83861" lon="2.37221">
        <ele>109.1</ele>
        <time>2015-02-09T19:45:30.569Z</time>
      </trkpt>
      <trkpt lat="48.83858" lon="2.37225">
        <ele>109.6</ele>
        <time>2015-02-09T19:45:31.583Z</time>
      </trkpt>
      <trkpt lat="48.83855" lon="2.37232">
        <ele>109.8</ele>
        <time>2015-02-09T19:45:32.596Z</time>
      </trkpt>
      <trkpt lat="48.83852" lon="2.3724">
        <ele>110.2</ele>
        <time>2015-02-09T19:45:33.495Z</time>
      </trkpt>
      <trkpt lat="48.8385" lon="2.37246">
        <ele>110.3</ele>
        <time>2015-02-09T19:45:34.523Z</time>
      </trkpt>
      <trkpt lat="48.83847" lon="2.37253">
        <ele>110.4</ele>
        <time>2015-02-09T19:45:35.526Z</time>
      </trkpt>
      <trkpt lat="48.83844" lon="2.3726">
        <ele>110.7</ele>
        <time>2015-02-09T19:45:36.544Z</time>
      </trkpt>
      <trkpt lat="48.83841" lon="2.37266">
        <ele>110.7</ele>
        <time>2015-02-09T19:45:37.568Z</time>
      </trkpt>
      <trkpt lat="48.83837" lon="2.37273">
        <ele>110.7</ele>
        <time>2015-02-09T19:45:38.576Z</time>
      </trkpt>
      <trkpt lat="48.83831" lon="2.37283">
        <ele>110.2</ele>
        <time>2015-02-09T19:45:40.609Z</time>
      </trkpt>
      <trkpt lat="48.83829" lon="2.37287">
        <ele>110.1</ele>
        <time>2015-02-09T19:45:41.655Z</time>
      </trkpt>
      <trkpt lat="48.83826" lon="2.37298">
        <ele>109</ele>
        <time>2015-02-09T19:45:43.629Z</time>
      </trkpt>
      <trkpt lat="48.83823" lon="2.37303">
        <ele>108.8</ele>
        <time>2015-02-09T19:45:44.572Z</time>
      </trkpt>
      <trkpt lat="48.83819" lon="2.37313">
        <ele>108.4</ele>
        <time>2015-02-09T19:45:46.614Z</time>
      </trkpt>
      <trkpt lat="48.83816" lon="2.37318">
        <ele>108.3</ele>
        <time>2015-02-09T19:45:47.721Z</time>
      </trkpt>
      <trkpt lat="48.83811" lon="2.37327">
        <ele>107.9</ele>
        <time>2015-02-09T19:45:49.568Z</time>
      </trkpt>
      <trkpt lat="48.83808" lon="2.37331">
        <ele>107.6</ele>
        <time>2015-02-09T19:45:50.586Z</time>
      </trkpt>
      <trkpt lat="48.83801" lon="2.37337">
        <ele>106.7</ele>
        <time>2015-02-09T19:45:52.620Z</time>
      </trkpt>
      <trkpt lat="48.83798" lon="2.37341">
        <ele>106.1</ele>
        <time>2015-02-09T19:45:53.628Z</time>
      </trkpt>
      <trkpt lat="48.83792" lon="2.37348">
        <ele>104.9</ele>
        <time>2015-02-09T19:45:55.615Z</time>
      </trkpt>
      <trkpt lat="48.83789" lon="2.37351">
        <ele>104.8</ele>
        <time>2015-02-09T19:45:56.538Z</time>
      </trkpt>
      <trkpt lat="48.83783" lon="2.37356">
        <ele>105.1</ele>
        <time>2015-02-09T19:45:58.558Z</time>
      </trkpt>
      <trkpt lat="48.83781" lon="2.37359">
        <ele>105.3</ele>
        <time>2015-02-09T19:45:59.559Z</time>
      </trkpt>
      <trkpt lat="48.83776" lon="2.37367">
        <ele>106.2</ele>
        <time>2015-02-09T19:46:43.258Z</time>
      </trkpt>
      <trkpt lat="48.83744" lon="2.37365">
        <ele>99.3</ele>
        <time>2015-02-09T19:46:43.576Z</time>
      </trkpt>
      <trkpt lat="48.83738" lon="2.37372">
        <ele>99.2</ele>
        <time>2015-02-09T19:46:48.554Z</time>
      </trkpt>
      <trkpt lat="48.83737" lon="2.37373">
        <ele>98.9</ele>
        <time>2015-02-09T19:46:49.601Z</time>
      </trkpt>
      <trkpt lat="48.83731" lon="2.37384">
        <ele>97.7</ele>
        <time>2015-02-09T19:46:55.619Z</time>
      </trkpt>
      <trkpt lat="48.83732" lon="2.37386">
        <ele>97.3</ele>
        <time>2015-02-09T19:46:56.628Z</time>
      </trkpt>
      <trkpt lat="48.83724" lon="2.37393">
        <ele>96.4</ele>
        <time>2015-02-09T19:47:00.593Z</time>
      </trkpt>
      <trkpt lat="48.83722" lon="2.37396">
        <ele>96.2</ele>
        <time>2015-02-09T19:47:01.597Z</time>
      </trkpt>
      <trkpt lat="48.83716" lon="2.37403">
        <ele>96.1</ele>
        <time>2015-02-09T19:47:03.614Z</time>
      </trkpt>
      <trkpt lat="48.83713" lon="2.37406">
        <ele>96</ele>
        <time>2015-02-09T19:47:04.547Z</time>
      </trkpt>
      <trkpt lat="48.83707" lon="2.37411">
        <ele>96.2</ele>
        <time>2015-02-09T19:47:06.554Z</time>
      </trkpt>
      <trkpt lat="48.83704" lon="2.37415">
        <ele>96</ele>
        <time>2015-02-09T19:47:07.584Z</time>
      </trkpt>
      <trkpt lat="48.83698" lon="2.37421">
        <ele>95.8</ele>
        <time>2015-02-09T19:47:09.516Z</time>
      </trkpt>
      <trkpt lat="48.83694" lon="2.37425">
        <ele>95.9</ele>
        <time>2015-02-09T19:47:10.561Z</time>
      </trkpt>
      <trkpt lat="48.83688" lon="2.37431">
        <ele>95.9</ele>
        <time>2015-02-09T19:47:12.587Z</time>
      </trkpt>
      <trkpt lat="48.83686" lon="2.37435">
        <ele>95.7</ele>
        <time>2015-02-09T19:47:13.606Z</time>
      </trkpt>
      <trkpt lat="48.8368" lon="2.37441">
        <ele>95.5</ele>
        <time>2015-02-09T19:47:15.514Z</time>
      </trkpt>
      <trkpt lat="48.83677" lon="2.37444">
        <ele>95.5</ele>
        <time>2015-02-09T19:47:16.528Z</time>
      </trkpt>
      <trkpt lat="48.83672" lon="2.3745">
        <ele>95.3</ele>
        <time>2015-02-09T19:47:18.969Z</time>
      </trkpt>
      <trkpt lat="48.8367" lon="2.37453">
        <ele>95.7</ele>
        <time>2015-02-09T19:47:19.563Z</time>
      </trkpt>
      <trkpt lat="48.83664" lon="2.3746">
        <ele>96</ele>
        <time>2015-02-09T19:47:21.583Z</time>
      </trkpt>
      <trkpt lat="48.83661" lon="2.37464">
        <ele>95.8</ele>
        <time>2015-02-09T19:47:22.591Z</time>
      </trkpt>
      <trkpt lat="48.83655" lon="2.37471">
        <ele>95.8</ele>
        <time>2015-02-09T19:47:24.510Z</time>
      </trkpt>
      <trkpt lat="48.83651" lon="2.37475">
        <ele>95.6</ele>
        <time>2015-02-09T19:47:25.578Z</time>
      </trkpt>
      <trkpt lat="48.83643" lon="2.37482">
        <ele>94.9</ele>
        <time>2015-02-09T19:47:28.007Z</time>
      </trkpt>
      <trkpt lat="48.8364" lon="2.37485">
        <ele>94.7</ele>
        <time>2015-02-09T19:47:28.535Z</time>
      </trkpt>
      <trkpt lat="48.83632" lon="2.3749">
        <ele>94.2</ele>
        <time>2015-02-09T19:47:30.574Z</time>
      </trkpt>
      <trkpt lat="48.83629" lon="2.37493">
        <ele>94.5</ele>
        <time>2015-02-09T19:47:31.705Z</time>
      </trkpt>
      <trkpt lat="48.83623" lon="2.37499">
        <ele>94.2</ele>
        <time>2015-02-09T19:47:33.527Z</time>
      </trkpt>
      <trkpt lat="48.8362" lon="2.37502">
        <ele>94</ele>
        <time>2015-02-09T19:47:34.545Z</time>
      </trkpt>
      <trkpt lat="48.83615" lon="2.3751">
        <ele>94.4</ele>
        <time>2015-02-09T19:47:36.580Z</time>
      </trkpt>
      <trkpt lat="48.83612" lon="2.37513">
        <ele>94.7</ele>
        <time>2015-02-09T19:47:37.608Z</time>
      </trkpt>
      <trkpt lat="48.83605" lon="2.37521">
        <ele>95.2</ele>
        <time>2015-02-09T19:47:39.525Z</time>
      </trkpt>
      <trkpt lat="48.83601" lon="2.37524">
        <ele>95.5</ele>
        <time>2015-02-09T19:47:40.539Z</time>
      </trkpt>
      <trkpt lat="48.83595" lon="2.37531">
        <ele>95.8</ele>
        <time>2015-02-09T19:47:43.202Z</time>
      </trkpt>
      <trkpt lat="48.83592" lon="2.37534">
        <ele>96</ele>
        <time>2015-02-09T19:47:43.581Z</time>
      </trkpt>
      <trkpt lat="48.83586" lon="2.3754">
        <ele>96.5</ele>
        <time>2015-02-09T19:47:45.501Z</time>
      </trkpt>
      <trkpt lat="48.83583" lon="2.37543">
        <ele>96.5</ele>
        <time>2015-02-09T19:47:46.532Z</time>
      </trkpt>
      <trkpt lat="48.83576" lon="2.3755">
        <ele>97.6</ele>
        <time>2015-02-09T19:47:48.574Z</time>
      </trkpt>
      <trkpt lat="48.83574" lon="2.37554">
        <ele>98</ele>
        <time>2015-02-09T19:47:49.602Z</time>
      </trkpt>
      <trkpt lat="48.83568" lon="2.37561">
        <ele>99.2</ele>
        <time>2015-02-09T19:47:51.551Z</time>
      </trkpt>
      <trkpt lat="48.83565" lon="2.37566">
        <ele>99.6</ele>
        <time>2015-02-09T19:47:52.533Z</time>
      </trkpt>
      <trkpt lat="48.83559" lon="2.37572">
        <ele>99.5</ele>
        <time>2015-02-09T19:47:54.541Z</time>
      </trkpt>
      <trkpt lat="48.83556" lon="2.37574">
        <ele>99.2</ele>
        <time>2015-02-09T19:47:55.550Z</time>
      </trkpt>
      <trkpt lat="48.83551" lon="2.37579">
        <ele>98.9</ele>
        <time>2015-02-09T19:47:57.561Z</time>
      </trkpt>
      <trkpt lat="48.83547" lon="2.37582">
        <ele>98.8</ele>
        <time>2015-02-09T19:47:58.569Z</time>
      </trkpt>
      <trkpt lat="48.83542" lon="2.3759">
        <ele>98.8</ele>
        <time>2015-02-09T19:48:00.526Z</time>
      </trkpt>
      <trkpt lat="48.83539" lon="2.37593">
        <ele>98.5</ele>
        <time>2015-02-09T19:48:01.627Z</time>
      </trkpt>
      <trkpt lat="48.83532" lon="2.37599">
        <ele>98.2</ele>
        <time>2015-02-09T19:48:03.809Z</time>
      </trkpt>
      <trkpt lat="48.8353" lon="2.376">
        <ele>98</ele>
        <time>2015-02-09T19:48:04.535Z</time>
      </trkpt>
      <trkpt lat="48.83525" lon="2.37604">
        <ele>98</ele>
        <time>2015-02-09T19:48:06.565Z</time>
      </trkpt>
      <trkpt lat="48.83522" lon="2.37606">
        <ele>97.4</ele>
        <time>2015-02-09T19:48:07.601Z</time>
      </trkpt>
      <trkpt lat="48.83516" lon="2.37614">
        <ele>97.7</ele>
        <time>2015-02-09T19:48:09.545Z</time>
      </trkpt>
      <trkpt lat="48.83514" lon="2.37618">
        <ele>97.8</ele>
        <time>2015-02-09T19:48:10.570Z</time>
      </trkpt>
      <trkpt lat="48.83508" lon="2.37625">
        <ele>97.9</ele>
        <time>2015-02-09T19:48:12.617Z</time>
      </trkpt>
      <trkpt lat="48.83505" lon="2.37628">
        <ele>97.8</ele>
        <time>2015-02-09T19:48:13.620Z</time>
      </trkpt>
      <trkpt lat="48.83502" lon="2.37631">
        <ele>97.4</ele>
        <time>2015-02-09T19:48:14.522Z</time>
      </trkpt>
      <trkpt lat="48.83498" lon="2.37635">
        <ele>96.9</ele>
        <time>2015-02-09T19:48:15.553Z</time>
      </trkpt>
      <trkpt lat="48.83491" lon="2.37642">
        <ele>95.9</ele>
        <time>2015-02-09T19:48:17.588Z</time>
      </trkpt>
      <trkpt lat="48.83485" lon="2.37644">
        <ele>92.3</ele>
        <time>2015-02-09T19:48:18.607Z</time>
      </trkpt>
      <trkpt lat="48.8348" lon="2.3765">
        <ele>91.9</ele>
        <time>2015-02-09T19:48:20.542Z</time>
      </trkpt>
      <trkpt lat="48.83477" lon="2.37655">
        <ele>91.7</ele>
        <time>2015-02-09T19:48:21.575Z</time>
      </trkpt>
      <trkpt lat="48.83473" lon="2.37665">
        <ele>91.8</ele>
        <time>2015-02-09T19:48:23.607Z</time>
      </trkpt>
      <trkpt lat="48.83471" lon="2.37669">
        <ele>91.6</ele>
        <time>2015-02-09T19:48:24.616Z</time>
      </trkpt>
      <trkpt lat="48.83465" lon="2.37678">
        <ele>89.7</ele>
        <time>2015-02-09T19:48:27.933Z</time>
      </trkpt>
      <trkpt lat="48.83465" lon="2.37682">
        <ele>89.8</ele>
        <time>2015-02-09T19:48:28.566Z</time>
      </trkpt>
      <trkpt lat="48.83464" lon="2.37695">
        <ele>89.3</ele>
        <time>2015-02-09T19:48:46.570Z</time>
      </trkpt>
      <trkpt lat="48.83466" lon="2.37706">
        <ele>89.9</ele>
        <time>2015-02-09T19:48:47.594Z</time>
      </trkpt>
      <trkpt lat="48.83471" lon="2.37716">
        <ele>90.6</ele>
        <time>2015-02-09T19:48:50.538Z</time>
      </trkpt>
      <trkpt lat="48.83474" lon="2.37719">
        <ele>90.7</ele>
        <time>2015-02-09T19:48:51.546Z</time>
      </trkpt>
      <trkpt lat="48.83479" lon="2.37728">
        <ele>90.6</ele>
        <time>2015-02-09T19:48:55.316Z</time>
      </trkpt>
      <trkpt lat="48.83481" lon="2.37731">
        <ele>90.4</ele>
        <time>2015-02-09T19:48:55.595Z</time>
      </trkpt>
      <trkpt lat="48.83486" lon="2.37738">
        <ele>90.6</ele>
        <time>2015-02-09T19:48:58.507Z</time>
      </trkpt>
      <trkpt lat="48.83487" lon="2.37741">
        <ele>90.2</ele>
        <time>2015-02-09T19:48:59.544Z</time>
      </trkpt>
      <trkpt lat="48.83494" lon="2.3775">
        <ele>89.4</ele>
        <time>2015-02-09T19:49:03.367Z</time>
      </trkpt>
      <trkpt lat="48.83496" lon="2.37752">
        <ele>89.3</ele>
        <time>2015-02-09T19:49:03.538Z</time>
      </trkpt>
      <trkpt lat="48.83501" lon="2.37761">
        <ele>89.2</ele>
        <time>2015-02-09T19:49:06.591Z</time>
      </trkpt>
      <trkpt lat="48.83503" lon="2.37764">
        <ele>89</ele>
        <time>2015-02-09T19:49:07.606Z</time>
      </trkpt>
      <trkpt lat="48.83509" lon="2.37773">
        <ele>88.8</ele>
        <time>2015-02-09T19:49:10.549Z</time>
      </trkpt>
      <trkpt lat="48.8351" lon="2.37776">
        <ele>88.9</ele>
        <time>2015-02-09T19:49:11.541Z</time>
      </trkpt>
      <trkpt lat="48.83517" lon="2.37786">
        <ele>88.5</ele>
        <time>2015-02-09T19:49:15.527Z</time>
      </trkpt>
      <trkpt lat="48.83518" lon="2.37788">
        <ele>88.2</ele>
        <time>2015-02-09T19:49:16.539Z</time>
      </trkpt>
      <trkpt lat="48.83523" lon="2.37798">
        <ele>88.6</ele>
        <time>2015-02-09T19:49:21.632Z</time>
      </trkpt>
      <trkpt lat="48.83524" lon="2.378">
        <ele>88.7</ele>
        <time>2015-02-09T19:49:22.562Z</time>
      </trkpt>
      <trkpt lat="48.83527" lon="2.37808">
        <ele>86.3</ele>
        <time>2015-02-09T19:50:16.622Z</time>
      </trkpt>
      <trkpt lat="48.83529" lon="2.37811">
        <ele>86.4</ele>
        <time>2015-02-09T19:50:17.513Z</time>
      </trkpt>
      <trkpt lat="48.83533" lon="2.37819">
        <ele>85.8</ele>
        <time>2015-02-09T19:50:19.571Z</time>
      </trkpt>
      <trkpt lat="48.83536" lon="2.37822">
        <ele>86.1</ele>
        <time>2015-02-09T19:50:20.575Z</time>
      </trkpt>
      <trkpt lat="48.8354" lon="2.37831">
        <ele>86.3</ele>
        <time>2015-02-09T19:50:23.079Z</time>
      </trkpt>
      <trkpt lat="48.83543" lon="2.37835">
        <ele>86.6</ele>
        <time>2015-02-09T19:50:23.608Z</time>
      </trkpt>
      <trkpt lat="48.83549" lon="2.37845">
        <ele>86.5</ele>
        <time>2015-02-09T19:50:25.638Z</time>
      </trkpt>
      <trkpt lat="48.83552" lon="2.37851">
        <ele>86.8</ele>
        <time>2015-02-09T19:50:26.537Z</time>
      </trkpt>
      <trkpt lat="48.83555" lon="2.37857">
        <ele>87</ele>
        <time>2015-02-09T19:50:27.537Z</time>
      </trkpt>
      <trkpt lat="48.83558" lon="2.37864">
        <ele>87.1</ele>
        <time>2015-02-09T19:50:28.611Z</time>
      </trkpt>
      <trkpt lat="48.8356" lon="2.37871">
        <ele>87.2</ele>
        <time>2015-02-09T19:50:29.535Z</time>
      </trkpt>
      <trkpt lat="48.83562" lon="2.37877">
        <ele>87.1</ele>
        <time>2015-02-09T19:50:30.559Z</time>
      </trkpt>
      <trkpt lat="48.83568" lon="2.37885">
        <ele>86.9</ele>
        <time>2015-02-09T19:50:33.194Z</time>
      </trkpt>
      <trkpt lat="48.83571" lon="2.37889">
        <ele>86.9</ele>
        <time>2015-02-09T19:50:33.547Z</time>
      </trkpt>
      <trkpt lat="48.83575" lon="2.37896">
        <ele>87.3</ele>
        <time>2015-02-09T19:50:35.578Z</time>
      </trkpt>
      <trkpt lat="48.83577" lon="2.37899">
        <ele>87.5</ele>
        <time>2015-02-09T19:50:36.596Z</time>
      </trkpt>
      <trkpt lat="48.83583" lon="2.37906">
        <ele>88.2</ele>
        <time>2015-02-09T19:50:40.535Z</time>
      </trkpt>
      <trkpt lat="48.83585" lon="2.37908">
        <ele>88</ele>
        <time>2015-02-09T19:50:41.536Z</time>
      </trkpt>
      <trkpt lat="48.83591" lon="2.37916">
        <ele>88.1</ele>
        <time>2015-02-09T19:50:46.551Z</time>
      </trkpt>
      <trkpt lat="48.83592" lon="2.37918">
        <ele>87.9</ele>
        <time>2015-02-09T19:50:47.583Z</time>
      </trkpt>
      <trkpt lat="48.83586" lon="2.37909">
        <ele>86.2</ele>
        <time>2015-02-09T19:51:23.571Z</time>
      </trkpt>
      <trkpt lat="48.83586" lon="2.37908">
        <ele>86.1</ele>
        <time>2015-02-09T19:51:24.583Z</time>
      </trkpt>
      <trkpt lat="48.83582" lon="2.37897">
        <ele>86</ele>
        <time>2015-02-09T19:51:29.570Z</time>
      </trkpt>
      <trkpt lat="48.8358" lon="2.37894">
        <ele>85.9</ele>
        <time>2015-02-09T19:51:30.599Z</time>
      </trkpt>
      <trkpt lat="48.83576" lon="2.37886">
        <ele>86.2</ele>
        <time>2015-02-09T19:51:32.556Z</time>
      </trkpt>
      <trkpt lat="48.83573" lon="2.37882">
        <ele>86.1</ele>
        <time>2015-02-09T19:51:33.601Z</time>
      </trkpt>
      <trkpt lat="48.83568" lon="2.37874">
        <ele>86.1</ele>
        <time>2015-02-09T19:51:35.528Z</time>
      </trkpt>
      <trkpt lat="48.83565" lon="2.37869">
        <ele>86.1</ele>
        <time>2015-02-09T19:51:36.574Z</time>
      </trkpt>
      <trkpt lat="48.83562" lon="2.37864">
        <ele>86.3</ele>
        <time>2015-02-09T19:51:38.189Z</time>
      </trkpt>
      <trkpt lat="48.83559" lon="2.37858">
        <ele>86.3</ele>
        <time>2015-02-09T19:51:38.587Z</time>
      </trkpt>
      <trkpt lat="48.83555" lon="2.37852">
        <ele>86.8</ele>
        <time>2015-02-09T19:51:39.605Z</time>
      </trkpt>
      <trkpt lat="48.83553" lon="2.37847">
        <ele>86.9</ele>
        <time>2015-02-09T19:51:40.619Z</time>
      </trkpt>
      <trkpt lat="48.83547" lon="2.37841">
        <ele>86.5</ele>
        <time>2015-02-09T19:51:43.638Z</time>
      </trkpt>
      <trkpt lat="48.83547" lon="2.37842">
        <ele>86.2</ele>
        <time>2015-02-09T19:51:44.537Z</time>
      </trkpt>
      <trkpt lat="48.83547" lon="2.37842">
        <ele>86.2</ele>
        <time>2015-02-09T19:51:45.557Z</time>
      </trkpt>
      <trkpt lat="48.83548" lon="2.37844">
        <ele>86</ele>
        <time>2015-02-09T19:51:46.566Z</time>
      </trkpt>
      <trkpt lat="48.83553" lon="2.37851">
        <ele>85</ele>
        <time>2015-02-09T19:51:48.530Z</time>
      </trkpt>
      <trkpt lat="48.83555" lon="2.37855">
        <ele>84.4</ele>
        <time>2015-02-09T19:51:49.593Z</time>
      </trkpt>
      <trkpt lat="48.8356" lon="2.37864">
        <ele>84.3</ele>
        <time>2015-02-09T19:51:51.572Z</time>
      </trkpt>
      <trkpt lat="48.83562" lon="2.37868">
        <ele>84.6</ele>
        <time>2015-02-09T19:51:52.530Z</time>
      </trkpt>
      <trkpt lat="48.83566" lon="2.37877">
        <ele>84.9</ele>
        <time>2015-02-09T19:51:54.540Z</time>
      </trkpt>
      <trkpt lat="48.83569" lon="2.37882">
        <ele>85.1</ele>
        <time>2015-02-09T19:51:55.578Z</time>
      </trkpt>
      <trkpt lat="48.83573" lon="2.37891">
        <ele>85.3</ele>
        <time>2015-02-09T19:51:58.617Z</time>
      </trkpt>
      <trkpt lat="48.83575" lon="2.37894">
        <ele>85.4</ele>
        <time>2015-02-09T19:51:59.541Z</time>
      </trkpt>
      <trkpt lat="48.8358" lon="2.37904">
        <ele>85.8</ele>
        <time>2015-02-09T19:52:03.541Z</time>
      </trkpt>
      <trkpt lat="48.83582" lon="2.37906">
        <ele>85.7</ele>
        <time>2015-02-09T19:52:04.556Z</time>
      </trkpt>
      <trkpt lat="48.83576" lon="2.37914">
        <ele>87.5</ele>
        <time>2015-02-09T19:52:56.641Z</time>
      </trkpt>
      <trkpt lat="48.83574" lon="2.37917">
        <ele>87.2</ele>
        <time>2015-02-09T19:52:57.537Z</time>
      </trkpt>
      <trkpt lat="48.83566" lon="2.37925">
        <ele>87</ele>
        <time>2015-02-09T19:53:00.566Z</time>
      </trkpt>
      <trkpt lat="48.83564" lon="2.37927">
        <ele>87</ele>
        <time>2015-02-09T19:53:01.600Z</time>
      </trkpt>
      <trkpt lat="48.83558" lon="2.37933">
        <ele>86.7</ele>
        <time>2015-02-09T19:53:03.530Z</time>
      </trkpt>
      <trkpt lat="48.83556" lon="2.37936">
        <ele>86.5</ele>
        <time>2015-02-09T19:53:04.540Z</time>
      </trkpt>
      <trkpt lat="48.83549" lon="2.37944">
        <ele>86.5</ele>
        <time>2015-02-09T19:53:07.679Z</time>
      </trkpt>
      <trkpt lat="48.83547" lon="2.37947">
        <ele>86.6</ele>
        <time>2015-02-09T19:53:08.529Z</time>
      </trkpt>
      <trkpt lat="48.83542" lon="2.37955">
        <ele>86.2</ele>
        <time>2015-02-09T19:53:10.586Z</time>
      </trkpt>
      <trkpt lat="48.83541" lon="2.37959">
        <ele>85.6</ele>
        <time>2015-02-09T19:53:11.603Z</time>
      </trkpt>
      <trkpt lat="48.83536" lon="2.37966">
        <ele>85.3</ele>
        <time>2015-02-09T19:53:13.566Z</time>
      </trkpt>
      <trkpt lat="48.83534" lon="2.37969">
        <ele>85.1</ele>
        <time>2015-02-09T19:53:14.576Z</time>
      </trkpt>
      <trkpt lat="48.83528" lon="2.37976">
        <ele>84.9</ele>
        <time>2015-02-09T19:53:16.596Z</time>
      </trkpt>
      <trkpt lat="48.83525" lon="2.37981">
        <ele>84.9</ele>
        <time>2015-02-09T19:53:17.535Z</time>
      </trkpt>
      <trkpt lat="48.83518" lon="2.3799">
        <ele>84.8</ele>
        <time>2015-02-09T19:53:19.584Z</time>
      </trkpt>
      <trkpt lat="48.83515" lon="2.37995">
        <ele>84.8</ele>
        <time>2015-02-09T19:53:20.594Z</time>
      </trkpt>
      <trkpt lat="48.83508" lon="2.38004">
        <ele>85.1</ele>
        <time>2015-02-09T19:53:23.029Z</time>
      </trkpt>
      <trkpt lat="48.83505" lon="2.38007">
        <ele>85.1</ele>
        <time>2015-02-09T19:53:23.529Z</time>
      </trkpt>
      <trkpt lat="48.83498" lon="2.38016">
        <ele>85.2</ele>
        <time>2015-02-09T19:53:25.601Z</time>
      </trkpt>
      <trkpt lat="48.83495" lon="2.38021">
        <ele>85.3</ele>
        <time>2015-02-09T19:53:26.618Z</time>
      </trkpt>
      <trkpt lat="48.83492" lon="2.38025">
        <ele>85.2</ele>
        <time>2015-02-09T19:53:28.042Z</time>
      </trkpt>
      <trkpt lat="48.83488" lon="2.3803">
        <ele>85.3</ele>
        <time>2015-02-09T19:53:28.536Z</time>
      </trkpt>
      <trkpt lat="48.83485" lon="2.38034">
        <ele>85.1</ele>
        <time>2015-02-09T19:53:29.546Z</time>
      </trkpt>
      <trkpt lat="48.83481" lon="2.38039">
        <ele>84.9</ele>
        <time>2015-02-09T19:53:30.545Z</time>
      </trkpt>
      <trkpt lat="48.83475" lon="2.38047">
        <ele>84.6</ele>
        <time>2015-02-09T19:53:33.181Z</time>
      </trkpt>
      <trkpt lat="48.83471" lon="2.38052">
        <ele>84.6</ele>
        <time>2015-02-09T19:53:33.558Z</time>
      </trkpt>
      <trkpt lat="48.83465" lon="2.3806">
        <ele>84.8</ele>
        <time>2015-02-09T19:53:35.535Z</time>
      </trkpt>
      <trkpt lat="48.83462" lon="2.38065">
        <ele>84.7</ele>
        <time>2015-02-09T19:53:36.534Z</time>
      </trkpt>
      <trkpt lat="48.83456" lon="2.38072">
        <ele>84.5</ele>
        <time>2015-02-09T19:53:38.576Z</time>
      </trkpt>
      <trkpt lat="48.83453" lon="2.38076">
        <ele>84.4</ele>
        <time>2015-02-09T19:53:39.587Z</time>
      </trkpt>
      <trkpt lat="48.83446" lon="2.38084">
        <ele>84.4</ele>
        <time>2015-02-09T19:53:41.499Z</time>
      </trkpt>
      <trkpt lat="48.83443" lon="2.38088">
        <ele>84.4</ele>
        <time>2015-02-09T19:53:42.528Z</time>
      </trkpt>
      <trkpt lat="48.83437" lon="2.38095">
        <ele>84.3</ele>
        <time>2015-02-09T19:53:44.490Z</time>
      </trkpt>
      <trkpt lat="48.83434" lon="2.38099">
        <ele>84.3</ele>
        <time>2015-02-09T19:53:45.488Z</time>
      </trkpt>
      <trkpt lat="48.83428" lon="2.38107">
        <ele>84.3</ele>
        <time>2015-02-09T19:53:47.520Z</time>
      </trkpt>
      <trkpt lat="48.83425" lon="2.38111">
        <ele>84.2</ele>
        <time>2015-02-09T19:53:48.624Z</time>
      </trkpt>
      <trkpt lat="48.8342" lon="2.38118">
        <ele>84</ele>
        <time>2015-02-09T19:53:50.557Z</time>
      </trkpt>
      <trkpt lat="48.83417" lon="2.38121">
        <ele>83.8</ele>
        <time>2015-02-09T19:53:51.602Z</time>
      </trkpt>
      <trkpt lat="48.83412" lon="2.38128">
        <ele>83.6</ele>
        <time>2015-02-09T19:53:53.555Z</time>
      </trkpt>
      <trkpt lat="48.83409" lon="2.38131">
        <ele>83.6</ele>
        <time>2015-02-09T19:53:54.595Z</time>
      </trkpt>
      <trkpt lat="48.83404" lon="2.38139">
        <ele>83.1</ele>
        <time>2015-02-09T19:53:56.585Z</time>
      </trkpt>
      <trkpt lat="48.83401" lon="2.38142">
        <ele>82.9</ele>
        <time>2015-02-09T19:53:57.609Z</time>
      </trkpt>
      <trkpt lat="48.83395" lon="2.38151">
        <ele>82.6</ele>
        <time>2015-02-09T19:53:59.576Z</time>
      </trkpt>
      <trkpt lat="48.83392" lon="2.38155">
        <ele>82.6</ele>
        <time>2015-02-09T19:54:00.552Z</time>
      </trkpt>
      <trkpt lat="48.83386" lon="2.38163">
        <ele>82.3</ele>
        <time>2015-02-09T19:54:02.528Z</time>
      </trkpt>
      <trkpt lat="48.83382" lon="2.38167">
        <ele>82.2</ele>
        <time>2015-02-09T19:54:03.498Z</time>
      </trkpt>
      <trkpt lat="48.83377" lon="2.38175">
        <ele>82.2</ele>
        <time>2015-02-09T19:54:05.590Z</time>
      </trkpt>
      <trkpt lat="48.83374" lon="2.38179">
        <ele>82.3</ele>
        <time>2015-02-09T19:54:06.608Z</time>
      </trkpt>
      <trkpt lat="48.83369" lon="2.38185">
        <ele>82.4</ele>
        <time>2015-02-09T19:54:08.821Z</time>
      </trkpt>
      <trkpt lat="48.83366" lon="2.38188">
        <ele>82.5</ele>
        <time>2015-02-09T19:54:09.518Z</time>
      </trkpt>
      <trkpt lat="48.8336" lon="2.38196">
        <ele>82.4</ele>
        <time>2015-02-09T19:54:12.519Z</time>
      </trkpt>
      <trkpt lat="48.83358" lon="2.38198">
        <ele>82.5</ele>
        <time>2015-02-09T19:54:13.573Z</time>
      </trkpt>
      <trkpt lat="48.83351" lon="2.38205">
        <ele>82.8</ele>
        <time>2015-02-09T19:54:17.502Z</time>
      </trkpt>
      <trkpt lat="48.83349" lon="2.38207">
        <ele>82.8</ele>
        <time>2015-02-09T19:54:18.534Z</time>
      </trkpt>
      <trkpt lat="48.83348" lon="2.38217">
        <ele>82.7</ele>
        <time>2015-02-09T19:54:21.615Z</time>
      </trkpt>
      <trkpt lat="48.83349" lon="2.38222">
        <ele>82.9</ele>
        <time>2015-02-09T19:54:22.696Z</time>
      </trkpt>
      <trkpt lat="48.83353" lon="2.3823">
        <ele>82.8</ele>
        <time>2015-02-09T19:54:25.586Z</time>
      </trkpt>
      <trkpt lat="48.83355" lon="2.38233">
        <ele>82.9</ele>
        <time>2015-02-09T19:54:26.608Z</time>
      </trkpt>
      <trkpt lat="48.83359" lon="2.38241">
        <ele>83</ele>
        <time>2015-02-09T19:54:29.535Z</time>
      </trkpt>
      <trkpt lat="48.8336" lon="2.38243">
        <ele>82.9</ele>
        <time>2015-02-09T19:54:30.572Z</time>
      </trkpt>
      <trkpt lat="48.83365" lon="2.3825">
        <ele>82.9</ele>
        <time>2015-02-09T19:54:33.388Z</time>
      </trkpt>
      <trkpt lat="48.83368" lon="2.38253">
        <ele>82.9</ele>
        <time>2015-02-09T19:54:33.544Z</time>
      </trkpt>
      <trkpt lat="48.83373" lon="2.38261">
        <ele>83.1</ele>
        <time>2015-02-09T19:54:36.608Z</time>
      </trkpt>
      <trkpt lat="48.83374" lon="2.38263">
        <ele>82.9</ele>
        <time>2015-02-09T19:54:37.612Z</time>
      </trkpt>
      <trkpt lat="48.83376" lon="2.38273">
        <ele>82.9</ele>
        <time>2015-02-09T19:54:40.566Z</time>
      </trkpt>
      <trkpt lat="48.83378" lon="2.38278">
        <ele>83.1</ele>
        <time>2015-02-09T19:54:41.604Z</time>
      </trkpt>
      <trkpt lat="48.83382" lon="2.38285">
        <ele>82.8</ele>
        <time>2015-02-09T19:54:43.640Z</time>
      </trkpt>
      <trkpt lat="48.83385" lon="2.38289">
        <ele>83.1</ele>
        <time>2015-02-09T19:54:44.523Z</time>
      </trkpt>
      <trkpt lat="48.8339" lon="2.38294">
        <ele>83.1</ele>
        <time>2015-02-09T19:54:46.554Z</time>
      </trkpt>
      <trkpt lat="48.83395" lon="2.38301">
        <ele>82.6</ele>
        <time>2015-02-09T19:54:47.624Z</time>
      </trkpt>
      <trkpt lat="48.83399" lon="2.38306">
        <ele>82.1</ele>
        <time>2015-02-09T19:54:48.604Z</time>
      </trkpt>
      <trkpt lat="48.83403" lon="2.38312">
        <ele>81.9</ele>
        <time>2015-02-09T19:54:49.593Z</time>
      </trkpt>
      <trkpt lat="48.83409" lon="2.38321">
        <ele>81.9</ele>
        <time>2015-02-09T19:54:52.544Z</time>
      </trkpt>
      <trkpt lat="48.8341" lon="2.38324">
        <ele>81.9</ele>
        <time>2015-02-09T19:54:53.547Z</time>
      </trkpt>
      <trkpt lat="48.83414" lon="2.38333">
        <ele>81.9</ele>
        <time>2015-02-09T19:54:55.562Z</time>
      </trkpt>
      <trkpt lat="48.83415" lon="2.38337">
        <ele>82.4</ele>
        <time>2015-02-09T19:54:56.566Z</time>
      </trkpt>
      <trkpt lat="48.83422" lon="2.38346">
        <ele>82.8</ele>
        <time>2015-02-09T19:54:58.710Z</time>
      </trkpt>
      <trkpt lat="48.83425" lon="2.3835">
        <ele>82.7</ele>
        <time>2015-02-09T19:54:59.610Z</time>
      </trkpt>
      <trkpt lat="48.83429" lon="2.38355">
        <ele>82.8</ele>
        <time>2015-02-09T19:55:00.524Z</time>
      </trkpt>
      <trkpt lat="48.83434" lon="2.3836">
        <ele>83.1</ele>
        <time>2015-02-09T19:55:01.546Z</time>
      </trkpt>
      <trkpt lat="48.83437" lon="2.38365">
        <ele>83.4</ele>
        <time>2015-02-09T19:55:02.571Z</time>
      </trkpt>
      <trkpt lat="48.83441" lon="2.38373">
        <ele>83</ele>
        <time>2015-02-09T19:55:03.582Z</time>
      </trkpt>
      <trkpt lat="48.83445" lon="2.38379">
        <ele>83</ele>
        <time>2015-02-09T19:55:04.512Z</time>
      </trkpt>
      <trkpt lat="48.83447" lon="2.38384">
        <ele>82.9</ele>
        <time>2015-02-09T19:55:05.508Z</time>
      </trkpt>
      <trkpt lat="48.83449" lon="2.38388">
        <ele>83.1</ele>
        <time>2015-02-09T19:55:06.544Z</time>
      </trkpt>
      <trkpt lat="48.83453" lon="2.38396">
        <ele>82.9</ele>
        <time>2015-02-09T19:55:07.586Z</time>
      </trkpt>
      <trkpt lat="48.83457" lon="2.38402">
        <ele>82.7</ele>
        <time>2015-02-09T19:55:08.908Z</time>
      </trkpt>
      <trkpt lat="48.83461" lon="2.38408">
        <ele>82.5</ele>
        <time>2015-02-09T19:55:09.595Z</time>
      </trkpt>
      <trkpt lat="48.83466" lon="2.38417">
        <ele>83.1</ele>
        <time>2015-02-09T19:55:11.511Z</time>
      </trkpt>
      <trkpt lat="48.83467" lon="2.38421">
        <ele>83.6</ele>
        <time>2015-02-09T19:55:12.590Z</time>
      </trkpt>
      <trkpt lat="48.8347" lon="2.3843">
        <ele>83.8</ele>
        <time>2015-02-09T19:55:14.491Z</time>
      </trkpt>
      <trkpt lat="48.83472" lon="2.38434">
        <ele>84</ele>
        <time>2015-02-09T19:55:15.589Z</time>
      </trkpt>
      <trkpt lat="48.83476" lon="2.38442">
        <ele>84.6</ele>
        <time>2015-02-09T19:55:17.661Z</time>
      </trkpt>
      <trkpt lat="48.83477" lon="2.38447">
        <ele>85.1</ele>
        <time>2015-02-09T19:55:18.620Z</time>
      </trkpt>
      <trkpt lat="48.83483" lon="2.38456">
        <ele>86.1</ele>
        <time>2015-02-09T19:55:21.661Z</time>
      </trkpt>
      <trkpt lat="48.83485" lon="2.38461">
        <ele>86.1</ele>
        <time>2015-02-09T19:55:22.536Z</time>
      </trkpt>
      <trkpt lat="48.83488" lon="2.38465">
        <ele>86.2</ele>
        <time>2015-02-09T19:55:23.529Z</time>
      </trkpt>
      <trkpt lat="48.83492" lon="2.38471">
        <ele>86.3</ele>
        <time>2015-02-09T19:55:24.591Z</time>
      </trkpt>
      <trkpt lat="48.83495" lon="2.38483">
        <ele>87.4</ele>
        <time>2015-02-09T19:55:28.086Z</time>
      </trkpt>
      <trkpt lat="48.83496" lon="2.38486">
        <ele>87.8</ele>
        <time>2015-02-09T19:55:28.600Z</time>
      </trkpt>
      <trkpt lat="48.83501" lon="2.38494">
        <ele>88.2</ele>
        <time>2015-02-09T19:55:30.539Z</time>
      </trkpt>
      <trkpt lat="48.83505" lon="2.385">
        <ele>88.5</ele>
        <time>2015-02-09T19:55:31.589Z</time>
      </trkpt>
      <trkpt lat="48.83511" lon="2.38508">
        <ele>88.7</ele>
        <time>2015-02-09T19:55:33.525Z</time>
      </trkpt>
      <trkpt lat="48.83514" lon="2.38512">
        <ele>88.9</ele>
        <time>2015-02-09T19:55:34.634Z</time>
      </trkpt>
      <trkpt lat="48.83516" lon="2.38523">
        <ele>90.3</ele>
        <time>2015-02-09T19:55:38.262Z</time>
      </trkpt>
      <trkpt lat="48.83513" lon="2.38526">
        <ele>90.8</ele>
        <time>2015-02-09T19:55:38.516Z</time>
      </trkpt>
      <trkpt lat="48.83507" lon="2.38534">
        <ele>91.9</ele>
        <time>2015-02-09T19:55:40.536Z</time>
      </trkpt>
      <trkpt lat="48.83504" lon="2.38538">
        <ele>92.6</ele>
        <time>2015-02-09T19:55:41.613Z</time>
      </trkpt>
      <trkpt lat="48.835" lon="2.38542">
        <ele>93</ele>
        <time>2015-02-09T19:55:43.345Z</time>
      </trkpt>
      <trkpt lat="48.83495" lon="2.38546">
        <ele>93.3</ele>
        <time>2015-02-09T19:55:43.531Z</time>
      </trkpt>
      <trkpt lat="48.83489" lon="2.38553">
        <ele>94</ele>
        <time>2015-02-09T19:55:45.550Z</time>
      </trkpt>
      <trkpt lat="48.83485" lon="2.38556">
        <ele>94</ele>
        <time>2015-02-09T19:55:46.592Z</time>
      </trkpt>
      <trkpt lat="48.83479" lon="2.38559">
        <ele>94.2</ele>
        <time>2015-02-09T19:55:48.391Z</time>
      </trkpt>
      <trkpt lat="48.83474" lon="2.38562">
        <ele>94.3</ele>
        <time>2015-02-09T19:55:48.495Z</time>
      </trkpt>
      <trkpt lat="48.83468" lon="2.38571">
        <ele>95.1</ele>
        <time>2015-02-09T19:55:50.548Z</time>
      </trkpt>
      <trkpt lat="48.83467" lon="2.38577">
        <ele>95.7</ele>
        <time>2015-02-09T19:55:51.544Z</time>
      </trkpt>
      <trkpt lat="48.83465" lon="2.38588">
        <ele>96.6</ele>
        <time>2015-02-09T19:55:53.564Z</time>
      </trkpt>
      <trkpt lat="48.83464" lon="2.38594">
        <ele>97.2</ele>
        <time>2015-02-09T19:55:54.568Z</time>
      </trkpt>
      <trkpt lat="48.83458" lon="2.38604">
        <ele>98.2</ele>
        <time>2015-02-09T19:55:57.526Z</time>
      </trkpt>
      <trkpt lat="48.83457" lon="2.38607">
        <ele>98.6</ele>
        <time>2015-02-09T19:55:58.576Z</time>
      </trkpt>
      <trkpt lat="48.83451" lon="2.3861">
        <ele>99.3</ele>
        <time>2015-02-09T19:56:00.581Z</time>
      </trkpt>
      <trkpt lat="48.83447" lon="2.38612">
        <ele>99.5</ele>
        <time>2015-02-09T19:56:01.591Z</time>
      </trkpt>
      <trkpt lat="48.83439" lon="2.38614">
        <ele>100.5</ele>
        <time>2015-02-09T19:56:03.674Z</time>
      </trkpt>
      <trkpt lat="48.83433" lon="2.38613">
        <ele>100.9</ele>
        <time>2015-02-09T19:56:04.551Z</time>
      </trkpt>
      <trkpt lat="48.83429" lon="2.38613">
        <ele>101.2</ele>
        <time>2015-02-09T19:56:05.575Z</time>
      </trkpt>
      <trkpt lat="48.83423" lon="2.38612">
        <ele>101.6</ele>
        <time>2015-02-09T19:56:06.574Z</time>
      </trkpt>
      <trkpt lat="48.83417" lon="2.38612">
        <ele>101.9</ele>
        <time>2015-02-09T19:56:07.596Z</time>
      </trkpt>
      <trkpt lat="48.83412" lon="2.38613">
        <ele>101.9</ele>
        <time>2015-02-09T19:56:08.628Z</time>
      </trkpt>
      <trkpt lat="48.83406" lon="2.38618">
        <ele>102.2</ele>
        <time>2015-02-09T19:56:10.608Z</time>
      </trkpt>
      <trkpt lat="48.83404" lon="2.38622">
        <ele>102.5</ele>
        <time>2015-02-09T19:56:11.528Z</time>
      </trkpt>
      <trkpt lat="48.83406" lon="2.38635">
        <ele>102.9</ele>
        <time>2015-02-09T19:56:13.561Z</time>
      </trkpt>
      <trkpt lat="48.83407" lon="2.38643">
        <ele>103</ele>
        <time>2015-02-09T19:56:14.548Z</time>
      </trkpt>
      <trkpt lat="48.83408" lon="2.38651">
        <ele>103.3</ele>
        <time>2015-02-09T19:56:15.562Z</time>
      </trkpt>
      <trkpt lat="48.83407" lon="2.38658">
        <ele>103.8</ele>
        <time>2015-02-09T19:56:16.595Z</time>
      </trkpt>
      <trkpt lat="48.83404" lon="2.38671">
        <ele>105</ele>
        <time>2015-02-09T19:56:18.632Z</time>
      </trkpt>
      <trkpt lat="48.83402" lon="2.38678">
        <ele>106.3</ele>
        <time>2015-02-09T19:56:19.611Z</time>
      </trkpt>
      <trkpt lat="48.83403" lon="2.3869">
        <ele>107.2</ele>
        <time>2015-02-09T19:56:22.585Z</time>
      </trkpt>
      <trkpt lat="48.83406" lon="2.38694">
        <ele>107.4</ele>
        <time>2015-02-09T19:56:23.608Z</time>
      </trkpt>
      <trkpt lat="48.8341" lon="2.38705">
        <ele>107.4</ele>
        <time>2015-02-09T19:56:25.628Z</time>
      </trkpt>
      <trkpt lat="48.8341" lon="2.38709">
        <ele>107.4</ele>
        <time>2015-02-09T19:56:26.595Z</time>
      </trkpt>
      <trkpt lat="48.83407" lon="2.3872">
        <ele>108.1</ele>
        <time>2015-02-09T19:56:29.584Z</time>
      </trkpt>
      <trkpt lat="48.83405" lon="2.38725">
        <ele>108.2</ele>
        <time>2015-02-09T19:56:30.619Z</time>
      </trkpt>
      <trkpt lat="48.83399" lon="2.38732">
        <ele>108.2</ele>
        <time>2015-02-09T19:56:32.503Z</time>
      </trkpt>
      <trkpt lat="48.83396" lon="2.38736">
        <ele>108.4</ele>
        <time>2015-02-09T19:56:33.584Z</time>
      </trkpt>
      <trkpt lat="48.83393" lon="2.38745">
        <ele>108.8</ele>
        <time>2015-02-09T19:56:35.566Z</time>
      </trkpt>
      <trkpt lat="48.83391" lon="2.38748">
        <ele>108.9</ele>
        <time>2015-02-09T19:56:36.591Z</time>
      </trkpt>
      <trkpt lat="48.83386" lon="2.38759">
        <ele>109</ele>
        <time>2015-02-09T19:56:40.587Z</time>
      </trkpt>
      <trkpt lat="48.83385" lon="2.38762">
        <ele>108.7</ele>
        <time>2015-02-09T19:56:41.521Z</time>
      </trkpt>
      <trkpt lat="48.8338" lon="2.38769">
        <ele>107.5</ele>
        <time>2015-02-09T19:56:44.583Z</time>
      </trkpt>
      <trkpt lat="48.83378" lon="2.38771">
        <ele>107.2</ele>
        <time>2015-02-09T19:56:45.593Z</time>
      </trkpt>
      <trkpt lat="48.83373" lon="2.38779">
        <ele>106.5</ele>
        <time>2015-02-09T19:56:48.545Z</time>
      </trkpt>
      <trkpt lat="48.83372" lon="2.38782">
        <ele>106.5</ele>
        <time>2015-02-09T19:56:49.563Z</time>
      </trkpt>
      <trkpt lat="48.83367" lon="2.38791">
        <ele>106.3</ele>
        <time>2015-02-09T19:56:53.538Z</time>
      </trkpt>
      <trkpt lat="48.83365" lon="2.38792">
        <ele>106.1</ele>
        <time>2015-02-09T19:56:54.533Z</time>
      </trkpt>
      <trkpt lat="48.8336" lon="2.38799">
        <ele>103.2</ele>
        <time>2015-02-09T19:56:57.593Z</time>
      </trkpt>
      <trkpt lat="48.83358" lon="2.38801">
        <ele>101.8</ele>
        <time>2015-02-09T19:56:58.545Z</time>
      </trkpt>
      <trkpt lat="48.83357" lon="2.38812">
        <ele>100.1</ele>
        <time>2015-02-09T19:57:02.568Z</time>
      </trkpt>
      <trkpt lat="48.8336" lon="2.38817">
        <ele>99.6</ele>
        <time>2015-02-09T19:57:03.581Z</time>
      </trkpt>
      <trkpt lat="48.83362" lon="2.38822">
        <ele>99.3</ele>
        <time>2015-02-09T19:57:04.499Z</time>
      </trkpt>
      <trkpt lat="48.83366" lon="2.38827">
        <ele>98.6</ele>
        <time>2015-02-09T19:57:05.508Z</time>
      </trkpt>
      <trkpt lat="48.8337" lon="2.38838">
        <ele>98.2</ele>
        <time>2015-02-09T19:57:08.547Z</time>
      </trkpt>
      <trkpt lat="48.8337" lon="2.38841">
        <ele>97.7</ele>
        <time>2015-02-09T19:57:09.534Z</time>
      </trkpt>
      <trkpt lat="48.83374" lon="2.3885">
        <ele>97.4</ele>
        <time>2015-02-09T19:57:13.596Z</time>
      </trkpt>
      <trkpt lat="48.83376" lon="2.38853">
        <ele>97.5</ele>
        <time>2015-02-09T19:57:14.594Z</time>
      </trkpt>
      <trkpt lat="48.83381" lon="2.38859">
        <ele>98.2</ele>
        <time>2015-02-09T19:57:16.548Z</time>
      </trkpt>
      <trkpt lat="48.83384" lon="2.38862">
        <ele>98.3</ele>
        <time>2015-02-09T19:57:17.583Z</time>
      </trkpt>
      <trkpt lat="48.83389" lon="2.38871">
        <ele>98.9</ele>
        <time>2015-02-09T19:57:20.572Z</time>
      </trkpt>
      <trkpt lat="48.83389" lon="2.38873">
        <ele>99.4</ele>
        <time>2015-02-09T19:57:21.571Z</time>
      </trkpt>
      <trkpt lat="48.83392" lon="2.38884">
        <ele>99</ele>
        <time>2015-02-09T19:57:26.584Z</time>
      </trkpt>
      <trkpt lat="48.83394" lon="2.38887">
        <ele>99</ele>
        <time>2015-02-09T19:57:27.588Z</time>
      </trkpt>
      <trkpt lat="48.83402" lon="2.38888">
        <ele>96.9</ele>
        <time>2015-02-09T19:57:31.601Z</time>
      </trkpt>
      <trkpt lat="48.83407" lon="2.38886">
        <ele>96.6</ele>
        <time>2015-02-09T19:57:32.586Z</time>
      </trkpt>
      <trkpt lat="48.83413" lon="2.38878">
        <ele>95.6</ele>
        <time>2015-02-09T19:57:34.596Z</time>
      </trkpt>
      <trkpt lat="48.83415" lon="2.38874">
        <ele>95.3</ele>
        <time>2015-02-09T19:57:35.634Z</time>
      </trkpt>
      <trkpt lat="48.8342" lon="2.38865">
        <ele>94.5</ele>
        <time>2015-02-09T19:57:37.624Z</time>
      </trkpt>
      <trkpt lat="48.83423" lon="2.3886">
        <ele>94.4</ele>
        <time>2015-02-09T19:57:38.587Z</time>
      </trkpt>
      <trkpt lat="48.83426" lon="2.38856">
        <ele>94.4</ele>
        <time>2015-02-09T19:57:39.588Z</time>
      </trkpt>
      <trkpt lat="48.83431" lon="2.38853">
        <ele>94.5</ele>
        <time>2015-02-09T19:57:40.691Z</time>
      </trkpt>
      <trkpt lat="48.83437" lon="2.38847">
        <ele>94.4</ele>
        <time>2015-02-09T19:57:42.614Z</time>
      </trkpt>
      <trkpt lat="48.8344" lon="2.38844">
        <ele>94.6</ele>
        <time>2015-02-09T19:57:43.631Z</time>
      </trkpt>
      <trkpt lat="48.83443" lon="2.38831">
        <ele>94.5</ele>
        <time>2015-02-09T19:57:46.591Z</time>
      </trkpt>
      <trkpt lat="48.83444" lon="2.38827">
        <ele>93.8</ele>
        <time>2015-02-09T19:57:47.718Z</time>
      </trkpt>
      <trkpt lat="48.83446" lon="2.38819">
        <ele>93</ele>
        <time>2015-02-09T19:57:49.577Z</time>
      </trkpt>
      <trkpt lat="48.83447" lon="2.38813">
        <ele>93</ele>
        <time>2015-02-09T19:57:50.599Z</time>
      </trkpt>
      <trkpt lat="48.83449" lon="2.38808">
        <ele>93.1</ele>
        <time>2015-02-09T19:57:51.612Z</time>
      </trkpt>
      <trkpt lat="48.83454" lon="2.38805">
        <ele>93.2</ele>
        <time>2015-02-09T19:57:52.560Z</time>
      </trkpt>
      <trkpt lat="48.83459" lon="2.38801">
        <ele>92.8</ele>
        <time>2015-02-09T19:57:53.574Z</time>
      </trkpt>
      <trkpt lat="48.83464" lon="2.38798">
        <ele>93</ele>
        <time>2015-02-09T19:57:54.581Z</time>
      </trkpt>
      <trkpt lat="48.83469" lon="2.38794">
        <ele>92.9</ele>
        <time>2015-02-09T19:57:56.059Z</time>
      </trkpt>
      <trkpt lat="48.83472" lon="2.38791">
        <ele>93</ele>
        <time>2015-02-09T19:57:56.597Z</time>
      </trkpt>
      <trkpt lat="48.83475" lon="2.38787">
        <ele>93</ele>
        <time>2015-02-09T19:57:58.150Z</time>
      </trkpt>
      <trkpt lat="48.83479" lon="2.38782">
        <ele>92.9</ele>
        <time>2015-02-09T19:57:58.523Z</time>
      </trkpt>
      <trkpt lat="48.83483" lon="2.38778">
        <ele>93.1</ele>
        <time>2015-02-09T19:57:59.546Z</time>
      </trkpt>
      <trkpt lat="48.83487" lon="2.38773">
        <ele>93.3</ele>
        <time>2015-02-09T19:58:00.479Z</time>
      </trkpt>
      <trkpt lat="48.83491" lon="2.3877">
        <ele>93.5</ele>
        <time>2015-02-09T19:58:01.691Z</time>
      </trkpt>
      <trkpt lat="48.83496" lon="2.38765">
        <ele>93.4</ele>
        <time>2015-02-09T19:58:02.598Z</time>
      </trkpt>
      <trkpt lat="48.835" lon="2.38761">
        <ele>93.5</ele>
        <time>2015-02-09T19:58:03.507Z</time>
      </trkpt>
      <trkpt lat="48.83503" lon="2.38755">
        <ele>93.5</ele>
        <time>2015-02-09T19:58:04.527Z</time>
      </trkpt>
      <trkpt lat="48.83508" lon="2.38746">
        <ele>93.8</ele>
        <time>2015-02-09T19:58:06.574Z</time>
      </trkpt>
      <trkpt lat="48.83512" lon="2.38743">
        <ele>94.2</ele>
        <time>2015-02-09T19:58:07.632Z</time>
      </trkpt>
      <trkpt lat="48.83518" lon="2.38737">
        <ele>94.4</ele>
        <time>2015-02-09T19:58:09.646Z</time>
      </trkpt>
      <trkpt lat="48.83521" lon="2.38736">
        <ele>94.6</ele>
        <time>2015-02-09T19:58:10.556Z</time>
      </trkpt>
      <trkpt lat="48.83528" lon="2.3874">
        <ele>93.9</ele>
        <time>2015-02-09T19:58:12.598Z</time>
      </trkpt>
      <trkpt lat="48.83531" lon="2.38742">
        <ele>92.9</ele>
        <time>2015-02-09T19:58:13.604Z</time>
      </trkpt>
      <trkpt lat="48.83537" lon="2.38749">
        <ele>92.3</ele>
        <time>2015-02-09T19:58:16.497Z</time>
      </trkpt>
      <trkpt lat="48.83539" lon="2.38751">
        <ele>91.5</ele>
        <time>2015-02-09T19:58:17.584Z</time>
      </trkpt>
      <trkpt lat="48.83539" lon="2.38738">
        <ele>89.7</ele>
        <time>2015-02-09T19:58:26.604Z</time>
      </trkpt>
      <trkpt lat="48.83541" lon="2.38736">
        <ele>89.6</ele>
        <time>2015-02-09T19:58:27.526Z</time>
      </trkpt>
      <trkpt lat="48.83546" lon="2.38726">
        <ele>89</ele>
        <time>2015-02-09T19:58:31.530Z</time>
      </trkpt>
      <trkpt lat="48.83548" lon="2.38723">
        <ele>88.8</ele>
        <time>2015-02-09T19:58:32.540Z</time>
      </trkpt>
      <trkpt lat="48.83555" lon="2.38715">
        <ele>88.2</ele>
        <time>2015-02-09T19:58:35.522Z</time>
      </trkpt>
      <trkpt lat="48.83557" lon="2.38712">
        <ele>88.1</ele>
        <time>2015-02-09T19:58:36.548Z</time>
      </trkpt>
      <trkpt lat="48.83564" lon="2.38705">
        <ele>88</ele>
        <time>2015-02-09T19:58:38.490Z</time>
      </trkpt>
      <trkpt lat="48.83566" lon="2.38702">
        <ele>87.9</ele>
        <time>2015-02-09T19:58:39.493Z</time>
      </trkpt>
      <trkpt lat="48.83573" lon="2.38694">
        <ele>88</ele>
        <time>2015-02-09T19:58:43.167Z</time>
      </trkpt>
      <trkpt lat="48.83576" lon="2.38693">
        <ele>88</ele>
        <time>2015-02-09T19:58:43.507Z</time>
      </trkpt>
      <trkpt lat="48.83584" lon="2.38692">
        <ele>87.9</ele>
        <time>2015-02-09T19:58:46.545Z</time>
      </trkpt>
      <trkpt lat="48.83585" lon="2.38689">
        <ele>87.7</ele>
        <time>2015-02-09T19:58:47.556Z</time>
      </trkpt>
      <trkpt lat="48.83588" lon="2.3868">
        <ele>86.3</ele>
        <time>2015-02-09T19:58:50.672Z</time>
      </trkpt>
      <trkpt lat="48.83589" lon="2.38677">
        <ele>85.7</ele>
        <time>2015-02-09T19:58:51.487Z</time>
      </trkpt>
      <trkpt lat="48.83597" lon="2.38681">
        <ele>85.1</ele>
        <time>2015-02-09T19:58:58.480Z</time>
      </trkpt>
      <trkpt lat="48.836" lon="2.38683">
        <ele>85.2</ele>
        <time>2015-02-09T19:58:59.512Z</time>
      </trkpt>
      <trkpt lat="48.83605" lon="2.38694">
        <ele>85.2</ele>
        <time>2015-02-09T19:59:03.601Z</time>
      </trkpt>
      <trkpt lat="48.83605" lon="2.38697">
        <ele>85.2</ele>
        <time>2015-02-09T19:59:04.465Z</time>
      </trkpt>
      <trkpt lat="48.83607" lon="2.38706">
        <ele>85.5</ele>
        <time>2015-02-09T19:59:07.530Z</time>
      </trkpt>
      <trkpt lat="48.83609" lon="2.3871">
        <ele>85.8</ele>
        <time>2015-02-09T19:59:08.564Z</time>
      </trkpt>
      <trkpt lat="48.83612" lon="2.38721">
        <ele>86.8</ele>
        <time>2015-02-09T19:59:11.501Z</time>
      </trkpt>
      <trkpt lat="48.83614" lon="2.38725">
        <ele>87.2</ele>
        <time>2015-02-09T19:59:12.505Z</time>
      </trkpt>
      <trkpt lat="48.83617" lon="2.38737">
        <ele>87.6</ele>
        <time>2015-02-09T19:59:15.523Z</time>
      </trkpt>
      <trkpt lat="48.83618" lon="2.38741">
        <ele>87.6</ele>
        <time>2015-02-09T19:59:16.539Z</time>
      </trkpt>
      <trkpt lat="48.83622" lon="2.38753">
        <ele>88.4</ele>
        <time>2015-02-09T19:59:19.549Z</time>
      </trkpt>
      <trkpt lat="48.83623" lon="2.38756">
        <ele>88.9</ele>
        <time>2015-02-09T19:59:20.546Z</time>
      </trkpt>
      <trkpt lat="48.83629" lon="2.3876">
        <ele>90.7</ele>
        <time>2015-02-09T19:59:23.021Z</time>
      </trkpt>
      <trkpt lat="48.83633" lon="2.38762">
        <ele>91.2</ele>
        <time>2015-02-09T19:59:23.501Z</time>
      </trkpt>
      <trkpt lat="48.83636" lon="2.38765">
        <ele>91.1</ele>
        <time>2015-02-09T19:59:24.504Z</time>
      </trkpt>
      <trkpt lat="48.83642" lon="2.38772">
        <ele>90.2</ele>
        <time>2015-02-09T19:59:25.514Z</time>
      </trkpt>
      <trkpt lat="48.83648" lon="2.38779">
        <ele>89.9</ele>
        <time>2015-02-09T19:59:26.520Z</time>
      </trkpt>
      <trkpt lat="48.83651" lon="2.38784">
        <ele>89.9</ele>
        <time>2015-02-09T19:59:27.527Z</time>
      </trkpt>
      <trkpt lat="48.83654" lon="2.38794">
        <ele>90.5</ele>
        <time>2015-02-09T19:59:29.558Z</time>
      </trkpt>
      <trkpt lat="48.83655" lon="2.38797">
        <ele>90.7</ele>
        <time>2015-02-09T19:59:30.470Z</time>
      </trkpt>
      <trkpt lat="48.83658" lon="2.3881">
        <ele>90.8</ele>
        <time>2015-02-09T19:59:35.603Z</time>
      </trkpt>
      <trkpt lat="48.83657" lon="2.38814">
        <ele>90.7</ele>
        <time>2015-02-09T19:59:36.509Z</time>
      </trkpt>
      <trkpt lat="48.83653" lon="2.38824">
        <ele>91.2</ele>
        <time>2015-02-09T19:59:38.527Z</time>
      </trkpt>
      <trkpt lat="48.83651" lon="2.38829">
        <ele>91.1</ele>
        <time>2015-02-09T19:59:39.551Z</time>
      </trkpt>
      <trkpt lat="48.83647" lon="2.38839">
        <ele>91.1</ele>
        <time>2015-02-09T19:59:41.471Z</time>
      </trkpt>
      <trkpt lat="48.83646" lon="2.38842">
        <ele>91.3</ele>
        <time>2015-02-09T19:59:42.502Z</time>
      </trkpt>
      <trkpt lat="48.83645" lon="2.38847">
        <ele>91.5</ele>
        <time>2015-02-09T19:59:43.538Z</time>
      </trkpt>
      <trkpt lat="48.83645" lon="2.38857">
        <ele>91.4</ele>
        <time>2015-02-09T19:59:45.557Z</time>
      </trkpt>
      <trkpt lat="48.83647" lon="2.38863">
        <ele>91.3</ele>
        <time>2015-02-09T19:59:46.465Z</time>
      </trkpt>
      <trkpt lat="48.83667" lon="2.38889">
        <ele>91.1</ele>
        <time>2015-02-09T19:59:53.528Z</time>
      </trkpt>
      <trkpt lat="48.83673" lon="2.3889">
        <ele>91.1</ele>
        <time>2015-02-09T19:59:54.463Z</time>
      </trkpt>
      <trkpt lat="48.837" lon="2.38903">
        <ele>90</ele>
        <time>2015-02-09T19:59:58.539Z</time>
      </trkpt>
      <trkpt lat="48.83713" lon="2.38918">
        <ele>89.9</ele>
        <time>2015-02-09T20:00:01.514Z</time>
      </trkpt>
      <trkpt lat="48.83714" lon="2.38926">
        <ele>89.8</ele>
        <time>2015-02-09T20:00:03.531Z</time>
      </trkpt>
      <trkpt lat="48.83719" lon="2.38929">
        <ele>89.6</ele>
        <time>2015-02-09T20:00:04.551Z</time>
      </trkpt>
      <trkpt lat="48.83728" lon="2.38933">
        <ele>88.5</ele>
        <time>2015-02-09T20:00:05.561Z</time>
      </trkpt>
      <trkpt lat="48.83732" lon="2.3894">
        <ele>86.7</ele>
        <time>2015-02-09T20:00:06.482Z</time>
      </trkpt>
      <trkpt lat="48.83733" lon="2.3895">
        <ele>85.1</ele>
        <time>2015-02-09T20:00:07.501Z</time>
      </trkpt>
      <trkpt lat="48.83732" lon="2.3896">
        <ele>84.6</ele>
        <time>2015-02-09T20:00:08.493Z</time>
      </trkpt>
      <trkpt lat="48.83732" lon="2.38971">
        <ele>84.4</ele>
        <time>2015-02-09T20:00:09.507Z</time>
      </trkpt>
      <trkpt lat="48.83733" lon="2.38981">
        <ele>84.4</ele>
        <time>2015-02-09T20:00:10.521Z</time>
      </trkpt>
      <trkpt lat="48.83733" lon="2.38991">
        <ele>84.3</ele>
        <time>2015-02-09T20:00:11.548Z</time>
      </trkpt>
      <trkpt lat="48.83733" lon="2.39001">
        <ele>84.2</ele>
        <time>2015-02-09T20:00:13.423Z</time>
      </trkpt>
      <trkpt lat="48.83734" lon="2.3901">
        <ele>83.8</ele>
        <time>2015-02-09T20:00:13.568Z</time>
      </trkpt>
      <trkpt lat="48.83735" lon="2.39022">
        <ele>84</ele>
        <time>2015-02-09T20:00:15.496Z</time>
      </trkpt>
      <trkpt lat="48.83736" lon="2.39028">
        <ele>84.1</ele>
        <time>2015-02-09T20:00:16.522Z</time>
      </trkpt>
      <trkpt lat="48.83737" lon="2.3904">
        <ele>86</ele>
        <time>2015-02-09T20:00:18.560Z</time>
      </trkpt>
      <trkpt lat="48.83737" lon="2.39046">
        <ele>86.7</ele>
        <time>2015-02-09T20:00:19.578Z</time>
      </trkpt>
      <trkpt lat="48.83737" lon="2.39057">
        <ele>88.1</ele>
        <time>2015-02-09T20:00:21.495Z</time>
      </trkpt>
      <trkpt lat="48.83736" lon="2.39065">
        <ele>89.9</ele>
        <time>2015-02-09T20:00:22.499Z</time>
      </trkpt>
      <trkpt lat="48.83736" lon="2.39077">
        <ele>88.9</ele>
        <time>2015-02-09T20:00:24.551Z</time>
      </trkpt>
      <trkpt lat="48.83736" lon="2.39082">
        <ele>89.4</ele>
        <time>2015-02-09T20:00:25.576Z</time>
      </trkpt>
      <trkpt lat="48.83733" lon="2.39093">
        <ele>88.5</ele>
        <time>2015-02-09T20:00:27.980Z</time>
      </trkpt>
      <trkpt lat="48.83733" lon="2.39099">
        <ele>88.8</ele>
        <time>2015-02-09T20:00:28.509Z</time>
      </trkpt>
      <trkpt lat="48.83732" lon="2.39109">
        <ele>91.4</ele>
        <time>2015-02-09T20:00:38.606Z</time>
      </trkpt>
      <trkpt lat="48.83728" lon="2.39112">
        <ele>96.6</ele>
        <time>2015-02-09T20:00:39.482Z</time>
      </trkpt>
      <trkpt lat="48.83729" lon="2.39113">
        <ele>98</ele>
        <time>2015-02-09T20:00:55.558Z</time>
      </trkpt>
      <trkpt lat="48.83738" lon="2.39124">
        <ele>99.4</ele>
        <time>2015-02-09T20:00:56.550Z</time>
      </trkpt>
      <trkpt lat="48.83743" lon="2.39132">
        <ele>99.6</ele>
        <time>2015-02-09T20:00:58.493Z</time>
      </trkpt>
      <trkpt lat="48.83746" lon="2.39135">
        <ele>99.9</ele>
        <time>2015-02-09T20:00:59.525Z</time>
      </trkpt>
      <trkpt lat="48.83748" lon="2.39144">
        <ele>98</ele>
        <time>2015-02-09T20:01:08.546Z</time>
      </trkpt>
      <trkpt lat="48.83753" lon="2.39154">
        <ele>99.5</ele>
        <time>2015-02-09T20:01:09.474Z</time>
      </trkpt>
      <trkpt lat="48.83757" lon="2.39163">
        <ele>99.7</ele>
        <time>2015-02-09T20:01:11.651Z</time>
      </trkpt>
      <trkpt lat="48.83761" lon="2.39167">
        <ele>99.7</ele>
        <time>2015-02-09T20:01:12.488Z</time>
      </trkpt>
      <trkpt lat="48.83765" lon="2.3917">
        <ele>99.8</ele>
        <time>2015-02-09T20:01:13.605Z</time>
      </trkpt>
      <trkpt lat="48.8377" lon="2.39173">
        <ele>99.9</ele>
        <time>2015-02-09T20:01:14.521Z</time>
      </trkpt>
      <trkpt lat="48.83775" lon="2.39177">
        <ele>100.2</ele>
        <time>2015-02-09T20:01:15.542Z</time>
      </trkpt>
      <trkpt lat="48.83778" lon="2.39181">
        <ele>100.3</ele>
        <time>2015-02-09T20:01:16.554Z</time>
      </trkpt>
      <trkpt lat="48.83782" lon="2.39189">
        <ele>100.5</ele>
        <time>2015-02-09T20:01:18.699Z</time>
      </trkpt>
      <trkpt lat="48.83784" lon="2.39193">
        <ele>100.6</ele>
        <time>2015-02-09T20:01:19.568Z</time>
      </trkpt>
      <trkpt lat="48.83789" lon="2.39199">
        <ele>100.5</ele>
        <time>2015-02-09T20:01:21.510Z</time>
      </trkpt>
      <trkpt lat="48.83792" lon="2.39202">
        <ele>100.7</ele>
        <time>2015-02-09T20:01:22.621Z</time>
      </trkpt>
      <trkpt lat="48.83796" lon="2.39214">
        <ele>101.2</ele>
        <time>2015-02-09T20:01:25.545Z</time>
      </trkpt>
      <trkpt lat="48.83798" lon="2.39218">
        <ele>101.3</ele>
        <time>2015-02-09T20:01:26.552Z</time>
      </trkpt>
      <trkpt lat="48.83804" lon="2.39225">
        <ele>101.6</ele>
        <time>2015-02-09T20:01:28.587Z</time>
      </trkpt>
      <trkpt lat="48.83806" lon="2.39228">
        <ele>101.8</ele>
        <time>2015-02-09T20:01:29.496Z</time>
      </trkpt>
      <trkpt lat="48.83807" lon="2.3924">
        <ele>102.4</ele>
        <time>2015-02-09T20:01:33.482Z</time>
      </trkpt>
      <trkpt lat="48.83809" lon="2.39243">
        <ele>102.6</ele>
        <time>2015-02-09T20:01:34.600Z</time>
      </trkpt>
      <trkpt lat="48.83813" lon="2.39255">
        <ele>103</ele>
        <time>2015-02-09T20:01:38.081Z</time>
      </trkpt>
      <trkpt lat="48.83816" lon="2.39258">
        <ele>103.1</ele>
        <time>2015-02-09T20:01:38.534Z</time>
      </trkpt>
      <trkpt lat="48.8382" lon="2.39266">
        <ele>103.7</ele>
        <time>2015-02-09T20:01:40.563Z</time>
      </trkpt>
      <trkpt lat="48.83821" lon="2.39268">
        <ele>103.7</ele>
        <time>2015-02-09T20:01:41.526Z</time>
      </trkpt>
      <trkpt lat="48.83827" lon="2.39277">
        <ele>104.5</ele>
        <time>2015-02-09T20:01:43.554Z</time>
      </trkpt>
      <trkpt lat="48.8383" lon="2.39281">
        <ele>105</ele>
        <time>2015-02-09T20:01:44.450Z</time>
      </trkpt>
      <trkpt lat="48.83834" lon="2.39286">
        <ele>105.6</ele>
        <time>2015-02-09T20:01:46.502Z</time>
      </trkpt>
      <trkpt lat="48.83837" lon="2.39289">
        <ele>106</ele>
        <time>2015-02-09T20:01:47.612Z</time>
      </trkpt>
      <trkpt lat="48.83842" lon="2.39299">
        <ele>106.7</ele>
        <time>2015-02-09T20:01:50.510Z</time>
      </trkpt>
      <trkpt lat="48.83843" lon="2.39301">
        <ele>107.1</ele>
        <time>2015-02-09T20:01:51.523Z</time>
      </trkpt>
      <trkpt lat="48.83846" lon="2.39303">
        <ele>107.6</ele>
        <time>2015-02-09T20:02:38.573Z</time>
      </trkpt>
      <trkpt lat="48.83862" lon="2.39295">
        <ele>108</ele>
        <time>2015-02-09T20:02:39.494Z</time>
      </trkpt>
      <trkpt lat="48.83865" lon="2.3929">
        <ele>107.9</ele>
        <time>2015-02-09T20:02:41.539Z</time>
      </trkpt>
      <trkpt lat="48.83874" lon="2.3928">
        <ele>107.8</ele>
        <time>2015-02-09T20:02:45.508Z</time>
      </trkpt>
      <trkpt lat="48.83877" lon="2.39271">
        <ele>106.7</ele>
        <time>2015-02-09T20:02:48.579Z</time>
      </trkpt>
      <trkpt lat="48.83881" lon="2.3927">
        <ele>106.8</ele>
        <time>2015-02-09T20:02:49.504Z</time>
      </trkpt>
      <trkpt lat="48.83883" lon="2.39264">
        <ele>106.3</ele>
        <time>2015-02-09T20:02:51.524Z</time>
      </trkpt>
      <trkpt lat="48.83891" lon="2.39249">
        <ele>104.5</ele>
        <time>2015-02-09T20:02:56.525Z</time>
      </trkpt>
      <trkpt lat="48.83897" lon="2.39239">
        <ele>104.3</ele>
        <time>2015-02-09T20:03:00.495Z</time>
      </trkpt>
      <trkpt lat="48.83897" lon="2.39237">
        <ele>104.2</ele>
        <time>2015-02-09T20:03:01.502Z</time>
      </trkpt>
      <trkpt lat="48.83897" lon="2.39235">
        <ele>103.6</ele>
        <time>2015-02-09T20:03:56.571Z</time>
      </trkpt>
      <trkpt lat="48.83921" lon="2.39238">
        <ele>98.4</ele>
        <time>2015-02-09T20:03:57.452Z</time>
      </trkpt>
      <trkpt lat="48.83925" lon="2.39245">
        <ele>98.7</ele>
        <time>2015-02-09T20:03:59.510Z</time>
      </trkpt>
      <trkpt lat="48.83926" lon="2.39249">
        <ele>99</ele>
        <time>2015-02-09T20:04:00.539Z</time>
      </trkpt>
      <trkpt lat="48.8393" lon="2.39261">
        <ele>98.7</ele>
        <time>2015-02-09T20:04:03.903Z</time>
      </trkpt>
      <trkpt lat="48.83932" lon="2.39264">
        <ele>98.7</ele>
        <time>2015-02-09T20:04:04.532Z</time>
      </trkpt>
      <trkpt lat="48.83935" lon="2.39272">
        <ele>98.9</ele>
        <time>2015-02-09T20:04:06.472Z</time>
      </trkpt>
      <trkpt lat="48.83936" lon="2.39277">
        <ele>99</ele>
        <time>2015-02-09T20:04:07.573Z</time>
      </trkpt>
      <trkpt lat="48.83937" lon="2.39286">
        <ele>99.8</ele>
        <time>2015-02-09T20:04:09.536Z</time>
      </trkpt>
      <trkpt lat="48.8394" lon="2.3929">
        <ele>99.9</ele>
        <time>2015-02-09T20:04:10.481Z</time>
      </trkpt>
      <trkpt lat="48.83943" lon="2.39299">
        <ele>99.3</ele>
        <time>2015-02-09T20:04:12.501Z</time>
      </trkpt>
      <trkpt lat="48.83945" lon="2.39304">
        <ele>99.2</ele>
        <time>2015-02-09T20:04:13.531Z</time>
      </trkpt>
      <trkpt lat="48.83947" lon="2.39314">
        <ele>99.3</ele>
        <time>2015-02-09T20:04:15.476Z</time>
      </trkpt>
      <trkpt lat="48.83949" lon="2.39319">
        <ele>99.4</ele>
        <time>2015-02-09T20:04:16.480Z</time>
      </trkpt>
      <trkpt lat="48.8395" lon="2.3933">
        <ele>100</ele>
        <time>2015-02-09T20:04:19.209Z</time>
      </trkpt>
      <trkpt lat="48.83951" lon="2.39335">
        <ele>100.2</ele>
        <time>2015-02-09T20:04:19.550Z</time>
      </trkpt>
      <trkpt lat="48.83951" lon="2.39346">
        <ele>100.6</ele>
        <time>2015-02-09T20:04:21.583Z</time>
      </trkpt>
      <trkpt lat="48.83952" lon="2.39351">
        <ele>101</ele>
        <time>2015-02-09T20:04:22.485Z</time>
      </trkpt>
      <trkpt lat="48.83954" lon="2.39362">
        <ele>101.5</ele>
        <time>2015-02-09T20:04:24.500Z</time>
      </trkpt>
      <trkpt lat="48.83955" lon="2.39367">
        <ele>101.5</ele>
        <time>2015-02-09T20:04:25.500Z</time>
      </trkpt>
      <trkpt lat="48.83953" lon="2.39377">
        <ele>101.6</ele>
        <time>2015-02-09T20:04:28.190Z</time>
      </trkpt>
      <trkpt lat="48.83953" lon="2.39382">
        <ele>101.2</ele>
        <time>2015-02-09T20:04:28.569Z</time>
      </trkpt>
      <trkpt lat="48.83953" lon="2.39394">
        <ele>101.4</ele>
        <time>2015-02-09T20:04:31.549Z</time>
      </trkpt>
      <trkpt lat="48.83954" lon="2.39397">
        <ele>101.6</ele>
        <time>2015-02-09T20:04:32.630Z</time>
      </trkpt>
      <trkpt lat="48.83954" lon="2.39409">
        <ele>102.4</ele>
        <time>2015-02-09T20:04:36.530Z</time>
      </trkpt>
      <trkpt lat="48.83949" lon="2.39413">
        <ele>103.5</ele>
        <time>2015-02-09T20:04:37.547Z</time>
      </trkpt>
      <trkpt lat="48.83949" lon="2.39413">
        <ele>103.5</ele>
        <time>2015-02-09T20:05:23.542Z</time>
      </trkpt>
      <trkpt lat="48.83939" lon="2.39424">
        <ele>107.2</ele>
        <time>2015-02-09T20:05:24.562Z</time>
      </trkpt>
      <trkpt lat="48.83944" lon="2.39413">
        <ele>107.8</ele>
        <time>2015-02-09T20:05:46.496Z</time>
      </trkpt>
      <trkpt lat="48.83951" lon="2.39422">
        <ele>106.5</ele>
        <time>2015-02-09T20:05:47.506Z</time>
      </trkpt>
      <trkpt lat="48.83955" lon="2.39429">
        <ele>106.7</ele>
        <time>2015-02-09T20:05:49.558Z</time>
      </trkpt>
      <trkpt lat="48.83957" lon="2.39434">
        <ele>106.7</ele>
        <time>2015-02-09T20:05:50.581Z</time>
      </trkpt>
      <trkpt lat="48.83959" lon="2.39444">
        <ele>107.2</ele>
        <time>2015-02-09T20:05:53.240Z</time>
      </trkpt>
      <trkpt lat="48.83961" lon="2.39447">
        <ele>107.1</ele>
        <time>2015-02-09T20:05:53.580Z</time>
      </trkpt>
      <trkpt lat="48.83964" lon="2.39455">
        <ele>106.7</ele>
        <time>2015-02-09T20:05:55.559Z</time>
      </trkpt>
      <trkpt lat="48.83966" lon="2.39459">
        <ele>106.7</ele>
        <time>2015-02-09T20:05:56.452Z</time>
      </trkpt>
      <trkpt lat="48.83963" lon="2.39469">
        <ele>106.3</ele>
        <time>2015-02-09T20:05:59.516Z</time>
      </trkpt>
      <trkpt lat="48.83961" lon="2.39472">
        <ele>106.1</ele>
        <time>2015-02-09T20:06:00.548Z</time>
      </trkpt>
      <trkpt lat="48.83954" lon="2.39477">
        <ele>106.2</ele>
        <time>2015-02-09T20:06:02.487Z</time>
      </trkpt>
      <trkpt lat="48.83951" lon="2.39479">
        <ele>105.8</ele>
        <time>2015-02-09T20:06:03.562Z</time>
      </trkpt>
      <trkpt lat="48.83948" lon="2.39489">
        <ele>106</ele>
        <time>2015-02-09T20:06:07.613Z</time>
      </trkpt>
      <trkpt lat="48.83947" lon="2.39493">
        <ele>105.7</ele>
        <time>2015-02-09T20:06:08.537Z</time>
      </trkpt>
      <trkpt lat="48.83947" lon="2.39505">
        <ele>105.5</ele>
        <time>2015-02-09T20:06:11.535Z</time>
      </trkpt>
      <trkpt lat="48.83949" lon="2.39508">
        <ele>105.4</ele>
        <time>2015-02-09T20:06:12.557Z</time>
      </trkpt>
      <trkpt lat="48.83954" lon="2.39518">
        <ele>104.4</ele>
        <time>2015-02-09T20:06:15.578Z</time>
      </trkpt>
      <trkpt lat="48.83954" lon="2.39523">
        <ele>104.1</ele>
        <time>2015-02-09T20:06:16.597Z</time>
      </trkpt>
      <trkpt lat="48.83952" lon="2.39533">
        <ele>103.4</ele>
        <time>2015-02-09T20:06:19.026Z</time>
      </trkpt>
      <trkpt lat="48.83951" lon="2.39538">
        <ele>103.1</ele>
        <time>2015-02-09T20:06:19.537Z</time>
      </trkpt>
      <trkpt lat="48.83949" lon="2.39548">
        <ele>102.4</ele>
        <time>2015-02-09T20:06:21.544Z</time>
      </trkpt>
      <trkpt lat="48.83948" lon="2.39553">
        <ele>102.4</ele>
        <time>2015-02-09T20:06:22.556Z</time>
      </trkpt>
      <trkpt lat="48.83947" lon="2.39564">
        <ele>102.4</ele>
        <time>2015-02-09T20:06:24.487Z</time>
      </trkpt>
      <trkpt lat="48.83947" lon="2.39569">
        <ele>101.9</ele>
        <time>2015-02-09T20:06:25.538Z</time>
      </trkpt>
      <trkpt lat="48.83947" lon="2.39579">
        <ele>101.5</ele>
        <time>2015-02-09T20:06:28.250Z</time>
      </trkpt>
      <trkpt lat="48.83947" lon="2.39585">
        <ele>101.3</ele>
        <time>2015-02-09T20:06:28.578Z</time>
      </trkpt>
      <trkpt lat="48.8395" lon="2.39596">
        <ele>101.3</ele>
        <time>2015-02-09T20:06:30.550Z</time>
      </trkpt>
      <trkpt lat="48.83952" lon="2.39602">
        <ele>101.8</ele>
        <time>2015-02-09T20:06:31.569Z</time>
      </trkpt>
      <trkpt lat="48.83957" lon="2.39607">
        <ele>101.6</ele>
        <time>2015-02-09T20:06:33.520Z</time>
      </trkpt>
      <trkpt lat="48.83961" lon="2.39608">
        <ele>101.5</ele>
        <time>2015-02-09T20:06:34.530Z</time>
      </trkpt>
      <trkpt lat="48.83967" lon="2.39608">
        <ele>100.9</ele>
        <time>2015-02-09T20:06:36.568Z</time>
      </trkpt>
      <trkpt lat="48.83971" lon="2.39607">
        <ele>100.4</ele>
        <time>2015-02-09T20:06:37.595Z</time>
      </trkpt>
      <trkpt lat="48.83976" lon="2.39597">
        <ele>99</ele>
        <time>2015-02-09T20:06:40.514Z</time>
      </trkpt>
      <trkpt lat="48.83977" lon="2.39592">
        <ele>98.5</ele>
        <time>2015-02-09T20:06:41.542Z</time>
      </trkpt>
      <trkpt lat="48.83978" lon="2.39585">
        <ele>97.8</ele>
        <time>2015-02-09T20:06:43.552Z</time>
      </trkpt>
      <trkpt lat="48.83978" lon="2.39575">
        <ele>97.2</ele>
        <time>2015-02-09T20:06:44.487Z</time>
      </trkpt>
      <trkpt lat="48.83971" lon="2.39567">
        <ele>97.4</ele>
        <time>2015-02-09T20:06:46.526Z</time>
      </trkpt>
      <trkpt lat="48.8397" lon="2.39565">
        <ele>97.5</ele>
        <time>2015-02-09T20:06:47.533Z</time>
      </trkpt>
      <trkpt lat="48.83965" lon="2.39563">
        <ele>97.7</ele>
        <time>2015-02-09T20:06:48.678Z</time>
      </trkpt>
      <trkpt lat="48.83961" lon="2.39562">
        <ele>97.8</ele>
        <time>2015-02-09T20:06:49.582Z</time>
      </trkpt>
      <trkpt lat="48.83952" lon="2.39565">
        <ele>98</ele>
        <time>2015-02-09T20:06:51.478Z</time>
      </trkpt>
      <trkpt lat="48.83951" lon="2.39568">
        <ele>98.2</ele>
        <time>2015-02-09T20:06:52.608Z</time>
      </trkpt>
      <trkpt lat="48.83947" lon="2.39576">
        <ele>98.3</ele>
        <time>2015-02-09T20:06:54.480Z</time>
      </trkpt>
      <trkpt lat="48.83945" lon="2.39579">
        <ele>98.3</ele>
        <time>2015-02-09T20:06:55.611Z</time>
      </trkpt>
      <trkpt lat="48.83939" lon="2.39584">
        <ele>98.6</ele>
        <time>2015-02-09T20:06:57.487Z</time>
      </trkpt>
      <trkpt lat="48.83935" lon="2.39586">
        <ele>98.8</ele>
        <time>2015-02-09T20:06:58.516Z</time>
      </trkpt>
      <trkpt lat="48.83929" lon="2.3959">
        <ele>99</ele>
        <time>2015-02-09T20:07:00.527Z</time>
      </trkpt>
      <trkpt lat="48.83925" lon="2.39591">
        <ele>99.2</ele>
        <time>2015-02-09T20:07:01.556Z</time>
      </trkpt>
      <trkpt lat="48.83918" lon="2.39594">
        <ele>100</ele>
        <time>2015-02-09T20:07:03.859Z</time>
      </trkpt>
      <trkpt lat="48.83915" lon="2.39596">
        <ele>100.3</ele>
        <time>2015-02-09T20:07:04.504Z</time>
      </trkpt>
      <trkpt lat="48.83908" lon="2.39596">
        <ele>101.2</ele>
        <time>2015-02-09T20:07:06.518Z</time>
      </trkpt>
      <trkpt lat="48.83905" lon="2.39597">
        <ele>101.5</ele>
        <time>2015-02-09T20:07:07.547Z</time>
      </trkpt>
      <trkpt lat="48.839" lon="2.396">
        <ele>102</ele>
        <time>2015-02-09T20:07:09.489Z</time>
      </trkpt>
      <trkpt lat="48.83895" lon="2.39602">
        <ele>102.1</ele>
        <time>2015-02-09T20:07:10.509Z</time>
      </trkpt>
      <trkpt lat="48.83888" lon="2.39605">
        <ele>102.6</ele>
        <time>2015-02-09T20:07:12.579Z</time>
      </trkpt>
      <trkpt lat="48.83885" lon="2.39608">
        <ele>102.9</ele>
        <time>2015-02-09T20:07:13.596Z</time>
      </trkpt>
      <trkpt lat="48.83876" lon="2.39612">
        <ele>103.1</ele>
        <time>2015-02-09T20:07:15.485Z</time>
      </trkpt>
      <trkpt lat="48.83868" lon="2.39613">
        <ele>103.8</ele>
        <time>2015-02-09T20:07:18.115Z</time>
      </trkpt>
      <trkpt lat="48.83866" lon="2.39615">
        <ele>104.2</ele>
        <time>2015-02-09T20:07:18.487Z</time>
      </trkpt>
      <trkpt lat="48.83862" lon="2.39621">
        <ele>104.4</ele>
        <time>2015-02-09T20:07:20.543Z</time>
      </trkpt>
      <trkpt lat="48.83859" lon="2.39625">
        <ele>104.3</ele>
        <time>2015-02-09T20:07:21.680Z</time>
      </trkpt>
      <trkpt lat="48.83858" lon="2.39629">
        <ele>104.4</ele>
        <time>2015-02-09T20:07:22.997Z</time>
      </trkpt>
      <trkpt lat="48.83833" lon="2.39649">
        <ele>104.4</ele>
        <time>2015-02-09T20:07:30.453Z</time>
      </trkpt>
      <trkpt lat="48.83827" lon="2.39657">
        <ele>104.3</ele>
        <time>2015-02-09T20:07:33.086Z</time>
      </trkpt>
      <trkpt lat="48.83824" lon="2.3966">
        <ele>104.2</ele>
        <time>2015-02-09T20:07:33.537Z</time>
      </trkpt>
      <trkpt lat="48.83817" lon="2.39666">
        <ele>104.6</ele>
        <time>2015-02-09T20:07:35.634Z</time>
      </trkpt>
      <trkpt lat="48.83814" lon="2.39668">
        <ele>104.8</ele>
        <time>2015-02-09T20:07:36.482Z</time>
      </trkpt>
      <trkpt lat="48.83807" lon="2.39671">
        <ele>105.6</ele>
        <time>2015-02-09T20:07:38.521Z</time>
      </trkpt>
      <trkpt lat="48.83803" lon="2.39671">
        <ele>105.9</ele>
        <time>2015-02-09T20:07:39.529Z</time>
      </trkpt>
      <trkpt lat="48.83796" lon="2.39675">
        <ele>106.6</ele>
        <time>2015-02-09T20:07:41.564Z</time>
      </trkpt>
      <trkpt lat="48.83792" lon="2.39677">
        <ele>106.9</ele>
        <time>2015-02-09T20:07:42.581Z</time>
      </trkpt>
      <trkpt lat="48.83786" lon="2.39678">
        <ele>107.4</ele>
        <time>2015-02-09T20:07:43.491Z</time>
      </trkpt>
      <trkpt lat="48.83781" lon="2.39677">
        <ele>107.8</ele>
        <time>2015-02-09T20:07:44.508Z</time>
      </trkpt>
      <trkpt lat="48.83773" lon="2.39681">
        <ele>108.6</ele>
        <time>2015-02-09T20:07:46.546Z</time>
      </trkpt>
      <trkpt lat="48.8377" lon="2.39683">
        <ele>108.6</ele>
        <time>2015-02-09T20:07:47.483Z</time>
      </trkpt>
      <trkpt lat="48.83765" lon="2.39688">
        <ele>108.2</ele>
        <time>2015-02-09T20:07:50.208Z</time>
      </trkpt>
      <trkpt lat="48.8377" lon="2.39699">
        <ele>105.8</ele>
        <time>2015-02-09T20:07:50.470Z</time>
      </trkpt>
      <trkpt lat="48.83767" lon="2.39708">
        <ele>104.8</ele>
        <time>2015-02-09T20:07:52.485Z</time>
      </trkpt>
      <trkpt lat="48.83763" lon="2.3971">
        <ele>104.9</ele>
        <time>2015-02-09T20:07:53.496Z</time>
      </trkpt>
      <trkpt lat="48.83758" lon="2.39711">
        <ele>105.2</ele>
        <time>2015-02-09T20:07:54.519Z</time>
      </trkpt>
      <trkpt lat="48.83753" lon="2.39713">
        <ele>105.3</ele>
        <time>2015-02-09T20:07:55.527Z</time>
      </trkpt>
      <trkpt lat="48.83746" lon="2.39717">
        <ele>105.6</ele>
        <time>2015-02-09T20:07:57.483Z</time>
      </trkpt>
      <trkpt lat="48.83743" lon="2.39719">
        <ele>105.6</ele>
        <time>2015-02-09T20:07:58.496Z</time>
      </trkpt>
      <trkpt lat="48.83736" lon="2.39725">
        <ele>105.7</ele>
        <time>2015-02-09T20:08:00.521Z</time>
      </trkpt>
      <trkpt lat="48.83734" lon="2.39729">
        <ele>105.7</ele>
        <time>2015-02-09T20:08:01.558Z</time>
      </trkpt>
      <trkpt lat="48.83727" lon="2.39736">
        <ele>105</ele>
        <time>2015-02-09T20:08:03.479Z</time>
      </trkpt>
      <trkpt lat="48.83725" lon="2.3974">
        <ele>105</ele>
        <time>2015-02-09T20:08:04.555Z</time>
      </trkpt>
      <trkpt lat="48.83721" lon="2.39748">
        <ele>105.2</ele>
        <time>2015-02-09T20:08:06.471Z</time>
      </trkpt>
      <trkpt lat="48.8372" lon="2.39753">
        <ele>105</ele>
        <time>2015-02-09T20:08:07.515Z</time>
      </trkpt>
      <trkpt lat="48.83716" lon="2.39764">
        <ele>104.9</ele>
        <time>2015-02-09T20:08:09.468Z</time>
      </trkpt>
      <trkpt lat="48.83715" lon="2.3977">
        <ele>105.1</ele>
        <time>2015-02-09T20:08:10.487Z</time>
      </trkpt>
      <trkpt lat="48.83712" lon="2.3978">
        <ele>105.3</ele>
        <time>2015-02-09T20:08:12.544Z</time>
      </trkpt>
      <trkpt lat="48.83709" lon="2.39784">
        <ele>105.2</ele>
        <time>2015-02-09T20:08:13.566Z</time>
      </trkpt>
      <trkpt lat="48.83704" lon="2.39793">
        <ele>105.3</ele>
        <time>2015-02-09T20:08:15.503Z</time>
      </trkpt>
      <trkpt lat="48.83701" lon="2.39797">
        <ele>105.2</ele>
        <time>2015-02-09T20:08:16.513Z</time>
      </trkpt>
      <trkpt lat="48.83696" lon="2.39802">
        <ele>105.1</ele>
        <time>2015-02-09T20:08:17.532Z</time>
      </trkpt>
      <trkpt lat="48.83692" lon="2.39808">
        <ele>105.1</ele>
        <time>2015-02-09T20:08:18.539Z</time>
      </trkpt>
      <trkpt lat="48.83686" lon="2.39812">
        <ele>105.3</ele>
        <time>2015-02-09T20:08:19.604Z</time>
      </trkpt>
      <trkpt lat="48.83681" lon="2.39816">
        <ele>105.6</ele>
        <time>2015-02-09T20:08:20.485Z</time>
      </trkpt>
      <trkpt lat="48.83676" lon="2.3982">
        <ele>105.7</ele>
        <time>2015-02-09T20:08:21.532Z</time>
      </trkpt>
      <trkpt lat="48.83671" lon="2.39824">
        <ele>105.8</ele>
        <time>2015-02-09T20:08:22.545Z</time>
      </trkpt>
      <trkpt lat="48.83666" lon="2.39829">
        <ele>106</ele>
        <time>2015-02-09T20:08:23.549Z</time>
      </trkpt>
      <trkpt lat="48.83661" lon="2.39833">
        <ele>106.1</ele>
        <time>2015-02-09T20:08:24.555Z</time>
      </trkpt>
      <trkpt lat="48.83657" lon="2.39835">
        <ele>106.2</ele>
        <time>2015-02-09T20:08:25.559Z</time>
      </trkpt>
      <trkpt lat="48.83652" lon="2.39838">
        <ele>106.4</ele>
        <time>2015-02-09T20:08:26.566Z</time>
      </trkpt>
      <trkpt lat="48.83648" lon="2.39843">
        <ele>106.5</ele>
        <time>2015-02-09T20:08:27.483Z</time>
      </trkpt>
      <trkpt lat="48.83645" lon="2.39848">
        <ele>106.6</ele>
        <time>2015-02-09T20:08:28.496Z</time>
      </trkpt>
      <trkpt lat="48.8364" lon="2.39853">
        <ele>106.6</ele>
        <time>2015-02-09T20:08:29.592Z</time>
      </trkpt>
      <trkpt lat="48.83635" lon="2.39858">
        <ele>106.7</ele>
        <time>2015-02-09T20:08:30.492Z</time>
      </trkpt>
      <trkpt lat="48.83632" lon="2.39864">
        <ele>106.8</ele>
        <time>2015-02-09T20:08:31.547Z</time>
      </trkpt>
      <trkpt lat="48.83628" lon="2.39869">
        <ele>106.9</ele>
        <time>2015-02-09T20:08:32.561Z</time>
      </trkpt>
      <trkpt lat="48.83621" lon="2.39878">
        <ele>107</ele>
        <time>2015-02-09T20:08:34.490Z</time>
      </trkpt>
      <trkpt lat="48.83615" lon="2.3988">
        <ele>106.9</ele>
        <time>2015-02-09T20:08:35.522Z</time>
      </trkpt>
      <trkpt lat="48.8361" lon="2.39882">
        <ele>106.8</ele>
        <time>2015-02-09T20:08:36.551Z</time>
      </trkpt>
      <trkpt lat="48.83606" lon="2.39886">
        <ele>107</ele>
        <time>2015-02-09T20:08:37.555Z</time>
      </trkpt>
      <trkpt lat="48.83602" lon="2.3989">
        <ele>106.9</ele>
        <time>2015-02-09T20:08:38.468Z</time>
      </trkpt>
      <trkpt lat="48.83595" lon="2.39901">
        <ele>107</ele>
        <time>2015-02-09T20:08:40.468Z</time>
      </trkpt>
      <trkpt lat="48.83588" lon="2.39912">
        <ele>106.8</ele>
        <time>2015-02-09T20:08:42.551Z</time>
      </trkpt>
      <trkpt lat="48.83504" lon="2.40015">
        <ele>107.7</ele>
        <time>2015-02-09T20:09:03.483Z</time>
      </trkpt>
      <trkpt lat="48.83497" lon="2.40017">
        <ele>107.6</ele>
        <time>2015-02-09T20:09:04.484Z</time>
      </trkpt>
      <trkpt lat="48.83491" lon="2.40021">
        <ele>107.6</ele>
        <time>2015-02-09T20:09:05.489Z</time>
      </trkpt>
      <trkpt lat="48.83487" lon="2.40024">
        <ele>107.5</ele>
        <time>2015-02-09T20:09:06.507Z</time>
      </trkpt>
      <trkpt lat="48.83482" lon="2.40029">
        <ele>108</ele>
        <time>2015-02-09T20:09:08.556Z</time>
      </trkpt>
      <trkpt lat="48.83476" lon="2.40037">
        <ele>107.8</ele>
        <time>2015-02-09T20:09:11.469Z</time>
      </trkpt>
      <trkpt lat="48.83474" lon="2.40041">
        <ele>107.5</ele>
        <time>2015-02-09T20:09:12.477Z</time>
      </trkpt>
      <trkpt lat="48.83472" lon="2.4005">
        <ele>105.4</ele>
        <time>2015-02-09T20:09:14.502Z</time>
      </trkpt>
      <trkpt lat="48.83472" lon="2.40054">
        <ele>104.1</ele>
        <time>2015-02-09T20:09:15.529Z</time>
      </trkpt>
      <trkpt lat="48.83468" lon="2.40065">
        <ele>102.5</ele>
        <time>2015-02-09T20:09:19.501Z</time>
      </trkpt>
      <trkpt lat="48.83468" lon="2.40067">
        <ele>102.2</ele>
        <time>2015-02-09T20:09:20.500Z</time>
      </trkpt>
      <trkpt lat="48.83461" lon="2.4007">
        <ele>104.5</ele>
        <time>2015-02-09T20:09:25.559Z</time>
      </trkpt>
      <trkpt lat="48.83461" lon="2.4007">
        <ele>104.5</ele>
        <time>2015-02-09T20:09:26.480Z</time>
      </trkpt>
      <trkpt lat="48.83462" lon="2.4007">
        <ele>104.6</ele>
        <time>2015-02-09T20:10:03.490Z</time>
      </trkpt>
      <trkpt lat="48.8347" lon="2.40057">
        <ele>104.9</ele>
        <time>2015-02-09T20:10:04.497Z</time>
      </trkpt>
      <trkpt lat="48.83472" lon="2.40047">
        <ele>104.5</ele>
        <time>2015-02-09T20:10:08.557Z</time>
      </trkpt>
      <trkpt lat="48.83474" lon="2.40043">
        <ele>104.2</ele>
        <time>2015-02-09T20:10:09.453Z</time>
      </trkpt>
      <trkpt lat="48.83475" lon="2.40033">
        <ele>103.2</ele>
        <time>2015-02-09T20:10:12.551Z</time>
      </trkpt>
      <trkpt lat="48.83475" lon="2.40029">
        <ele>102.7</ele>
        <time>2015-02-09T20:10:13.577Z</time>
      </trkpt>
      <trkpt lat="48.83478" lon="2.4002">
        <ele>101.7</ele>
        <time>2015-02-09T20:10:15.479Z</time>
      </trkpt>
      <trkpt lat="48.8348" lon="2.40016">
        <ele>101.2</ele>
        <time>2015-02-09T20:10:16.527Z</time>
      </trkpt>
      <trkpt lat="48.83485" lon="2.40005">
        <ele>100.4</ele>
        <time>2015-02-09T20:10:18.477Z</time>
      </trkpt>
      <trkpt lat="48.83487" lon="2.4">
        <ele>100</ele>
        <time>2015-02-09T20:10:19.581Z</time>
      </trkpt>
      <trkpt lat="48.83492" lon="2.39991">
        <ele>99.4</ele>
        <time>2015-02-09T20:10:21.544Z</time>
      </trkpt>
      <trkpt lat="48.83494" lon="2.39986">
        <ele>99.2</ele>
        <time>2015-02-09T20:10:22.475Z</time>
      </trkpt>
      <trkpt lat="48.83496" lon="2.39979">
        <ele>98.8</ele>
        <time>2015-02-09T20:10:23.501Z</time>
      </trkpt>
      <trkpt lat="48.83498" lon="2.39973">
        <ele>98.5</ele>
        <time>2015-02-09T20:10:24.516Z</time>
      </trkpt>
      <trkpt lat="48.83501" lon="2.39966">
        <ele>98.3</ele>
        <time>2015-02-09T20:10:25.508Z</time>
      </trkpt>
      <trkpt lat="48.83504" lon="2.39959">
        <ele>98.2</ele>
        <time>2015-02-09T20:10:26.519Z</time>
      </trkpt>
      <trkpt lat="48.83505" lon="2.39952">
        <ele>98.1</ele>
        <time>2015-02-09T20:10:27.475Z</time>
      </trkpt>
      <trkpt lat="48.83507" lon="2.39945">
        <ele>98</ele>
        <time>2015-02-09T20:10:28.480Z</time>
      </trkpt>
      <trkpt lat="48.83509" lon="2.39937">
        <ele>98</ele>
        <time>2015-02-09T20:10:29.484Z</time>
      </trkpt>
      <trkpt lat="48.8351" lon="2.3993">
        <ele>97.9</ele>
        <time>2015-02-09T20:10:30.486Z</time>
      </trkpt>
      <trkpt lat="48.83511" lon="2.39922">
        <ele>97.6</ele>
        <time>2015-02-09T20:10:31.501Z</time>
      </trkpt>
      <trkpt lat="48.83513" lon="2.39915">
        <ele>97.5</ele>
        <time>2015-02-09T20:10:32.508Z</time>
      </trkpt>
      <trkpt lat="48.83513" lon="2.39908">
        <ele>97.2</ele>
        <time>2015-02-09T20:10:33.518Z</time>
      </trkpt>
      <trkpt lat="48.83514" lon="2.39901">
        <ele>96.8</ele>
        <time>2015-02-09T20:10:34.528Z</time>
      </trkpt>
      <trkpt lat="48.83516" lon="2.39894">
        <ele>96.8</ele>
        <time>2015-02-09T20:10:35.539Z</time>
      </trkpt>
      <trkpt lat="48.83517" lon="2.39887">
        <ele>96.6</ele>
        <time>2015-02-09T20:10:36.585Z</time>
      </trkpt>
      <trkpt lat="48.83518" lon="2.39874">
        <ele>96</ele>
        <time>2015-02-09T20:10:39.515Z</time>
      </trkpt>
      <trkpt lat="48.83503" lon="2.39855">
        <ele>95.4</ele>
        <time>2015-02-09T20:10:45.469Z</time>
      </trkpt>
      <trkpt lat="48.83498" lon="2.39851">
        <ele>95.3</ele>
        <time>2015-02-09T20:10:47.479Z</time>
      </trkpt>
      <trkpt lat="48.83482" lon="2.39836">
        <ele>94.8</ele>
        <time>2015-02-09T20:10:50.543Z</time>
      </trkpt>
      <trkpt lat="48.83475" lon="2.39829">
        <ele>94.9</ele>
        <time>2015-02-09T20:10:52.471Z</time>
      </trkpt>
      <trkpt lat="48.83471" lon="2.39824">
        <ele>95</ele>
        <time>2015-02-09T20:10:53.476Z</time>
      </trkpt>
      <trkpt lat="48.83467" lon="2.3982">
        <ele>95.2</ele>
        <time>2015-02-09T20:10:54.552Z</time>
      </trkpt>
      <trkpt lat="48.83462" lon="2.39815">
        <ele>95.4</ele>
        <time>2015-02-09T20:10:55.573Z</time>
      </trkpt>
      <trkpt lat="48.83456" lon="2.39808">
        <ele>95.8</ele>
        <time>2015-02-09T20:10:57.462Z</time>
      </trkpt>
      <trkpt lat="48.83454" lon="2.39805">
        <ele>95.9</ele>
        <time>2015-02-09T20:10:58.475Z</time>
      </trkpt>
      <trkpt lat="48.8345" lon="2.39801">
        <ele>96.7</ele>
        <time>2015-02-09T20:10:59.495Z</time>
      </trkpt>
      <trkpt lat="48.83447" lon="2.39796">
        <ele>97.6</ele>
        <time>2015-02-09T20:11:00.518Z</time>
      </trkpt>
      <trkpt lat="48.8344" lon="2.39793">
        <ele>98.9</ele>
        <time>2015-02-09T20:11:01.559Z</time>
      </trkpt>
      <trkpt lat="48.83436" lon="2.3979">
        <ele>99.9</ele>
        <time>2015-02-09T20:11:02.471Z</time>
      </trkpt>
      <trkpt lat="48.83432" lon="2.39786">
        <ele>99.9</ele>
        <time>2015-02-09T20:11:03.453Z</time>
      </trkpt>
      <trkpt lat="48.83428" lon="2.39783">
        <ele>100.3</ele>
        <time>2015-02-09T20:11:04.456Z</time>
      </trkpt>
      <trkpt lat="48.83424" lon="2.39774">
        <ele>101.1</ele>
        <time>2015-02-09T20:11:08.563Z</time>
      </trkpt>
      <trkpt lat="48.83423" lon="2.39771">
        <ele>101.3</ele>
        <time>2015-02-09T20:11:09.473Z</time>
      </trkpt>
      <trkpt lat="48.83422" lon="2.39758">
        <ele>101.1</ele>
        <time>2015-02-09T20:11:12.500Z</time>
      </trkpt>
      <trkpt lat="48.83424" lon="2.39755">
        <ele>101.4</ele>
        <time>2015-02-09T20:11:13.507Z</time>
      </trkpt>
      <trkpt lat="48.83428" lon="2.39745">
        <ele>102.1</ele>
        <time>2015-02-09T20:11:16.532Z</time>
      </trkpt>
      <trkpt lat="48.83429" lon="2.39742">
        <ele>102.4</ele>
        <time>2015-02-09T20:11:17.486Z</time>
      </trkpt>
      <trkpt lat="48.83433" lon="2.39732">
        <ele>103.9</ele>
        <time>2015-02-09T20:11:21.227Z</time>
      </trkpt>
      <trkpt lat="48.83436" lon="2.39728">
        <ele>104.4</ele>
        <time>2015-02-09T20:11:21.446Z</time>
      </trkpt>
      <trkpt lat="48.83441" lon="2.39722">
        <ele>105.4</ele>
        <time>2015-02-09T20:11:23.472Z</time>
      </trkpt>
      <trkpt lat="48.83444" lon="2.39719">
        <ele>105.8</ele>
        <time>2015-02-09T20:11:24.512Z</time>
      </trkpt>
      <trkpt lat="48.83447" lon="2.3971">
        <ele>106.6</ele>
        <time>2015-02-09T20:11:26.459Z</time>
      </trkpt>
      <trkpt lat="48.83449" lon="2.39707">
        <ele>106.8</ele>
        <time>2015-02-09T20:11:27.532Z</time>
      </trkpt>
      <trkpt lat="48.83454" lon="2.39702">
        <ele>107.3</ele>
        <time>2015-02-09T20:11:29.460Z</time>
      </trkpt>
      <trkpt lat="48.83457" lon="2.397">
        <ele>107</ele>
        <time>2015-02-09T20:11:30.489Z</time>
      </trkpt>
      <trkpt lat="48.83463" lon="2.39693">
        <ele>107.2</ele>
        <time>2015-02-09T20:11:33.458Z</time>
      </trkpt>
      <trkpt lat="48.83463" lon="2.3969">
        <ele>106.7</ele>
        <time>2015-02-09T20:11:34.466Z</time>
      </trkpt>
      <trkpt lat="48.83461" lon="2.39677">
        <ele>106</ele>
        <time>2015-02-09T20:11:45.595Z</time>
      </trkpt>
      <trkpt lat="48.83463" lon="2.39673">
        <ele>106.2</ele>
        <time>2015-02-09T20:11:46.537Z</time>
      </trkpt>
      <trkpt lat="48.83469" lon="2.39664">
        <ele>105.2</ele>
        <time>2015-02-09T20:11:48.450Z</time>
      </trkpt>
      <trkpt lat="48.83472" lon="2.3966">
        <ele>105.4</ele>
        <time>2015-02-09T20:11:49.588Z</time>
      </trkpt>
      <trkpt lat="48.83477" lon="2.39655">
        <ele>105.3</ele>
        <time>2015-02-09T20:11:51.119Z</time>
      </trkpt>
      <trkpt lat="48.83479" lon="2.3965">
        <ele>105.5</ele>
        <time>2015-02-09T20:11:51.462Z</time>
      </trkpt>
      <trkpt lat="48.83481" lon="2.3964">
        <ele>105.6</ele>
        <time>2015-02-09T20:11:53.520Z</time>
      </trkpt>
      <trkpt lat="48.83481" lon="2.39633">
        <ele>105.5</ele>
        <time>2015-02-09T20:11:54.514Z</time>
      </trkpt>
      <trkpt lat="48.83486" lon="2.39621">
        <ele>105.3</ele>
        <time>2015-02-09T20:11:56.417Z</time>
      </trkpt>
      <trkpt lat="48.83488" lon="2.39616">
        <ele>105.2</ele>
        <time>2015-02-09T20:11:57.417Z</time>
      </trkpt>
      <trkpt lat="48.83491" lon="2.39605">
        <ele>104.6</ele>
        <time>2015-02-09T20:11:59.441Z</time>
      </trkpt>
      <trkpt lat="48.83492" lon="2.396">
        <ele>104.3</ele>
        <time>2015-02-09T20:12:00.529Z</time>
      </trkpt>
      <trkpt lat="48.83495" lon="2.39596">
        <ele>104</ele>
        <time>2015-02-09T20:12:01.531Z</time>
      </trkpt>
      <trkpt lat="48.83504" lon="2.39583">
        <ele>104.1</ele>
        <time>2015-02-09T20:12:04.489Z</time>
      </trkpt>
      <trkpt lat="48.83508" lon="2.39578">
        <ele>104.1</ele>
        <time>2015-02-09T20:12:05.458Z</time>
      </trkpt>
      <trkpt lat="48.83512" lon="2.39575">
        <ele>104.3</ele>
        <time>2015-02-09T20:12:06.457Z</time>
      </trkpt>
      <trkpt lat="48.83518" lon="2.39566">
        <ele>104.4</ele>
        <time>2015-02-09T20:12:08.901Z</time>
      </trkpt>
      <trkpt lat="48.83521" lon="2.39561">
        <ele>104.6</ele>
        <time>2015-02-09T20:12:09.509Z</time>
      </trkpt>
      <trkpt lat="48.83528" lon="2.39553">
        <ele>104.6</ele>
        <time>2015-02-09T20:12:11.538Z</time>
      </trkpt>
      <trkpt lat="48.83532" lon="2.39549">
        <ele>104.5</ele>
        <time>2015-02-09T20:12:12.547Z</time>
      </trkpt>
      <trkpt lat="48.83536" lon="2.39544">
        <ele>104.5</ele>
        <time>2015-02-09T20:12:14.034Z</time>
      </trkpt>
      <trkpt lat="48.8354" lon="2.39539">
        <ele>104.3</ele>
        <time>2015-02-09T20:12:14.572Z</time>
      </trkpt>
      <trkpt lat="48.83542" lon="2.39533">
        <ele>104.6</ele>
        <time>2015-02-09T20:12:15.481Z</time>
      </trkpt>
      <trkpt lat="48.83546" lon="2.39527">
        <ele>105</ele>
        <time>2015-02-09T20:12:16.482Z</time>
      </trkpt>
      <trkpt lat="48.83549" lon="2.39521">
        <ele>105.3</ele>
        <time>2015-02-09T20:12:17.828Z</time>
      </trkpt>
      <trkpt lat="48.83551" lon="2.39515">
        <ele>105.7</ele>
        <time>2015-02-09T20:12:18.481Z</time>
      </trkpt>
      <trkpt lat="48.83556" lon="2.39504">
        <ele>106.5</ele>
        <time>2015-02-09T20:12:20.501Z</time>
      </trkpt>
      <trkpt lat="48.8356" lon="2.395">
        <ele>106.9</ele>
        <time>2015-02-09T20:12:21.530Z</time>
      </trkpt>
      <trkpt lat="48.83564" lon="2.39495">
        <ele>107.3</ele>
        <time>2015-02-09T20:12:22.992Z</time>
      </trkpt>
      <trkpt lat="48.83568" lon="2.39488">
        <ele>107.7</ele>
        <time>2015-02-09T20:12:23.563Z</time>
      </trkpt>
      <trkpt lat="48.83571" lon="2.39476">
        <ele>108</ele>
        <time>2015-02-09T20:12:25.509Z</time>
      </trkpt>
      <trkpt lat="48.83574" lon="2.39471">
        <ele>108</ele>
        <time>2015-02-09T20:12:26.512Z</time>
      </trkpt>
      <trkpt lat="48.83577" lon="2.39464">
        <ele>108.2</ele>
        <time>2015-02-09T20:12:28.042Z</time>
      </trkpt>
      <trkpt lat="48.8358" lon="2.39458">
        <ele>108.3</ele>
        <time>2015-02-09T20:12:28.473Z</time>
      </trkpt>
      <trkpt lat="48.83586" lon="2.39448">
        <ele>108.5</ele>
        <time>2015-02-09T20:12:30.467Z</time>
      </trkpt>
      <trkpt lat="48.83589" lon="2.39445">
        <ele>108.4</ele>
        <time>2015-02-09T20:12:31.492Z</time>
      </trkpt>
      <trkpt lat="48.83593" lon="2.39436">
        <ele>108.8</ele>
        <time>2015-02-09T20:12:33.459Z</time>
      </trkpt>
      <trkpt lat="48.83592" lon="2.39431">
        <ele>109.2</ele>
        <time>2015-02-09T20:12:34.476Z</time>
      </trkpt>
      <trkpt lat="48.83598" lon="2.39424">
        <ele>108.7</ele>
        <time>2015-02-09T20:12:36.627Z</time>
      </trkpt>
      <trkpt lat="48.83603" lon="2.39416">
        <ele>108.3</ele>
        <time>2015-02-09T20:12:37.474Z</time>
      </trkpt>
      <trkpt lat="48.83605" lon="2.3941">
        <ele>108.3</ele>
        <time>2015-02-09T20:12:38.525Z</time>
      </trkpt>
      <trkpt lat="48.83608" lon="2.39404">
        <ele>108.4</ele>
        <time>2015-02-09T20:12:39.543Z</time>
      </trkpt>
      <trkpt lat="48.83611" lon="2.39399">
        <ele>108.5</ele>
        <time>2015-02-09T20:12:40.458Z</time>
      </trkpt>
      <trkpt lat="48.83614" lon="2.39393">
        <ele>108.7</ele>
        <time>2015-02-09T20:12:41.466Z</time>
      </trkpt>
      <trkpt lat="48.83618" lon="2.39384">
        <ele>108.8</ele>
        <time>2015-02-09T20:12:43.543Z</time>
      </trkpt>
      <trkpt lat="48.83622" lon="2.39381">
        <ele>108.9</ele>
        <time>2015-02-09T20:12:44.464Z</time>
      </trkpt>
      <trkpt lat="48.83626" lon="2.39374">
        <ele>108.7</ele>
        <time>2015-02-09T20:12:46.458Z</time>
      </trkpt>
      <trkpt lat="48.83628" lon="2.3937">
        <ele>108.7</ele>
        <time>2015-02-09T20:12:47.473Z</time>
      </trkpt>
      <trkpt lat="48.83626" lon="2.39361">
        <ele>107.9</ele>
        <time>2015-02-09T20:12:48.497Z</time>
      </trkpt>
      <trkpt lat="48.83624" lon="2.39354">
        <ele>107</ele>
        <time>2015-02-09T20:12:49.505Z</time>
      </trkpt>
      <trkpt lat="48.83627" lon="2.39343">
        <ele>106.7</ele>
        <time>2015-02-09T20:12:52.461Z</time>
      </trkpt>
      <trkpt lat="48.83626" lon="2.39338">
        <ele>106.6</ele>
        <time>2015-02-09T20:12:53.496Z</time>
      </trkpt>
      <trkpt lat="48.83626" lon="2.39332">
        <ele>106.3</ele>
        <time>2015-02-09T20:12:54.539Z</time>
      </trkpt>
      <trkpt lat="48.83627" lon="2.39324">
        <ele>105.7</ele>
        <time>2015-02-09T20:12:55.567Z</time>
      </trkpt>
      <trkpt lat="48.83628" lon="2.39312">
        <ele>105.3</ele>
        <time>2015-02-09T20:12:57.452Z</time>
      </trkpt>
      <trkpt lat="48.83628" lon="2.39308">
        <ele>105.3</ele>
        <time>2015-02-09T20:12:58.497Z</time>
      </trkpt>
      <trkpt lat="48.83631" lon="2.39302">
        <ele>105.3</ele>
        <time>2015-02-09T20:13:03.468Z</time>
      </trkpt>
      <trkpt lat="48.83643" lon="2.39303">
        <ele>106.3</ele>
        <time>2015-02-09T20:13:04.469Z</time>
      </trkpt>
      <trkpt lat="48.83647" lon="2.39294">
        <ele>105.4</ele>
        <time>2015-02-09T20:13:10.471Z</time>
      </trkpt>
      <trkpt lat="48.83649" lon="2.39289">
        <ele>105.2</ele>
        <time>2015-02-09T20:13:11.481Z</time>
      </trkpt>
      <trkpt lat="48.83654" lon="2.3928">
        <ele>104.9</ele>
        <time>2015-02-09T20:13:13.506Z</time>
      </trkpt>
      <trkpt lat="48.83656" lon="2.39276">
        <ele>104.6</ele>
        <time>2015-02-09T20:13:14.519Z</time>
      </trkpt>
      <trkpt lat="48.83662" lon="2.39267">
        <ele>103.8</ele>
        <time>2015-02-09T20:13:16.463Z</time>
      </trkpt>
      <trkpt lat="48.83665" lon="2.39262">
        <ele>103.2</ele>
        <time>2015-02-09T20:13:17.475Z</time>
      </trkpt>
      <trkpt lat="48.83669" lon="2.39256">
        <ele>102.6</ele>
        <time>2015-02-09T20:13:18.484Z</time>
      </trkpt>
      <trkpt lat="48.83673" lon="2.39251">
        <ele>102.4</ele>
        <time>2015-02-09T20:13:19.498Z</time>
      </trkpt>
      <trkpt lat="48.83677" lon="2.39241">
        <ele>100.8</ele>
        <time>2015-02-09T20:13:21.523Z</time>
      </trkpt>
      <trkpt lat="48.8368" lon="2.39235">
        <ele>100.2</ele>
        <time>2015-02-09T20:13:22.532Z</time>
      </trkpt>
      <trkpt lat="48.83682" lon="2.39228">
        <ele>99.4</ele>
        <time>2015-02-09T20:13:23.457Z</time>
      </trkpt>
      <trkpt lat="48.83685" lon="2.39222">
        <ele>99.1</ele>
        <time>2015-02-09T20:13:24.456Z</time>
      </trkpt>
      <trkpt lat="48.83688" lon="2.39216">
        <ele>99.1</ele>
        <time>2015-02-09T20:13:25.494Z</time>
      </trkpt>
      <trkpt lat="48.83691" lon="2.39211">
        <ele>98.8</ele>
        <time>2015-02-09T20:13:26.508Z</time>
      </trkpt>
      <trkpt lat="48.83695" lon="2.39199">
        <ele>98.3</ele>
        <time>2015-02-09T20:13:28.542Z</time>
      </trkpt>
      <trkpt lat="48.83698" lon="2.39193">
        <ele>98.2</ele>
        <time>2015-02-09T20:13:29.544Z</time>
      </trkpt>
      <trkpt lat="48.83701" lon="2.39183">
        <ele>97.3</ele>
        <time>2015-02-09T20:13:31.529Z</time>
      </trkpt>
      <trkpt lat="48.83701" lon="2.39176">
        <ele>98</ele>
        <time>2015-02-09T20:13:32.529Z</time>
      </trkpt>
      <trkpt lat="48.83704" lon="2.39166">
        <ele>98.3</ele>
        <time>2015-02-09T20:13:34.503Z</time>
      </trkpt>
      <trkpt lat="48.83706" lon="2.39162">
        <ele>98.3</ele>
        <time>2015-02-09T20:13:35.714Z</time>
      </trkpt>
      <trkpt lat="48.83711" lon="2.39154">
        <ele>98.6</ele>
        <time>2015-02-09T20:13:37.531Z</time>
      </trkpt>
      <trkpt lat="48.83712" lon="2.3915">
        <ele>98.9</ele>
        <time>2015-02-09T20:13:38.553Z</time>
      </trkpt>
      <trkpt lat="48.83707" lon="2.39147">
        <ele>99.5</ele>
        <time>2015-02-09T20:13:48.502Z</time>
      </trkpt>
      <trkpt lat="48.83697" lon="2.39148">
        <ele>96.4</ele>
        <time>2015-02-09T20:13:49.582Z</time>
      </trkpt>
      <trkpt lat="48.83689" lon="2.39154">
        <ele>95.6</ele>
        <time>2015-02-09T20:13:52.495Z</time>
      </trkpt>
      <trkpt lat="48.83686" lon="2.39155">
        <ele>96</ele>
        <time>2015-02-09T20:13:53.516Z</time>
      </trkpt>
      <trkpt lat="48.83679" lon="2.39157">
        <ele>96.9</ele>
        <time>2015-02-09T20:13:55.506Z</time>
      </trkpt>
      <trkpt lat="48.83677" lon="2.39158">
        <ele>97.5</ele>
        <time>2015-02-09T20:13:56.501Z</time>
      </trkpt>
      <trkpt lat="48.83669" lon="2.3916">
        <ele>98.8</ele>
        <time>2015-02-09T20:13:58.532Z</time>
      </trkpt>
      <trkpt lat="48.83664" lon="2.3916">
        <ele>99.1</ele>
        <time>2015-02-09T20:13:59.627Z</time>
      </trkpt>
      <trkpt lat="48.83656" lon="2.3916">
        <ele>100.1</ele>
        <time>2015-02-09T20:14:01.523Z</time>
      </trkpt>
      <trkpt lat="48.83652" lon="2.3916">
        <ele>100.3</ele>
        <time>2015-02-09T20:14:02.529Z</time>
      </trkpt>
      <trkpt lat="48.83646" lon="2.39165">
        <ele>100.9</ele>
        <time>2015-02-09T20:14:04.531Z</time>
      </trkpt>
      <trkpt lat="48.83642" lon="2.39167">
        <ele>101.3</ele>
        <time>2015-02-09T20:14:05.598Z</time>
      </trkpt>
      <trkpt lat="48.83637" lon="2.39168">
        <ele>101.6</ele>
        <time>2015-02-09T20:14:06.478Z</time>
      </trkpt>
      <trkpt lat="48.83633" lon="2.39169">
        <ele>102</ele>
        <time>2015-02-09T20:14:07.501Z</time>
      </trkpt>
      <trkpt lat="48.83624" lon="2.39172">
        <ele>103</ele>
        <time>2015-02-09T20:14:09.498Z</time>
      </trkpt>
      <trkpt lat="48.83619" lon="2.39173">
        <ele>103.3</ele>
        <time>2015-02-09T20:14:10.500Z</time>
      </trkpt>
      <trkpt lat="48.83615" lon="2.39174">
        <ele>103.7</ele>
        <time>2015-02-09T20:14:11.516Z</time>
      </trkpt>
      <trkpt lat="48.8361" lon="2.39175">
        <ele>103.9</ele>
        <time>2015-02-09T20:14:12.528Z</time>
      </trkpt>
      <trkpt lat="48.83603" lon="2.39179">
        <ele>104.1</ele>
        <time>2015-02-09T20:14:14.472Z</time>
      </trkpt>
      <trkpt lat="48.83599" lon="2.39182">
        <ele>103.8</ele>
        <time>2015-02-09T20:14:15.486Z</time>
      </trkpt>
      <trkpt lat="48.83596" lon="2.39191">
        <ele>102.5</ele>
        <time>2015-02-09T20:14:17.507Z</time>
      </trkpt>
      <trkpt lat="48.83597" lon="2.392">
        <ele>101</ele>
        <time>2015-02-09T20:14:18.518Z</time>
      </trkpt>
      <trkpt lat="48.83593" lon="2.39204">
        <ele>101</ele>
        <time>2015-02-09T20:14:19.527Z</time>
      </trkpt>
      <trkpt lat="48.8359" lon="2.39209">
        <ele>101</ele>
        <time>2015-02-09T20:14:20.540Z</time>
      </trkpt>
      <trkpt lat="48.83584" lon="2.39217">
        <ele>101.3</ele>
        <time>2015-02-09T20:14:23.029Z</time>
      </trkpt>
      <trkpt lat="48.83581" lon="2.39221">
        <ele>101.8</ele>
        <time>2015-02-09T20:14:23.434Z</time>
      </trkpt>
      <trkpt lat="48.83573" lon="2.39227">
        <ele>102.5</ele>
        <time>2015-02-09T20:14:25.513Z</time>
      </trkpt>
      <trkpt lat="48.83568" lon="2.39229">
        <ele>102.9</ele>
        <time>2015-02-09T20:14:26.527Z</time>
      </trkpt>
      <trkpt lat="48.83564" lon="2.39232">
        <ele>103.3</ele>
        <time>2015-02-09T20:14:28.038Z</time>
      </trkpt>
      <trkpt lat="48.8356" lon="2.39237">
        <ele>103.7</ele>
        <time>2015-02-09T20:14:28.567Z</time>
      </trkpt>
      <trkpt lat="48.83554" lon="2.39245">
        <ele>104.4</ele>
        <time>2015-02-09T20:14:30.507Z</time>
      </trkpt>
      <trkpt lat="48.83552" lon="2.39249">
        <ele>104.7</ele>
        <time>2015-02-09T20:14:31.634Z</time>
      </trkpt>
      <trkpt lat="48.83546" lon="2.39254">
        <ele>105.3</ele>
        <time>2015-02-09T20:14:33.494Z</time>
      </trkpt>
      <trkpt lat="48.83543" lon="2.39255">
        <ele>105.3</ele>
        <time>2015-02-09T20:14:34.545Z</time>
      </trkpt>
      <trkpt lat="48.83535" lon="2.39256">
        <ele>105.6</ele>
        <time>2015-02-09T20:14:36.518Z</time>
      </trkpt>
      <trkpt lat="48.8353" lon="2.39256">
        <ele>105.4</ele>
        <time>2015-02-09T20:14:37.535Z</time>
      </trkpt>
      <trkpt lat="48.83529" lon="2.39265">
        <ele>103.5</ele>
        <time>2015-02-09T20:14:39.506Z</time>
      </trkpt>
      <trkpt lat="48.83529" lon="2.39271">
        <ele>101.7</ele>
        <time>2015-02-09T20:14:40.543Z</time>
      </trkpt>
      <trkpt lat="48.83527" lon="2.3928">
        <ele>100.6</ele>
        <time>2015-02-09T20:14:43.183Z</time>
      </trkpt>
      <trkpt lat="48.83524" lon="2.39284">
        <ele>100.6</ele>
        <time>2015-02-09T20:14:43.485Z</time>
      </trkpt>
      <trkpt lat="48.8352" lon="2.39293">
        <ele>100.9</ele>
        <time>2015-02-09T20:14:45.563Z</time>
      </trkpt>
      <trkpt lat="48.83516" lon="2.39297">
        <ele>101.2</ele>
        <time>2015-02-09T20:14:46.577Z</time>
      </trkpt>
      <trkpt lat="48.8351" lon="2.393">
        <ele>101.8</ele>
        <time>2015-02-09T20:14:48.502Z</time>
      </trkpt>
      <trkpt lat="48.83506" lon="2.39301">
        <ele>102</ele>
        <time>2015-02-09T20:14:49.536Z</time>
      </trkpt>
      <trkpt lat="48.83498" lon="2.39303">
        <ele>102.3</ele>
        <time>2015-02-09T20:14:51.572Z</time>
      </trkpt>
      <trkpt lat="48.83495" lon="2.39305">
        <ele>102.8</ele>
        <time>2015-02-09T20:14:52.507Z</time>
      </trkpt>
      <trkpt lat="48.83492" lon="2.39318">
        <ele>102.7</ele>
        <time>2015-02-09T20:14:55.558Z</time>
      </trkpt>
      <trkpt lat="48.83491" lon="2.39321">
        <ele>102.8</ele>
        <time>2015-02-09T20:14:56.447Z</time>
      </trkpt>
      <trkpt lat="48.83488" lon="2.39328">
        <ele>102.1</ele>
        <time>2015-02-09T20:14:58.551Z</time>
      </trkpt>
      <trkpt lat="48.83485" lon="2.39332">
        <ele>102.2</ele>
        <time>2015-02-09T20:14:59.513Z</time>
      </trkpt>
      <trkpt lat="48.83478" lon="2.39341">
        <ele>101.8</ele>
        <time>2015-02-09T20:15:01.545Z</time>
      </trkpt>
      <trkpt lat="48.83474" lon="2.39344">
        <ele>101.1</ele>
        <time>2015-02-09T20:15:02.437Z</time>
      </trkpt>
      <trkpt lat="48.83468" lon="2.39349">
        <ele>100.8</ele>
        <time>2015-02-09T20:15:04.457Z</time>
      </trkpt>
      <trkpt lat="48.83464" lon="2.3935">
        <ele>100.7</ele>
        <time>2015-02-09T20:15:05.460Z</time>
      </trkpt>
      <trkpt lat="48.83457" lon="2.39353">
        <ele>101.2</ele>
        <time>2015-02-09T20:15:07.502Z</time>
      </trkpt>
      <trkpt lat="48.83453" lon="2.39355">
        <ele>101.7</ele>
        <time>2015-02-09T20:15:08.515Z</time>
      </trkpt>
      <trkpt lat="48.83448" lon="2.3936">
        <ele>102.3</ele>
        <time>2015-02-09T20:15:10.479Z</time>
      </trkpt>
      <trkpt lat="48.83445" lon="2.39363">
        <ele>102.9</ele>
        <time>2015-02-09T20:15:11.534Z</time>
      </trkpt>
      <trkpt lat="48.8344" lon="2.39367">
        <ele>103.5</ele>
        <time>2015-02-09T20:15:13.980Z</time>
      </trkpt>
      <trkpt lat="48.83436" lon="2.39369">
        <ele>104.1</ele>
        <time>2015-02-09T20:15:14.508Z</time>
      </trkpt>
      <trkpt lat="48.8343" lon="2.39372">
        <ele>104.6</ele>
        <time>2015-02-09T20:15:16.607Z</time>
      </trkpt>
      <trkpt lat="48.83426" lon="2.39372">
        <ele>105.1</ele>
        <time>2015-02-09T20:15:17.524Z</time>
      </trkpt>
      <trkpt lat="48.83419" lon="2.39375">
        <ele>106.1</ele>
        <time>2015-02-09T20:15:19.560Z</time>
      </trkpt>
      <trkpt lat="48.83415" lon="2.39376">
        <ele>106.5</ele>
        <time>2015-02-09T20:15:20.493Z</time>
      </trkpt>
      <trkpt lat="48.83406" lon="2.3938">
        <ele>108</ele>
        <time>2015-02-09T20:15:23.436Z</time>
      </trkpt>
      <trkpt lat="48.83403" lon="2.39381">
        <ele>108.3</ele>
        <time>2015-02-09T20:15:24.498Z</time>
      </trkpt>
      <trkpt lat="48.83396" lon="2.39385">
        <ele>109</ele>
        <time>2015-02-09T20:15:26.510Z</time>
      </trkpt>
      <trkpt lat="48.83392" lon="2.39386">
        <ele>109.3</ele>
        <time>2015-02-09T20:15:27.520Z</time>
      </trkpt>
      <trkpt lat="48.83384" lon="2.39388">
        <ele>109.8</ele>
        <time>2015-02-09T20:15:29.566Z</time>
      </trkpt>
      <trkpt lat="48.83381" lon="2.39391">
        <ele>109.9</ele>
        <time>2015-02-09T20:15:30.464Z</time>
      </trkpt>
      <trkpt lat="48.83374" lon="2.39398">
        <ele>110.1</ele>
        <time>2015-02-09T20:15:33.205Z</time>
      </trkpt>
      <trkpt lat="48.83372" lon="2.39403">
        <ele>110.1</ele>
        <time>2015-02-09T20:15:33.528Z</time>
      </trkpt>
      <trkpt lat="48.83366" lon="2.39412">
        <ele>108</ele>
        <time>2015-02-09T20:15:35.434Z</time>
      </trkpt>
      <trkpt lat="48.83363" lon="2.39416">
        <ele>108.2</ele>
        <time>2015-02-09T20:15:36.505Z</time>
      </trkpt>
      <trkpt lat="48.83358" lon="2.39425">
        <ele>108.9</ele>
        <time>2015-02-09T20:15:38.531Z</time>
      </trkpt>
      <trkpt lat="48.83356" lon="2.3943">
        <ele>109.3</ele>
        <time>2015-02-09T20:15:39.546Z</time>
      </trkpt>
      <trkpt lat="48.83352" lon="2.3944">
        <ele>109.3</ele>
        <time>2015-02-09T20:15:41.475Z</time>
      </trkpt>
      <trkpt lat="48.83357" lon="2.3945">
        <ele>107.7</ele>
        <time>2015-02-09T20:15:42.474Z</time>
      </trkpt>
      <trkpt lat="48.83357" lon="2.39463">
        <ele>105.9</ele>
        <time>2015-02-09T20:15:45.380Z</time>
      </trkpt>
      <trkpt lat="48.83354" lon="2.39466">
        <ele>106.1</ele>
        <time>2015-02-09T20:15:45.530Z</time>
      </trkpt>
      <trkpt lat="48.83347" lon="2.39473">
        <ele>105.5</ele>
        <time>2015-02-09T20:15:47.498Z</time>
      </trkpt>
      <trkpt lat="48.83343" lon="2.39476">
        <ele>105.7</ele>
        <time>2015-02-09T20:15:48.492Z</time>
      </trkpt>
      <trkpt lat="48.83336" lon="2.39482">
        <ele>106.2</ele>
        <time>2015-02-09T20:15:50.589Z</time>
      </trkpt>
      <trkpt lat="48.8333" lon="2.39483">
        <ele>106.2</ele>
        <time>2015-02-09T20:15:51.449Z</time>
      </trkpt>
      <trkpt lat="48.83329" lon="2.39493">
        <ele>104.8</ele>
        <time>2015-02-09T20:15:53.572Z</time>
      </trkpt>
      <trkpt lat="48.83331" lon="2.395">
        <ele>103.2</ele>
        <time>2015-02-09T20:15:54.504Z</time>
      </trkpt>
      <trkpt lat="48.83328" lon="2.3951">
        <ele>102.8</ele>
        <time>2015-02-09T20:15:56.496Z</time>
      </trkpt>
      <trkpt lat="48.83327" lon="2.39517">
        <ele>102.1</ele>
        <time>2015-02-09T20:15:57.510Z</time>
      </trkpt>
      <trkpt lat="48.83326" lon="2.39525">
        <ele>101.6</ele>
        <time>2015-02-09T20:15:58.516Z</time>
      </trkpt>
      <trkpt lat="48.83324" lon="2.39533">
        <ele>101.3</ele>
        <time>2015-02-09T20:15:59.519Z</time>
      </trkpt>
      <trkpt lat="48.83321" lon="2.39539">
        <ele>101.6</ele>
        <time>2015-02-09T20:16:00.745Z</time>
      </trkpt>
      <trkpt lat="48.83317" lon="2.39544">
        <ele>102.1</ele>
        <time>2015-02-09T20:16:01.541Z</time>
      </trkpt>
      <trkpt lat="48.83314" lon="2.3955">
        <ele>102.3</ele>
        <time>2015-02-09T20:16:02.456Z</time>
      </trkpt>
      <trkpt lat="48.83276" lon="2.39595">
        <ele>105.5</ele>
        <time>2015-02-09T20:16:14.515Z</time>
      </trkpt>
      <trkpt lat="48.83273" lon="2.396">
        <ele>104.5</ele>
        <time>2015-02-09T20:16:16.016Z</time>
      </trkpt>
      <trkpt lat="48.83273" lon="2.39608">
        <ele>101.3</ele>
        <time>2015-02-09T20:16:16.568Z</time>
      </trkpt>
      <trkpt lat="48.8327" lon="2.3962">
        <ele>99.7</ele>
        <time>2015-02-09T20:16:18.500Z</time>
      </trkpt>
      <trkpt lat="48.83268" lon="2.39625">
        <ele>99.1</ele>
        <time>2015-02-09T20:16:19.638Z</time>
      </trkpt>
      <trkpt lat="48.83264" lon="2.39633">
        <ele>98.7</ele>
        <time>2015-02-09T20:16:21.480Z</time>
      </trkpt>
      <trkpt lat="48.83261" lon="2.39638">
        <ele>98.2</ele>
        <time>2015-02-09T20:16:22.503Z</time>
      </trkpt>
      <trkpt lat="48.83257" lon="2.39649">
        <ele>97.3</ele>
        <time>2015-02-09T20:16:24.542Z</time>
      </trkpt>
      <trkpt lat="48.83254" lon="2.39653">
        <ele>97.4</ele>
        <time>2015-02-09T20:16:25.550Z</time>
      </trkpt>
      <trkpt lat="48.8325" lon="2.39662">
        <ele>97.8</ele>
        <time>2015-02-09T20:16:28.101Z</time>
      </trkpt>
      <trkpt lat="48.83247" lon="2.39666">
        <ele>97.6</ele>
        <time>2015-02-09T20:16:28.459Z</time>
      </trkpt>
      <trkpt lat="48.83241" lon="2.39674">
        <ele>97.9</ele>
        <time>2015-02-09T20:16:30.481Z</time>
      </trkpt>
      <trkpt lat="48.83238" lon="2.39678">
        <ele>98.2</ele>
        <time>2015-02-09T20:16:31.528Z</time>
      </trkpt>
      <trkpt lat="48.83232" lon="2.39687">
        <ele>98.4</ele>
        <time>2015-02-09T20:16:33.455Z</time>
      </trkpt>
      <trkpt lat="48.8323" lon="2.39692">
        <ele>98.6</ele>
        <time>2015-02-09T20:16:34.475Z</time>
      </trkpt>
      <trkpt lat="48.83225" lon="2.397">
        <ele>99.1</ele>
        <time>2015-02-09T20:16:36.478Z</time>
      </trkpt>
      <trkpt lat="48.83222" lon="2.39704">
        <ele>99.2</ele>
        <time>2015-02-09T20:16:37.549Z</time>
      </trkpt>
      <trkpt lat="48.83218" lon="2.39712">
        <ele>99.7</ele>
        <time>2015-02-09T20:16:39.471Z</time>
      </trkpt>
      <trkpt lat="48.83215" lon="2.39714">
        <ele>99.5</ele>
        <time>2015-02-09T20:16:40.462Z</time>
      </trkpt>
      <trkpt lat="48.83209" lon="2.39721">
        <ele>99.2</ele>
        <time>2015-02-09T20:16:43.524Z</time>
      </trkpt>
      <trkpt lat="48.83208" lon="2.39723">
        <ele>99.2</ele>
        <time>2015-02-09T20:16:44.529Z</time>
      </trkpt>
      <trkpt lat="48.83203" lon="2.39729">
        <ele>100.4</ele>
        <time>2015-02-09T20:17:44.462Z</time>
      </trkpt>
      <trkpt lat="48.83192" lon="2.39739">
        <ele>97.3</ele>
        <time>2015-02-09T20:17:45.474Z</time>
      </trkpt>
      <trkpt lat="48.83189" lon="2.39741">
        <ele>97.4</ele>
        <time>2015-02-09T20:17:56.529Z</time>
      </trkpt>
      <trkpt lat="48.83179" lon="2.39747">
        <ele>97.4</ele>
        <time>2015-02-09T20:17:57.532Z</time>
      </trkpt>
      <trkpt lat="48.83172" lon="2.39742">
        <ele>97.3</ele>
        <time>2015-02-09T20:18:01.556Z</time>
      </trkpt>
      <trkpt lat="48.8317" lon="2.39738">
        <ele>97.1</ele>
        <time>2015-02-09T20:18:02.634Z</time>
      </trkpt>
      <trkpt lat="48.83165" lon="2.39728">
        <ele>96.9</ele>
        <time>2015-02-09T20:18:05.542Z</time>
      </trkpt>
      <trkpt lat="48.83163" lon="2.39724">
        <ele>96.9</ele>
        <time>2015-02-09T20:18:06.557Z</time>
      </trkpt>
      <trkpt lat="48.83159" lon="2.39715">
        <ele>96.7</ele>
        <time>2015-02-09T20:18:08.932Z</time>
      </trkpt>
      <trkpt lat="48.83157" lon="2.3971">
        <ele>96.7</ele>
        <time>2015-02-09T20:18:09.486Z</time>
      </trkpt>
      <trkpt lat="48.83154" lon="2.397">
        <ele>96.6</ele>
        <time>2015-02-09T20:18:11.523Z</time>
      </trkpt>
      <trkpt lat="48.83152" lon="2.39696">
        <ele>96.5</ele>
        <time>2015-02-09T20:18:12.647Z</time>
      </trkpt>
      <trkpt lat="48.83147" lon="2.39686">
        <ele>96.4</ele>
        <time>2015-02-09T20:18:14.529Z</time>
      </trkpt>
      <trkpt lat="48.83144" lon="2.3968">
        <ele>96.3</ele>
        <time>2015-02-09T20:18:15.558Z</time>
      </trkpt>
      <trkpt lat="48.83142" lon="2.39674">
        <ele>96.1</ele>
        <time>2015-02-09T20:18:16.489Z</time>
      </trkpt>
      <trkpt lat="48.83138" lon="2.39668">
        <ele>96.1</ele>
        <time>2015-02-09T20:18:17.482Z</time>
      </trkpt>
      <trkpt lat="48.83136" lon="2.39662">
        <ele>95.8</ele>
        <time>2015-02-09T20:18:19.061Z</time>
      </trkpt>
      <trkpt lat="48.83134" lon="2.39656">
        <ele>95.7</ele>
        <time>2015-02-09T20:18:19.516Z</time>
      </trkpt>
      <trkpt lat="48.8313" lon="2.39649">
        <ele>95.7</ele>
        <time>2015-02-09T20:18:20.520Z</time>
      </trkpt>
      <trkpt lat="48.83129" lon="2.39643">
        <ele>95.6</ele>
        <time>2015-02-09T20:18:21.533Z</time>
      </trkpt>
      <trkpt lat="48.83126" lon="2.39637">
        <ele>95.9</ele>
        <time>2015-02-09T20:18:22.544Z</time>
      </trkpt>
      <trkpt lat="48.83125" lon="2.3963">
        <ele>95.7</ele>
        <time>2015-02-09T20:18:23.448Z</time>
      </trkpt>
      <trkpt lat="48.83122" lon="2.39619">
        <ele>95.3</ele>
        <time>2015-02-09T20:18:25.517Z</time>
      </trkpt>
      <trkpt lat="48.83119" lon="2.39613">
        <ele>95.3</ele>
        <time>2015-02-09T20:18:26.517Z</time>
      </trkpt>
      <trkpt lat="48.83117" lon="2.39607">
        <ele>95.2</ele>
        <time>2015-02-09T20:18:27.476Z</time>
      </trkpt>
      <trkpt lat="48.83115" lon="2.396">
        <ele>95.4</ele>
        <time>2015-02-09T20:18:28.488Z</time>
      </trkpt>
      <trkpt lat="48.83113" lon="2.39594">
        <ele>95.5</ele>
        <time>2015-02-09T20:18:29.534Z</time>
      </trkpt>
      <trkpt lat="48.8311" lon="2.39588">
        <ele>95.5</ele>
        <time>2015-02-09T20:18:30.566Z</time>
      </trkpt>
      <trkpt lat="48.83108" lon="2.39581">
        <ele>95.6</ele>
        <time>2015-02-09T20:18:31.523Z</time>
      </trkpt>
      <trkpt lat="48.83106" lon="2.39574">
        <ele>95.6</ele>
        <time>2015-02-09T20:18:32.504Z</time>
      </trkpt>
      <trkpt lat="48.83104" lon="2.39567">
        <ele>95.5</ele>
        <time>2015-02-09T20:18:33.516Z</time>
      </trkpt>
      <trkpt lat="48.83101" lon="2.3956">
        <ele>95.5</ele>
        <time>2015-02-09T20:18:34.525Z</time>
      </trkpt>
      <trkpt lat="48.83099" lon="2.39553">
        <ele>95.4</ele>
        <time>2015-02-09T20:18:35.545Z</time>
      </trkpt>
      <trkpt lat="48.83097" lon="2.39546">
        <ele>95.3</ele>
        <time>2015-02-09T20:18:36.617Z</time>
      </trkpt>
      <trkpt lat="48.83095" lon="2.39539">
        <ele>95.2</ele>
        <time>2015-02-09T20:18:37.527Z</time>
      </trkpt>
      <trkpt lat="48.83093" lon="2.39532">
        <ele>95.1</ele>
        <time>2015-02-09T20:18:38.523Z</time>
      </trkpt>
      <trkpt lat="48.8309" lon="2.39525">
        <ele>95.1</ele>
        <time>2015-02-09T20:18:39.525Z</time>
      </trkpt>
      <trkpt lat="48.83088" lon="2.39518">
        <ele>95</ele>
        <time>2015-02-09T20:18:40.451Z</time>
      </trkpt>
      <trkpt lat="48.83087" lon="2.39511">
        <ele>95</ele>
        <time>2015-02-09T20:18:41.490Z</time>
      </trkpt>
      <trkpt lat="48.83085" lon="2.39504">
        <ele>95</ele>
        <time>2015-02-09T20:18:42.494Z</time>
      </trkpt>
      <trkpt lat="48.83083" lon="2.39496">
        <ele>94.8</ele>
        <time>2015-02-09T20:18:43.504Z</time>
      </trkpt>
      <trkpt lat="48.83081" lon="2.39489">
        <ele>94.4</ele>
        <time>2015-02-09T20:18:44.540Z</time>
      </trkpt>
      <trkpt lat="48.83079" lon="2.39482">
        <ele>94.3</ele>
        <time>2015-02-09T20:18:45.537Z</time>
      </trkpt>
      <trkpt lat="48.83077" lon="2.39475">
        <ele>93.6</ele>
        <time>2015-02-09T20:18:46.486Z</time>
      </trkpt>
      <trkpt lat="48.83075" lon="2.39468">
        <ele>93.7</ele>
        <time>2015-02-09T20:18:47.499Z</time>
      </trkpt>
      <trkpt lat="48.83074" lon="2.39461">
        <ele>93.8</ele>
        <time>2015-02-09T20:18:48.495Z</time>
      </trkpt>
      <trkpt lat="48.83072" lon="2.39449">
        <ele>93.8</ele>
        <time>2015-02-09T20:18:50.532Z</time>
      </trkpt>
      <trkpt lat="48.83071" lon="2.39443">
        <ele>93.9</ele>
        <time>2015-02-09T20:18:51.545Z</time>
      </trkpt>
      <trkpt lat="48.83069" lon="2.39431">
        <ele>93.5</ele>
        <time>2015-02-09T20:18:53.486Z</time>
      </trkpt>
      <trkpt lat="48.83068" lon="2.39425">
        <ele>93.4</ele>
        <time>2015-02-09T20:18:54.485Z</time>
      </trkpt>
      <trkpt lat="48.83067" lon="2.39413">
        <ele>93.2</ele>
        <time>2015-02-09T20:18:56.542Z</time>
      </trkpt>
      <trkpt lat="48.83066" lon="2.39407">
        <ele>93.1</ele>
        <time>2015-02-09T20:18:57.566Z</time>
      </trkpt>
      <trkpt lat="48.83064" lon="2.39395">
        <ele>92.9</ele>
        <time>2015-02-09T20:18:59.478Z</time>
      </trkpt>
      <trkpt lat="48.83062" lon="2.39388">
        <ele>92.8</ele>
        <time>2015-02-09T20:19:00.491Z</time>
      </trkpt>
      <trkpt lat="48.8306" lon="2.39376">
        <ele>92.6</ele>
        <time>2015-02-09T20:19:02.555Z</time>
      </trkpt>
      <trkpt lat="48.83059" lon="2.39369">
        <ele>92.6</ele>
        <time>2015-02-09T20:19:03.479Z</time>
      </trkpt>
      <trkpt lat="48.83057" lon="2.39363">
        <ele>92.5</ele>
        <time>2015-02-09T20:19:04.498Z</time>
      </trkpt>
      <trkpt lat="48.83055" lon="2.39356">
        <ele>92.3</ele>
        <time>2015-02-09T20:19:05.510Z</time>
      </trkpt>
      <trkpt lat="48.83052" lon="2.39343">
        <ele>91.9</ele>
        <time>2015-02-09T20:19:07.662Z</time>
      </trkpt>
      <trkpt lat="48.83051" lon="2.39336">
        <ele>91.8</ele>
        <time>2015-02-09T20:19:08.481Z</time>
      </trkpt>
      <trkpt lat="48.83049" lon="2.39323">
        <ele>91.7</ele>
        <time>2015-02-09T20:19:10.484Z</time>
      </trkpt>
      <trkpt lat="48.83048" lon="2.39317">
        <ele>91.5</ele>
        <time>2015-02-09T20:19:11.495Z</time>
      </trkpt>
      <trkpt lat="48.83046" lon="2.39309">
        <ele>91.3</ele>
        <time>2015-02-09T20:19:12.506Z</time>
      </trkpt>
      <trkpt lat="48.83045" lon="2.39302">
        <ele>91.1</ele>
        <time>2015-02-09T20:19:13.513Z</time>
      </trkpt>
      <trkpt lat="48.83043" lon="2.39295">
        <ele>91.2</ele>
        <time>2015-02-09T20:19:14.519Z</time>
      </trkpt>
      <trkpt lat="48.83042" lon="2.39287">
        <ele>91.2</ele>
        <time>2015-02-09T20:19:15.561Z</time>
      </trkpt>
      <trkpt lat="48.83039" lon="2.3928">
        <ele>91</ele>
        <time>2015-02-09T20:19:16.476Z</time>
      </trkpt>
      <trkpt lat="48.83037" lon="2.39272">
        <ele>90.8</ele>
        <time>2015-02-09T20:19:17.487Z</time>
      </trkpt>
      <trkpt lat="48.83034" lon="2.39264">
        <ele>90.9</ele>
        <time>2015-02-09T20:19:18.488Z</time>
      </trkpt>
      <trkpt lat="48.83031" lon="2.39257">
        <ele>90.6</ele>
        <time>2015-02-09T20:19:19.512Z</time>
      </trkpt>
      <trkpt lat="48.83028" lon="2.3925">
        <ele>90.4</ele>
        <time>2015-02-09T20:19:20.516Z</time>
      </trkpt>
      <trkpt lat="48.83026" lon="2.39243">
        <ele>90.2</ele>
        <time>2015-02-09T20:19:21.523Z</time>
      </trkpt>
      <trkpt lat="48.83025" lon="2.39236">
        <ele>90.2</ele>
        <time>2015-02-09T20:19:22.536Z</time>
      </trkpt>
      <trkpt lat="48.83024" lon="2.39229">
        <ele>89.9</ele>
        <time>2015-02-09T20:19:23.555Z</time>
      </trkpt>
      <trkpt lat="48.83023" lon="2.39223">
        <ele>90</ele>
        <time>2015-02-09T20:19:24.472Z</time>
      </trkpt>
      <trkpt lat="48.83018" lon="2.39215">
        <ele>89.1</ele>
        <time>2015-02-09T20:19:25.580Z</time>
      </trkpt>
      <trkpt lat="48.83015" lon="2.39207">
        <ele>88.8</ele>
        <time>2015-02-09T20:19:26.510Z</time>
      </trkpt>
      <trkpt lat="48.83012" lon="2.39199">
        <ele>88.3</ele>
        <time>2015-02-09T20:19:27.525Z</time>
      </trkpt>
      <trkpt lat="48.83009" lon="2.3919">
        <ele>88.1</ele>
        <time>2015-02-09T20:19:28.535Z</time>
      </trkpt>
      <trkpt lat="48.83007" lon="2.39181">
        <ele>88.2</ele>
        <time>2015-02-09T20:19:29.543Z</time>
      </trkpt>
      <trkpt lat="48.83004" lon="2.39173">
        <ele>88.2</ele>
        <time>2015-02-09T20:19:30.558Z</time>
      </trkpt>
      <trkpt lat="48.83002" lon="2.39165">
        <ele>88.2</ele>
        <time>2015-02-09T20:19:31.650Z</time>
      </trkpt>
      <trkpt lat="48.82999" lon="2.39158">
        <ele>88.3</ele>
        <time>2015-02-09T20:19:32.471Z</time>
      </trkpt>
      <trkpt lat="48.82997" lon="2.3915">
        <ele>88.4</ele>
        <time>2015-02-09T20:19:33.469Z</time>
      </trkpt>
      <trkpt lat="48.82994" lon="2.39141">
        <ele>88.1</ele>
        <time>2015-02-09T20:19:34.481Z</time>
      </trkpt>
      <trkpt lat="48.82991" lon="2.39132">
        <ele>88</ele>
        <time>2015-02-09T20:19:35.498Z</time>
      </trkpt>
      <trkpt lat="48.82988" lon="2.39124">
        <ele>88</ele>
        <time>2015-02-09T20:19:36.519Z</time>
      </trkpt>
      <trkpt lat="48.82985" lon="2.39115">
        <ele>88</ele>
        <time>2015-02-09T20:19:37.544Z</time>
      </trkpt>
      <trkpt lat="48.82981" lon="2.39107">
        <ele>88</ele>
        <time>2015-02-09T20:19:38.446Z</time>
      </trkpt>
      <trkpt lat="48.82978" lon="2.39098">
        <ele>88.1</ele>
        <time>2015-02-09T20:19:39.455Z</time>
      </trkpt>
      <trkpt lat="48.82974" lon="2.3909">
        <ele>88.2</ele>
        <time>2015-02-09T20:19:40.462Z</time>
      </trkpt>
      <trkpt lat="48.82971" lon="2.39082">
        <ele>88.5</ele>
        <time>2015-02-09T20:19:41.472Z</time>
      </trkpt>
      <trkpt lat="48.82967" lon="2.39075">
        <ele>88.8</ele>
        <time>2015-02-09T20:19:42.496Z</time>
      </trkpt>
      <trkpt lat="48.82964" lon="2.39067">
        <ele>88.8</ele>
        <time>2015-02-09T20:19:43.535Z</time>
      </trkpt>
      <trkpt lat="48.82961" lon="2.39059">
        <ele>88.6</ele>
        <time>2015-02-09T20:19:44.465Z</time>
      </trkpt>
      <trkpt lat="48.82958" lon="2.39052">
        <ele>88.5</ele>
        <time>2015-02-09T20:19:45.462Z</time>
      </trkpt>
      <trkpt lat="48.82955" lon="2.39043">
        <ele>88.5</ele>
        <time>2015-02-09T20:19:46.480Z</time>
      </trkpt>
      <trkpt lat="48.82952" lon="2.39036">
        <ele>88.3</ele>
        <time>2015-02-09T20:19:47.494Z</time>
      </trkpt>
      <trkpt lat="48.82949" lon="2.39028">
        <ele>88.2</ele>
        <time>2015-02-09T20:19:48.507Z</time>
      </trkpt>
      <trkpt lat="48.82946" lon="2.3902">
        <ele>88.3</ele>
        <time>2015-02-09T20:19:49.516Z</time>
      </trkpt>
      <trkpt lat="48.82943" lon="2.39012">
        <ele>88.3</ele>
        <time>2015-02-09T20:19:50.559Z</time>
      </trkpt>
      <trkpt lat="48.8294" lon="2.39004">
        <ele>88.1</ele>
        <time>2015-02-09T20:19:51.475Z</time>
      </trkpt>
      <trkpt lat="48.82937" lon="2.38998">
        <ele>88.1</ele>
        <time>2015-02-09T20:19:52.533Z</time>
      </trkpt>
      <trkpt lat="48.82934" lon="2.38991">
        <ele>88.2</ele>
        <time>2015-02-09T20:19:53.546Z</time>
      </trkpt>
      <trkpt lat="48.82932" lon="2.38984">
        <ele>87.8</ele>
        <time>2015-02-09T20:19:54.559Z</time>
      </trkpt>
      <trkpt lat="48.82929" lon="2.38976">
        <ele>87.6</ele>
        <time>2015-02-09T20:19:55.574Z</time>
      </trkpt>
      <trkpt lat="48.82926" lon="2.38968">
        <ele>87.2</ele>
        <time>2015-02-09T20:19:56.474Z</time>
      </trkpt>
      <trkpt lat="48.82923" lon="2.3896">
        <ele>86.9</ele>
        <time>2015-02-09T20:19:57.471Z</time>
      </trkpt>
      <trkpt lat="48.8292" lon="2.38953">
        <ele>86.7</ele>
        <time>2015-02-09T20:19:58.483Z</time>
      </trkpt>
      <trkpt lat="48.82917" lon="2.38946">
        <ele>86.5</ele>
        <time>2015-02-09T20:19:59.490Z</time>
      </trkpt>
      <trkpt lat="48.82914" lon="2.3894">
        <ele>86.3</ele>
        <time>2015-02-09T20:20:00.502Z</time>
      </trkpt>
      <trkpt lat="48.82911" lon="2.38932">
        <ele>86.3</ele>
        <time>2015-02-09T20:20:01.522Z</time>
      </trkpt>
      <trkpt lat="48.82908" lon="2.38925">
        <ele>86.1</ele>
        <time>2015-02-09T20:20:02.525Z</time>
      </trkpt>
      <trkpt lat="48.82906" lon="2.38918">
        <ele>86.4</ele>
        <time>2015-02-09T20:20:03.571Z</time>
      </trkpt>
      <trkpt lat="48.82903" lon="2.38911">
        <ele>86.3</ele>
        <time>2015-02-09T20:20:04.462Z</time>
      </trkpt>
      <trkpt lat="48.829" lon="2.38905">
        <ele>86.5</ele>
        <time>2015-02-09T20:20:05.475Z</time>
      </trkpt>
      <trkpt lat="48.82897" lon="2.38898">
        <ele>86.6</ele>
        <time>2015-02-09T20:20:06.490Z</time>
      </trkpt>
      <trkpt lat="48.82895" lon="2.38892">
        <ele>86.4</ele>
        <time>2015-02-09T20:20:07.505Z</time>
      </trkpt>
      <trkpt lat="48.8289" lon="2.38881">
        <ele>86.4</ele>
        <time>2015-02-09T20:20:09.528Z</time>
      </trkpt>
      <trkpt lat="48.82888" lon="2.38875">
        <ele>86.5</ele>
        <time>2015-02-09T20:20:10.546Z</time>
      </trkpt>
      <trkpt lat="48.82885" lon="2.38869">
        <ele>86.3</ele>
        <time>2015-02-09T20:20:11.512Z</time>
      </trkpt>
      <trkpt lat="48.82883" lon="2.38863">
        <ele>86.3</ele>
        <time>2015-02-09T20:20:12.531Z</time>
      </trkpt>
      <trkpt lat="48.8288" lon="2.38858">
        <ele>86.2</ele>
        <time>2015-02-09T20:20:13.548Z</time>
      </trkpt>
      <trkpt lat="48.82877" lon="2.38851">
        <ele>86.4</ele>
        <time>2015-02-09T20:20:14.484Z</time>
      </trkpt>
      <trkpt lat="48.82875" lon="2.38845">
        <ele>86.4</ele>
        <time>2015-02-09T20:20:15.472Z</time>
      </trkpt>
      <trkpt lat="48.82872" lon="2.38838">
        <ele>86.4</ele>
        <time>2015-02-09T20:20:16.466Z</time>
      </trkpt>
      <trkpt lat="48.82869" lon="2.38833">
        <ele>86.5</ele>
        <time>2015-02-09T20:20:17.478Z</time>
      </trkpt>
      <trkpt lat="48.82866" lon="2.38827">
        <ele>86.6</ele>
        <time>2015-02-09T20:20:18.486Z</time>
      </trkpt>
      <trkpt lat="48.82863" lon="2.38822">
        <ele>86.5</ele>
        <time>2015-02-09T20:20:19.515Z</time>
      </trkpt>
      <trkpt lat="48.8286" lon="2.38816">
        <ele>86.5</ele>
        <time>2015-02-09T20:20:20.518Z</time>
      </trkpt>
      <trkpt lat="48.82857" lon="2.3881">
        <ele>86.6</ele>
        <time>2015-02-09T20:20:21.528Z</time>
      </trkpt>
      <trkpt lat="48.82855" lon="2.38804">
        <ele>86.6</ele>
        <time>2015-02-09T20:20:22.542Z</time>
      </trkpt>
      <trkpt lat="48.82852" lon="2.38798">
        <ele>86.3</ele>
        <time>2015-02-09T20:20:23.565Z</time>
      </trkpt>
      <trkpt lat="48.82849" lon="2.38792">
        <ele>86.1</ele>
        <time>2015-02-09T20:20:24.468Z</time>
      </trkpt>
      <trkpt lat="48.82846" lon="2.38787">
        <ele>85.6</ele>
        <time>2015-02-09T20:20:25.513Z</time>
      </trkpt>
      <trkpt lat="48.82844" lon="2.38781">
        <ele>85.4</ele>
        <time>2015-02-09T20:20:26.510Z</time>
      </trkpt>
      <trkpt lat="48.8284" lon="2.38776">
        <ele>85.7</ele>
        <time>2015-02-09T20:20:27.523Z</time>
      </trkpt>
      <trkpt lat="48.82837" lon="2.3877">
        <ele>85.8</ele>
        <time>2015-02-09T20:20:28.522Z</time>
      </trkpt>
      <trkpt lat="48.82832" lon="2.38759">
        <ele>86.1</ele>
        <time>2015-02-09T20:20:30.541Z</time>
      </trkpt>
      <trkpt lat="48.82829" lon="2.38754">
        <ele>86.1</ele>
        <time>2015-02-09T20:20:31.551Z</time>
      </trkpt>
      <trkpt lat="48.82824" lon="2.38744">
        <ele>86.1</ele>
        <time>2015-02-09T20:20:33.474Z</time>
      </trkpt>
      <trkpt lat="48.82821" lon="2.38739">
        <ele>86.2</ele>
        <time>2015-02-09T20:20:34.482Z</time>
      </trkpt>
      <trkpt lat="48.82816" lon="2.38729">
        <ele>85.7</ele>
        <time>2015-02-09T20:20:36.500Z</time>
      </trkpt>
      <trkpt lat="48.82814" lon="2.38723">
        <ele>85.4</ele>
        <time>2015-02-09T20:20:37.504Z</time>
      </trkpt>
      <trkpt lat="48.82811" lon="2.38717">
        <ele>85.7</ele>
        <time>2015-02-09T20:20:38.472Z</time>
      </trkpt>
      <trkpt lat="48.82808" lon="2.38712">
        <ele>85.6</ele>
        <time>2015-02-09T20:20:39.471Z</time>
      </trkpt>
      <trkpt lat="48.82805" lon="2.38706">
        <ele>85.6</ele>
        <time>2015-02-09T20:20:40.480Z</time>
      </trkpt>
      <trkpt lat="48.82803" lon="2.387">
        <ele>85.8</ele>
        <time>2015-02-09T20:20:41.487Z</time>
      </trkpt>
      <trkpt lat="48.82798" lon="2.3869">
        <ele>86.2</ele>
        <time>2015-02-09T20:20:43.514Z</time>
      </trkpt>
      <trkpt lat="48.82795" lon="2.38685">
        <ele>86.4</ele>
        <time>2015-02-09T20:20:44.564Z</time>
      </trkpt>
      <trkpt lat="48.82792" lon="2.38679">
        <ele>86.6</ele>
        <time>2015-02-09T20:20:45.470Z</time>
      </trkpt>
      <trkpt lat="48.82789" lon="2.38673">
        <ele>86.5</ele>
        <time>2015-02-09T20:20:46.472Z</time>
      </trkpt>
      <trkpt lat="48.82786" lon="2.38667">
        <ele>86.5</ele>
        <time>2015-02-09T20:20:47.486Z</time>
      </trkpt>
      <trkpt lat="48.82783" lon="2.38661">
        <ele>86.6</ele>
        <time>2015-02-09T20:20:48.502Z</time>
      </trkpt>
      <trkpt lat="48.82781" lon="2.38655">
        <ele>86.4</ele>
        <time>2015-02-09T20:20:49.529Z</time>
      </trkpt>
      <trkpt lat="48.82778" lon="2.3865">
        <ele>86.1</ele>
        <time>2015-02-09T20:20:50.539Z</time>
      </trkpt>
      <trkpt lat="48.82776" lon="2.38644">
        <ele>86.1</ele>
        <time>2015-02-09T20:20:51.544Z</time>
      </trkpt>
      <trkpt lat="48.82773" lon="2.38637">
        <ele>85.9</ele>
        <time>2015-02-09T20:20:52.547Z</time>
      </trkpt>
      <trkpt lat="48.8277" lon="2.38631">
        <ele>85.9</ele>
        <time>2015-02-09T20:20:53.560Z</time>
      </trkpt>
      <trkpt lat="48.82767" lon="2.38625">
        <ele>85.9</ele>
        <time>2015-02-09T20:20:54.482Z</time>
      </trkpt>
      <trkpt lat="48.82764" lon="2.38619">
        <ele>85.6</ele>
        <time>2015-02-09T20:20:55.540Z</time>
      </trkpt>
      <trkpt lat="48.82761" lon="2.38613">
        <ele>85.6</ele>
        <time>2015-02-09T20:20:56.546Z</time>
      </trkpt>
      <trkpt lat="48.82759" lon="2.38606">
        <ele>85.1</ele>
        <time>2015-02-09T20:20:57.549Z</time>
      </trkpt>
      <trkpt lat="48.82756" lon="2.386">
        <ele>84.9</ele>
        <time>2015-02-09T20:20:58.560Z</time>
      </trkpt>
      <trkpt lat="48.82751" lon="2.38589">
        <ele>85.1</ele>
        <time>2015-02-09T20:21:00.471Z</time>
      </trkpt>
      <trkpt lat="48.82748" lon="2.38584">
        <ele>85.5</ele>
        <time>2015-02-09T20:21:01.530Z</time>
      </trkpt>
      <trkpt lat="48.82745" lon="2.38578">
        <ele>85.9</ele>
        <time>2015-02-09T20:21:02.484Z</time>
      </trkpt>
      <trkpt lat="48.82742" lon="2.38573">
        <ele>86.1</ele>
        <time>2015-02-09T20:21:03.478Z</time>
      </trkpt>
      <trkpt lat="48.8274" lon="2.38567">
        <ele>86.2</ele>
        <time>2015-02-09T20:21:04.513Z</time>
      </trkpt>
      <trkpt lat="48.82736" lon="2.38562">
        <ele>86.3</ele>
        <time>2015-02-09T20:21:05.558Z</time>
      </trkpt>
      <trkpt lat="48.82733" lon="2.38556">
        <ele>86.6</ele>
        <time>2015-02-09T20:21:06.473Z</time>
      </trkpt>
      <trkpt lat="48.82731" lon="2.3855">
        <ele>86.8</ele>
        <time>2015-02-09T20:21:07.511Z</time>
      </trkpt>
      <trkpt lat="48.82726" lon="2.38539">
        <ele>86.6</ele>
        <time>2015-02-09T20:21:09.552Z</time>
      </trkpt>
      <trkpt lat="48.82724" lon="2.38533">
        <ele>86.6</ele>
        <time>2015-02-09T20:21:10.562Z</time>
      </trkpt>
      <trkpt lat="48.82719" lon="2.38522">
        <ele>87.3</ele>
        <time>2015-02-09T20:21:12.455Z</time>
      </trkpt>
      <trkpt lat="48.82715" lon="2.38517">
        <ele>87.1</ele>
        <time>2015-02-09T20:21:13.463Z</time>
      </trkpt>
      <trkpt lat="48.8271" lon="2.38507">
        <ele>86.5</ele>
        <time>2015-02-09T20:21:15.519Z</time>
      </trkpt>
      <trkpt lat="48.82708" lon="2.38502">
        <ele>86.4</ele>
        <time>2015-02-09T20:21:16.567Z</time>
      </trkpt>
      <trkpt lat="48.82705" lon="2.38496">
        <ele>86.4</ele>
        <time>2015-02-09T20:21:17.466Z</time>
      </trkpt>
      <trkpt lat="48.82702" lon="2.3849">
        <ele>86.4</ele>
        <time>2015-02-09T20:21:18.481Z</time>
      </trkpt>
      <trkpt lat="48.82697" lon="2.38479">
        <ele>86.9</ele>
        <time>2015-02-09T20:21:20.517Z</time>
      </trkpt>
      <trkpt lat="48.82695" lon="2.38474">
        <ele>86.8</ele>
        <time>2015-02-09T20:21:21.607Z</time>
      </trkpt>
      <trkpt lat="48.82692" lon="2.38467">
        <ele>86.4</ele>
        <time>2015-02-09T20:21:22.466Z</time>
      </trkpt>
      <trkpt lat="48.82689" lon="2.38461">
        <ele>86.4</ele>
        <time>2015-02-09T20:21:23.468Z</time>
      </trkpt>
      <trkpt lat="48.82683" lon="2.38451">
        <ele>86.7</ele>
        <time>2015-02-09T20:21:26.177Z</time>
      </trkpt>
      <trkpt lat="48.8268" lon="2.38446">
        <ele>86.7</ele>
        <time>2015-02-09T20:21:26.516Z</time>
      </trkpt>
      <trkpt lat="48.82675" lon="2.38435">
        <ele>86.6</ele>
        <time>2015-02-09T20:21:28.532Z</time>
      </trkpt>
      <trkpt lat="48.82672" lon="2.38429">
        <ele>86.7</ele>
        <time>2015-02-09T20:21:29.542Z</time>
      </trkpt>
      <trkpt lat="48.82667" lon="2.38419">
        <ele>86.9</ele>
        <time>2015-02-09T20:21:31.477Z</time>
      </trkpt>
      <trkpt lat="48.82664" lon="2.38414">
        <ele>87</ele>
        <time>2015-02-09T20:21:32.486Z</time>
      </trkpt>
      <trkpt lat="48.8266" lon="2.38403">
        <ele>86.9</ele>
        <time>2015-02-09T20:21:34.514Z</time>
      </trkpt>
      <trkpt lat="48.82657" lon="2.38397">
        <ele>87.1</ele>
        <time>2015-02-09T20:21:35.515Z</time>
      </trkpt>
      <trkpt lat="48.82654" lon="2.38386">
        <ele>87.5</ele>
        <time>2015-02-09T20:21:38.139Z</time>
      </trkpt>
      <trkpt lat="48.82653" lon="2.38381">
        <ele>87.5</ele>
        <time>2015-02-09T20:21:38.452Z</time>
      </trkpt>
      <trkpt lat="48.8265" lon="2.3837">
        <ele>87.9</ele>
        <time>2015-02-09T20:21:40.498Z</time>
      </trkpt>
      <trkpt lat="48.82648" lon="2.38364">
        <ele>88.1</ele>
        <time>2015-02-09T20:21:41.523Z</time>
      </trkpt>
      <trkpt lat="48.82646" lon="2.38358">
        <ele>88.2</ele>
        <time>2015-02-09T20:21:43.171Z</time>
      </trkpt>
      <trkpt lat="48.82644" lon="2.38351">
        <ele>88.4</ele>
        <time>2015-02-09T20:21:43.491Z</time>
      </trkpt>
      <trkpt lat="48.82642" lon="2.38346">
        <ele>88.7</ele>
        <time>2015-02-09T20:21:44.487Z</time>
      </trkpt>
      <trkpt lat="48.82638" lon="2.38341">
        <ele>88.9</ele>
        <time>2015-02-09T20:21:45.495Z</time>
      </trkpt>
      <trkpt lat="48.82635" lon="2.38335">
        <ele>89.4</ele>
        <time>2015-02-09T20:21:46.510Z</time>
      </trkpt>
      <trkpt lat="48.82632" lon="2.38328">
        <ele>89.8</ele>
        <time>2015-02-09T20:21:47.516Z</time>
      </trkpt>
      <trkpt lat="48.82629" lon="2.38321">
        <ele>90.1</ele>
        <time>2015-02-09T20:21:48.528Z</time>
      </trkpt>
      <trkpt lat="48.82626" lon="2.38315">
        <ele>90.7</ele>
        <time>2015-02-09T20:21:49.579Z</time>
      </trkpt>
      <trkpt lat="48.82624" lon="2.38309">
        <ele>91.1</ele>
        <time>2015-02-09T20:21:50.462Z</time>
      </trkpt>
      <trkpt lat="48.82622" lon="2.38302">
        <ele>91.6</ele>
        <time>2015-02-09T20:21:51.469Z</time>
      </trkpt>
      <trkpt lat="48.82618" lon="2.3829">
        <ele>92.6</ele>
        <time>2015-02-09T20:21:53.475Z</time>
      </trkpt>
      <trkpt lat="48.82616" lon="2.38285">
        <ele>93.2</ele>
        <time>2015-02-09T20:21:54.495Z</time>
      </trkpt>
      <trkpt lat="48.82612" lon="2.38275">
        <ele>94.1</ele>
        <time>2015-02-09T20:21:56.520Z</time>
      </trkpt>
      <trkpt lat="48.8261" lon="2.38271">
        <ele>94.5</ele>
        <time>2015-02-09T20:21:57.528Z</time>
      </trkpt>
      <trkpt lat="48.82606" lon="2.3826">
        <ele>94.9</ele>
        <time>2015-02-09T20:22:00.514Z</time>
      </trkpt>
      <trkpt lat="48.82605" lon="2.38259">
        <ele>95.1</ele>
        <time>2015-02-09T20:22:01.489Z</time>
      </trkpt>
      <trkpt lat="48.82598" lon="2.38256">
        <ele>95.2</ele>
        <time>2015-02-09T20:22:05.632Z</time>
      </trkpt>
      <trkpt lat="48.82596" lon="2.38255">
        <ele>94.9</ele>
        <time>2015-02-09T20:22:06.491Z</time>
      </trkpt>
      <trkpt lat="48.82589" lon="2.38251">
        <ele>95</ele>
        <time>2015-02-09T20:22:09.517Z</time>
      </trkpt>
      <trkpt lat="48.82586" lon="2.38249">
        <ele>95.1</ele>
        <time>2015-02-09T20:22:10.541Z</time>
      </trkpt>
      <trkpt lat="48.82579" lon="2.38245">
        <ele>94.6</ele>
        <time>2015-02-09T20:22:13.591Z</time>
      </trkpt>
      <trkpt lat="48.82575" lon="2.38243">
        <ele>94.6</ele>
        <time>2015-02-09T20:22:13.631Z</time>
      </trkpt>
      <trkpt lat="48.82571" lon="2.38236">
        <ele>95.2</ele>
        <time>2015-02-09T20:22:15.466Z</time>
      </trkpt>
      <trkpt lat="48.82571" lon="2.38229">
        <ele>95.3</ele>
        <time>2015-02-09T20:22:16.505Z</time>
      </trkpt>
      <trkpt lat="48.82574" lon="2.38221">
        <ele>95.6</ele>
        <time>2015-02-09T20:22:17.521Z</time>
      </trkpt>
      <trkpt lat="48.82578" lon="2.38211">
        <ele>96.1</ele>
        <time>2015-02-09T20:22:18.533Z</time>
      </trkpt>
      <trkpt lat="48.82583" lon="2.38202">
        <ele>96.1</ele>
        <time>2015-02-09T20:22:19.561Z</time>
      </trkpt>
      <trkpt lat="48.82583" lon="2.38198">
        <ele>96.2</ele>
        <time>2015-02-09T20:22:20.607Z</time>
      </trkpt>
      <trkpt lat="48.82586" lon="2.38185">
        <ele>94.9</ele>
        <time>2015-02-09T20:22:53.514Z</time>
      </trkpt>
      <trkpt lat="48.82586" lon="2.3818">
        <ele>94.7</ele>
        <time>2015-02-09T20:22:53.547Z</time>
      </trkpt>
      <trkpt lat="48.82585" lon="2.38171">
        <ele>94.7</ele>
        <time>2015-02-09T20:22:55.518Z</time>
      </trkpt>
      <trkpt lat="48.82585" lon="2.38166">
        <ele>94.4</ele>
        <time>2015-02-09T20:22:56.521Z</time>
      </trkpt>
      <trkpt lat="48.82585" lon="2.38155">
        <ele>93.6</ele>
        <time>2015-02-09T20:22:59.480Z</time>
      </trkpt>
      <trkpt lat="48.82584" lon="2.38151">
        <ele>93.5</ele>
        <time>2015-02-09T20:23:00.458Z</time>
      </trkpt>
      <trkpt lat="48.8258" lon="2.38141">
        <ele>93.6</ele>
        <time>2015-02-09T20:23:02.528Z</time>
      </trkpt>
      <trkpt lat="48.82578" lon="2.38136">
        <ele>93.5</ele>
        <time>2015-02-09T20:23:03.546Z</time>
      </trkpt>
      <trkpt lat="48.82574" lon="2.38125">
        <ele>93.1</ele>
        <time>2015-02-09T20:23:05.475Z</time>
      </trkpt>
      <trkpt lat="48.82572" lon="2.38119">
        <ele>93.1</ele>
        <time>2015-02-09T20:23:06.507Z</time>
      </trkpt>
      <trkpt lat="48.82569" lon="2.38107">
        <ele>92.8</ele>
        <time>2015-02-09T20:23:08.915Z</time>
      </trkpt>
      <trkpt lat="48.82567" lon="2.38102">
        <ele>92.9</ele>
        <time>2015-02-09T20:23:09.474Z</time>
      </trkpt>
      <trkpt lat="48.82563" lon="2.38092">
        <ele>92.8</ele>
        <time>2015-02-09T20:23:11.545Z</time>
      </trkpt>
      <trkpt lat="48.82561" lon="2.38087">
        <ele>93</ele>
        <time>2015-02-09T20:23:12.565Z</time>
      </trkpt>
      <trkpt lat="48.82557" lon="2.38077">
        <ele>93</ele>
        <time>2015-02-09T20:23:14.504Z</time>
      </trkpt>
      <trkpt lat="48.82555" lon="2.38072">
        <ele>93.2</ele>
        <time>2015-02-09T20:23:15.566Z</time>
      </trkpt>
      <trkpt lat="48.82551" lon="2.38063">
        <ele>92.9</ele>
        <time>2015-02-09T20:23:17.477Z</time>
      </trkpt>
      <trkpt lat="48.82548" lon="2.38058">
        <ele>92.7</ele>
        <time>2015-02-09T20:23:18.496Z</time>
      </trkpt>
      <trkpt lat="48.82543" lon="2.3805">
        <ele>92.8</ele>
        <time>2015-02-09T20:23:20.534Z</time>
      </trkpt>
      <trkpt lat="48.82542" lon="2.38046">
        <ele>92.7</ele>
        <time>2015-02-09T20:23:21.556Z</time>
      </trkpt>
      <trkpt lat="48.8254" lon="2.38036">
        <ele>92.7</ele>
        <time>2015-02-09T20:23:23.454Z</time>
      </trkpt>
      <trkpt lat="48.82539" lon="2.38031">
        <ele>92.8</ele>
        <time>2015-02-09T20:23:24.500Z</time>
      </trkpt>
      <trkpt lat="48.82536" lon="2.38021">
        <ele>93</ele>
        <time>2015-02-09T20:23:26.532Z</time>
      </trkpt>
      <trkpt lat="48.82535" lon="2.38016">
        <ele>93.1</ele>
        <time>2015-02-09T20:23:27.551Z</time>
      </trkpt>
      <trkpt lat="48.82532" lon="2.38005">
        <ele>93.4</ele>
        <time>2015-02-09T20:23:29.477Z</time>
      </trkpt>
      <trkpt lat="48.8253" lon="2.38">
        <ele>93.5</ele>
        <time>2015-02-09T20:23:30.512Z</time>
      </trkpt>
      <trkpt lat="48.82527" lon="2.37994">
        <ele>93.8</ele>
        <time>2015-02-09T20:23:31.525Z</time>
      </trkpt>
      <trkpt lat="48.82524" lon="2.37988">
        <ele>93.9</ele>
        <time>2015-02-09T20:23:32.551Z</time>
      </trkpt>
      <trkpt lat="48.82519" lon="2.37978">
        <ele>94.9</ele>
        <time>2015-02-09T20:23:34.470Z</time>
      </trkpt>
      <trkpt lat="48.82517" lon="2.37974">
        <ele>95.4</ele>
        <time>2015-02-09T20:23:35.502Z</time>
      </trkpt>
      <trkpt lat="48.82511" lon="2.37968">
        <ele>96.6</ele>
        <time>2015-02-09T20:23:37.558Z</time>
      </trkpt>
      <trkpt lat="48.82508" lon="2.37962">
        <ele>97.1</ele>
        <time>2015-02-09T20:23:38.471Z</time>
      </trkpt>
      <trkpt lat="48.82505" lon="2.37957">
        <ele>97.6</ele>
        <time>2015-02-09T20:23:39.505Z</time>
      </trkpt>
      <trkpt lat="48.82501" lon="2.37951">
        <ele>98.1</ele>
        <time>2015-02-09T20:23:40.463Z</time>
      </trkpt>
      <trkpt lat="48.82498" lon="2.37945">
        <ele>98.6</ele>
        <time>2015-02-09T20:23:41.502Z</time>
      </trkpt>
      <trkpt lat="48.82495" lon="2.37939">
        <ele>99</ele>
        <time>2015-02-09T20:23:42.509Z</time>
      </trkpt>
      <trkpt lat="48.82491" lon="2.37933">
        <ele>99.5</ele>
        <time>2015-02-09T20:23:43.521Z</time>
      </trkpt>
      <trkpt lat="48.82488" lon="2.37927">
        <ele>99.9</ele>
        <time>2015-02-09T20:23:44.437Z</time>
      </trkpt>
      <trkpt lat="48.82486" lon="2.37919">
        <ele>100.3</ele>
        <time>2015-02-09T20:23:45.456Z</time>
      </trkpt>
      <trkpt lat="48.82484" lon="2.37912">
        <ele>100.9</ele>
        <time>2015-02-09T20:23:46.468Z</time>
      </trkpt>
      <trkpt lat="48.82481" lon="2.37904">
        <ele>101.4</ele>
        <time>2015-02-09T20:23:47.514Z</time>
      </trkpt>
      <trkpt lat="48.82479" lon="2.37898">
        <ele>102.2</ele>
        <time>2015-02-09T20:23:48.525Z</time>
      </trkpt>
      <trkpt lat="48.82476" lon="2.37891">
        <ele>102.7</ele>
        <time>2015-02-09T20:23:49.548Z</time>
      </trkpt>
      <trkpt lat="48.82473" lon="2.37885">
        <ele>103.1</ele>
        <time>2015-02-09T20:23:50.453Z</time>
      </trkpt>
      <trkpt lat="48.8247" lon="2.37879">
        <ele>103.5</ele>
        <time>2015-02-09T20:23:51.522Z</time>
      </trkpt>
      <trkpt lat="48.82467" lon="2.37872">
        <ele>103.1</ele>
        <time>2015-02-09T20:23:52.545Z</time>
      </trkpt>
      <trkpt lat="48.82465" lon="2.37866">
        <ele>103.4</ele>
        <time>2015-02-09T20:23:53.554Z</time>
      </trkpt>
      <trkpt lat="48.82463" lon="2.3786">
        <ele>103.6</ele>
        <time>2015-02-09T20:23:54.455Z</time>
      </trkpt>
      <trkpt lat="48.82461" lon="2.37854">
        <ele>103.8</ele>
        <time>2015-02-09T20:23:55.493Z</time>
      </trkpt>
      <trkpt lat="48.82458" lon="2.37846">
        <ele>103.7</ele>
        <time>2015-02-09T20:23:56.498Z</time>
      </trkpt>
      <trkpt lat="48.82456" lon="2.37839">
        <ele>103.9</ele>
        <time>2015-02-09T20:23:57.543Z</time>
      </trkpt>
      <trkpt lat="48.82453" lon="2.37832">
        <ele>103.9</ele>
        <time>2015-02-09T20:23:58.548Z</time>
      </trkpt>
      <trkpt lat="48.8245" lon="2.37825">
        <ele>104</ele>
        <time>2015-02-09T20:23:59.455Z</time>
      </trkpt>
      <trkpt lat="48.82448" lon="2.37818">
        <ele>103.6</ele>
        <time>2015-02-09T20:24:00.446Z</time>
      </trkpt>
      <trkpt lat="48.82446" lon="2.3781">
        <ele>103.2</ele>
        <time>2015-02-09T20:24:01.526Z</time>
      </trkpt>
      <trkpt lat="48.82443" lon="2.37804">
        <ele>103.2</ele>
        <time>2015-02-09T20:24:02.529Z</time>
      </trkpt>
      <trkpt lat="48.82442" lon="2.37797">
        <ele>103</ele>
        <time>2015-02-09T20:24:03.455Z</time>
      </trkpt>
      <trkpt lat="48.82441" lon="2.3779">
        <ele>102.9</ele>
        <time>2015-02-09T20:24:04.453Z</time>
      </trkpt>
      <trkpt lat="48.8244" lon="2.37783">
        <ele>102.6</ele>
        <time>2015-02-09T20:24:05.460Z</time>
      </trkpt>
      <trkpt lat="48.82438" lon="2.37777">
        <ele>102.5</ele>
        <time>2015-02-09T20:24:06.504Z</time>
      </trkpt>
      <trkpt lat="48.82434" lon="2.37766">
        <ele>101.9</ele>
        <time>2015-02-09T20:24:08.448Z</time>
      </trkpt>
      <trkpt lat="48.82434" lon="2.37759">
        <ele>101.4</ele>
        <time>2015-02-09T20:24:09.462Z</time>
      </trkpt>
      <trkpt lat="48.82432" lon="2.37747">
        <ele>101.1</ele>
        <time>2015-02-09T20:24:11.474Z</time>
      </trkpt>
      <trkpt lat="48.82432" lon="2.37739">
        <ele>101</ele>
        <time>2015-02-09T20:24:12.489Z</time>
      </trkpt>
      <trkpt lat="48.82432" lon="2.37732">
        <ele>100.9</ele>
        <time>2015-02-09T20:24:13.498Z</time>
      </trkpt>
      <trkpt lat="48.82431" lon="2.37725">
        <ele>100.7</ele>
        <time>2015-02-09T20:24:14.574Z</time>
      </trkpt>
      <trkpt lat="48.8243" lon="2.37718">
        <ele>101.2</ele>
        <time>2015-02-09T20:24:15.458Z</time>
      </trkpt>
      <trkpt lat="48.8243" lon="2.37711">
        <ele>102</ele>
        <time>2015-02-09T20:24:16.457Z</time>
      </trkpt>
      <trkpt lat="48.8243" lon="2.37698">
        <ele>102</ele>
        <time>2015-02-09T20:24:19.519Z</time>
      </trkpt>
      <trkpt lat="48.82431" lon="2.37694">
        <ele>102</ele>
        <time>2015-02-09T20:24:20.541Z</time>
      </trkpt>
      <trkpt lat="48.82435" lon="2.37683">
        <ele>101.3</ele>
        <time>2015-02-09T20:24:35.470Z</time>
      </trkpt>
      <trkpt lat="48.82452" lon="2.37664">
        <ele>97</ele>
        <time>2015-02-09T20:24:36.525Z</time>
      </trkpt>
      <trkpt lat="48.82457" lon="2.37671">
        <ele>94.4</ele>
        <time>2015-02-09T20:24:38.441Z</time>
      </trkpt>
      <trkpt lat="48.82459" lon="2.37675">
        <ele>93.7</ele>
        <time>2015-02-09T20:24:39.448Z</time>
      </trkpt>
      <trkpt lat="48.82461" lon="2.37683">
        <ele>93.3</ele>
        <time>2015-02-09T20:24:41.411Z</time>
      </trkpt>
      <trkpt lat="48.82461" lon="2.37689">
        <ele>93.3</ele>
        <time>2015-02-09T20:24:42.454Z</time>
      </trkpt>
      <trkpt lat="48.82463" lon="2.37701">
        <ele>93.3</ele>
        <time>2015-02-09T20:24:44.533Z</time>
      </trkpt>
      <trkpt lat="48.82465" lon="2.37706">
        <ele>93.4</ele>
        <time>2015-02-09T20:24:45.443Z</time>
      </trkpt>
      <trkpt lat="48.82469" lon="2.37715">
        <ele>93.1</ele>
        <time>2015-02-09T20:24:47.524Z</time>
      </trkpt>
      <trkpt lat="48.82471" lon="2.37719">
        <ele>92.9</ele>
        <time>2015-02-09T20:24:48.506Z</time>
      </trkpt>
      <trkpt lat="48.82478" lon="2.37727">
        <ele>92.5</ele>
        <time>2015-02-09T20:24:50.530Z</time>
      </trkpt>
      <trkpt lat="48.8248" lon="2.37732">
        <ele>92.3</ele>
        <time>2015-02-09T20:24:51.540Z</time>
      </trkpt>
      <trkpt lat="48.82484" lon="2.3774">
        <ele>91.3</ele>
        <time>2015-02-09T20:24:53.459Z</time>
      </trkpt>
      <trkpt lat="48.82487" lon="2.37744">
        <ele>90.5</ele>
        <time>2015-02-09T20:24:54.468Z</time>
      </trkpt>
      <trkpt lat="48.82491" lon="2.37754">
        <ele>89.8</ele>
        <time>2015-02-09T20:24:56.490Z</time>
      </trkpt>
      <trkpt lat="48.82493" lon="2.3776">
        <ele>89.7</ele>
        <time>2015-02-09T20:24:57.504Z</time>
      </trkpt>
      <trkpt lat="48.82497" lon="2.37771">
        <ele>88.8</ele>
        <time>2015-02-09T20:24:59.445Z</time>
      </trkpt>
      <trkpt lat="48.82499" lon="2.37776">
        <ele>88.5</ele>
        <time>2015-02-09T20:25:00.481Z</time>
      </trkpt>
      <trkpt lat="48.82503" lon="2.37785">
        <ele>88.1</ele>
        <time>2015-02-09T20:25:02.502Z</time>
      </trkpt>
      <trkpt lat="48.82505" lon="2.3779">
        <ele>88.2</ele>
        <time>2015-02-09T20:25:03.514Z</time>
      </trkpt>
      <trkpt lat="48.8251" lon="2.378">
        <ele>88.2</ele>
        <time>2015-02-09T20:25:05.544Z</time>
      </trkpt>
      <trkpt lat="48.82513" lon="2.37806">
        <ele>88.2</ele>
        <time>2015-02-09T20:25:06.458Z</time>
      </trkpt>
      <trkpt lat="48.82517" lon="2.37816">
        <ele>88.1</ele>
        <time>2015-02-09T20:25:09.546Z</time>
      </trkpt>
      <trkpt lat="48.82519" lon="2.37818">
        <ele>88.2</ele>
        <time>2015-02-09T20:25:10.454Z</time>
      </trkpt>
      <trkpt lat="48.82524" lon="2.37822">
        <ele>88.5</ele>
        <time>2015-02-09T20:25:12.505Z</time>
      </trkpt>
      <trkpt lat="48.82527" lon="2.37823">
        <ele>88.6</ele>
        <time>2015-02-09T20:25:13.514Z</time>
      </trkpt>
      <trkpt lat="48.82534" lon="2.37824">
        <ele>89.1</ele>
        <time>2015-02-09T20:25:15.465Z</time>
      </trkpt>
      <trkpt lat="48.82537" lon="2.37826">
        <ele>89.7</ele>
        <time>2015-02-09T20:25:16.453Z</time>
      </trkpt>
      <trkpt lat="48.82543" lon="2.37828">
        <ele>91</ele>
        <time>2015-02-09T20:25:19.517Z</time>
      </trkpt>
      <trkpt lat="48.82546" lon="2.37829">
        <ele>91.2</ele>
        <time>2015-02-09T20:25:20.571Z</time>
      </trkpt>
      <trkpt lat="48.82554" lon="2.37828">
        <ele>91.4</ele>
        <time>2015-02-09T20:25:22.456Z</time>
      </trkpt>
      <trkpt lat="48.82557" lon="2.37828">
        <ele>91.5</ele>
        <time>2015-02-09T20:25:23.473Z</time>
      </trkpt>
      <trkpt lat="48.82563" lon="2.3783">
        <ele>91.4</ele>
        <time>2015-02-09T20:25:25.524Z</time>
      </trkpt>
      <trkpt lat="48.82568" lon="2.3783">
        <ele>90.8</ele>
        <time>2015-02-09T20:25:26.532Z</time>
      </trkpt>
      <trkpt lat="48.82573" lon="2.37831">
        <ele>90.5</ele>
        <time>2015-02-09T20:25:27.557Z</time>
      </trkpt>
      <trkpt lat="48.82578" lon="2.3783">
        <ele>90.4</ele>
        <time>2015-02-09T20:25:28.473Z</time>
      </trkpt>
      <trkpt lat="48.82586" lon="2.37826">
        <ele>89.9</ele>
        <time>2015-02-09T20:25:30.484Z</time>
      </trkpt>
      <trkpt lat="48.82589" lon="2.37826">
        <ele>89.5</ele>
        <time>2015-02-09T20:25:31.532Z</time>
      </trkpt>
      <trkpt lat="48.82596" lon="2.37826">
        <ele>89.3</ele>
        <time>2015-02-09T20:25:33.460Z</time>
      </trkpt>
      <trkpt lat="48.82604" lon="2.37826">
        <ele>89.6</ele>
        <time>2015-02-09T20:25:34.472Z</time>
      </trkpt>
      <trkpt lat="48.82613" lon="2.37823">
        <ele>89.1</ele>
        <time>2015-02-09T20:25:35.508Z</time>
      </trkpt>
      <trkpt lat="48.8262" lon="2.37824">
        <ele>88.9</ele>
        <time>2015-02-09T20:25:36.522Z</time>
      </trkpt>
      <trkpt lat="48.82625" lon="2.37826">
        <ele>89</ele>
        <time>2015-02-09T20:25:37.528Z</time>
      </trkpt>
      <trkpt lat="48.82632" lon="2.37829">
        <ele>89.4</ele>
        <time>2015-02-09T20:25:38.446Z</time>
      </trkpt>
      <trkpt lat="48.82637" lon="2.37833">
        <ele>89.6</ele>
        <time>2015-02-09T20:25:39.461Z</time>
      </trkpt>
      <trkpt lat="48.82642" lon="2.37837">
        <ele>89.8</ele>
        <time>2015-02-09T20:25:40.471Z</time>
      </trkpt>
      <trkpt lat="48.82646" lon="2.37843">
        <ele>90</ele>
        <time>2015-02-09T20:25:41.513Z</time>
      </trkpt>
      <trkpt lat="48.82649" lon="2.37846">
        <ele>90</ele>
        <time>2015-02-09T20:25:42.519Z</time>
      </trkpt>
      <trkpt lat="48.82771" lon="2.38083">
        <ele>93.4</ele>
        <time>2015-02-09T20:26:19.568Z</time>
      </trkpt>
      <trkpt lat="48.82774" lon="2.38095">
        <ele>93.5</ele>
        <time>2015-02-09T20:26:23.364Z</time>
      </trkpt>
      <trkpt lat="48.82776" lon="2.38096">
        <ele>92.8</ele>
        <time>2015-02-09T20:26:23.445Z</time>
      </trkpt>
      <trkpt lat="48.82778" lon="2.38096">
        <ele>92.7</ele>
        <time>2015-02-09T20:26:45.454Z</time>
      </trkpt>
      <trkpt lat="48.82759" lon="2.38083">
        <ele>128.2</ele>
        <time>2015-02-09T20:26:46.495Z</time>
      </trkpt>
      <trkpt lat="48.82753" lon="2.38074">
        <ele>132.8</ele>
        <time>2015-02-09T20:28:09.577Z</time>
      </trkpt>
      <trkpt lat="48.82746" lon="2.38085">
        <ele>118.6</ele>
        <time>2015-02-09T20:28:10.597Z</time>
      </trkpt>
      <trkpt lat="48.82754" lon="2.38091">
        <ele>117.4</ele>
        <time>2015-02-09T20:28:13.683Z</time>
      </trkpt>
      <trkpt lat="48.82758" lon="2.38091">
        <ele>116.9</ele>
        <time>2015-02-09T20:28:14.575Z</time>
      </trkpt>
      <trkpt lat="48.82764" lon="2.38095">
        <ele>116</ele>
        <time>2015-02-09T20:28:16.523Z</time>
      </trkpt>
      <trkpt lat="48.82767" lon="2.38099">
        <ele>116</ele>
        <time>2015-02-09T20:28:17.575Z</time>
      </trkpt>
      <trkpt lat="48.82774" lon="2.38102">
        <ele>115.2</ele>
        <time>2015-02-09T20:28:19.522Z</time>
      </trkpt>
      <trkpt lat="48.82776" lon="2.38105">
        <ele>114.8</ele>
        <time>2015-02-09T20:28:20.639Z</time>
      </trkpt>
      <trkpt lat="48.82781" lon="2.38115">
        <ele>113.8</ele>
        <time>2015-02-09T20:28:25.584Z</time>
      </trkpt>
      <trkpt lat="48.82781" lon="2.38116">
        <ele>113.9</ele>
        <time>2015-02-09T20:28:26.576Z</time>
      </trkpt>
      <trkpt lat="48.82775" lon="2.38113">
        <ele>111.7</ele>
        <time>2015-02-09T20:28:41.456Z</time>
      </trkpt>
      <trkpt lat="48.82771" lon="2.38104">
        <ele>111.2</ele>
        <time>2015-02-09T20:28:42.465Z</time>
      </trkpt>
      <trkpt lat="48.82778" lon="2.38096">
        <ele>110.9</ele>
        <time>2015-02-09T20:28:45.511Z</time>
      </trkpt>
      <trkpt lat="48.8278" lon="2.38091">
        <ele>110.7</ele>
        <time>2015-02-09T20:28:46.532Z</time>
      </trkpt>
      <trkpt lat="48.82788" lon="2.38086">
        <ele>111.1</ele>
        <time>2015-02-09T20:28:48.451Z</time>
      </trkpt>
      <trkpt lat="48.82792" lon="2.38084">
        <ele>111.2</ele>
        <time>2015-02-09T20:28:49.585Z</time>
      </trkpt>
      <trkpt lat="48.82801" lon="2.38084">
        <ele>111.2</ele>
        <time>2015-02-09T20:28:51.479Z</time>
      </trkpt>
      <trkpt lat="48.82804" lon="2.38085">
        <ele>111.5</ele>
        <time>2015-02-09T20:28:52.582Z</time>
      </trkpt>
      <trkpt lat="48.82807" lon="2.38073">
        <ele>111.7</ele>
        <time>2015-02-09T20:28:55.622Z</time>
      </trkpt>
      <trkpt lat="48.82806" lon="2.38067">
        <ele>111.6</ele>
        <time>2015-02-09T20:28:56.452Z</time>
      </trkpt>
      <trkpt lat="48.82811" lon="2.38056">
        <ele>111.7</ele>
        <time>2015-02-09T20:28:59.533Z</time>
      </trkpt>
      <trkpt lat="48.82815" lon="2.38055">
        <ele>111.8</ele>
        <time>2015-02-09T20:29:00.418Z</time>
      </trkpt>
      <trkpt lat="48.82821" lon="2.38046">
        <ele>110.9</ele>
        <time>2015-02-09T20:29:04.586Z</time>
      </trkpt>
      <trkpt lat="48.82823" lon="2.38042">
        <ele>111.1</ele>
        <time>2015-02-09T20:29:05.456Z</time>
      </trkpt>
      <trkpt lat="48.82823" lon="2.38042">
        <ele>111.1</ele>
        <time>2015-02-09T20:29:12.567Z</time>
      </trkpt>
      <trkpt lat="48.82849" lon="2.38012">
        <ele>109.3</ele>
        <time>2015-02-09T20:29:13.582Z</time>
      </trkpt>
      <trkpt lat="48.82854" lon="2.38007">
        <ele>108.7</ele>
        <time>2015-02-09T20:29:14.492Z</time>
      </trkpt>
      <trkpt lat="48.82859" lon="2.38002">
        <ele>108.1</ele>
        <time>2015-02-09T20:29:15.532Z</time>
      </trkpt>
      <trkpt lat="48.82863" lon="2.37998">
        <ele>107.4</ele>
        <time>2015-02-09T20:29:16.458Z</time>
      </trkpt>
      <trkpt lat="48.82866" lon="2.37995">
        <ele>106.8</ele>
        <time>2015-02-09T20:29:17.445Z</time>
      </trkpt>
      <trkpt lat="48.8287" lon="2.37993">
        <ele>106.5</ele>
        <time>2015-02-09T20:29:18.749Z</time>
      </trkpt>
      <trkpt lat="48.82875" lon="2.3799">
        <ele>106.2</ele>
        <time>2015-02-09T20:29:19.497Z</time>
      </trkpt>
      <trkpt lat="48.82881" lon="2.37987">
        <ele>106.4</ele>
        <time>2015-02-09T20:29:20.507Z</time>
      </trkpt>
      <trkpt lat="48.82887" lon="2.37983">
        <ele>106.5</ele>
        <time>2015-02-09T20:29:21.521Z</time>
      </trkpt>
      <trkpt lat="48.82893" lon="2.3798">
        <ele>106.8</ele>
        <time>2015-02-09T20:29:23.004Z</time>
      </trkpt>
      <trkpt lat="48.82897" lon="2.37977">
        <ele>107.6</ele>
        <time>2015-02-09T20:29:23.534Z</time>
      </trkpt>
      <trkpt lat="48.82903" lon="2.37974">
        <ele>108.5</ele>
        <time>2015-02-09T20:29:24.546Z</time>
      </trkpt>
      <trkpt lat="48.82907" lon="2.37972">
        <ele>108.8</ele>
        <time>2015-02-09T20:29:25.556Z</time>
      </trkpt>
      <trkpt lat="48.82914" lon="2.3797">
        <ele>109</ele>
        <time>2015-02-09T20:29:28.067Z</time>
      </trkpt>
      <trkpt lat="48.82918" lon="2.37968">
        <ele>108.8</ele>
        <time>2015-02-09T20:29:28.522Z</time>
      </trkpt>
      <trkpt lat="48.82923" lon="2.37962">
        <ele>107.9</ele>
        <time>2015-02-09T20:29:30.466Z</time>
      </trkpt>
      <trkpt lat="48.82927" lon="2.37957">
        <ele>107.5</ele>
        <time>2015-02-09T20:29:31.538Z</time>
      </trkpt>
      <trkpt lat="48.82933" lon="2.37948">
        <ele>106</ele>
        <time>2015-02-09T20:29:33.471Z</time>
      </trkpt>
      <trkpt lat="48.82937" lon="2.37944">
        <ele>105.4</ele>
        <time>2015-02-09T20:29:34.487Z</time>
      </trkpt>
      <trkpt lat="48.82941" lon="2.37941">
        <ele>105.8</ele>
        <time>2015-02-09T20:29:35.531Z</time>
      </trkpt>
      <trkpt lat="48.82946" lon="2.37937">
        <ele>106.3</ele>
        <time>2015-02-09T20:29:36.600Z</time>
      </trkpt>
      <trkpt lat="48.82951" lon="2.37933">
        <ele>107</ele>
        <time>2015-02-09T20:29:38.194Z</time>
      </trkpt>
      <trkpt lat="48.82955" lon="2.37932">
        <ele>107.2</ele>
        <time>2015-02-09T20:29:38.473Z</time>
      </trkpt>
      <trkpt lat="48.8296" lon="2.3793">
        <ele>107.8</ele>
        <time>2015-02-09T20:29:40.485Z</time>
      </trkpt>
      <trkpt lat="48.82964" lon="2.37928">
        <ele>108.8</ele>
        <time>2015-02-09T20:29:41.587Z</time>
      </trkpt>
      <trkpt lat="48.82971" lon="2.3792">
        <ele>109.6</ele>
        <time>2015-02-09T20:29:43.513Z</time>
      </trkpt>
      <trkpt lat="48.82974" lon="2.37915">
        <ele>110.1</ele>
        <time>2015-02-09T20:29:44.521Z</time>
      </trkpt>
      <trkpt lat="48.82979" lon="2.37907">
        <ele>110.9</ele>
        <time>2015-02-09T20:29:46.546Z</time>
      </trkpt>
      <trkpt lat="48.82981" lon="2.37904">
        <ele>111</ele>
        <time>2015-02-09T20:29:47.559Z</time>
      </trkpt>
      <trkpt lat="48.82986" lon="2.37902">
        <ele>110.9</ele>
        <time>2015-02-09T20:29:48.445Z</time>
      </trkpt>
      <trkpt lat="48.82992" lon="2.37898">
        <ele>110.2</ele>
        <time>2015-02-09T20:29:49.513Z</time>
      </trkpt>
      <trkpt lat="48.82998" lon="2.37893">
        <ele>109.9</ele>
        <time>2015-02-09T20:29:50.519Z</time>
      </trkpt>
      <trkpt lat="48.83005" lon="2.37887">
        <ele>110.2</ele>
        <time>2015-02-09T20:29:51.520Z</time>
      </trkpt>
      <trkpt lat="48.83014" lon="2.37881">
        <ele>110.7</ele>
        <time>2015-02-09T20:29:52.532Z</time>
      </trkpt>
      <trkpt lat="48.83023" lon="2.37874">
        <ele>111.3</ele>
        <time>2015-02-09T20:29:53.538Z</time>
      </trkpt>
      <trkpt lat="48.83023" lon="2.37874">
        <ele>111.3</ele>
        <time>2015-02-09T20:29:53.359Z</time>
      </trkpt>
      <trkpt lat="48.83033" lon="2.37868">
        <ele>112</ele>
        <time>2015-02-09T20:29:54.555Z</time>
      </trkpt>
      <trkpt lat="48.83042" lon="2.3786">
        <ele>112.6</ele>
        <time>2015-02-09T20:29:55.587Z</time>
      </trkpt>
      <trkpt lat="48.83054" lon="2.37851">
        <ele>112.7</ele>
        <time>2015-02-09T20:29:56.469Z</time>
      </trkpt>
      <trkpt lat="48.8306" lon="2.37846">
        <ele>112.7</ele>
        <time>2015-02-09T20:29:58.352Z</time>
      </trkpt>
      <trkpt lat="48.83062" lon="2.37844">
        <ele>112.9</ele>
        <time>2015-02-09T20:29:58.500Z</time>
      </trkpt>
      <trkpt lat="48.83063" lon="2.37831">
        <ele>113.9</ele>
        <time>2015-02-09T20:30:02.500Z</time>
      </trkpt>
      <trkpt lat="48.83063" lon="2.37828">
        <ele>114.3</ele>
        <time>2015-02-09T20:30:03.505Z</time>
      </trkpt>
      <trkpt lat="48.83066" lon="2.37817">
        <ele>116.9</ele>
        <time>2015-02-09T20:30:05.436Z</time>
      </trkpt>
      <trkpt lat="48.83069" lon="2.37811">
        <ele>118.3</ele>
        <time>2015-02-09T20:30:06.502Z</time>
      </trkpt>
      <trkpt lat="48.83072" lon="2.37799">
        <ele>118.8</ele>
        <time>2015-02-09T20:30:09.457Z</time>
      </trkpt>
      <trkpt lat="48.83073" lon="2.37795">
        <ele>119.6</ele>
        <time>2015-02-09T20:30:10.467Z</time>
      </trkpt>
      <trkpt lat="48.8308" lon="2.37787">
        <ele>120.7</ele>
        <time>2015-02-09T20:30:13.532Z</time>
      </trkpt>
      <trkpt lat="48.83083" lon="2.37784">
        <ele>120.5</ele>
        <time>2015-02-09T20:30:14.443Z</time>
      </trkpt>
      <trkpt lat="48.83085" lon="2.3778">
        <ele>120.2</ele>
        <time>2015-02-09T20:30:15.562Z</time>
      </trkpt>
      <trkpt lat="48.83089" lon="2.37775">
        <ele>121.1</ele>
        <time>2015-02-09T20:30:16.472Z</time>
      </trkpt>
      <trkpt lat="48.83092" lon="2.37769">
        <ele>122.1</ele>
        <time>2015-02-09T20:30:17.499Z</time>
      </trkpt>
      <trkpt lat="48.83094" lon="2.37762">
        <ele>123.5</ele>
        <time>2015-02-09T20:30:18.516Z</time>
      </trkpt>
      <trkpt lat="48.83093" lon="2.37749">
        <ele>126.1</ele>
        <time>2015-02-09T20:30:22.479Z</time>
      </trkpt>
      <trkpt lat="48.83092" lon="2.37749">
        <ele>127.4</ele>
        <time>2015-02-09T20:30:23.461Z</time>
      </trkpt>
      <trkpt lat="48.83086" lon="2.37742">
        <ele>130</ele>
        <time>2015-02-09T20:30:28.518Z</time>
      </trkpt>
      <trkpt lat="48.83084" lon="2.3774">
        <ele>130</ele>
        <time>2015-02-09T20:30:29.466Z</time>
      </trkpt>
      <trkpt lat="48.83079" lon="2.37734">
        <ele>129.5</ele>
        <time>2015-02-09T20:30:31.496Z</time>
      </trkpt>
      <trkpt lat="48.83075" lon="2.37732">
        <ele>129.3</ele>
        <time>2015-02-09T20:30:32.517Z</time>
      </trkpt>
      <trkpt lat="48.83069" lon="2.37727">
        <ele>129.1</ele>
        <time>2015-02-09T20:30:34.468Z</time>
      </trkpt>
      <trkpt lat="48.83066" lon="2.37726">
        <ele>128.8</ele>
        <time>2015-02-09T20:30:35.474Z</time>
      </trkpt>
      <trkpt lat="48.83063" lon="2.37714">
        <ele>127.3</ele>
        <time>2015-02-09T20:30:38.560Z</time>
      </trkpt>
      <trkpt lat="48.83062" lon="2.37709">
        <ele>127.1</ele>
        <time>2015-02-09T20:30:39.472Z</time>
      </trkpt>
      <trkpt lat="48.83062" lon="2.37705">
        <ele>126.9</ele>
        <time>2015-02-09T20:30:44.479Z</time>
      </trkpt>
      <trkpt lat="48.8306" lon="2.37685">
        <ele>127.5</ele>
        <time>2015-02-09T20:30:45.526Z</time>
      </trkpt>
      <trkpt lat="48.83056" lon="2.37678">
        <ele>128.8</ele>
        <time>2015-02-09T20:30:47.472Z</time>
      </trkpt>
      <trkpt lat="48.83052" lon="2.37675">
        <ele>128.8</ele>
        <time>2015-02-09T20:30:48.497Z</time>
      </trkpt>
      <trkpt lat="48.83046" lon="2.37668">
        <ele>128.8</ele>
        <time>2015-02-09T20:30:50.511Z</time>
      </trkpt>
      <trkpt lat="48.83043" lon="2.37662">
        <ele>128.4</ele>
        <time>2015-02-09T20:30:51.438Z</time>
      </trkpt>
      <trkpt lat="48.8304" lon="2.37655">
        <ele>128.1</ele>
        <time>2015-02-09T20:30:52.466Z</time>
      </trkpt>
      <trkpt lat="48.83036" lon="2.37649">
        <ele>127.8</ele>
        <time>2015-02-09T20:30:53.477Z</time>
      </trkpt>
      <trkpt lat="48.83031" lon="2.37638">
        <ele>127.2</ele>
        <time>2015-02-09T20:30:55.510Z</time>
      </trkpt>
      <trkpt lat="48.83028" lon="2.37634">
        <ele>127</ele>
        <time>2015-02-09T20:30:56.514Z</time>
      </trkpt>
      <trkpt lat="48.83024" lon="2.37627">
        <ele>126.3</ele>
        <time>2015-02-09T20:30:57.543Z</time>
      </trkpt>
      <trkpt lat="48.8302" lon="2.37622">
        <ele>125.3</ele>
        <time>2015-02-09T20:30:58.459Z</time>
      </trkpt>
      <trkpt lat="48.83014" lon="2.37611">
        <ele>124.2</ele>
        <time>2015-02-09T20:31:00.476Z</time>
      </trkpt>
      <trkpt lat="48.83013" lon="2.37607">
        <ele>123.9</ele>
        <time>2015-02-09T20:31:01.529Z</time>
      </trkpt>
      <trkpt lat="48.83011" lon="2.37601">
        <ele>124.1</ele>
        <time>2015-02-09T20:31:02.461Z</time>
      </trkpt>
      <trkpt lat="48.83007" lon="2.37594">
        <ele>124.5</ele>
        <time>2015-02-09T20:31:03.554Z</time>
      </trkpt>
      <trkpt lat="48.83001" lon="2.37587">
        <ele>124.2</ele>
        <time>2015-02-09T20:31:04.459Z</time>
      </trkpt>
      <trkpt lat="48.82997" lon="2.37581">
        <ele>123.4</ele>
        <time>2015-02-09T20:31:05.458Z</time>
      </trkpt>
      <trkpt lat="48.82993" lon="2.37573">
        <ele>122.5</ele>
        <time>2015-02-09T20:31:06.467Z</time>
      </trkpt>
      <trkpt lat="48.82989" lon="2.37565">
        <ele>122.8</ele>
        <time>2015-02-09T20:31:07.500Z</time>
      </trkpt>
      <trkpt lat="48.82985" lon="2.37558">
        <ele>123.3</ele>
        <time>2015-02-09T20:31:08.501Z</time>
      </trkpt>
      <trkpt lat="48.82981" lon="2.37552">
        <ele>122.9</ele>
        <time>2015-02-09T20:31:09.517Z</time>
      </trkpt>
      <trkpt lat="48.82977" lon="2.37544">
        <ele>122.3</ele>
        <time>2015-02-09T20:31:10.536Z</time>
      </trkpt>
      <trkpt lat="48.82975" lon="2.37538">
        <ele>121.5</ele>
        <time>2015-02-09T20:31:11.545Z</time>
      </trkpt>
      <trkpt lat="48.82972" lon="2.37532">
        <ele>120.9</ele>
        <time>2015-02-09T20:31:12.563Z</time>
      </trkpt>
      <trkpt lat="48.8297" lon="2.37526">
        <ele>120.3</ele>
        <time>2015-02-09T20:31:13.483Z</time>
      </trkpt>
      <trkpt lat="48.82969" lon="2.37514">
        <ele>119.5</ele>
        <time>2015-02-09T20:31:17.450Z</time>
      </trkpt>
      <trkpt lat="48.82968" lon="2.37511">
        <ele>119.6</ele>
        <time>2015-02-09T20:31:18.482Z</time>
      </trkpt>
      <trkpt lat="48.82963" lon="2.375">
        <ele>120.1</ele>
        <time>2015-02-09T20:31:20.556Z</time>
      </trkpt>
      <trkpt lat="48.82962" lon="2.37496">
        <ele>119.9</ele>
        <time>2015-02-09T20:31:21.447Z</time>
      </trkpt>
      <trkpt lat="48.82959" lon="2.37489">
        <ele>119.6</ele>
        <time>2015-02-09T20:31:24.065Z</time>
      </trkpt>
      <trkpt lat="48.82957" lon="2.37485">
        <ele>119.5</ele>
        <time>2015-02-09T20:31:24.486Z</time>
      </trkpt>
      <trkpt lat="48.82954" lon="2.37477">
        <ele>119.2</ele>
        <time>2015-02-09T20:31:26.445Z</time>
      </trkpt>
      <trkpt lat="48.82952" lon="2.37473">
        <ele>119.1</ele>
        <time>2015-02-09T20:31:27.489Z</time>
      </trkpt>
      <trkpt lat="48.82948" lon="2.37467">
        <ele>118.9</ele>
        <time>2015-02-09T20:31:28.529Z</time>
      </trkpt>
      <trkpt lat="48.82941" lon="2.37462">
        <ele>118.3</ele>
        <time>2015-02-09T20:31:29.474Z</time>
      </trkpt>
      <trkpt lat="48.82936" lon="2.37459">
        <ele>118.4</ele>
        <time>2015-02-09T20:31:30.454Z</time>
      </trkpt>
      <trkpt lat="48.82932" lon="2.37457">
        <ele>117.9</ele>
        <time>2015-02-09T20:31:31.503Z</time>
      </trkpt>
      <trkpt lat="48.82926" lon="2.37452">
        <ele>117.4</ele>
        <time>2015-02-09T20:31:33.512Z</time>
      </trkpt>
      <trkpt lat="48.82923" lon="2.37447">
        <ele>117.4</ele>
        <time>2015-02-09T20:31:34.516Z</time>
      </trkpt>
      <trkpt lat="48.82917" lon="2.37443">
        <ele>116.9</ele>
        <time>2015-02-09T20:31:36.454Z</time>
      </trkpt>
      <trkpt lat="48.82913" lon="2.37442">
        <ele>117.1</ele>
        <time>2015-02-09T20:31:37.486Z</time>
      </trkpt>
      <trkpt lat="48.82909" lon="2.37441">
        <ele>117.1</ele>
        <time>2015-02-09T20:31:38.491Z</time>
      </trkpt>
      <trkpt lat="48.82904" lon="2.37442">
        <ele>118.1</ele>
        <time>2015-02-09T20:31:39.511Z</time>
      </trkpt>
      <trkpt lat="48.82899" lon="2.37444">
        <ele>119.1</ele>
        <time>2015-02-09T20:31:40.453Z</time>
      </trkpt>
      <trkpt lat="48.82893" lon="2.37444">
        <ele>119.4</ele>
        <time>2015-02-09T20:31:41.472Z</time>
      </trkpt>
      <trkpt lat="48.82885" lon="2.37446">
        <ele>120.1</ele>
        <time>2015-02-09T20:31:43.476Z</time>
      </trkpt>
      <trkpt lat="48.82882" lon="2.37448">
        <ele>120.2</ele>
        <time>2015-02-09T20:31:44.480Z</time>
      </trkpt>
      <trkpt lat="48.82878" lon="2.37453">
        <ele>120.4</ele>
        <time>2015-02-09T20:31:46.500Z</time>
      </trkpt>
      <trkpt lat="48.82874" lon="2.37456">
        <ele>120.4</ele>
        <time>2015-02-09T20:31:47.514Z</time>
      </trkpt>
      <trkpt lat="48.82866" lon="2.37455">
        <ele>118.9</ele>
        <time>2015-02-09T20:31:50.531Z</time>
      </trkpt>
      <trkpt lat="48.82864" lon="2.37452">
        <ele>118.6</ele>
        <time>2015-02-09T20:31:51.510Z</time>
      </trkpt>
      <trkpt lat="48.82861" lon="2.37442">
        <ele>119</ele>
        <time>2015-02-09T20:31:54.517Z</time>
      </trkpt>
      <trkpt lat="48.82859" lon="2.37436">
        <ele>118.7</ele>
        <time>2015-02-09T20:31:55.562Z</time>
      </trkpt>
      <trkpt lat="48.82856" lon="2.37426">
        <ele>118.7</ele>
        <time>2015-02-09T20:31:58.553Z</time>
      </trkpt>
      <trkpt lat="48.82854" lon="2.37423">
        <ele>118.9</ele>
        <time>2015-02-09T20:31:58.640Z</time>
      </trkpt>
      <trkpt lat="48.82852" lon="2.37413">
        <ele>119.3</ele>
        <time>2015-02-09T20:32:00.458Z</time>
      </trkpt>
      <trkpt lat="48.8285" lon="2.37409">
        <ele>119.5</ele>
        <time>2015-02-09T20:32:01.547Z</time>
      </trkpt>
      <trkpt lat="48.82846" lon="2.37402">
        <ele>119.7</ele>
        <time>2015-02-09T20:32:03.687Z</time>
      </trkpt>
      <trkpt lat="48.82845" lon="2.37397">
        <ele>119.6</ele>
        <time>2015-02-09T20:32:04.508Z</time>
      </trkpt>
      <trkpt lat="48.82841" lon="2.37387">
        <ele>118.9</ele>
        <time>2015-02-09T20:32:07.526Z</time>
      </trkpt>
      <trkpt lat="48.82841" lon="2.37383">
        <ele>118.8</ele>
        <time>2015-02-09T20:32:08.487Z</time>
      </trkpt>
      <trkpt lat="48.8284" lon="2.37374">
        <ele>119.2</ele>
        <time>2015-02-09T20:32:12.461Z</time>
      </trkpt>
      <trkpt lat="48.82833" lon="2.37368">
        <ele>120.2</ele>
        <time>2015-02-09T20:32:13.497Z</time>
      </trkpt>
      <trkpt lat="48.82828" lon="2.37365">
        <ele>120.2</ele>
        <time>2015-02-09T20:32:14.498Z</time>
      </trkpt>
      <trkpt lat="48.82822" lon="2.37363">
        <ele>119.8</ele>
        <time>2015-02-09T20:32:15.494Z</time>
      </trkpt>
      <trkpt lat="48.82817" lon="2.37355">
        <ele>119.6</ele>
        <time>2015-02-09T20:32:17.523Z</time>
      </trkpt>
      <trkpt lat="48.82816" lon="2.37353">
        <ele>119.8</ele>
        <time>2015-02-09T20:32:18.542Z</time>
      </trkpt>
      <trkpt lat="48.82816" lon="2.3735">
        <ele>120.2</ele>
        <time>2015-02-09T20:32:23.511Z</time>
      </trkpt>
      <trkpt lat="48.82819" lon="2.37337">
        <ele>120.6</ele>
        <time>2015-02-09T20:32:24.515Z</time>
      </trkpt>
      <trkpt lat="48.82821" lon="2.37327">
        <ele>121.1</ele>
        <time>2015-02-09T20:32:28.114Z</time>
      </trkpt>
      <trkpt lat="48.82823" lon="2.37324">
        <ele>121.3</ele>
        <time>2015-02-09T20:32:28.508Z</time>
      </trkpt>
      <trkpt lat="48.82827" lon="2.37318">
        <ele>122.4</ele>
        <time>2015-02-09T20:32:31.520Z</time>
      </trkpt>
      <trkpt lat="48.82829" lon="2.37314">
        <ele>122</ele>
        <time>2015-02-09T20:32:32.423Z</time>
      </trkpt>
      <trkpt lat="48.82831" lon="2.37311">
        <ele>121.5</ele>
        <time>2015-02-09T20:32:59.455Z</time>
      </trkpt>
      <trkpt lat="48.82852" lon="2.3729">
        <ele>120.6</ele>
        <time>2015-02-09T20:33:00.462Z</time>
      </trkpt>
      <trkpt lat="48.82855" lon="2.37278">
        <ele>121.5</ele>
        <time>2015-02-09T20:33:03.564Z</time>
      </trkpt>
      <trkpt lat="48.82855" lon="2.37275">
        <ele>121.6</ele>
        <time>2015-02-09T20:33:04.433Z</time>
      </trkpt>
      <trkpt lat="48.82859" lon="2.37266">
        <ele>121</ele>
        <time>2015-02-09T20:33:06.432Z</time>
      </trkpt>
      <trkpt lat="48.82862" lon="2.37261">
        <ele>120.3</ele>
        <time>2015-02-09T20:33:07.466Z</time>
      </trkpt>
      <trkpt lat="48.82868" lon="2.37253">
        <ele>120.5</ele>
        <time>2015-02-09T20:33:09.481Z</time>
      </trkpt>
      <trkpt lat="48.8287" lon="2.37248">
        <ele>121</ele>
        <time>2015-02-09T20:33:10.517Z</time>
      </trkpt>
      <trkpt lat="48.82869" lon="2.37238">
        <ele>121.5</ele>
        <time>2015-02-09T20:33:12.451Z</time>
      </trkpt>
      <trkpt lat="48.82868" lon="2.37232">
        <ele>121.6</ele>
        <time>2015-02-09T20:33:13.521Z</time>
      </trkpt>
      <trkpt lat="48.82867" lon="2.37225">
        <ele>121.8</ele>
        <time>2015-02-09T20:33:14.490Z</time>
      </trkpt>
      <trkpt lat="48.82866" lon="2.37218">
        <ele>121.7</ele>
        <time>2015-02-09T20:33:15.453Z</time>
      </trkpt>
      <trkpt lat="48.82863" lon="2.37206">
        <ele>121.7</ele>
        <time>2015-02-09T20:33:17.455Z</time>
      </trkpt>
      <trkpt lat="48.82863" lon="2.37202">
        <ele>121.7</ele>
        <time>2015-02-09T20:33:18.457Z</time>
      </trkpt>
      <trkpt lat="48.82863" lon="2.37194">
        <ele>121.4</ele>
        <time>2015-02-09T20:33:20.606Z</time>
      </trkpt>
      <trkpt lat="48.82862" lon="2.37188">
        <ele>121</ele>
        <time>2015-02-09T20:33:21.524Z</time>
      </trkpt>
      <trkpt lat="48.82858" lon="2.3718">
        <ele>120.3</ele>
        <time>2015-02-09T20:33:24.551Z</time>
      </trkpt>
      <trkpt lat="48.82856" lon="2.37177">
        <ele>120</ele>
        <time>2015-02-09T20:33:25.505Z</time>
      </trkpt>
      <trkpt lat="48.82851" lon="2.3717">
        <ele>119.4</ele>
        <time>2015-02-09T20:33:28.245Z</time>
      </trkpt>
      <trkpt lat="48.8285" lon="2.37166">
        <ele>119</ele>
        <time>2015-02-09T20:33:28.507Z</time>
      </trkpt>
      <trkpt lat="48.82847" lon="2.37155">
        <ele>118.2</ele>
        <time>2015-02-09T20:33:31.450Z</time>
      </trkpt>
      <trkpt lat="48.82847" lon="2.37151">
        <ele>118.4</ele>
        <time>2015-02-09T20:33:32.467Z</time>
      </trkpt>
      <trkpt lat="48.82844" lon="2.37138">
        <ele>118.2</ele>
        <time>2015-02-09T20:33:35.504Z</time>
      </trkpt>
      <trkpt lat="48.82844" lon="2.37135">
        <ele>118.2</ele>
        <time>2015-02-09T20:33:36.419Z</time>
      </trkpt>
      <trkpt lat="48.82841" lon="2.37123">
        <ele>118</ele>
        <time>2015-02-09T20:33:40.502Z</time>
      </trkpt>
      <trkpt lat="48.82839" lon="2.3712">
        <ele>118.2</ele>
        <time>2015-02-09T20:33:41.506Z</time>
      </trkpt>
      <trkpt lat="48.82837" lon="2.37111">
        <ele>117.6</ele>
        <time>2015-02-09T20:33:43.580Z</time>
      </trkpt>
      <trkpt lat="48.82835" lon="2.37106">
        <ele>117.3</ele>
        <time>2015-02-09T20:33:44.487Z</time>
      </trkpt>
      <trkpt lat="48.82832" lon="2.37097">
        <ele>117.6</ele>
        <time>2015-02-09T20:33:46.516Z</time>
      </trkpt>
      <trkpt lat="48.82831" lon="2.37093">
        <ele>118</ele>
        <time>2015-02-09T20:33:47.557Z</time>
      </trkpt>
      <trkpt lat="48.82826" lon="2.37083">
        <ele>118.2</ele>
        <time>2015-02-09T20:33:49.492Z</time>
      </trkpt>
      <trkpt lat="48.82825" lon="2.3708">
        <ele>118.5</ele>
        <time>2015-02-09T20:33:50.524Z</time>
      </trkpt>
      <trkpt lat="48.82829" lon="2.37071">
        <ele>118.2</ele>
        <time>2015-02-09T20:33:52.452Z</time>
      </trkpt>
      <trkpt lat="48.82831" lon="2.37067">
        <ele>118.1</ele>
        <time>2015-02-09T20:33:53.528Z</time>
      </trkpt>
      <trkpt lat="48.82835" lon="2.37062">
        <ele>117.4</ele>
        <time>2015-02-09T20:33:55.491Z</time>
      </trkpt>
      <trkpt lat="48.82838" lon="2.37059">
        <ele>117.4</ele>
        <time>2015-02-09T20:33:56.561Z</time>
      </trkpt>
      <trkpt lat="48.82844" lon="2.37053">
        <ele>117.9</ele>
        <time>2015-02-09T20:33:58.978Z</time>
      </trkpt>
      <trkpt lat="48.82848" lon="2.3705">
        <ele>117.6</ele>
        <time>2015-02-09T20:33:59.467Z</time>
      </trkpt>
      <trkpt lat="48.82854" lon="2.37044">
        <ele>117</ele>
        <time>2015-02-09T20:34:01.551Z</time>
      </trkpt>
      <trkpt lat="48.82856" lon="2.3704">
        <ele>117.2</ele>
        <time>2015-02-09T20:34:02.453Z</time>
      </trkpt>
      <trkpt lat="48.82862" lon="2.37032">
        <ele>117.6</ele>
        <time>2015-02-09T20:34:04.464Z</time>
      </trkpt>
      <trkpt lat="48.82864" lon="2.37029">
        <ele>117.8</ele>
        <time>2015-02-09T20:34:05.488Z</time>
      </trkpt>
      <trkpt lat="48.8287" lon="2.37023">
        <ele>117.3</ele>
        <time>2015-02-09T20:34:07.519Z</time>
      </trkpt>
      <trkpt lat="48.82873" lon="2.3702">
        <ele>116.9</ele>
        <time>2015-02-09T20:34:08.533Z</time>
      </trkpt>
      <trkpt lat="48.82877" lon="2.37012">
        <ele>116.4</ele>
        <time>2015-02-09T20:34:10.585Z</time>
      </trkpt>
      <trkpt lat="48.82879" lon="2.37009">
        <ele>116.3</ele>
        <time>2015-02-09T20:34:11.463Z</time>
      </trkpt>
      <trkpt lat="48.82883" lon="2.37002">
        <ele>116.5</ele>
        <time>2015-02-09T20:34:13.516Z</time>
      </trkpt>
      <trkpt lat="48.82885" lon="2.36999">
        <ele>116.7</ele>
        <time>2015-02-09T20:34:14.510Z</time>
      </trkpt>
      <trkpt lat="48.82887" lon="2.36988">
        <ele>117.3</ele>
        <time>2015-02-09T20:34:17.472Z</time>
      </trkpt>
      <trkpt lat="48.82886" lon="2.36983">
        <ele>116.8</ele>
        <time>2015-02-09T20:34:18.481Z</time>
      </trkpt>
      <trkpt lat="48.82891" lon="2.36975">
        <ele>116.5</ele>
        <time>2015-02-09T20:34:20.533Z</time>
      </trkpt>
      <trkpt lat="48.82893" lon="2.36971">
        <ele>116.8</ele>
        <time>2015-02-09T20:34:21.435Z</time>
      </trkpt>
      <trkpt lat="48.82898" lon="2.36963">
        <ele>117.4</ele>
        <time>2015-02-09T20:34:23.479Z</time>
      </trkpt>
      <trkpt lat="48.82901" lon="2.36959">
        <ele>117.6</ele>
        <time>2015-02-09T20:34:24.510Z</time>
      </trkpt>
      <trkpt lat="48.82907" lon="2.36951">
        <ele>118.2</ele>
        <time>2015-02-09T20:34:26.438Z</time>
      </trkpt>
      <trkpt lat="48.8291" lon="2.36948">
        <ele>118.5</ele>
        <time>2015-02-09T20:34:27.624Z</time>
      </trkpt>
      <trkpt lat="48.82916" lon="2.3694">
        <ele>118.9</ele>
        <time>2015-02-09T20:34:29.463Z</time>
      </trkpt>
      <trkpt lat="48.82919" lon="2.36936">
        <ele>119.5</ele>
        <time>2015-02-09T20:34:30.484Z</time>
      </trkpt>
      <trkpt lat="48.82923" lon="2.36928">
        <ele>119.8</ele>
        <time>2015-02-09T20:34:32.521Z</time>
      </trkpt>
      <trkpt lat="48.82925" lon="2.36923">
        <ele>120.2</ele>
        <time>2015-02-09T20:34:33.473Z</time>
      </trkpt>
      <trkpt lat="48.82931" lon="2.36916">
        <ele>120.7</ele>
        <time>2015-02-09T20:34:35.480Z</time>
      </trkpt>
      <trkpt lat="48.82934" lon="2.36913">
        <ele>120.7</ele>
        <time>2015-02-09T20:34:36.487Z</time>
      </trkpt>
      <trkpt lat="48.82939" lon="2.36906">
        <ele>120.6</ele>
        <time>2015-02-09T20:34:38.527Z</time>
      </trkpt>
      <trkpt lat="48.8294" lon="2.36902">
        <ele>120.5</ele>
        <time>2015-02-09T20:34:39.535Z</time>
      </trkpt>
      <trkpt lat="48.82941" lon="2.3689">
        <ele>120.4</ele>
        <time>2015-02-09T20:34:44.489Z</time>
      </trkpt>
      <trkpt lat="48.82939" lon="2.36887">
        <ele>120.6</ele>
        <time>2015-02-09T20:34:45.500Z</time>
      </trkpt>
      <trkpt lat="48.82939" lon="2.36879">
        <ele>121.7</ele>
        <time>2015-02-09T20:34:47.443Z</time>
      </trkpt>
      <trkpt lat="48.82939" lon="2.36873">
        <ele>122.3</ele>
        <time>2015-02-09T20:34:48.457Z</time>
      </trkpt>
      <trkpt lat="48.82941" lon="2.36862">
        <ele>124.1</ele>
        <time>2015-02-09T20:34:50.481Z</time>
      </trkpt>
      <trkpt lat="48.82943" lon="2.36858">
        <ele>124.9</ele>
        <time>2015-02-09T20:34:51.488Z</time>
      </trkpt>
      <trkpt lat="48.82941" lon="2.36846">
        <ele>125.6</ele>
        <time>2015-02-09T20:34:55.500Z</time>
      </trkpt>
      <trkpt lat="48.82939" lon="2.36844">
        <ele>125.8</ele>
        <time>2015-02-09T20:34:56.495Z</time>
      </trkpt>
      <trkpt lat="48.82932" lon="2.36844">
        <ele>125.9</ele>
        <time>2015-02-09T20:34:58.441Z</time>
      </trkpt>
      <trkpt lat="48.82926" lon="2.36843">
        <ele>125.5</ele>
        <time>2015-02-09T20:34:59.457Z</time>
      </trkpt>
      <trkpt lat="48.82926" lon="2.36843">
        <ele>125.5</ele>
        <time>2015-02-09T20:35:05.455Z</time>
      </trkpt>
      <trkpt lat="48.82905" lon="2.3683">
        <ele>121.8</ele>
        <time>2015-02-09T20:35:06.491Z</time>
      </trkpt>
      <trkpt lat="48.82897" lon="2.36826">
        <ele>122</ele>
        <time>2015-02-09T20:35:09.460Z</time>
      </trkpt>
      <trkpt lat="48.82895" lon="2.36824">
        <ele>122.1</ele>
        <time>2015-02-09T20:35:10.506Z</time>
      </trkpt>
      <trkpt lat="48.82889" lon="2.36816">
        <ele>122.5</ele>
        <time>2015-02-09T20:35:13.496Z</time>
      </trkpt>
      <trkpt lat="48.82885" lon="2.36813">
        <ele>122.4</ele>
        <time>2015-02-09T20:35:14.528Z</time>
      </trkpt>
      <trkpt lat="48.82878" lon="2.36808">
        <ele>122</ele>
        <time>2015-02-09T20:35:16.486Z</time>
      </trkpt>
      <trkpt lat="48.82875" lon="2.36805">
        <ele>121.7</ele>
        <time>2015-02-09T20:35:17.495Z</time>
      </trkpt>
      <trkpt lat="48.82868" lon="2.36798">
        <ele>121.2</ele>
        <time>2015-02-09T20:35:19.466Z</time>
      </trkpt>
      <trkpt lat="48.82865" lon="2.36794">
        <ele>121.2</ele>
        <time>2015-02-09T20:35:20.466Z</time>
      </trkpt>
      <trkpt lat="48.82859" lon="2.36789">
        <ele>121.2</ele>
        <time>2015-02-09T20:35:22.488Z</time>
      </trkpt>
      <trkpt lat="48.82857" lon="2.36787">
        <ele>120.9</ele>
        <time>2015-02-09T20:35:23.494Z</time>
      </trkpt>
      <trkpt lat="48.82849" lon="2.36781">
        <ele>119.7</ele>
        <time>2015-02-09T20:35:27.456Z</time>
      </trkpt>
      <trkpt lat="48.82846" lon="2.36777">
        <ele>119.3</ele>
        <time>2015-02-09T20:35:28.460Z</time>
      </trkpt>
      <trkpt lat="48.82841" lon="2.36771">
        <ele>118.6</ele>
        <time>2015-02-09T20:35:30.510Z</time>
      </trkpt>
      <trkpt lat="48.82838" lon="2.36768">
        <ele>118.5</ele>
        <time>2015-02-09T20:35:31.522Z</time>
      </trkpt>
      <trkpt lat="48.82833" lon="2.36764">
        <ele>117.5</ele>
        <time>2015-02-09T20:36:40.494Z</time>
      </trkpt>
      <trkpt lat="48.82831" lon="2.36719">
        <ele>105.7</ele>
        <time>2015-02-09T20:36:41.524Z</time>
      </trkpt>
      <trkpt lat="48.82827" lon="2.36707">
        <ele>105.1</ele>
        <time>2015-02-09T20:36:46.494Z</time>
      </trkpt>
      <trkpt lat="48.82825" lon="2.36705">
        <ele>105</ele>
        <time>2015-02-09T20:36:47.511Z</time>
      </trkpt>
      <trkpt lat="48.8282" lon="2.36695">
        <ele>105.2</ele>
        <time>2015-02-09T20:36:51.544Z</time>
      </trkpt>
      <trkpt lat="48.82819" lon="2.36692">
        <ele>105.2</ele>
        <time>2015-02-09T20:36:52.452Z</time>
      </trkpt>
      <trkpt lat="48.82813" lon="2.36686">
        <ele>104.7</ele>
        <time>2015-02-09T20:36:55.528Z</time>
      </trkpt>
      <trkpt lat="48.8281" lon="2.36684">
        <ele>104.9</ele>
        <time>2015-02-09T20:36:56.547Z</time>
      </trkpt>
      <trkpt lat="48.82804" lon="2.36675">
        <ele>105</ele>
        <time>2015-02-09T20:37:01.506Z</time>
      </trkpt>
      <trkpt lat="48.82803" lon="2.36674">
        <ele>104.9</ele>
        <time>2015-02-09T20:37:02.505Z</time>
      </trkpt>
      <trkpt lat="48.82797" lon="2.36665">
        <ele>106.4</ele>
        <time>2015-02-09T20:37:07.496Z</time>
      </trkpt>
      <trkpt lat="48.82795" lon="2.36663">
        <ele>106.9</ele>
        <time>2015-02-09T20:37:08.502Z</time>
      </trkpt>
      <trkpt lat="48.82792" lon="2.36653">
        <ele>107.1</ele>
        <time>2015-02-09T20:37:12.537Z</time>
      </trkpt>
      <trkpt lat="48.8279" lon="2.3665">
        <ele>107.5</ele>
        <time>2015-02-09T20:37:13.469Z</time>
      </trkpt>
      <trkpt lat="48.82786" lon="2.3664">
        <ele>107.7</ele>
        <time>2015-02-09T20:37:16.418Z</time>
      </trkpt>
      <trkpt lat="48.8278" lon="2.36638">
        <ele>107.6</ele>
        <time>2015-02-09T20:37:17.442Z</time>
      </trkpt>
      <trkpt lat="48.82772" lon="2.36633">
        <ele>107.5</ele>
        <time>2015-02-09T20:37:19.524Z</time>
      </trkpt>
      <trkpt lat="48.82769" lon="2.36631">
        <ele>107.5</ele>
        <time>2015-02-09T20:37:20.420Z</time>
      </trkpt>
      <trkpt lat="48.82762" lon="2.36624">
        <ele>107</ele>
        <time>2015-02-09T20:37:24.436Z</time>
      </trkpt>
      <trkpt lat="48.82761" lon="2.36624">
        <ele>107.2</ele>
        <time>2015-02-09T20:37:25.515Z</time>
      </trkpt>
      <trkpt lat="48.82753" lon="2.36621">
        <ele>107.4</ele>
        <time>2015-02-09T20:37:31.535Z</time>
      </trkpt>
      <trkpt lat="48.82749" lon="2.36622">
        <ele>108.1</ele>
        <time>2015-02-09T20:37:32.429Z</time>
      </trkpt>
      <trkpt lat="48.82742" lon="2.36623">
        <ele>110</ele>
        <time>2015-02-09T20:37:35.494Z</time>
      </trkpt>
      <trkpt lat="48.82739" lon="2.36624">
        <ele>110.8</ele>
        <time>2015-02-09T20:37:36.506Z</time>
      </trkpt>
      <trkpt lat="48.82732" lon="2.36627">
        <ele>112.5</ele>
        <time>2015-02-09T20:37:39.540Z</time>
      </trkpt>
      <trkpt lat="48.82729" lon="2.36628">
        <ele>112.9</ele>
        <time>2015-02-09T20:37:40.456Z</time>
      </trkpt>
      <trkpt lat="48.82721" lon="2.36629">
        <ele>114.4</ele>
        <time>2015-02-09T20:37:43.503Z</time>
      </trkpt>
      <trkpt lat="48.82717" lon="2.36628">
        <ele>114.7</ele>
        <time>2015-02-09T20:37:44.508Z</time>
      </trkpt>
      <trkpt lat="48.82714" lon="2.36619">
        <ele>115.7</ele>
        <time>2015-02-09T20:37:48.502Z</time>
      </trkpt>
      <trkpt lat="48.82713" lon="2.36616">
        <ele>115.8</ele>
        <time>2015-02-09T20:37:49.518Z</time>
      </trkpt>
      <trkpt lat="48.82711" lon="2.36604">
        <ele>118.1</ele>
        <time>2015-02-09T20:37:55.494Z</time>
      </trkpt>
      <trkpt lat="48.82712" lon="2.36601">
        <ele>117.9</ele>
        <time>2015-02-09T20:37:56.507Z</time>
      </trkpt>
      <trkpt lat="48.82717" lon="2.36591">
        <ele>117.3</ele>
        <time>2015-02-09T20:37:58.444Z</time>
      </trkpt>
      <trkpt lat="48.8272" lon="2.36587">
        <ele>117.4</ele>
        <time>2015-02-09T20:37:59.457Z</time>
      </trkpt>
      <trkpt lat="48.82725" lon="2.3658">
        <ele>117.1</ele>
        <time>2015-02-09T20:38:01.506Z</time>
      </trkpt>
      <trkpt lat="48.82726" lon="2.36576">
        <ele>116.9</ele>
        <time>2015-02-09T20:38:02.502Z</time>
      </trkpt>
      <trkpt lat="48.8273" lon="2.36568">
        <ele>116</ele>
        <time>2015-02-09T20:38:04.434Z</time>
      </trkpt>
      <trkpt lat="48.82732" lon="2.36565">
        <ele>116.1</ele>
        <time>2015-02-09T20:38:05.445Z</time>
      </trkpt>
      <trkpt lat="48.82736" lon="2.36556">
        <ele>115.6</ele>
        <time>2015-02-09T20:38:07.498Z</time>
      </trkpt>
      <trkpt lat="48.82738" lon="2.36551">
        <ele>115.6</ele>
        <time>2015-02-09T20:38:08.523Z</time>
      </trkpt>
      <trkpt lat="48.82741" lon="2.36541">
        <ele>115.6</ele>
        <time>2015-02-09T20:38:10.436Z</time>
      </trkpt>
      <trkpt lat="48.82733" lon="2.36538">
        <ele>115.3</ele>
        <time>2015-02-09T20:38:11.453Z</time>
      </trkpt>
      <trkpt lat="48.82725" lon="2.36536">
        <ele>114.8</ele>
        <time>2015-02-09T20:38:12.493Z</time>
      </trkpt>
      <trkpt lat="48.82721" lon="2.36532">
        <ele>114.6</ele>
        <time>2015-02-09T20:38:13.494Z</time>
      </trkpt>
      <trkpt lat="48.82721" lon="2.36532">
        <ele>114.6</ele>
        <time>2015-02-09T20:38:16.564Z</time>
      </trkpt>
      <trkpt lat="48.82708" lon="2.36517">
        <ele>112.2</ele>
        <time>2015-02-09T20:38:17.420Z</time>
      </trkpt>
      <trkpt lat="48.82706" lon="2.36505">
        <ele>111.2</ele>
        <time>2015-02-09T20:38:19.490Z</time>
      </trkpt>
      <trkpt lat="48.82705" lon="2.365">
        <ele>110.6</ele>
        <time>2015-02-09T20:38:20.528Z</time>
      </trkpt>
      <trkpt lat="48.82702" lon="2.3649">
        <ele>109.3</ele>
        <time>2015-02-09T20:38:22.517Z</time>
      </trkpt>
      <trkpt lat="48.827" lon="2.36486">
        <ele>108.5</ele>
        <time>2015-02-09T20:38:23.529Z</time>
      </trkpt>
      <trkpt lat="48.82695" lon="2.36478">
        <ele>108.1</ele>
        <time>2015-02-09T20:38:25.567Z</time>
      </trkpt>
      <trkpt lat="48.82695" lon="2.36475">
        <ele>107.9</ele>
        <time>2015-02-09T20:38:26.453Z</time>
      </trkpt>
      <trkpt lat="48.82696" lon="2.36464">
        <ele>107.5</ele>
        <time>2015-02-09T20:38:29.544Z</time>
      </trkpt>
      <trkpt lat="48.82694" lon="2.36458">
        <ele>107.4</ele>
        <time>2015-02-09T20:38:30.454Z</time>
      </trkpt>
      <trkpt lat="48.82688" lon="2.36452">
        <ele>108</ele>
        <time>2015-02-09T20:38:31.504Z</time>
      </trkpt>
      <trkpt lat="48.82685" lon="2.36448">
        <ele>108.4</ele>
        <time>2015-02-09T20:38:32.514Z</time>
      </trkpt>
      <trkpt lat="48.82678" lon="2.36443">
        <ele>109.7</ele>
        <time>2015-02-09T20:38:34.433Z</time>
      </trkpt>
      <trkpt lat="48.82676" lon="2.36443">
        <ele>110.2</ele>
        <time>2015-02-09T20:38:35.457Z</time>
      </trkpt>
      <trkpt lat="48.82672" lon="2.36446">
        <ele>111.9</ele>
        <time>2015-02-09T20:39:09.480Z</time>
      </trkpt>
      <trkpt lat="48.82662" lon="2.36472">
        <ele>113.7</ele>
        <time>2015-02-09T20:39:10.520Z</time>
      </trkpt>
      <trkpt lat="48.82661" lon="2.36481">
        <ele>115.2</ele>
        <time>2015-02-09T20:39:34.416Z</time>
      </trkpt>
      <trkpt lat="48.82642" lon="2.36527">
        <ele>125.9</ele>
        <time>2015-02-09T20:39:35.512Z</time>
      </trkpt>
      <trkpt lat="48.82637" lon="2.36528">
        <ele>125.9</ele>
        <time>2015-02-09T20:39:40.510Z</time>
      </trkpt>
      <trkpt lat="48.82631" lon="2.36526">
        <ele>125.7</ele>
        <time>2015-02-09T20:39:41.524Z</time>
      </trkpt>
      <trkpt lat="48.82624" lon="2.36523">
        <ele>125.1</ele>
        <time>2015-02-09T20:39:44.490Z</time>
      </trkpt>
      <trkpt lat="48.82621" lon="2.36523">
        <ele>125</ele>
        <time>2015-02-09T20:39:45.512Z</time>
      </trkpt>
      <trkpt lat="48.82613" lon="2.3652">
        <ele>125.3</ele>
        <time>2015-02-09T20:39:49.516Z</time>
      </trkpt>
      <trkpt lat="48.82611" lon="2.36518">
        <ele>125.6</ele>
        <time>2015-02-09T20:39:50.569Z</time>
      </trkpt>
      <trkpt lat="48.82604" lon="2.36509">
        <ele>127.6</ele>
        <time>2015-02-09T20:39:54.539Z</time>
      </trkpt>
      <trkpt lat="48.82604" lon="2.36505">
        <ele>128.7</ele>
        <time>2015-02-09T20:39:55.550Z</time>
      </trkpt>
      <trkpt lat="48.82597" lon="2.36497">
        <ele>130.1</ele>
        <time>2015-02-09T20:39:59.456Z</time>
      </trkpt>
      <trkpt lat="48.82595" lon="2.36497">
        <ele>130.6</ele>
        <time>2015-02-09T20:40:00.499Z</time>
      </trkpt>
      <trkpt lat="48.82589" lon="2.36494">
        <ele>131.5</ele>
        <time>2015-02-09T20:40:04.460Z</time>
      </trkpt>
      <trkpt lat="48.82586" lon="2.36493">
        <ele>131.7</ele>
        <time>2015-02-09T20:40:05.460Z</time>
      </trkpt>
      <trkpt lat="48.82577" lon="2.36495">
        <ele>132.4</ele>
        <time>2015-02-09T20:40:11.458Z</time>
      </trkpt>
      <trkpt lat="48.82571" lon="2.36506">
        <ele>133.1</ele>
        <time>2015-02-09T20:40:13.541Z</time>
      </trkpt>
      <trkpt lat="48.82569" lon="2.36512">
        <ele>133.3</ele>
        <time>2015-02-09T20:40:14.460Z</time>
      </trkpt>
      <trkpt lat="48.82563" lon="2.36519">
        <ele>133.4</ele>
        <time>2015-02-09T20:40:16.494Z</time>
      </trkpt>
      <trkpt lat="48.82557" lon="2.36526">
        <ele>133.6</ele>
        <time>2015-02-09T20:40:19.493Z</time>
      </trkpt>
      <trkpt lat="48.82469" lon="2.36572">
        <ele>130.8</ele>
        <time>2015-02-09T20:40:56.470Z</time>
      </trkpt>
      <trkpt lat="48.82467" lon="2.36585">
        <ele>130.6</ele>
        <time>2015-02-09T20:41:03.652Z</time>
      </trkpt>
      <trkpt lat="48.82465" lon="2.3659">
        <ele>130.8</ele>
        <time>2015-02-09T20:41:06.483Z</time>
      </trkpt>
      <trkpt lat="48.82445" lon="2.36613">
        <ele>131.5</ele>
        <time>2015-02-09T20:41:14.470Z</time>
      </trkpt>
      <trkpt lat="48.82441" lon="2.36624">
        <ele>131.2</ele>
        <time>2015-02-09T20:41:19.520Z</time>
      </trkpt>
      <trkpt lat="48.82441" lon="2.36626">
        <ele>131.4</ele>
        <time>2015-02-09T20:41:20.433Z</time>
      </trkpt>
      <trkpt lat="48.82438" lon="2.36634">
        <ele>129.2</ele>
        <time>2015-02-09T20:41:44.487Z</time>
      </trkpt>
      <trkpt lat="48.82429" lon="2.36644">
        <ele>127.4</ele>
        <time>2015-02-09T20:41:45.508Z</time>
      </trkpt>
      <trkpt lat="48.82422" lon="2.36649">
        <ele>127.4</ele>
        <time>2015-02-09T20:41:49.534Z</time>
      </trkpt>
      <trkpt lat="48.82419" lon="2.3665">
        <ele>127.1</ele>
        <time>2015-02-09T20:41:50.429Z</time>
      </trkpt>
      <trkpt lat="48.82412" lon="2.36647">
        <ele>126.6</ele>
        <time>2015-02-09T20:41:54.529Z</time>
      </trkpt>
      <trkpt lat="48.8241" lon="2.36646">
        <ele>126.4</ele>
        <time>2015-02-09T20:41:55.544Z</time>
      </trkpt>
      <trkpt lat="48.82401" lon="2.36645">
        <ele>125.9</ele>
        <time>2015-02-09T20:41:59.525Z</time>
      </trkpt>
      <trkpt lat="48.82399" lon="2.36646">
        <ele>125.6</ele>
        <time>2015-02-09T20:42:00.435Z</time>
      </trkpt>
      <trkpt lat="48.82392" lon="2.36653">
        <ele>125.4</ele>
        <time>2015-02-09T20:42:04.404Z</time>
      </trkpt>
      <trkpt lat="48.8239" lon="2.36655">
        <ele>125.1</ele>
        <time>2015-02-09T20:42:05.411Z</time>
      </trkpt>
      <trkpt lat="48.82383" lon="2.36657">
        <ele>124.9</ele>
        <time>2015-02-09T20:42:09.496Z</time>
      </trkpt>
      <trkpt lat="48.82381" lon="2.36658">
        <ele>124.8</ele>
        <time>2015-02-09T20:42:10.510Z</time>
      </trkpt>
      <trkpt lat="48.82373" lon="2.36658">
        <ele>123.8</ele>
        <time>2015-02-09T20:42:14.457Z</time>
      </trkpt>
      <trkpt lat="48.82372" lon="2.36658">
        <ele>123.7</ele>
        <time>2015-02-09T20:42:15.486Z</time>
      </trkpt>
      <trkpt lat="48.82342" lon="2.36623">
        <ele>121</ele>
        <time>2015-02-09T20:42:30.504Z</time>
      </trkpt>
      <trkpt lat="48.82342" lon="2.36623">
        <ele>121</ele>
        <time>2015-02-09T20:42:33.415Z</time>
      </trkpt>
      <trkpt lat="48.8233" lon="2.36619">
        <ele>122.1</ele>
        <time>2015-02-09T20:42:34.437Z</time>
      </trkpt>
      <trkpt lat="48.82323" lon="2.36626">
        <ele>124.8</ele>
        <time>2015-02-09T20:42:38.272Z</time>
      </trkpt>
      <trkpt lat="48.82321" lon="2.36628">
        <ele>126.9</ele>
        <time>2015-02-09T20:42:38.474Z</time>
      </trkpt>
      <trkpt lat="48.82321" lon="2.36635">
        <ele>131.7</ele>
        <time>2015-02-09T20:42:43.448Z</time>
      </trkpt>
      <trkpt lat="48.82343" lon="2.36585">
        <ele>147.4</ele>
        <time>2015-02-09T20:43:04.426Z</time>
      </trkpt>
      <trkpt lat="48.82345" lon="2.36587">
        <ele>147.9</ele>
        <time>2015-02-09T20:43:05.430Z</time>
      </trkpt>
      <trkpt lat="48.8235" lon="2.36676">
        <ele>128.2</ele>
        <time>2015-02-09T20:43:20.474Z</time>
      </trkpt>
      <trkpt lat="48.82344" lon="2.36683">
        <ele>126.4</ele>
        <time>2015-02-09T20:43:33.478Z</time>
      </trkpt>
      <trkpt lat="48.82342" lon="2.36684">
        <ele>127.9</ele>
        <time>2015-02-09T20:43:34.478Z</time>
      </trkpt>
      <trkpt lat="48.82336" lon="2.36687">
        <ele>130.2</ele>
        <time>2015-02-09T20:43:38.274Z</time>
      </trkpt>
      <trkpt lat="48.82333" lon="2.36688">
        <ele>130.3</ele>
        <time>2015-02-09T20:43:38.402Z</time>
      </trkpt>
      <trkpt lat="48.82327" lon="2.36693">
        <ele>129</ele>
        <time>2015-02-09T20:43:41.459Z</time>
      </trkpt>
      <trkpt lat="48.82324" lon="2.36695">
        <ele>128.9</ele>
        <time>2015-02-09T20:43:42.480Z</time>
      </trkpt>
      <trkpt lat="48.82317" lon="2.36699">
        <ele>129.6</ele>
        <time>2015-02-09T20:43:44.432Z</time>
      </trkpt>
      <trkpt lat="48.82313" lon="2.36701">
        <ele>130.1</ele>
        <time>2015-02-09T20:43:45.577Z</time>
      </trkpt>
      <trkpt lat="48.82304" lon="2.36706">
        <ele>130.8</ele>
        <time>2015-02-09T20:43:48.640Z</time>
      </trkpt>
      <trkpt lat="48.82302" lon="2.36708">
        <ele>130.9</ele>
        <time>2015-02-09T20:43:49.444Z</time>
      </trkpt>
      <trkpt lat="48.82308" lon="2.36706">
        <ele>132.4</ele>
        <time>2015-02-09T20:43:57.511Z</time>
      </trkpt>
      <trkpt lat="48.8232" lon="2.3671">
        <ele>133.8</ele>
        <time>2015-02-09T20:44:03.440Z</time>
      </trkpt>
      <trkpt lat="48.82314" lon="2.36713">
        <ele>135.1</ele>
        <time>2015-02-09T20:44:06.487Z</time>
      </trkpt>
      <trkpt lat="48.8231" lon="2.36711">
        <ele>135.3</ele>
        <time>2015-02-09T20:44:07.450Z</time>
      </trkpt>
      <trkpt lat="48.82303" lon="2.36708">
        <ele>136.3</ele>
        <time>2015-02-09T20:44:09.401Z</time>
      </trkpt>
      <trkpt lat="48.823" lon="2.36708">
        <ele>136.4</ele>
        <time>2015-02-09T20:44:10.414Z</time>
      </trkpt>
      <trkpt lat="48.82293" lon="2.36708">
        <ele>137.6</ele>
        <time>2015-02-09T20:44:13.480Z</time>
      </trkpt>
      <trkpt lat="48.82287" lon="2.36709">
        <ele>138.8</ele>
        <time>2015-02-09T20:44:14.500Z</time>
      </trkpt>
      <trkpt lat="48.82284" lon="2.3672">
        <ele>138.1</ele>
        <time>2015-02-09T20:44:17.426Z</time>
      </trkpt>
      <trkpt lat="48.82283" lon="2.36724">
        <ele>138.1</ele>
        <time>2015-02-09T20:44:18.425Z</time>
      </trkpt>
      <trkpt lat="48.82281" lon="2.36711">
        <ele>124.8</ele>
        <time>2015-02-09T20:44:38.511Z</time>
      </trkpt>
      <trkpt lat="48.82282" lon="2.36709">
        <ele>123.8</ele>
        <time>2015-02-09T20:44:39.543Z</time>
      </trkpt>
      <trkpt lat="48.82274" lon="2.36712">
        <ele>119.1</ele>
        <time>2015-02-09T20:46:27.410Z</time>
      </trkpt>
      <trkpt lat="48.82264" lon="2.36722">
        <ele>125.8</ele>
        <time>2015-02-09T20:46:28.461Z</time>
      </trkpt>
      <trkpt lat="48.82261" lon="2.36719">
        <ele>126</ele>
        <time>2015-02-09T20:46:48.407Z</time>
      </trkpt>
      <trkpt lat="48.82247" lon="2.36686">
        <ele>123.5</ele>
        <time>2015-02-09T20:46:49.446Z</time>
      </trkpt>
      <trkpt lat="48.82243" lon="2.36679">
        <ele>122.5</ele>
        <time>2015-02-09T20:46:51.479Z</time>
      </trkpt>
      <trkpt lat="48.82242" lon="2.36672">
        <ele>121.4</ele>
        <time>2015-02-09T20:46:52.492Z</time>
      </trkpt>
      <trkpt lat="48.8224" lon="2.36662">
        <ele>119.5</ele>
        <time>2015-02-09T20:46:54.427Z</time>
      </trkpt>
      <trkpt lat="48.82238" lon="2.36657">
        <ele>118.8</ele>
        <time>2015-02-09T20:46:55.520Z</time>
      </trkpt>
      <trkpt lat="48.82235" lon="2.36644">
        <ele>118</ele>
        <time>2015-02-09T20:46:58.538Z</time>
      </trkpt>
      <trkpt lat="48.82235" lon="2.36641">
        <ele>117.8</ele>
        <time>2015-02-09T20:46:59.497Z</time>
      </trkpt>
      <trkpt lat="48.82234" lon="2.36628">
        <ele>117</ele>
        <time>2015-02-09T20:47:03.437Z</time>
      </trkpt>
      <trkpt lat="48.82235" lon="2.36625">
        <ele>116.8</ele>
        <time>2015-02-09T20:47:04.433Z</time>
      </trkpt>
      <trkpt lat="48.82236" lon="2.36637">
        <ele>112.1</ele>
        <time>2015-02-09T20:47:16.448Z</time>
      </trkpt>
      <trkpt lat="48.82236" lon="2.36639">
        <ele>112</ele>
        <time>2015-02-09T20:47:17.461Z</time>
      </trkpt>
      <trkpt lat="48.82233" lon="2.3665">
        <ele>111.3</ele>
        <time>2015-02-09T20:47:27.517Z</time>
      </trkpt>
      <trkpt lat="48.82232" lon="2.36652">
        <ele>111.3</ele>
        <time>2015-02-09T20:47:28.421Z</time>
      </trkpt>
      <trkpt lat="48.82225" lon="2.36653">
        <ele>111.3</ele>
        <time>2015-02-09T20:47:31.482Z</time>
      </trkpt>
      <trkpt lat="48.82219" lon="2.36655">
        <ele>111.4</ele>
        <time>2015-02-09T20:47:32.495Z</time>
      </trkpt>
      <trkpt lat="48.82214" lon="2.36656">
        <ele>111.5</ele>
        <time>2015-02-09T20:47:33.528Z</time>
      </trkpt>
      <trkpt lat="48.8221" lon="2.36657">
        <ele>111.6</ele>
        <time>2015-02-09T20:47:34.440Z</time>
      </trkpt>
      <trkpt lat="48.82202" lon="2.3666">
        <ele>112</ele>
        <time>2015-02-09T20:47:36.437Z</time>
      </trkpt>
      <trkpt lat="48.82199" lon="2.36661">
        <ele>112.2</ele>
        <time>2015-02-09T20:47:37.483Z</time>
      </trkpt>
      <trkpt lat="48.82192" lon="2.36665">
        <ele>112.7</ele>
        <time>2015-02-09T20:47:39.492Z</time>
      </trkpt>
      <trkpt lat="48.82189" lon="2.36667">
        <ele>113</ele>
        <time>2015-02-09T20:47:40.500Z</time>
      </trkpt>
      <trkpt lat="48.82184" lon="2.36676">
        <ele>114.5</ele>
        <time>2015-02-09T20:47:42.436Z</time>
      </trkpt>
      <trkpt lat="48.8218" lon="2.36679">
        <ele>115.2</ele>
        <time>2015-02-09T20:47:43.482Z</time>
      </trkpt>
      <trkpt lat="48.82175" lon="2.36685">
        <ele>116.2</ele>
        <time>2015-02-09T20:47:45.431Z</time>
      </trkpt>
      <trkpt lat="48.82173" lon="2.36689">
        <ele>116.5</ele>
        <time>2015-02-09T20:47:46.443Z</time>
      </trkpt>
      <trkpt lat="48.82169" lon="2.36697">
        <ele>117.1</ele>
        <time>2015-02-09T20:47:48.508Z</time>
      </trkpt>
      <trkpt lat="48.82168" lon="2.36701">
        <ele>117.4</ele>
        <time>2015-02-09T20:47:49.528Z</time>
      </trkpt>
      <trkpt lat="48.82162" lon="2.3671">
        <ele>118.2</ele>
        <time>2015-02-09T20:47:53.469Z</time>
      </trkpt>
      <trkpt lat="48.82159" lon="2.36712">
        <ele>118</ele>
        <time>2015-02-09T20:47:54.482Z</time>
      </trkpt>
      <trkpt lat="48.82154" lon="2.3672">
        <ele>118.5</ele>
        <time>2015-02-09T20:47:56.608Z</time>
      </trkpt>
      <trkpt lat="48.82152" lon="2.36724">
        <ele>118.7</ele>
        <time>2015-02-09T20:47:57.439Z</time>
      </trkpt>
      <trkpt lat="48.82148" lon="2.36732">
        <ele>119.7</ele>
        <time>2015-02-09T20:47:59.484Z</time>
      </trkpt>
      <trkpt lat="48.82146" lon="2.36737">
        <ele>120.4</ele>
        <time>2015-02-09T20:48:00.407Z</time>
      </trkpt>
      <trkpt lat="48.82143" lon="2.36747">
        <ele>120.4</ele>
        <time>2015-02-09T20:48:02.479Z</time>
      </trkpt>
      <trkpt lat="48.82142" lon="2.36749">
        <ele>119.7</ele>
        <time>2015-02-09T20:48:03.494Z</time>
      </trkpt>
      <trkpt lat="48.82133" lon="2.36749">
        <ele>119.8</ele>
        <time>2015-02-09T20:48:06.438Z</time>
      </trkpt>
      <trkpt lat="48.8213" lon="2.36749">
        <ele>120.1</ele>
        <time>2015-02-09T20:48:07.477Z</time>
      </trkpt>
      <trkpt lat="48.82125" lon="2.36759">
        <ele>114.3</ele>
        <time>2015-02-09T20:48:18.471Z</time>
      </trkpt>
      <trkpt lat="48.82125" lon="2.36761">
        <ele>115</ele>
        <time>2015-02-09T20:48:19.530Z</time>
      </trkpt>
      <trkpt lat="48.82132" lon="2.36757">
        <ele>113.7</ele>
        <time>2015-02-09T20:48:22.493Z</time>
      </trkpt>
      <trkpt lat="48.82135" lon="2.36754">
        <ele>113.5</ele>
        <time>2015-02-09T20:48:23.535Z</time>
      </trkpt>
      <trkpt lat="48.8214" lon="2.3675">
        <ele>113</ele>
        <time>2015-02-09T20:48:25.470Z</time>
      </trkpt>
      <trkpt lat="48.82144" lon="2.36748">
        <ele>113</ele>
        <time>2015-02-09T20:48:26.530Z</time>
      </trkpt>
      <trkpt lat="48.82152" lon="2.36749">
        <ele>113.1</ele>
        <time>2015-02-09T20:48:29.466Z</time>
      </trkpt>
      <trkpt lat="48.82155" lon="2.36753">
        <ele>113.4</ele>
        <time>2015-02-09T20:48:30.478Z</time>
      </trkpt>
      <trkpt lat="48.82159" lon="2.3676">
        <ele>113.5</ele>
        <time>2015-02-09T20:48:32.509Z</time>
      </trkpt>
      <trkpt lat="48.82161" lon="2.36764">
        <ele>113.9</ele>
        <time>2015-02-09T20:48:33.513Z</time>
      </trkpt>
      <trkpt lat="48.82162" lon="2.36766">
        <ele>114.3</ele>
        <time>2015-02-09T20:48:42.444Z</time>
      </trkpt>
      <trkpt lat="48.82157" lon="2.3678">
        <ele>118.7</ele>
        <time>2015-02-09T20:48:43.461Z</time>
      </trkpt>
      <trkpt lat="48.82149" lon="2.36784">
        <ele>118.2</ele>
        <time>2015-02-09T20:48:46.533Z</time>
      </trkpt>
      <trkpt lat="48.82147" lon="2.36785">
        <ele>118.3</ele>
        <time>2015-02-09T20:48:47.424Z</time>
      </trkpt>
      <trkpt lat="48.82141" lon="2.36794">
        <ele>118.2</ele>
        <time>2015-02-09T20:48:50.541Z</time>
      </trkpt>
      <trkpt lat="48.82142" lon="2.36799">
        <ele>118.7</ele>
        <time>2015-02-09T20:48:51.535Z</time>
      </trkpt>
      <trkpt lat="48.82148" lon="2.36807">
        <ele>118.3</ele>
        <time>2015-02-09T20:48:54.486Z</time>
      </trkpt>
      <trkpt lat="48.8215" lon="2.36809">
        <ele>118.4</ele>
        <time>2015-02-09T20:48:55.533Z</time>
      </trkpt>
      <trkpt lat="48.82157" lon="2.36816">
        <ele>117.6</ele>
        <time>2015-02-09T20:48:58.457Z</time>
      </trkpt>
      <trkpt lat="48.8216" lon="2.36818">
        <ele>117.2</ele>
        <time>2015-02-09T20:48:59.479Z</time>
      </trkpt>
      <trkpt lat="48.82161" lon="2.36827">
        <ele>117.7</ele>
        <time>2015-02-09T20:49:36.437Z</time>
      </trkpt>
      <trkpt lat="48.82134" lon="2.36815">
        <ele>116.5</ele>
        <time>2015-02-09T20:49:37.498Z</time>
      </trkpt>
      <trkpt lat="48.82131" lon="2.36805">
        <ele>114</ele>
        <time>2015-02-09T20:49:40.491Z</time>
      </trkpt>
      <trkpt lat="48.8213" lon="2.36801">
        <ele>113.2</ele>
        <time>2015-02-09T20:49:41.514Z</time>
      </trkpt>
      <trkpt lat="48.82127" lon="2.36791">
        <ele>112.3</ele>
        <time>2015-02-09T20:49:43.496Z</time>
      </trkpt>
      <trkpt lat="48.82126" lon="2.36788">
        <ele>112.5</ele>
        <time>2015-02-09T20:49:44.528Z</time>
      </trkpt>
      <trkpt lat="48.82121" lon="2.36777">
        <ele>113.2</ele>
        <time>2015-02-09T20:49:48.499Z</time>
      </trkpt>
      <trkpt lat="48.82119" lon="2.36775">
        <ele>113.2</ele>
        <time>2015-02-09T20:49:49.502Z</time>
      </trkpt>
      <trkpt lat="48.82114" lon="2.36766">
        <ele>115.3</ele>
        <time>2015-02-09T20:49:52.498Z</time>
      </trkpt>
      <trkpt lat="48.82113" lon="2.36763">
        <ele>116</ele>
        <time>2015-02-09T20:49:53.425Z</time>
      </trkpt>
      <trkpt lat="48.82109" lon="2.36756">
        <ele>116.4</ele>
        <time>2015-02-09T20:49:55.475Z</time>
      </trkpt>
      <trkpt lat="48.82107" lon="2.36751">
        <ele>116.6</ele>
        <time>2015-02-09T20:49:56.486Z</time>
      </trkpt>
      <trkpt lat="48.82105" lon="2.36745">
        <ele>116.7</ele>
        <time>2015-02-09T20:49:57.520Z</time>
      </trkpt>
      <trkpt lat="48.82102" lon="2.36738">
        <ele>118.6</ele>
        <time>2015-02-09T20:49:58.432Z</time>
      </trkpt>
      <trkpt lat="48.82101" lon="2.3673">
        <ele>118.5</ele>
        <time>2015-02-09T20:49:59.444Z</time>
      </trkpt>
      <trkpt lat="48.82098" lon="2.36719">
        <ele>119.7</ele>
        <time>2015-02-09T20:50:00.441Z</time>
      </trkpt>
      <trkpt lat="48.82094" lon="2.36708">
        <ele>119.8</ele>
        <time>2015-02-09T20:50:02.430Z</time>
      </trkpt>
      <trkpt lat="48.82093" lon="2.36702">
        <ele>119.5</ele>
        <time>2015-02-09T20:50:03.439Z</time>
      </trkpt>
      <trkpt lat="48.82092" lon="2.36696">
        <ele>119.1</ele>
        <time>2015-02-09T20:50:04.463Z</time>
      </trkpt>
      <trkpt lat="48.8209" lon="2.36688">
        <ele>119</ele>
        <time>2015-02-09T20:50:05.470Z</time>
      </trkpt>
      <trkpt lat="48.82089" lon="2.3668">
        <ele>118.5</ele>
        <time>2015-02-09T20:50:06.477Z</time>
      </trkpt>
      <trkpt lat="48.82088" lon="2.36674">
        <ele>118.6</ele>
        <time>2015-02-09T20:50:07.489Z</time>
      </trkpt>
      <trkpt lat="48.82087" lon="2.36668">
        <ele>118.5</ele>
        <time>2015-02-09T20:50:08.508Z</time>
      </trkpt>
      <trkpt lat="48.82085" lon="2.36661">
        <ele>118.8</ele>
        <time>2015-02-09T20:50:09.511Z</time>
      </trkpt>
      <trkpt lat="48.82082" lon="2.36653">
        <ele>119</ele>
        <time>2015-02-09T20:50:10.427Z</time>
      </trkpt>
      <trkpt lat="48.82079" lon="2.36646">
        <ele>119.1</ele>
        <time>2015-02-09T20:50:11.426Z</time>
      </trkpt>
      <trkpt lat="48.82076" lon="2.3664">
        <ele>119.1</ele>
        <time>2015-02-09T20:50:12.436Z</time>
      </trkpt>
      <trkpt lat="48.82073" lon="2.36634">
        <ele>119.3</ele>
        <time>2015-02-09T20:50:13.468Z</time>
      </trkpt>
      <trkpt lat="48.82071" lon="2.36628">
        <ele>119.5</ele>
        <time>2015-02-09T20:50:14.470Z</time>
      </trkpt>
      <trkpt lat="48.82069" lon="2.36622">
        <ele>119.4</ele>
        <time>2015-02-09T20:50:15.476Z</time>
      </trkpt>
      <trkpt lat="48.82065" lon="2.3661">
        <ele>119.4</ele>
        <time>2015-02-09T20:50:17.507Z</time>
      </trkpt>
      <trkpt lat="48.82062" lon="2.36604">
        <ele>119.5</ele>
        <time>2015-02-09T20:50:18.518Z</time>
      </trkpt>
      <trkpt lat="48.82061" lon="2.36595">
        <ele>119.6</ele>
        <time>2015-02-09T20:50:20.427Z</time>
      </trkpt>
      <trkpt lat="48.8206" lon="2.3659">
        <ele>119.6</ele>
        <time>2015-02-09T20:50:21.441Z</time>
      </trkpt>
      <trkpt lat="48.82057" lon="2.36577">
        <ele>119.1</ele>
        <time>2015-02-09T20:50:23.482Z</time>
      </trkpt>
      <trkpt lat="48.82054" lon="2.36571">
        <ele>118.6</ele>
        <time>2015-02-09T20:50:24.491Z</time>
      </trkpt>
      <trkpt lat="48.82051" lon="2.36564">
        <ele>118.6</ele>
        <time>2015-02-09T20:50:25.516Z</time>
      </trkpt>
      <trkpt lat="48.82049" lon="2.36558">
        <ele>118.2</ele>
        <time>2015-02-09T20:50:26.428Z</time>
      </trkpt>
      <trkpt lat="48.82045" lon="2.36547">
        <ele>117.8</ele>
        <time>2015-02-09T20:50:28.452Z</time>
      </trkpt>
      <trkpt lat="48.82043" lon="2.36541">
        <ele>117.6</ele>
        <time>2015-02-09T20:50:29.467Z</time>
      </trkpt>
      <trkpt lat="48.82041" lon="2.36529">
        <ele>116.7</ele>
        <time>2015-02-09T20:50:31.504Z</time>
      </trkpt>
      <trkpt lat="48.82039" lon="2.36522">
        <ele>116.3</ele>
        <time>2015-02-09T20:50:32.509Z</time>
      </trkpt>
      <trkpt lat="48.82036" lon="2.36516">
        <ele>116.3</ele>
        <time>2015-02-09T20:50:33.408Z</time>
      </trkpt>
      <trkpt lat="48.82034" lon="2.3651">
        <ele>116.2</ele>
        <time>2015-02-09T20:50:34.422Z</time>
      </trkpt>
      <trkpt lat="48.8203" lon="2.36499">
        <ele>116.1</ele>
        <time>2015-02-09T20:50:36.435Z</time>
      </trkpt>
      <trkpt lat="48.82028" lon="2.36495">
        <ele>116.4</ele>
        <time>2015-02-09T20:50:37.478Z</time>
      </trkpt>
      <trkpt lat="48.82023" lon="2.36486">
        <ele>116.3</ele>
        <time>2015-02-09T20:50:39.520Z</time>
      </trkpt>
      <trkpt lat="48.82021" lon="2.36483">
        <ele>115.8</ele>
        <time>2015-02-09T20:50:40.435Z</time>
      </trkpt>
      <trkpt lat="48.82015" lon="2.36476">
        <ele>114</ele>
        <time>2015-02-09T20:50:55.518Z</time>
      </trkpt>
      <trkpt lat="48.82017" lon="2.36462">
        <ele>106.3</ele>
        <time>2015-02-09T20:50:56.530Z</time>
      </trkpt>
      <trkpt lat="48.82012" lon="2.36451">
        <ele>106.2</ele>
        <time>2015-02-09T20:50:59.499Z</time>
      </trkpt>
      <trkpt lat="48.82011" lon="2.36447">
        <ele>106.4</ele>
        <time>2015-02-09T20:51:00.530Z</time>
      </trkpt>
      <trkpt lat="48.82008" lon="2.36439">
        <ele>106.7</ele>
        <time>2015-02-09T20:51:02.419Z</time>
      </trkpt>
      <trkpt lat="48.82007" lon="2.36433">
        <ele>106.6</ele>
        <time>2015-02-09T20:51:03.423Z</time>
      </trkpt>
      <trkpt lat="48.82003" lon="2.36425">
        <ele>106.9</ele>
        <time>2015-02-09T20:51:05.497Z</time>
      </trkpt>
      <trkpt lat="48.82002" lon="2.36419">
        <ele>106.9</ele>
        <time>2015-02-09T20:51:06.510Z</time>
      </trkpt>
      <trkpt lat="48.81998" lon="2.3641">
        <ele>106.9</ele>
        <time>2015-02-09T20:51:08.499Z</time>
      </trkpt>
      <trkpt lat="48.81997" lon="2.36404">
        <ele>106.8</ele>
        <time>2015-02-09T20:51:09.514Z</time>
      </trkpt>
      <trkpt lat="48.81994" lon="2.36394">
        <ele>107.1</ele>
        <time>2015-02-09T20:51:11.497Z</time>
      </trkpt>
      <trkpt lat="48.81992" lon="2.36389">
        <ele>107.5</ele>
        <time>2015-02-09T20:51:12.531Z</time>
      </trkpt>
      <trkpt lat="48.81988" lon="2.36379">
        <ele>108</ele>
        <time>2015-02-09T20:51:14.443Z</time>
      </trkpt>
      <trkpt lat="48.81986" lon="2.36375">
        <ele>108.4</ele>
        <time>2015-02-09T20:51:15.448Z</time>
      </trkpt>
      <trkpt lat="48.81982" lon="2.36366">
        <ele>108.7</ele>
        <time>2015-02-09T20:51:17.439Z</time>
      </trkpt>
      <trkpt lat="48.8198" lon="2.36361">
        <ele>108.9</ele>
        <time>2015-02-09T20:51:18.444Z</time>
      </trkpt>
      <trkpt lat="48.81977" lon="2.3635">
        <ele>109.4</ele>
        <time>2015-02-09T20:51:20.471Z</time>
      </trkpt>
      <trkpt lat="48.81977" lon="2.36343">
        <ele>108.4</ele>
        <time>2015-02-09T20:51:21.483Z</time>
      </trkpt>
      <trkpt lat="48.81975" lon="2.36336">
        <ele>108.2</ele>
        <time>2015-02-09T20:51:22.516Z</time>
      </trkpt>
      <trkpt lat="48.81973" lon="2.36329">
        <ele>107.4</ele>
        <time>2015-02-09T20:51:23.439Z</time>
      </trkpt>
      <trkpt lat="48.8197" lon="2.36323">
        <ele>107.3</ele>
        <time>2015-02-09T20:51:24.450Z</time>
      </trkpt>
      <trkpt lat="48.81968" lon="2.36317">
        <ele>107.1</ele>
        <time>2015-02-09T20:51:25.463Z</time>
      </trkpt>
      <trkpt lat="48.81966" lon="2.36312">
        <ele>107.2</ele>
        <time>2015-02-09T20:51:26.490Z</time>
      </trkpt>
      <trkpt lat="48.81963" lon="2.36305">
        <ele>107.1</ele>
        <time>2015-02-09T20:51:27.506Z</time>
      </trkpt>
      <trkpt lat="48.81958" lon="2.36294">
        <ele>107.4</ele>
        <time>2015-02-09T20:51:29.468Z</time>
      </trkpt>
      <trkpt lat="48.81956" lon="2.36288">
        <ele>107.1</ele>
        <time>2015-02-09T20:51:30.484Z</time>
      </trkpt>
      <trkpt lat="48.81953" lon="2.36276">
        <ele>106.8</ele>
        <time>2015-02-09T20:51:32.501Z</time>
      </trkpt>
      <trkpt lat="48.81952" lon="2.3627">
        <ele>106.8</ele>
        <time>2015-02-09T20:51:33.515Z</time>
      </trkpt>
      <trkpt lat="48.81947" lon="2.36259">
        <ele>107.6</ele>
        <time>2015-02-09T20:51:35.429Z</time>
      </trkpt>
      <trkpt lat="48.81944" lon="2.36255">
        <ele>108.8</ele>
        <time>2015-02-09T20:51:36.428Z</time>
      </trkpt>
      <trkpt lat="48.8194" lon="2.36246">
        <ele>110.6</ele>
        <time>2015-02-09T20:51:38.478Z</time>
      </trkpt>
      <trkpt lat="48.81939" lon="2.3624">
        <ele>110.8</ele>
        <time>2015-02-09T20:51:39.487Z</time>
      </trkpt>
      <trkpt lat="48.81936" lon="2.36229">
        <ele>111.3</ele>
        <time>2015-02-09T20:51:41.416Z</time>
      </trkpt>
      <trkpt lat="48.81936" lon="2.36222">
        <ele>111.4</ele>
        <time>2015-02-09T20:51:42.436Z</time>
      </trkpt>
      <trkpt lat="48.81934" lon="2.36209">
        <ele>111.9</ele>
        <time>2015-02-09T20:51:44.476Z</time>
      </trkpt>
      <trkpt lat="48.81933" lon="2.36202">
        <ele>112.1</ele>
        <time>2015-02-09T20:51:45.480Z</time>
      </trkpt>
      <trkpt lat="48.81932" lon="2.36195">
        <ele>112.3</ele>
        <time>2015-02-09T20:51:46.418Z</time>
      </trkpt>
      <trkpt lat="48.81931" lon="2.36187">
        <ele>112.3</ele>
        <time>2015-02-09T20:51:47.427Z</time>
      </trkpt>
      <trkpt lat="48.8193" lon="2.36179">
        <ele>112.2</ele>
        <time>2015-02-09T20:51:48.437Z</time>
      </trkpt>
      <trkpt lat="48.81929" lon="2.36172">
        <ele>112.9</ele>
        <time>2015-02-09T20:51:49.455Z</time>
      </trkpt>
      <trkpt lat="48.81927" lon="2.36165">
        <ele>113.6</ele>
        <time>2015-02-09T20:51:50.430Z</time>
      </trkpt>
      <trkpt lat="48.81926" lon="2.36158">
        <ele>114.3</ele>
        <time>2015-02-09T20:51:51.427Z</time>
      </trkpt>
      <trkpt lat="48.81925" lon="2.36145">
        <ele>114.6</ele>
        <time>2015-02-09T20:51:53.460Z</time>
      </trkpt>
      <trkpt lat="48.81924" lon="2.36138">
        <ele>114.5</ele>
        <time>2015-02-09T20:51:54.488Z</time>
      </trkpt>
      <trkpt lat="48.81923" lon="2.36126">
        <ele>114.8</ele>
        <time>2015-02-09T20:51:56.514Z</time>
      </trkpt>
      <trkpt lat="48.81923" lon="2.36119">
        <ele>114.7</ele>
        <time>2015-02-09T20:51:57.442Z</time>
      </trkpt>
      <trkpt lat="48.81922" lon="2.36107">
        <ele>114.2</ele>
        <time>2015-02-09T20:51:59.469Z</time>
      </trkpt>
      <trkpt lat="48.81922" lon="2.36102">
        <ele>114.2</ele>
        <time>2015-02-09T20:52:00.491Z</time>
      </trkpt>
      <trkpt lat="48.81922" lon="2.3609">
        <ele>113.9</ele>
        <time>2015-02-09T20:52:02.526Z</time>
      </trkpt>
      <trkpt lat="48.81922" lon="2.36084">
        <ele>113.9</ele>
        <time>2015-02-09T20:52:03.447Z</time>
      </trkpt>
      <trkpt lat="48.81923" lon="2.36073">
        <ele>114.2</ele>
        <time>2015-02-09T20:52:05.463Z</time>
      </trkpt>
      <trkpt lat="48.81922" lon="2.36067">
        <ele>114.2</ele>
        <time>2015-02-09T20:52:06.493Z</time>
      </trkpt>
      <trkpt lat="48.81923" lon="2.36054">
        <ele>114.1</ele>
        <time>2015-02-09T20:52:08.409Z</time>
      </trkpt>
      <trkpt lat="48.81923" lon="2.3605">
        <ele>114.1</ele>
        <time>2015-02-09T20:52:09.455Z</time>
      </trkpt>
      <trkpt lat="48.81923" lon="2.36038">
        <ele>114.1</ele>
        <time>2015-02-09T20:52:11.432Z</time>
      </trkpt>
      <trkpt lat="48.81922" lon="2.36033">
        <ele>114.3</ele>
        <time>2015-02-09T20:52:12.472Z</time>
      </trkpt>
      <trkpt lat="48.81921" lon="2.36022">
        <ele>114.6</ele>
        <time>2015-02-09T20:52:14.505Z</time>
      </trkpt>
      <trkpt lat="48.8192" lon="2.36016">
        <ele>114.6</ele>
        <time>2015-02-09T20:52:15.515Z</time>
      </trkpt>
      <trkpt lat="48.81919" lon="2.36006">
        <ele>114.5</ele>
        <time>2015-02-09T20:52:17.441Z</time>
      </trkpt>
      <trkpt lat="48.81918" lon="2.36002">
        <ele>114.5</ele>
        <time>2015-02-09T20:52:18.637Z</time>
      </trkpt>
      <trkpt lat="48.81918" lon="2.35989">
        <ele>113.9</ele>
        <time>2015-02-09T20:52:22.521Z</time>
      </trkpt>
      <trkpt lat="48.81919" lon="2.35987">
        <ele>113.2</ele>
        <time>2015-02-09T20:52:23.464Z</time>
      </trkpt>
      <trkpt lat="48.81922" lon="2.35977">
        <ele>113</ele>
        <time>2015-02-09T20:52:49.477Z</time>
      </trkpt>
      <trkpt lat="48.8192" lon="2.35961">
        <ele>114.3</ele>
        <time>2015-02-09T20:52:50.487Z</time>
      </trkpt>
      <trkpt lat="48.8192" lon="2.35949">
        <ele>114.3</ele>
        <time>2015-02-09T20:52:54.474Z</time>
      </trkpt>
      <trkpt lat="48.8192" lon="2.35946">
        <ele>114.7</ele>
        <time>2015-02-09T20:52:55.458Z</time>
      </trkpt>
      <trkpt lat="48.81918" lon="2.35934">
        <ele>115.3</ele>
        <time>2015-02-09T20:52:59.406Z</time>
      </trkpt>
      <trkpt lat="48.81918" lon="2.3593">
        <ele>115.2</ele>
        <time>2015-02-09T20:53:00.609Z</time>
      </trkpt>
      <trkpt lat="48.81916" lon="2.35919">
        <ele>116</ele>
        <time>2015-02-09T20:53:03.425Z</time>
      </trkpt>
      <trkpt lat="48.81917" lon="2.35915">
        <ele>116.1</ele>
        <time>2015-02-09T20:53:04.427Z</time>
      </trkpt>
      <trkpt lat="48.81917" lon="2.35905">
        <ele>116.5</ele>
        <time>2015-02-09T20:53:06.482Z</time>
      </trkpt>
      <trkpt lat="48.81917" lon="2.359">
        <ele>116.5</ele>
        <time>2015-02-09T20:53:07.465Z</time>
      </trkpt>
      <trkpt lat="48.81918" lon="2.3589">
        <ele>116.7</ele>
        <time>2015-02-09T20:53:09.602Z</time>
      </trkpt>
      <trkpt lat="48.81918" lon="2.35884">
        <ele>116.6</ele>
        <time>2015-02-09T20:53:10.426Z</time>
      </trkpt>
      <trkpt lat="48.81919" lon="2.35874">
        <ele>116.5</ele>
        <time>2015-02-09T20:53:12.438Z</time>
      </trkpt>
      <trkpt lat="48.8192" lon="2.35869">
        <ele>116.4</ele>
        <time>2015-02-09T20:53:13.472Z</time>
      </trkpt>
      <trkpt lat="48.81921" lon="2.35858">
        <ele>116.5</ele>
        <time>2015-02-09T20:53:15.507Z</time>
      </trkpt>
      <trkpt lat="48.81922" lon="2.35852">
        <ele>116.1</ele>
        <time>2015-02-09T20:53:16.574Z</time>
      </trkpt>
      <trkpt lat="48.81924" lon="2.35841">
        <ele>115.2</ele>
        <time>2015-02-09T20:53:18.412Z</time>
      </trkpt>
      <trkpt lat="48.81924" lon="2.35836">
        <ele>114.7</ele>
        <time>2015-02-09T20:53:19.464Z</time>
      </trkpt>
      <trkpt lat="48.81927" lon="2.35824">
        <ele>113.6</ele>
        <time>2015-02-09T20:53:21.474Z</time>
      </trkpt>
      <trkpt lat="48.81928" lon="2.35818">
        <ele>113</ele>
        <time>2015-02-09T20:53:22.493Z</time>
      </trkpt>
      <trkpt lat="48.8193" lon="2.35806">
        <ele>111.6</ele>
        <time>2015-02-09T20:53:24.433Z</time>
      </trkpt>
      <trkpt lat="48.81931" lon="2.358">
        <ele>110.7</ele>
        <time>2015-02-09T20:53:25.490Z</time>
      </trkpt>
      <trkpt lat="48.81934" lon="2.35788">
        <ele>109.4</ele>
        <time>2015-02-09T20:53:27.523Z</time>
      </trkpt>
      <trkpt lat="48.81936" lon="2.35783">
        <ele>108.9</ele>
        <time>2015-02-09T20:53:28.652Z</time>
      </trkpt>
      <trkpt lat="48.81941" lon="2.35772">
        <ele>108.2</ele>
        <time>2015-02-09T20:53:30.453Z</time>
      </trkpt>
      <trkpt lat="48.81943" lon="2.35766">
        <ele>107.8</ele>
        <time>2015-02-09T20:53:31.476Z</time>
      </trkpt>
      <trkpt lat="48.81948" lon="2.35756">
        <ele>107.5</ele>
        <time>2015-02-09T20:53:33.500Z</time>
      </trkpt>
      <trkpt lat="48.81951" lon="2.35751">
        <ele>107.3</ele>
        <time>2015-02-09T20:53:34.527Z</time>
      </trkpt>
      <trkpt lat="48.81957" lon="2.35742">
        <ele>107.2</ele>
        <time>2015-02-09T20:53:36.436Z</time>
      </trkpt>
      <trkpt lat="48.8196" lon="2.35737">
        <ele>106.8</ele>
        <time>2015-02-09T20:53:37.478Z</time>
      </trkpt>
      <trkpt lat="48.81965" lon="2.35729">
        <ele>106.1</ele>
        <time>2015-02-09T20:53:39.441Z</time>
      </trkpt>
      <trkpt lat="48.81968" lon="2.35725">
        <ele>106.1</ele>
        <time>2015-02-09T20:53:40.456Z</time>
      </trkpt>
      <trkpt lat="48.81974" lon="2.35716">
        <ele>105.4</ele>
        <time>2015-02-09T20:53:42.501Z</time>
      </trkpt>
      <trkpt lat="48.81977" lon="2.3571">
        <ele>104.3</ele>
        <time>2015-02-09T20:53:43.522Z</time>
      </trkpt>
      <trkpt lat="48.8198" lon="2.35706">
        <ele>104</ele>
        <time>2015-02-09T20:53:44.429Z</time>
      </trkpt>
      <trkpt lat="48.81984" lon="2.35701">
        <ele>103.8</ele>
        <time>2015-02-09T20:53:45.444Z</time>
      </trkpt>
      <trkpt lat="48.81987" lon="2.35697">
        <ele>103.6</ele>
        <time>2015-02-09T20:53:46.462Z</time>
      </trkpt>
      <trkpt lat="48.8199" lon="2.35692">
        <ele>103.5</ele>
        <time>2015-02-09T20:53:47.467Z</time>
      </trkpt>
      <trkpt lat="48.81994" lon="2.35687">
        <ele>103.4</ele>
        <time>2015-02-09T20:53:48.558Z</time>
      </trkpt>
      <trkpt lat="48.81998" lon="2.35683">
        <ele>103</ele>
        <time>2015-02-09T20:53:49.533Z</time>
      </trkpt>
      <trkpt lat="48.82002" lon="2.35678">
        <ele>102.7</ele>
        <time>2015-02-09T20:53:50.425Z</time>
      </trkpt>
      <trkpt lat="48.82005" lon="2.35672">
        <ele>102.5</ele>
        <time>2015-02-09T20:53:51.424Z</time>
      </trkpt>
      <trkpt lat="48.82009" lon="2.35667">
        <ele>102.3</ele>
        <time>2015-02-09T20:53:52.435Z</time>
      </trkpt>
      <trkpt lat="48.82013" lon="2.35663">
        <ele>102.3</ele>
        <time>2015-02-09T20:53:53.445Z</time>
      </trkpt>
      <trkpt lat="48.82017" lon="2.35658">
        <ele>102.1</ele>
        <time>2015-02-09T20:53:54.494Z</time>
      </trkpt>
      <trkpt lat="48.8202" lon="2.35652">
        <ele>101.4</ele>
        <time>2015-02-09T20:53:55.510Z</time>
      </trkpt>
      <trkpt lat="48.82024" lon="2.35647">
        <ele>101</ele>
        <time>2015-02-09T20:53:56.527Z</time>
      </trkpt>
      <trkpt lat="48.82027" lon="2.35641">
        <ele>100.9</ele>
        <time>2015-02-09T20:53:57.438Z</time>
      </trkpt>
      <trkpt lat="48.8203" lon="2.35635">
        <ele>100.5</ele>
        <time>2015-02-09T20:53:58.433Z</time>
      </trkpt>
      <trkpt lat="48.82034" lon="2.35628">
        <ele>100.3</ele>
        <time>2015-02-09T20:53:59.444Z</time>
      </trkpt>
      <trkpt lat="48.82037" lon="2.35621">
        <ele>100.4</ele>
        <time>2015-02-09T20:54:00.460Z</time>
      </trkpt>
      <trkpt lat="48.8204" lon="2.35614">
        <ele>100.3</ele>
        <time>2015-02-09T20:54:01.481Z</time>
      </trkpt>
      <trkpt lat="48.82044" lon="2.35608">
        <ele>100.1</ele>
        <time>2015-02-09T20:54:02.489Z</time>
      </trkpt>
      <trkpt lat="48.82048" lon="2.35602">
        <ele>100.2</ele>
        <time>2015-02-09T20:54:03.511Z</time>
      </trkpt>
      <trkpt lat="48.82051" lon="2.35597">
        <ele>100.1</ele>
        <time>2015-02-09T20:54:04.426Z</time>
      </trkpt>
      <trkpt lat="48.82054" lon="2.35592">
        <ele>100</ele>
        <time>2015-02-09T20:54:05.423Z</time>
      </trkpt>
      <trkpt lat="48.8206" lon="2.35583">
        <ele>100.3</ele>
        <time>2015-02-09T20:54:07.478Z</time>
      </trkpt>
      <trkpt lat="48.82062" lon="2.35579">
        <ele>100.3</ele>
        <time>2015-02-09T20:54:08.417Z</time>
      </trkpt>
      <trkpt lat="48.82069" lon="2.35574">
        <ele>98.7</ele>
        <time>2015-02-09T20:54:11.522Z</time>
      </trkpt>
      <trkpt lat="48.82071" lon="2.3557">
        <ele>98.7</ele>
        <time>2015-02-09T20:54:12.450Z</time>
      </trkpt>
      <trkpt lat="48.82077" lon="2.35561">
        <ele>98.7</ele>
        <time>2015-02-09T20:54:16.449Z</time>
      </trkpt>
      <trkpt lat="48.82079" lon="2.35561">
        <ele>98.7</ele>
        <time>2015-02-09T20:54:17.465Z</time>
      </trkpt>
      <trkpt lat="48.8208" lon="2.35562">
        <ele>97.8</ele>
        <time>2015-02-09T20:54:28.451Z</time>
      </trkpt>
      <trkpt lat="48.82088" lon="2.35552">
        <ele>99.6</ele>
        <time>2015-02-09T20:54:29.469Z</time>
      </trkpt>
      <trkpt lat="48.82095" lon="2.35546">
        <ele>99.5</ele>
        <time>2015-02-09T20:54:33.472Z</time>
      </trkpt>
      <trkpt lat="48.82096" lon="2.35543">
        <ele>99.3</ele>
        <time>2015-02-09T20:54:34.593Z</time>
      </trkpt>
      <trkpt lat="48.821" lon="2.35532">
        <ele>99.3</ele>
        <time>2015-02-09T20:54:38.493Z</time>
      </trkpt>
      <trkpt lat="48.82101" lon="2.3553">
        <ele>99.6</ele>
        <time>2015-02-09T20:54:39.506Z</time>
      </trkpt>
      <trkpt lat="48.82108" lon="2.35524">
        <ele>99.6</ele>
        <time>2015-02-09T20:54:43.451Z</time>
      </trkpt>
      <trkpt lat="48.8211" lon="2.35523">
        <ele>99.6</ele>
        <time>2015-02-09T20:54:44.454Z</time>
      </trkpt>
      <trkpt lat="48.82119" lon="2.35522">
        <ele>100.1</ele>
        <time>2015-02-09T20:54:48.475Z</time>
      </trkpt>
      <trkpt lat="48.82121" lon="2.35522">
        <ele>100.6</ele>
        <time>2015-02-09T20:54:49.484Z</time>
      </trkpt>
      <trkpt lat="48.82127" lon="2.35523">
        <ele>100</ele>
        <time>2015-02-09T20:54:51.425Z</time>
      </trkpt>
      <trkpt lat="48.82131" lon="2.35524">
        <ele>99.7</ele>
        <time>2015-02-09T20:54:52.460Z</time>
      </trkpt>
      <trkpt lat="48.82139" lon="2.35527">
        <ele>99.8</ele>
        <time>2015-02-09T20:54:54.423Z</time>
      </trkpt>
      <trkpt lat="48.82142" lon="2.35528">
        <ele>100.1</ele>
        <time>2015-02-09T20:54:55.524Z</time>
      </trkpt>
      <trkpt lat="48.82149" lon="2.35533">
        <ele>100.6</ele>
        <time>2015-02-09T20:54:59.431Z</time>
      </trkpt>
      <trkpt lat="48.82152" lon="2.35534">
        <ele>101</ele>
        <time>2015-02-09T20:55:00.492Z</time>
      </trkpt>
      <trkpt lat="48.82158" lon="2.35531">
        <ele>102.3</ele>
        <time>2015-02-09T20:55:03.433Z</time>
      </trkpt>
      <trkpt lat="48.82158" lon="2.35532">
        <ele>102.2</ele>
        <time>2015-02-09T20:55:04.431Z</time>
      </trkpt>
      <trkpt lat="48.82157" lon="2.35531">
        <ele>102.2</ele>
        <time>2015-02-09T20:55:17.429Z</time>
      </trkpt>
      <trkpt lat="48.82161" lon="2.35524">
        <ele>105.7</ele>
        <time>2015-02-09T20:55:18.439Z</time>
      </trkpt>
      <trkpt lat="48.82168" lon="2.35518">
        <ele>105.7</ele>
        <time>2015-02-09T20:55:20.482Z</time>
      </trkpt>
      <trkpt lat="48.82171" lon="2.35517">
        <ele>106</ele>
        <time>2015-02-09T20:55:21.489Z</time>
      </trkpt>
      <trkpt lat="48.82177" lon="2.35518">
        <ele>106.4</ele>
        <time>2015-02-09T20:55:23.434Z</time>
      </trkpt>
      <trkpt lat="48.82181" lon="2.35519">
        <ele>107.3</ele>
        <time>2015-02-09T20:55:24.439Z</time>
      </trkpt>
      <trkpt lat="48.82189" lon="2.35519">
        <ele>108.8</ele>
        <time>2015-02-09T20:55:26.464Z</time>
      </trkpt>
      <trkpt lat="48.82191" lon="2.35518">
        <ele>109.5</ele>
        <time>2015-02-09T20:55:27.471Z</time>
      </trkpt>
      <trkpt lat="48.82199" lon="2.35519">
        <ele>110.5</ele>
        <time>2015-02-09T20:55:30.439Z</time>
      </trkpt>
      <trkpt lat="48.822" lon="2.3552">
        <ele>110.9</ele>
        <time>2015-02-09T20:55:31.479Z</time>
      </trkpt>
      <trkpt lat="48.82203" lon="2.3552">
        <ele>111.5</ele>
        <time>2015-02-09T20:55:33.497Z</time>
      </trkpt>
      <trkpt lat="48.82205" lon="2.35521">
        <ele>112</ele>
        <time>2015-02-09T20:55:34.516Z</time>
      </trkpt>
      <trkpt lat="48.82205" lon="2.35519">
        <ele>111.9</ele>
        <time>2015-02-09T20:56:00.434Z</time>
      </trkpt>
      <trkpt lat="48.82226" lon="2.35531">
        <ele>118.4</ele>
        <time>2015-02-09T20:56:01.488Z</time>
      </trkpt>
      <trkpt lat="48.82231" lon="2.3553">
        <ele>116.9</ele>
        <time>2015-02-09T20:56:02.474Z</time>
      </trkpt>
      <trkpt lat="48.82236" lon="2.35529">
        <ele>115.4</ele>
        <time>2015-02-09T20:56:03.490Z</time>
      </trkpt>
      <trkpt lat="48.82245" lon="2.35531">
        <ele>115.7</ele>
        <time>2015-02-09T20:56:07.493Z</time>
      </trkpt>
      <trkpt lat="48.82247" lon="2.35532">
        <ele>115.9</ele>
        <time>2015-02-09T20:56:08.506Z</time>
      </trkpt>
      <trkpt lat="48.82255" lon="2.35535">
        <ele>115.9</ele>
        <time>2015-02-09T20:56:12.452Z</time>
      </trkpt>
      <trkpt lat="48.82257" lon="2.35535">
        <ele>116.2</ele>
        <time>2015-02-09T20:56:13.460Z</time>
      </trkpt>
      <trkpt lat="48.82264" lon="2.35534">
        <ele>116.6</ele>
        <time>2015-02-09T20:56:15.500Z</time>
      </trkpt>
      <trkpt lat="48.82267" lon="2.35534">
        <ele>116.8</ele>
        <time>2015-02-09T20:56:16.423Z</time>
      </trkpt>
      <trkpt lat="48.82274" lon="2.35541">
        <ele>116.9</ele>
        <time>2015-02-09T20:56:24.449Z</time>
      </trkpt>
      <trkpt lat="48.82298" lon="2.35534">
        <ele>112.8</ele>
        <time>2015-02-09T20:56:25.522Z</time>
      </trkpt>
      <trkpt lat="48.82305" lon="2.35531">
        <ele>112.2</ele>
        <time>2015-02-09T20:56:27.428Z</time>
      </trkpt>
      <trkpt lat="48.82307" lon="2.35531">
        <ele>112.1</ele>
        <time>2015-02-09T20:56:28.443Z</time>
      </trkpt>
      <trkpt lat="48.82315" lon="2.35534">
        <ele>112.1</ele>
        <time>2015-02-09T20:56:35.484Z</time>
      </trkpt>
      <trkpt lat="48.82316" lon="2.35535">
        <ele>112.3</ele>
        <time>2015-02-09T20:56:36.490Z</time>
      </trkpt>
      <trkpt lat="48.82317" lon="2.35536">
        <ele>112.4</ele>
        <time>2015-02-09T20:56:44.452Z</time>
      </trkpt>
      <trkpt lat="48.82331" lon="2.35537">
        <ele>112.7</ele>
        <time>2015-02-09T20:56:45.464Z</time>
      </trkpt>
      <trkpt lat="48.82336" lon="2.35536">
        <ele>111.9</ele>
        <time>2015-02-09T20:56:46.501Z</time>
      </trkpt>
      <trkpt lat="48.8234" lon="2.35533">
        <ele>111.1</ele>
        <time>2015-02-09T20:56:47.418Z</time>
      </trkpt>
      <trkpt lat="48.82348" lon="2.35531">
        <ele>110.6</ele>
        <time>2015-02-09T20:56:49.449Z</time>
      </trkpt>
      <trkpt lat="48.82351" lon="2.3553">
        <ele>110.2</ele>
        <time>2015-02-09T20:56:50.468Z</time>
      </trkpt>
      <trkpt lat="48.82355" lon="2.35533">
        <ele>110</ele>
        <time>2015-02-09T20:57:04.439Z</time>
      </trkpt>
      <trkpt lat="48.82366" lon="2.35529">
        <ele>110.5</ele>
        <time>2015-02-09T20:57:05.450Z</time>
      </trkpt>
      <trkpt lat="48.82373" lon="2.35523">
        <ele>109.1</ele>
        <time>2015-02-09T20:57:08.524Z</time>
      </trkpt>
      <trkpt lat="48.82376" lon="2.35519">
        <ele>108.3</ele>
        <time>2015-02-09T20:57:09.487Z</time>
      </trkpt>
      <trkpt lat="48.82381" lon="2.35514">
        <ele>108</ele>
        <time>2015-02-09T20:57:11.434Z</time>
      </trkpt>
      <trkpt lat="48.82383" lon="2.35511">
        <ele>107.8</ele>
        <time>2015-02-09T20:57:12.475Z</time>
      </trkpt>
      <trkpt lat="48.82389" lon="2.355">
        <ele>107.4</ele>
        <time>2015-02-09T20:57:15.431Z</time>
      </trkpt>
      <trkpt lat="48.8239" lon="2.35496">
        <ele>107.3</ele>
        <time>2015-02-09T20:57:16.495Z</time>
      </trkpt>
      <trkpt lat="48.82395" lon="2.35486">
        <ele>107.3</ele>
        <time>2015-02-09T20:57:19.475Z</time>
      </trkpt>
      <trkpt lat="48.82395" lon="2.35484">
        <ele>107.6</ele>
        <time>2015-02-09T20:57:20.486Z</time>
      </trkpt>
      <trkpt lat="48.82401" lon="2.3548">
        <ele>107.6</ele>
        <time>2015-02-09T20:57:22.438Z</time>
      </trkpt>
      <trkpt lat="48.82403" lon="2.35476">
        <ele>107.8</ele>
        <time>2015-02-09T20:57:23.456Z</time>
      </trkpt>
      <trkpt lat="48.82408" lon="2.3547">
        <ele>108.3</ele>
        <time>2015-02-09T20:57:25.511Z</time>
      </trkpt>
      <trkpt lat="48.82413" lon="2.35463">
        <ele>107.9</ele>
        <time>2015-02-09T20:57:26.437Z</time>
      </trkpt>
      <trkpt lat="48.82418" lon="2.35457">
        <ele>107.3</ele>
        <time>2015-02-09T20:57:27.538Z</time>
      </trkpt>
      <trkpt lat="48.82423" lon="2.35452">
        <ele>106.6</ele>
        <time>2015-02-09T20:57:28.434Z</time>
      </trkpt>
      <trkpt lat="48.82427" lon="2.35449">
        <ele>106.7</ele>
        <time>2015-02-09T20:57:29.445Z</time>
      </trkpt>
      <trkpt lat="48.82431" lon="2.35443">
        <ele>107.4</ele>
        <time>2015-02-09T20:57:30.491Z</time>
      </trkpt>
      <trkpt lat="48.82435" lon="2.35439">
        <ele>107.9</ele>
        <time>2015-02-09T20:57:31.513Z</time>
      </trkpt>
      <trkpt lat="48.82441" lon="2.35438">
        <ele>108</ele>
        <time>2015-02-09T20:57:32.419Z</time>
      </trkpt>
      <trkpt lat="48.82446" lon="2.35437">
        <ele>108</ele>
        <time>2015-02-09T20:57:33.434Z</time>
      </trkpt>
      <trkpt lat="48.8245" lon="2.35436">
        <ele>108.1</ele>
        <time>2015-02-09T20:57:34.442Z</time>
      </trkpt>
      <trkpt lat="48.82457" lon="2.35433">
        <ele>107.9</ele>
        <time>2015-02-09T20:57:36.421Z</time>
      </trkpt>
      <trkpt lat="48.8246" lon="2.35431">
        <ele>108.2</ele>
        <time>2015-02-09T20:57:37.474Z</time>
      </trkpt>
      <trkpt lat="48.82468" lon="2.35428">
        <ele>108.1</ele>
        <time>2015-02-09T20:57:39.478Z</time>
      </trkpt>
      <trkpt lat="48.8247" lon="2.35427">
        <ele>107.8</ele>
        <time>2015-02-09T20:57:40.509Z</time>
      </trkpt>
      <trkpt lat="48.82477" lon="2.35424">
        <ele>107.8</ele>
        <time>2015-02-09T20:57:42.456Z</time>
      </trkpt>
      <trkpt lat="48.8248" lon="2.35421">
        <ele>108</ele>
        <time>2015-02-09T20:57:43.470Z</time>
      </trkpt>
      <trkpt lat="48.82488" lon="2.35419">
        <ele>108.3</ele>
        <time>2015-02-09T20:57:45.422Z</time>
      </trkpt>
      <trkpt lat="48.82492" lon="2.35418">
        <ele>108.6</ele>
        <time>2015-02-09T20:57:46.437Z</time>
      </trkpt>
      <trkpt lat="48.82499" lon="2.35415">
        <ele>108.5</ele>
        <time>2015-02-09T20:57:48.442Z</time>
      </trkpt>
      <trkpt lat="48.82502" lon="2.35412">
        <ele>108.7</ele>
        <time>2015-02-09T20:57:49.463Z</time>
      </trkpt>
      <trkpt lat="48.82506" lon="2.35408">
        <ele>107.9</ele>
        <time>2015-02-09T20:57:50.513Z</time>
      </trkpt>
      <trkpt lat="48.82511" lon="2.35405">
        <ele>107.5</ele>
        <time>2015-02-09T20:57:51.402Z</time>
      </trkpt>
      <trkpt lat="48.82519" lon="2.35401">
        <ele>106.7</ele>
        <time>2015-02-09T20:57:53.421Z</time>
      </trkpt>
      <trkpt lat="48.82521" lon="2.35399">
        <ele>107</ele>
        <time>2015-02-09T20:57:54.432Z</time>
      </trkpt>
      <trkpt lat="48.82527" lon="2.35396">
        <ele>107.6</ele>
        <time>2015-02-09T20:57:56.465Z</time>
      </trkpt>
      <trkpt lat="48.8253" lon="2.35394">
        <ele>108.2</ele>
        <time>2015-02-09T20:57:57.479Z</time>
      </trkpt>
      <trkpt lat="48.82536" lon="2.35391">
        <ele>109.3</ele>
        <time>2015-02-09T20:57:59.519Z</time>
      </trkpt>
      <trkpt lat="48.82539" lon="2.35388">
        <ele>109.8</ele>
        <time>2015-02-09T20:58:00.402Z</time>
      </trkpt>
      <trkpt lat="48.82548" lon="2.35385">
        <ele>111.1</ele>
        <time>2015-02-09T20:58:04.492Z</time>
      </trkpt>
      <trkpt lat="48.8255" lon="2.35384">
        <ele>111.4</ele>
        <time>2015-02-09T20:58:05.502Z</time>
      </trkpt>
      <trkpt lat="48.82557" lon="2.35384">
        <ele>111.9</ele>
        <time>2015-02-09T20:58:12.508Z</time>
      </trkpt>
      <trkpt lat="48.82563" lon="2.35381">
        <ele>113.5</ele>
        <time>2015-02-09T20:58:13.512Z</time>
      </trkpt>
      <trkpt lat="48.82571" lon="2.35379">
        <ele>113.4</ele>
        <time>2015-02-09T20:58:46.540Z</time>
      </trkpt>
      <trkpt lat="48.82603" lon="2.35399">
        <ele>115.7</ele>
        <time>2015-02-09T20:58:47.426Z</time>
      </trkpt>
      <trkpt lat="48.82605" lon="2.35409">
        <ele>114.8</ele>
        <time>2015-02-09T20:58:50.463Z</time>
      </trkpt>
      <trkpt lat="48.82606" lon="2.35412">
        <ele>114.5</ele>
        <time>2015-02-09T20:58:51.483Z</time>
      </trkpt>
      <trkpt lat="48.82606" lon="2.35424">
        <ele>113.6</ele>
        <time>2015-02-09T20:58:55.470Z</time>
      </trkpt>
      <trkpt lat="48.82607" lon="2.35426">
        <ele>113.3</ele>
        <time>2015-02-09T20:58:56.481Z</time>
      </trkpt>
      <trkpt lat="48.82613" lon="2.35424">
        <ele>112.5</ele>
        <time>2015-02-09T20:59:00.429Z</time>
      </trkpt>
      <trkpt lat="48.82617" lon="2.35424">
        <ele>112.4</ele>
        <time>2015-02-09T20:59:01.474Z</time>
      </trkpt>
      <trkpt lat="48.82625" lon="2.35422">
        <ele>112</ele>
        <time>2015-02-09T20:59:03.694Z</time>
      </trkpt>
      <trkpt lat="48.82628" lon="2.35421">
        <ele>111.8</ele>
        <time>2015-02-09T20:59:04.476Z</time>
      </trkpt>
      <trkpt lat="48.82636" lon="2.35413">
        <ele>111.2</ele>
        <time>2015-02-09T20:59:07.648Z</time>
      </trkpt>
      <trkpt lat="48.82637" lon="2.35413">
        <ele>111</ele>
        <time>2015-02-09T20:59:08.479Z</time>
      </trkpt>
      <trkpt lat="48.82643" lon="2.35411">
        <ele>110.5</ele>
        <time>2015-02-09T20:59:11.514Z</time>
      </trkpt>
      <trkpt lat="48.82647" lon="2.3541">
        <ele>110.3</ele>
        <time>2015-02-09T20:59:12.656Z</time>
      </trkpt>
      <trkpt lat="48.82653" lon="2.35407">
        <ele>109.6</ele>
        <time>2015-02-09T20:59:14.424Z</time>
      </trkpt>
      <trkpt lat="48.82655" lon="2.35403">
        <ele>109.7</ele>
        <time>2015-02-09T20:59:15.465Z</time>
      </trkpt>
      <trkpt lat="48.82662" lon="2.35394">
        <ele>110.3</ele>
        <time>2015-02-09T20:59:18.891Z</time>
      </trkpt>
      <trkpt lat="48.82663" lon="2.35391">
        <ele>110.2</ele>
        <time>2015-02-09T20:59:19.552Z</time>
      </trkpt>
      <trkpt lat="48.82668" lon="2.35381">
        <ele>110.7</ele>
        <time>2015-02-09T20:59:22.453Z</time>
      </trkpt>
      <trkpt lat="48.82669" lon="2.35379">
        <ele>110.8</ele>
        <time>2015-02-09T20:59:23.490Z</time>
      </trkpt>
      <trkpt lat="48.82671" lon="2.35379">
        <ele>111.1</ele>
        <time>2015-02-09T21:00:06.524Z</time>
      </trkpt>
      <trkpt lat="48.82705" lon="2.35366">
        <ele>120.7</ele>
        <time>2015-02-09T21:00:07.481Z</time>
      </trkpt>
      <trkpt lat="48.82711" lon="2.35361">
        <ele>121.2</ele>
        <time>2015-02-09T21:00:10.418Z</time>
      </trkpt>
      <trkpt lat="48.82713" lon="2.3536">
        <ele>121.4</ele>
        <time>2015-02-09T21:00:11.424Z</time>
      </trkpt>
      <trkpt lat="48.82713" lon="2.3536">
        <ele>121.4</ele>
        <time>2015-02-09T21:00:30.422Z</time>
      </trkpt>
      <trkpt lat="48.82745" lon="2.35343">
        <ele>122.9</ele>
        <time>2015-02-09T21:00:31.443Z</time>
      </trkpt>
      <trkpt lat="48.8275" lon="2.35336">
        <ele>123.2</ele>
        <time>2015-02-09T21:00:36.458Z</time>
      </trkpt>
      <trkpt lat="48.82752" lon="2.35335">
        <ele>123.8</ele>
        <time>2015-02-09T21:00:37.476Z</time>
      </trkpt>
      <trkpt lat="48.82759" lon="2.35331">
        <ele>121.9</ele>
        <time>2015-02-09T21:00:40.610Z</time>
      </trkpt>
      <trkpt lat="48.82762" lon="2.35329">
        <ele>120.8</ele>
        <time>2015-02-09T21:00:41.458Z</time>
      </trkpt>
      <trkpt lat="48.82767" lon="2.35324">
        <ele>119.7</ele>
        <time>2015-02-09T21:00:43.477Z</time>
      </trkpt>
      <trkpt lat="48.8277" lon="2.35321">
        <ele>119.1</ele>
        <time>2015-02-09T21:00:44.493Z</time>
      </trkpt>
      <trkpt lat="48.82778" lon="2.35317">
        <ele>118.8</ele>
        <time>2015-02-09T21:00:46.425Z</time>
      </trkpt>
      <trkpt lat="48.8278" lon="2.35314">
        <ele>118.7</ele>
        <time>2015-02-09T21:00:47.430Z</time>
      </trkpt>
      <trkpt lat="48.82786" lon="2.3531">
        <ele>118.1</ele>
        <time>2015-02-09T21:00:49.532Z</time>
      </trkpt>
      <trkpt lat="48.82788" lon="2.35307">
        <ele>117.2</ele>
        <time>2015-02-09T21:00:50.453Z</time>
      </trkpt>
      <trkpt lat="48.82792" lon="2.35302">
        <ele>115.3</ele>
        <time>2015-02-09T21:00:53.410Z</time>
      </trkpt>
      <trkpt lat="48.82795" lon="2.35299">
        <ele>114.8</ele>
        <time>2015-02-09T21:00:53.468Z</time>
      </trkpt>
      <trkpt lat="48.82802" lon="2.35292">
        <ele>114.1</ele>
        <time>2015-02-09T21:00:56.450Z</time>
      </trkpt>
      <trkpt lat="48.82803" lon="2.35289">
        <ele>113.8</ele>
        <time>2015-02-09T21:00:57.460Z</time>
      </trkpt>
      <trkpt lat="48.82808" lon="2.3528">
        <ele>114.6</ele>
        <time>2015-02-09T21:01:01.495Z</time>
      </trkpt>
      <trkpt lat="48.82809" lon="2.35277">
        <ele>114.8</ele>
        <time>2015-02-09T21:01:02.501Z</time>
      </trkpt>
      <trkpt lat="48.8281" lon="2.35272">
        <ele>115</ele>
        <time>2015-02-09T21:01:04.464Z</time>
      </trkpt>
      <trkpt lat="48.82811" lon="2.35273">
        <ele>115.2</ele>
        <time>2015-02-09T21:01:05.475Z</time>
      </trkpt>
      <trkpt lat="48.82812" lon="2.35274">
        <ele>115.4</ele>
        <time>2015-02-09T21:02:34.450Z</time>
      </trkpt>
      <trkpt lat="48.82839" lon="2.35281">
        <ele>132.8</ele>
        <time>2015-02-09T21:02:35.466Z</time>
      </trkpt>
      <trkpt lat="48.82846" lon="2.35287">
        <ele>133</ele>
        <time>2015-02-09T21:02:39.426Z</time>
      </trkpt>
      <trkpt lat="48.82849" lon="2.35289">
        <ele>133</ele>
        <time>2015-02-09T21:02:40.434Z</time>
      </trkpt>
      <trkpt lat="48.82854" lon="2.35297">
        <ele>133.7</ele>
        <time>2015-02-09T21:02:43.496Z</time>
      </trkpt>
      <trkpt lat="48.82857" lon="2.35299">
        <ele>133.9</ele>
        <time>2015-02-09T21:02:44.429Z</time>
      </trkpt>
      <trkpt lat="48.82861" lon="2.35305">
        <ele>134.4</ele>
        <time>2015-02-09T21:02:46.420Z</time>
      </trkpt>
      <trkpt lat="48.82863" lon="2.35309">
        <ele>134.5</ele>
        <time>2015-02-09T21:02:47.429Z</time>
      </trkpt>
      <trkpt lat="48.82867" lon="2.35318">
        <ele>135.4</ele>
        <time>2015-02-09T21:02:49.465Z</time>
      </trkpt>
      <trkpt lat="48.82869" lon="2.35321">
        <ele>135.6</ele>
        <time>2015-02-09T21:02:50.474Z</time>
      </trkpt>
      <trkpt lat="48.82875" lon="2.35328">
        <ele>135.7</ele>
        <time>2015-02-09T21:02:52.414Z</time>
      </trkpt>
      <trkpt lat="48.82877" lon="2.35331">
        <ele>135.8</ele>
        <time>2015-02-09T21:02:53.425Z</time>
      </trkpt>
      <trkpt lat="48.82885" lon="2.35329">
        <ele>134.8</ele>
        <time>2015-02-09T21:02:55.461Z</time>
      </trkpt>
      <trkpt lat="48.82888" lon="2.35331">
        <ele>134.8</ele>
        <time>2015-02-09T21:02:56.461Z</time>
      </trkpt>
      <trkpt lat="48.82894" lon="2.35335">
        <ele>134</ele>
        <time>2015-02-09T21:02:58.439Z</time>
      </trkpt>
      <trkpt lat="48.82898" lon="2.35336">
        <ele>133.4</ele>
        <time>2015-02-09T21:02:59.454Z</time>
      </trkpt>
      <trkpt lat="48.82903" lon="2.35342">
        <ele>133</ele>
        <time>2015-02-09T21:03:01.492Z</time>
      </trkpt>
      <trkpt lat="48.82907" lon="2.35344">
        <ele>133.1</ele>
        <time>2015-02-09T21:03:02.413Z</time>
      </trkpt>
      <trkpt lat="48.82914" lon="2.35349">
        <ele>133.3</ele>
        <time>2015-02-09T21:03:04.439Z</time>
      </trkpt>
      <trkpt lat="48.82918" lon="2.35354">
        <ele>133.2</ele>
        <time>2015-02-09T21:03:05.452Z</time>
      </trkpt>
      <trkpt lat="48.82924" lon="2.35361">
        <ele>133.2</ele>
        <time>2015-02-09T21:03:07.472Z</time>
      </trkpt>
      <trkpt lat="48.82927" lon="2.35365">
        <ele>133.1</ele>
        <time>2015-02-09T21:03:08.484Z</time>
      </trkpt>
      <trkpt lat="48.82934" lon="2.35371">
        <ele>133.3</ele>
        <time>2015-02-09T21:03:10.413Z</time>
      </trkpt>
      <trkpt lat="48.82938" lon="2.35372">
        <ele>133.3</ele>
        <time>2015-02-09T21:03:11.479Z</time>
      </trkpt>
      <trkpt lat="48.82945" lon="2.35375">
        <ele>133</ele>
        <time>2015-02-09T21:03:13.461Z</time>
      </trkpt>
      <trkpt lat="48.82949" lon="2.35379">
        <ele>133.1</ele>
        <time>2015-02-09T21:03:14.464Z</time>
      </trkpt>
      <trkpt lat="48.82956" lon="2.35385">
        <ele>133.2</ele>
        <time>2015-02-09T21:03:16.416Z</time>
      </trkpt>
      <trkpt lat="48.8296" lon="2.35388">
        <ele>133.3</ele>
        <time>2015-02-09T21:03:17.424Z</time>
      </trkpt>
      <trkpt lat="48.82965" lon="2.35392">
        <ele>133.4</ele>
        <time>2015-02-09T21:03:18.441Z</time>
      </trkpt>
      <trkpt lat="48.82969" lon="2.35396">
        <ele>133</ele>
        <time>2015-02-09T21:03:19.460Z</time>
      </trkpt>
      <trkpt lat="48.82974" lon="2.354">
        <ele>132.7</ele>
        <time>2015-02-09T21:03:20.479Z</time>
      </trkpt>
      <trkpt lat="48.82979" lon="2.35403">
        <ele>132.5</ele>
        <time>2015-02-09T21:03:21.489Z</time>
      </trkpt>
      <trkpt lat="48.82985" lon="2.35406">
        <ele>132.2</ele>
        <time>2015-02-09T21:03:22.512Z</time>
      </trkpt>
      <trkpt lat="48.82992" lon="2.35409">
        <ele>132</ele>
        <time>2015-02-09T21:03:23.425Z</time>
      </trkpt>
      <trkpt lat="48.82999" lon="2.35413">
        <ele>132.1</ele>
        <time>2015-02-09T21:03:24.405Z</time>
      </trkpt>
      <trkpt lat="48.83006" lon="2.35418">
        <ele>132</ele>
        <time>2015-02-09T21:03:25.445Z</time>
      </trkpt>
      <trkpt lat="48.83012" lon="2.35422">
        <ele>132.1</ele>
        <time>2015-02-09T21:03:26.455Z</time>
      </trkpt>
      <trkpt lat="48.83015" lon="2.35426">
        <ele>132.2</ele>
        <time>2015-02-09T21:03:27.489Z</time>
      </trkpt>
      <trkpt lat="48.83018" lon="2.35438">
        <ele>133.5</ele>
        <time>2015-02-09T21:03:30.430Z</time>
      </trkpt>
      <trkpt lat="48.83018" lon="2.35441">
        <ele>133.8</ele>
        <time>2015-02-09T21:03:31.469Z</time>
      </trkpt>
      <trkpt lat="48.83021" lon="2.35452">
        <ele>134.8</ele>
        <time>2015-02-09T21:03:35.424Z</time>
      </trkpt>
      <trkpt lat="48.83024" lon="2.35455">
        <ele>135.2</ele>
        <time>2015-02-09T21:03:36.454Z</time>
      </trkpt>
      <trkpt lat="48.83029" lon="2.35465">
        <ele>137</ele>
        <time>2015-02-09T21:03:39.502Z</time>
      </trkpt>
      <trkpt lat="48.83031" lon="2.35468">
        <ele>136.9</ele>
        <time>2015-02-09T21:03:40.423Z</time>
      </trkpt>
      <trkpt lat="48.83037" lon="2.35474">
        <ele>134.7</ele>
        <time>2015-02-09T21:03:42.457Z</time>
      </trkpt>
      <trkpt lat="48.83044" lon="2.35478">
        <ele>131.8</ele>
        <time>2015-02-09T21:03:43.471Z</time>
      </trkpt>
      <trkpt lat="48.83049" lon="2.35482">
        <ele>130.3</ele>
        <time>2015-02-09T21:03:44.506Z</time>
      </trkpt>
      <trkpt lat="48.83054" lon="2.35485">
        <ele>129.2</ele>
        <time>2015-02-09T21:03:45.414Z</time>
      </trkpt>
      <trkpt lat="48.83061" lon="2.3549">
        <ele>127.5</ele>
        <time>2015-02-09T21:03:47.427Z</time>
      </trkpt>
      <trkpt lat="48.83065" lon="2.35492">
        <ele>126.4</ele>
        <time>2015-02-09T21:03:48.439Z</time>
      </trkpt>
      <trkpt lat="48.83071" lon="2.35494">
        <ele>124.2</ele>
        <time>2015-02-09T21:03:50.478Z</time>
      </trkpt>
      <trkpt lat="48.83074" lon="2.35495">
        <ele>123.6</ele>
        <time>2015-02-09T21:03:51.483Z</time>
      </trkpt>
      <trkpt lat="48.8308" lon="2.35495">
        <ele>122</ele>
        <time>2015-02-09T21:03:53.416Z</time>
      </trkpt>
      <trkpt lat="48.83083" lon="2.35496">
        <ele>121.5</ele>
        <time>2015-02-09T21:03:54.429Z</time>
      </trkpt>
      <trkpt lat="48.8309" lon="2.355">
        <ele>119.4</ele>
        <time>2015-02-09T21:03:59.417Z</time>
      </trkpt>
      <trkpt lat="48.83091" lon="2.35501">
        <ele>119.1</ele>
        <time>2015-02-09T21:04:00.380Z</time>
      </trkpt>
      <trkpt lat="48.83096" lon="2.35503">
        <ele>118.1</ele>
        <time>2015-02-09T21:04:32.421Z</time>
      </trkpt>
      <trkpt lat="48.83089" lon="2.3554">
        <ele>122</ele>
        <time>2015-02-09T21:04:33.423Z</time>
      </trkpt>
      <trkpt lat="48.83087" lon="2.35553">
        <ele>120.7</ele>
        <time>2015-02-09T21:04:38.423Z</time>
      </trkpt>
      <trkpt lat="48.83087" lon="2.35556">
        <ele>120.3</ele>
        <time>2015-02-09T21:04:39.426Z</time>
      </trkpt>
      <trkpt lat="48.83081" lon="2.35566">
        <ele>118.7</ele>
        <time>2015-02-09T21:04:44.423Z</time>
      </trkpt>
      <trkpt lat="48.83081" lon="2.35568">
        <ele>118.5</ele>
        <time>2015-02-09T21:04:45.431Z</time>
      </trkpt>
      <trkpt lat="48.83079" lon="2.35574">
        <ele>117.3</ele>
        <time>2015-02-09T21:04:57.422Z</time>
      </trkpt>
      <trkpt lat="48.83068" lon="2.35582">
        <ele>117.4</ele>
        <time>2015-02-09T21:04:58.456Z</time>
      </trkpt>
      <trkpt lat="48.83067" lon="2.35593">
        <ele>116.9</ele>
        <time>2015-02-09T21:05:01.505Z</time>
      </trkpt>
      <trkpt lat="48.83067" lon="2.35596">
        <ele>117.1</ele>
        <time>2015-02-09T21:05:02.402Z</time>
      </trkpt>
      <trkpt lat="48.8307" lon="2.35608">
        <ele>117.3</ele>
        <time>2015-02-09T21:05:06.416Z</time>
      </trkpt>
      <trkpt lat="48.83071" lon="2.3561">
        <ele>117.5</ele>
        <time>2015-02-09T21:05:07.450Z</time>
      </trkpt>
      <trkpt lat="48.83075" lon="2.35619">
        <ele>117.3</ele>
        <time>2015-02-09T21:05:16.425Z</time>
      </trkpt>
      <trkpt lat="48.83075" lon="2.35625">
        <ele>116.4</ele>
        <time>2015-02-09T21:05:17.435Z</time>
      </trkpt>
      <trkpt lat="48.83079" lon="2.35638">
        <ele>115.4</ele>
        <time>2015-02-09T21:05:22.465Z</time>
      </trkpt>
      <trkpt lat="48.83081" lon="2.35639">
        <ele>115.2</ele>
        <time>2015-02-09T21:05:23.485Z</time>
      </trkpt>
      <trkpt lat="48.83087" lon="2.35645">
        <ele>114.8</ele>
        <time>2015-02-09T21:05:26.453Z</time>
      </trkpt>
      <trkpt lat="48.83088" lon="2.35647">
        <ele>114.6</ele>
        <time>2015-02-09T21:05:27.462Z</time>
      </trkpt>
      <trkpt lat="48.83094" lon="2.35656">
        <ele>114.7</ele>
        <time>2015-02-09T21:05:31.433Z</time>
      </trkpt>
      <trkpt lat="48.83096" lon="2.35657">
        <ele>114.2</ele>
        <time>2015-02-09T21:05:32.450Z</time>
      </trkpt>
      <trkpt lat="48.83103" lon="2.35663">
        <ele>113.7</ele>
        <time>2015-02-09T21:05:35.419Z</time>
      </trkpt>
      <trkpt lat="48.83106" lon="2.35666">
        <ele>113.9</ele>
        <time>2015-02-09T21:05:36.476Z</time>
      </trkpt>
      <trkpt lat="48.83111" lon="2.35675">
        <ele>114.5</ele>
        <time>2015-02-09T21:05:38.427Z</time>
      </trkpt>
      <trkpt lat="48.83114" lon="2.35681">
        <ele>114.8</ele>
        <time>2015-02-09T21:05:39.475Z</time>
      </trkpt>
      <trkpt lat="48.83117" lon="2.35693">
        <ele>114.5</ele>
        <time>2015-02-09T21:05:41.506Z</time>
      </trkpt>
      <trkpt lat="48.83119" lon="2.35699">
        <ele>114.7</ele>
        <time>2015-02-09T21:05:42.506Z</time>
      </trkpt>
      <trkpt lat="48.8312" lon="2.35705">
        <ele>114.5</ele>
        <time>2015-02-09T21:05:43.517Z</time>
      </trkpt>
      <trkpt lat="48.83123" lon="2.35711">
        <ele>114.5</ele>
        <time>2015-02-09T21:05:44.418Z</time>
      </trkpt>
      <trkpt lat="48.83128" lon="2.35722">
        <ele>114.9</ele>
        <time>2015-02-09T21:05:46.438Z</time>
      </trkpt>
      <trkpt lat="48.8313" lon="2.35727">
        <ele>114.9</ele>
        <time>2015-02-09T21:05:47.479Z</time>
      </trkpt>
      <trkpt lat="48.83134" lon="2.35739">
        <ele>114.4</ele>
        <time>2015-02-09T21:05:49.501Z</time>
      </trkpt>
      <trkpt lat="48.83136" lon="2.35745">
        <ele>114.3</ele>
        <time>2015-02-09T21:05:50.528Z</time>
      </trkpt>
      <trkpt lat="48.83138" lon="2.35751">
        <ele>114.2</ele>
        <time>2015-02-09T21:05:51.435Z</time>
      </trkpt>
      <trkpt lat="48.83141" lon="2.35757">
        <ele>114.4</ele>
        <time>2015-02-09T21:05:52.440Z</time>
      </trkpt>
      <trkpt lat="48.83145" lon="2.35767">
        <ele>114.2</ele>
        <time>2015-02-09T21:05:54.460Z</time>
      </trkpt>
      <trkpt lat="48.83147" lon="2.35773">
        <ele>114</ele>
        <time>2015-02-09T21:05:55.491Z</time>
      </trkpt>
      <trkpt lat="48.83149" lon="2.35779">
        <ele>114</ele>
        <time>2015-02-09T21:05:56.433Z</time>
      </trkpt>
      <trkpt lat="48.83151" lon="2.35787">
        <ele>113.7</ele>
        <time>2015-02-09T21:05:57.432Z</time>
      </trkpt>
      <trkpt lat="48.83153" lon="2.35793">
        <ele>113.8</ele>
        <time>2015-02-09T21:05:58.457Z</time>
      </trkpt>
      <trkpt lat="48.83155" lon="2.358">
        <ele>113.8</ele>
        <time>2015-02-09T21:05:59.458Z</time>
      </trkpt>
      <trkpt lat="48.83157" lon="2.35806">
        <ele>113.8</ele>
        <time>2015-02-09T21:06:00.493Z</time>
      </trkpt>
      <trkpt lat="48.83159" lon="2.35813">
        <ele>113.6</ele>
        <time>2015-02-09T21:06:01.495Z</time>
      </trkpt>
      <trkpt lat="48.83161" lon="2.35819">
        <ele>113.7</ele>
        <time>2015-02-09T21:06:02.504Z</time>
      </trkpt>
      <trkpt lat="48.83164" lon="2.35826">
        <ele>114.2</ele>
        <time>2015-02-09T21:06:03.511Z</time>
      </trkpt>
      <trkpt lat="48.83166" lon="2.35832">
        <ele>114</ele>
        <time>2015-02-09T21:06:04.420Z</time>
      </trkpt>
      <trkpt lat="48.83169" lon="2.35838">
        <ele>114.5</ele>
        <time>2015-02-09T21:06:05.425Z</time>
      </trkpt>
      <trkpt lat="48.83172" lon="2.35843">
        <ele>115.3</ele>
        <time>2015-02-09T21:06:06.449Z</time>
      </trkpt>
      <trkpt lat="48.83175" lon="2.3585">
        <ele>115.2</ele>
        <time>2015-02-09T21:06:07.460Z</time>
      </trkpt>
      <trkpt lat="48.83177" lon="2.35857">
        <ele>114.9</ele>
        <time>2015-02-09T21:06:08.451Z</time>
      </trkpt>
      <trkpt lat="48.8318" lon="2.35864">
        <ele>114.9</ele>
        <time>2015-02-09T21:06:09.462Z</time>
      </trkpt>
      <trkpt lat="48.83183" lon="2.35871">
        <ele>114.7</ele>
        <time>2015-02-09T21:06:10.470Z</time>
      </trkpt>
      <trkpt lat="48.83185" lon="2.35878">
        <ele>114.5</ele>
        <time>2015-02-09T21:06:11.486Z</time>
      </trkpt>
      <trkpt lat="48.83188" lon="2.35886">
        <ele>114.6</ele>
        <time>2015-02-09T21:06:12.496Z</time>
      </trkpt>
      <trkpt lat="48.8319" lon="2.35894">
        <ele>114.1</ele>
        <time>2015-02-09T21:06:13.500Z</time>
      </trkpt>
      <trkpt lat="48.83192" lon="2.35901">
        <ele>113.8</ele>
        <time>2015-02-09T21:06:14.419Z</time>
      </trkpt>
      <trkpt lat="48.83195" lon="2.35908">
        <ele>113.7</ele>
        <time>2015-02-09T21:06:15.409Z</time>
      </trkpt>
      <trkpt lat="48.83197" lon="2.35915">
        <ele>113.2</ele>
        <time>2015-02-09T21:06:16.434Z</time>
      </trkpt>
      <trkpt lat="48.83199" lon="2.35922">
        <ele>113</ele>
        <time>2015-02-09T21:06:17.456Z</time>
      </trkpt>
      <trkpt lat="48.83202" lon="2.35929">
        <ele>113</ele>
        <time>2015-02-09T21:06:18.469Z</time>
      </trkpt>
      <trkpt lat="48.83205" lon="2.35937">
        <ele>113.1</ele>
        <time>2015-02-09T21:06:19.479Z</time>
      </trkpt>
      <trkpt lat="48.83208" lon="2.35945">
        <ele>113</ele>
        <time>2015-02-09T21:06:20.492Z</time>
      </trkpt>
      <trkpt lat="48.8321" lon="2.35952">
        <ele>112.9</ele>
        <time>2015-02-09T21:06:21.504Z</time>
      </trkpt>
      <trkpt lat="48.83213" lon="2.35961">
        <ele>112.6</ele>
        <time>2015-02-09T21:06:22.422Z</time>
      </trkpt>
      <trkpt lat="48.83215" lon="2.35969">
        <ele>112.7</ele>
        <time>2015-02-09T21:06:23.430Z</time>
      </trkpt>
      <trkpt lat="48.83218" lon="2.35976">
        <ele>112.8</ele>
        <time>2015-02-09T21:06:24.450Z</time>
      </trkpt>
      <trkpt lat="48.8322" lon="2.35985">
        <ele>112.7</ele>
        <time>2015-02-09T21:06:25.464Z</time>
      </trkpt>
      <trkpt lat="48.83222" lon="2.35993">
        <ele>112.7</ele>
        <time>2015-02-09T21:06:26.476Z</time>
      </trkpt>
      <trkpt lat="48.83224" lon="2.36002">
        <ele>113</ele>
        <time>2015-02-09T21:06:27.495Z</time>
      </trkpt>
      <trkpt lat="48.83227" lon="2.36009">
        <ele>113.3</ele>
        <time>2015-02-09T21:06:28.407Z</time>
      </trkpt>
      <trkpt lat="48.8323" lon="2.36017">
        <ele>113.4</ele>
        <time>2015-02-09T21:06:29.409Z</time>
      </trkpt>
      <trkpt lat="48.83232" lon="2.36024">
        <ele>113.5</ele>
        <time>2015-02-09T21:06:30.414Z</time>
      </trkpt>
      <trkpt lat="48.83234" lon="2.36031">
        <ele>113.6</ele>
        <time>2015-02-09T21:06:31.473Z</time>
      </trkpt>
      <trkpt lat="48.83236" lon="2.36039">
        <ele>113.6</ele>
        <time>2015-02-09T21:06:32.496Z</time>
      </trkpt>
      <trkpt lat="48.83237" lon="2.36047">
        <ele>113.5</ele>
        <time>2015-02-09T21:06:33.512Z</time>
      </trkpt>
      <trkpt lat="48.83239" lon="2.36055">
        <ele>113.4</ele>
        <time>2015-02-09T21:06:34.466Z</time>
      </trkpt>
      <trkpt lat="48.83242" lon="2.36063">
        <ele>113.2</ele>
        <time>2015-02-09T21:06:35.468Z</time>
      </trkpt>
      <trkpt lat="48.83244" lon="2.36071">
        <ele>113.1</ele>
        <time>2015-02-09T21:06:36.513Z</time>
      </trkpt>
      <trkpt lat="48.83247" lon="2.36078">
        <ele>112.9</ele>
        <time>2015-02-09T21:06:37.521Z</time>
      </trkpt>
      <trkpt lat="48.83249" lon="2.36085">
        <ele>112.3</ele>
        <time>2015-02-09T21:06:38.408Z</time>
      </trkpt>
      <trkpt lat="48.83251" lon="2.36092">
        <ele>111.9</ele>
        <time>2015-02-09T21:06:39.412Z</time>
      </trkpt>
      <trkpt lat="48.83254" lon="2.361">
        <ele>111.6</ele>
        <time>2015-02-09T21:06:40.413Z</time>
      </trkpt>
      <trkpt lat="48.83256" lon="2.36107">
        <ele>111.2</ele>
        <time>2015-02-09T21:06:41.530Z</time>
      </trkpt>
      <trkpt lat="48.83259" lon="2.36115">
        <ele>111.1</ele>
        <time>2015-02-09T21:06:42.416Z</time>
      </trkpt>
      <trkpt lat="48.83261" lon="2.36121">
        <ele>111.1</ele>
        <time>2015-02-09T21:06:43.447Z</time>
      </trkpt>
      <trkpt lat="48.83264" lon="2.36128">
        <ele>110.5</ele>
        <time>2015-02-09T21:06:44.453Z</time>
      </trkpt>
      <trkpt lat="48.83266" lon="2.36134">
        <ele>110.3</ele>
        <time>2015-02-09T21:06:45.468Z</time>
      </trkpt>
      <trkpt lat="48.83271" lon="2.36143">
        <ele>109.8</ele>
        <time>2015-02-09T21:06:47.486Z</time>
      </trkpt>
      <trkpt lat="48.83273" lon="2.36147">
        <ele>109.8</ele>
        <time>2015-02-09T21:06:48.532Z</time>
      </trkpt>
      <trkpt lat="48.83275" lon="2.36159">
        <ele>109.9</ele>
        <time>2015-02-09T21:06:50.461Z</time>
      </trkpt>
      <trkpt lat="48.83277" lon="2.36164">
        <ele>109.6</ele>
        <time>2015-02-09T21:06:51.521Z</time>
      </trkpt>
      <trkpt lat="48.8328" lon="2.36177">
        <ele>109.2</ele>
        <time>2015-02-09T21:06:53.414Z</time>
      </trkpt>
      <trkpt lat="48.83282" lon="2.36184">
        <ele>109.5</ele>
        <time>2015-02-09T21:06:54.423Z</time>
      </trkpt>
      <trkpt lat="48.83284" lon="2.3619">
        <ele>109.5</ele>
        <time>2015-02-09T21:06:55.529Z</time>
      </trkpt>
      <trkpt lat="48.83286" lon="2.36197">
        <ele>109.9</ele>
        <time>2015-02-09T21:06:56.420Z</time>
      </trkpt>
      <trkpt lat="48.83289" lon="2.36209">
        <ele>109.9</ele>
        <time>2015-02-09T21:06:58.464Z</time>
      </trkpt>
      <trkpt lat="48.83292" lon="2.36215">
        <ele>109.9</ele>
        <time>2015-02-09T21:06:59.477Z</time>
      </trkpt>
      <trkpt lat="48.83294" lon="2.36225">
        <ele>109.2</ele>
        <time>2015-02-09T21:07:01.435Z</time>
      </trkpt>
      <trkpt lat="48.83295" lon="2.3623">
        <ele>108.7</ele>
        <time>2015-02-09T21:07:02.439Z</time>
      </trkpt>
      <trkpt lat="48.83298" lon="2.36242">
        <ele>107.9</ele>
        <time>2015-02-09T21:07:04.424Z</time>
      </trkpt>
      <trkpt lat="48.833" lon="2.36247">
        <ele>107.8</ele>
        <time>2015-02-09T21:07:05.430Z</time>
      </trkpt>
      <trkpt lat="48.83302" lon="2.36256">
        <ele>107.9</ele>
        <time>2015-02-09T21:07:07.544Z</time>
      </trkpt>
      <trkpt lat="48.83304" lon="2.3626">
        <ele>108.3</ele>
        <time>2015-02-09T21:07:08.423Z</time>
      </trkpt>
      <trkpt lat="48.83306" lon="2.3627">
        <ele>108.1</ele>
        <time>2015-02-09T21:07:10.400Z</time>
      </trkpt>
      <trkpt lat="48.83307" lon="2.36275">
        <ele>108.5</ele>
        <time>2015-02-09T21:07:11.424Z</time>
      </trkpt>
      <trkpt lat="48.83309" lon="2.36285">
        <ele>108</ele>
        <time>2015-02-09T21:07:13.458Z</time>
      </trkpt>
      <trkpt lat="48.83309" lon="2.36291">
        <ele>108.2</ele>
        <time>2015-02-09T21:07:14.469Z</time>
      </trkpt>
      <trkpt lat="48.83308" lon="2.36304">
        <ele>108.3</ele>
        <time>2015-02-09T21:07:16.419Z</time>
      </trkpt>
      <trkpt lat="48.83309" lon="2.36311">
        <ele>108.4</ele>
        <time>2015-02-09T21:07:17.427Z</time>
      </trkpt>
      <trkpt lat="48.8331" lon="2.36317">
        <ele>108.6</ele>
        <time>2015-02-09T21:07:18.438Z</time>
      </trkpt>
      <trkpt lat="48.83311" lon="2.36324">
        <ele>108.9</ele>
        <time>2015-02-09T21:07:19.514Z</time>
      </trkpt>
      <trkpt lat="48.83311" lon="2.36331">
        <ele>108.9</ele>
        <time>2015-02-09T21:07:20.463Z</time>
      </trkpt>
      <trkpt lat="48.83314" lon="2.36338">
        <ele>108.3</ele>
        <time>2015-02-09T21:07:21.508Z</time>
      </trkpt>
      <trkpt lat="48.83317" lon="2.36344">
        <ele>107.6</ele>
        <time>2015-02-09T21:07:22.406Z</time>
      </trkpt>
      <trkpt lat="48.8332" lon="2.3635">
        <ele>106.9</ele>
        <time>2015-02-09T21:07:23.410Z</time>
      </trkpt>
      <trkpt lat="48.83324" lon="2.36355">
        <ele>106.3</ele>
        <time>2015-02-09T21:07:24.459Z</time>
      </trkpt>
      <trkpt lat="48.83328" lon="2.36361">
        <ele>105.6</ele>
        <time>2015-02-09T21:07:25.470Z</time>
      </trkpt>
      <trkpt lat="48.83333" lon="2.36372">
        <ele>105.7</ele>
        <time>2015-02-09T21:07:27.478Z</time>
      </trkpt>
      <trkpt lat="48.83335" lon="2.36378">
        <ele>105.9</ele>
        <time>2015-02-09T21:07:28.422Z</time>
      </trkpt>
      <trkpt lat="48.83339" lon="2.36389">
        <ele>106.2</ele>
        <time>2015-02-09T21:07:30.460Z</time>
      </trkpt>
      <trkpt lat="48.83341" lon="2.36395">
        <ele>106.1</ele>
        <time>2015-02-09T21:07:31.457Z</time>
      </trkpt>
      <trkpt lat="48.83344" lon="2.36407">
        <ele>106</ele>
        <time>2015-02-09T21:07:33.419Z</time>
      </trkpt>
      <trkpt lat="48.83344" lon="2.36415">
        <ele>106.1</ele>
        <time>2015-02-09T21:07:34.421Z</time>
      </trkpt>
      <trkpt lat="48.83344" lon="2.36422">
        <ele>106.1</ele>
        <time>2015-02-09T21:07:35.439Z</time>
      </trkpt>
      <trkpt lat="48.83343" lon="2.36429">
        <ele>106.1</ele>
        <time>2015-02-09T21:07:36.449Z</time>
      </trkpt>
      <trkpt lat="48.83344" lon="2.36436">
        <ele>106</ele>
        <time>2015-02-09T21:07:37.492Z</time>
      </trkpt>
      <trkpt lat="48.83346" lon="2.36442">
        <ele>106.3</ele>
        <time>2015-02-09T21:07:38.419Z</time>
      </trkpt>
      <trkpt lat="48.83349" lon="2.36448">
        <ele>106.4</ele>
        <time>2015-02-09T21:07:39.418Z</time>
      </trkpt>
      <trkpt lat="48.83351" lon="2.36454">
        <ele>106.1</ele>
        <time>2015-02-09T21:07:40.398Z</time>
      </trkpt>
      <trkpt lat="48.83353" lon="2.36467">
        <ele>106.1</ele>
        <time>2015-02-09T21:07:42.427Z</time>
      </trkpt>
      <trkpt lat="48.83356" lon="2.36473">
        <ele>106.3</ele>
        <time>2015-02-09T21:07:43.511Z</time>
      </trkpt>
      <trkpt lat="48.83357" lon="2.3648">
        <ele>106.4</ele>
        <time>2015-02-09T21:07:44.480Z</time>
      </trkpt>
      <trkpt lat="48.8336" lon="2.36487">
        <ele>106.6</ele>
        <time>2015-02-09T21:07:45.484Z</time>
      </trkpt>
      <trkpt lat="48.83362" lon="2.36493">
        <ele>106.3</ele>
        <time>2015-02-09T21:07:46.505Z</time>
      </trkpt>
      <trkpt lat="48.83365" lon="2.365">
        <ele>105.9</ele>
        <time>2015-02-09T21:07:47.418Z</time>
      </trkpt>
      <trkpt lat="48.83367" lon="2.36507">
        <ele>106</ele>
        <time>2015-02-09T21:07:48.428Z</time>
      </trkpt>
      <trkpt lat="48.83371" lon="2.36513">
        <ele>105.8</ele>
        <time>2015-02-09T21:07:49.451Z</time>
      </trkpt>
      <trkpt lat="48.83375" lon="2.36519">
        <ele>106.1</ele>
        <time>2015-02-09T21:07:50.456Z</time>
      </trkpt>
      <trkpt lat="48.83378" lon="2.36525">
        <ele>106</ele>
        <time>2015-02-09T21:07:51.460Z</time>
      </trkpt>
      <trkpt lat="48.8338" lon="2.36531">
        <ele>105.7</ele>
        <time>2015-02-09T21:07:52.545Z</time>
      </trkpt>
      <trkpt lat="48.83384" lon="2.36538">
        <ele>105.8</ele>
        <time>2015-02-09T21:07:53.422Z</time>
      </trkpt>
      <trkpt lat="48.83388" lon="2.36545">
        <ele>105.5</ele>
        <time>2015-02-09T21:07:54.495Z</time>
      </trkpt>
      <trkpt lat="48.8339" lon="2.36553">
        <ele>105.5</ele>
        <time>2015-02-09T21:07:55.508Z</time>
      </trkpt>
      <trkpt lat="48.83393" lon="2.36561">
        <ele>105.2</ele>
        <time>2015-02-09T21:07:56.405Z</time>
      </trkpt>
      <trkpt lat="48.83397" lon="2.36569">
        <ele>104.7</ele>
        <time>2015-02-09T21:07:57.407Z</time>
      </trkpt>
      <trkpt lat="48.83403" lon="2.36576">
        <ele>103.4</ele>
        <time>2015-02-09T21:07:58.419Z</time>
      </trkpt>
      <trkpt lat="48.83407" lon="2.36583">
        <ele>102.1</ele>
        <time>2015-02-09T21:07:59.435Z</time>
      </trkpt>
      <trkpt lat="48.8341" lon="2.3659">
        <ele>102</ele>
        <time>2015-02-09T21:08:00.544Z</time>
      </trkpt>
      <trkpt lat="48.83412" lon="2.36598">
        <ele>101.7</ele>
        <time>2015-02-09T21:08:01.520Z</time>
      </trkpt>
      <trkpt lat="48.83415" lon="2.36606">
        <ele>101.5</ele>
        <time>2015-02-09T21:08:02.408Z</time>
      </trkpt>
      <trkpt lat="48.83418" lon="2.36613">
        <ele>101.2</ele>
        <time>2015-02-09T21:08:03.414Z</time>
      </trkpt>
      <trkpt lat="48.83421" lon="2.3662">
        <ele>100.9</ele>
        <time>2015-02-09T21:08:04.434Z</time>
      </trkpt>
      <trkpt lat="48.83424" lon="2.36627">
        <ele>100.8</ele>
        <time>2015-02-09T21:08:05.445Z</time>
      </trkpt>
      <trkpt lat="48.83427" lon="2.36634">
        <ele>100.2</ele>
        <time>2015-02-09T21:08:06.459Z</time>
      </trkpt>
      <trkpt lat="48.8343" lon="2.36641">
        <ele>100</ele>
        <time>2015-02-09T21:08:07.467Z</time>
      </trkpt>
      <trkpt lat="48.83433" lon="2.36648">
        <ele>99.8</ele>
        <time>2015-02-09T21:08:08.484Z</time>
      </trkpt>
      <trkpt lat="48.83435" lon="2.36655">
        <ele>99.7</ele>
        <time>2015-02-09T21:08:09.498Z</time>
      </trkpt>
      <trkpt lat="48.83437" lon="2.36662">
        <ele>99.6</ele>
        <time>2015-02-09T21:08:10.419Z</time>
      </trkpt>
      <trkpt lat="48.83439" lon="2.36668">
        <ele>99.7</ele>
        <time>2015-02-09T21:08:11.406Z</time>
      </trkpt>
      <trkpt lat="48.83442" lon="2.36676">
        <ele>99.5</ele>
        <time>2015-02-09T21:08:13.448Z</time>
      </trkpt>
      <trkpt lat="48.83444" lon="2.36681">
        <ele>99.3</ele>
        <time>2015-02-09T21:08:14.455Z</time>
      </trkpt>
      <trkpt lat="48.83449" lon="2.36692">
        <ele>99.6</ele>
        <time>2015-02-09T21:08:16.490Z</time>
      </trkpt>
      <trkpt lat="48.83451" lon="2.36699">
        <ele>100.3</ele>
        <time>2015-02-09T21:08:17.419Z</time>
      </trkpt>
      <trkpt lat="48.83454" lon="2.36705">
        <ele>100.8</ele>
        <time>2015-02-09T21:08:18.429Z</time>
      </trkpt>
      <trkpt lat="48.83457" lon="2.36712">
        <ele>101.1</ele>
        <time>2015-02-09T21:08:19.448Z</time>
      </trkpt>
      <trkpt lat="48.8346" lon="2.36719">
        <ele>101.2</ele>
        <time>2015-02-09T21:08:20.453Z</time>
      </trkpt>
      <trkpt lat="48.83462" lon="2.36725">
        <ele>101.9</ele>
        <time>2015-02-09T21:08:21.461Z</time>
      </trkpt>
      <trkpt lat="48.83465" lon="2.36732">
        <ele>102.6</ele>
        <time>2015-02-09T21:08:22.468Z</time>
      </trkpt>
      <trkpt lat="48.83468" lon="2.36737">
        <ele>103.2</ele>
        <time>2015-02-09T21:08:23.479Z</time>
      </trkpt>
      <trkpt lat="48.83471" lon="2.36745">
        <ele>103.3</ele>
        <time>2015-02-09T21:08:24.408Z</time>
      </trkpt>
      <trkpt lat="48.83472" lon="2.36752">
        <ele>103.5</ele>
        <time>2015-02-09T21:08:25.447Z</time>
      </trkpt>
      <trkpt lat="48.83473" lon="2.3676">
        <ele>103.9</ele>
        <time>2015-02-09T21:08:26.451Z</time>
      </trkpt>
      <trkpt lat="48.83474" lon="2.36768">
        <ele>103.9</ele>
        <time>2015-02-09T21:08:27.458Z</time>
      </trkpt>
      <trkpt lat="48.83477" lon="2.36777">
        <ele>104.4</ele>
        <time>2015-02-09T21:08:28.463Z</time>
      </trkpt>
      <trkpt lat="48.83479" lon="2.36785">
        <ele>104.9</ele>
        <time>2015-02-09T21:08:29.469Z</time>
      </trkpt>
      <trkpt lat="48.83482" lon="2.36793">
        <ele>105.3</ele>
        <time>2015-02-09T21:08:30.491Z</time>
      </trkpt>
      <trkpt lat="48.83485" lon="2.368">
        <ele>105.6</ele>
        <time>2015-02-09T21:08:31.498Z</time>
      </trkpt>
      <trkpt lat="48.83488" lon="2.36808">
        <ele>106.1</ele>
        <time>2015-02-09T21:08:32.398Z</time>
      </trkpt>
      <trkpt lat="48.83491" lon="2.36815">
        <ele>106.8</ele>
        <time>2015-02-09T21:08:33.435Z</time>
      </trkpt>
      <trkpt lat="48.83493" lon="2.36823">
        <ele>106.8</ele>
        <time>2015-02-09T21:08:34.445Z</time>
      </trkpt>
      <trkpt lat="48.83496" lon="2.3683">
        <ele>107.1</ele>
        <time>2015-02-09T21:08:35.473Z</time>
      </trkpt>
      <trkpt lat="48.83498" lon="2.36838">
        <ele>106.9</ele>
        <time>2015-02-09T21:08:36.485Z</time>
      </trkpt>
      <trkpt lat="48.83498" lon="2.36846">
        <ele>106.6</ele>
        <time>2015-02-09T21:08:37.502Z</time>
      </trkpt>
      <trkpt lat="48.83498" lon="2.36854">
        <ele>106.6</ele>
        <time>2015-02-09T21:08:38.503Z</time>
      </trkpt>
      <trkpt lat="48.83498" lon="2.36862">
        <ele>106.6</ele>
        <time>2015-02-09T21:08:39.412Z</time>
      </trkpt>
      <trkpt lat="48.835" lon="2.3687">
        <ele>106.5</ele>
        <time>2015-02-09T21:08:40.448Z</time>
      </trkpt>
      <trkpt lat="48.83503" lon="2.36877">
        <ele>106.6</ele>
        <time>2015-02-09T21:08:41.465Z</time>
      </trkpt>
      <trkpt lat="48.83506" lon="2.36883">
        <ele>106.6</ele>
        <time>2015-02-09T21:08:42.389Z</time>
      </trkpt>
      <trkpt lat="48.83508" lon="2.3689">
        <ele>106.6</ele>
        <time>2015-02-09T21:08:43.441Z</time>
      </trkpt>
      <trkpt lat="48.83511" lon="2.36897">
        <ele>106.7</ele>
        <time>2015-02-09T21:08:44.454Z</time>
      </trkpt>
      <trkpt lat="48.83512" lon="2.36906">
        <ele>107.3</ele>
        <time>2015-02-09T21:08:45.461Z</time>
      </trkpt>
      <trkpt lat="48.83513" lon="2.36913">
        <ele>107.4</ele>
        <time>2015-02-09T21:08:46.467Z</time>
      </trkpt>
      <trkpt lat="48.83515" lon="2.3692">
        <ele>107.4</ele>
        <time>2015-02-09T21:08:47.477Z</time>
      </trkpt>
      <trkpt lat="48.83517" lon="2.36927">
        <ele>107.5</ele>
        <time>2015-02-09T21:08:48.497Z</time>
      </trkpt>
      <trkpt lat="48.83519" lon="2.36933">
        <ele>107.3</ele>
        <time>2015-02-09T21:08:49.467Z</time>
      </trkpt>
      <trkpt lat="48.83519" lon="2.36941">
        <ele>107.6</ele>
        <time>2015-02-09T21:08:50.410Z</time>
      </trkpt>
      <trkpt lat="48.83521" lon="2.36949">
        <ele>107.5</ele>
        <time>2015-02-09T21:08:51.427Z</time>
      </trkpt>
      <trkpt lat="48.83524" lon="2.36956">
        <ele>107.4</ele>
        <time>2015-02-09T21:08:52.459Z</time>
      </trkpt>
      <trkpt lat="48.83533" lon="2.36961">
        <ele>106.4</ele>
        <time>2015-02-09T21:08:53.471Z</time>
      </trkpt>
      <trkpt lat="48.83539" lon="2.36968">
        <ele>106.3</ele>
        <time>2015-02-09T21:08:54.409Z</time>
      </trkpt>
      <trkpt lat="48.83545" lon="2.36974">
        <ele>105.9</ele>
        <time>2015-02-09T21:08:55.442Z</time>
      </trkpt>
      <trkpt lat="48.8355" lon="2.36979">
        <ele>105.6</ele>
        <time>2015-02-09T21:08:56.450Z</time>
      </trkpt>
      <trkpt lat="48.83555" lon="2.36984">
        <ele>105.4</ele>
        <time>2015-02-09T21:08:57.462Z</time>
      </trkpt>
      <trkpt lat="48.83558" lon="2.3699">
        <ele>105.3</ele>
        <time>2015-02-09T21:08:58.478Z</time>
      </trkpt>
      <trkpt lat="48.83561" lon="2.36995">
        <ele>105.4</ele>
        <time>2015-02-09T21:08:59.495Z</time>
      </trkpt>
      <trkpt lat="48.83567" lon="2.37005">
        <ele>105.3</ele>
        <time>2015-02-09T21:09:01.487Z</time>
      </trkpt>
      <trkpt lat="48.8357" lon="2.37011">
        <ele>105.2</ele>
        <time>2015-02-09T21:09:02.487Z</time>
      </trkpt>
      <trkpt lat="48.83574" lon="2.37015">
        <ele>105</ele>
        <time>2015-02-09T21:09:03.403Z</time>
      </trkpt>
      <trkpt lat="48.83579" lon="2.37018">
        <ele>105.1</ele>
        <time>2015-02-09T21:09:04.406Z</time>
      </trkpt>
      <trkpt lat="48.83582" lon="2.37023">
        <ele>105.4</ele>
        <time>2015-02-09T21:09:05.410Z</time>
      </trkpt>
      <trkpt lat="48.83585" lon="2.37028">
        <ele>105.5</ele>
        <time>2015-02-09T21:09:06.420Z</time>
      </trkpt>
      <trkpt lat="48.8359" lon="2.37039">
        <ele>105.3</ele>
        <time>2015-02-09T21:09:08.440Z</time>
      </trkpt>
      <trkpt lat="48.83594" lon="2.37043">
        <ele>105.9</ele>
        <time>2015-02-09T21:09:09.453Z</time>
      </trkpt>
      <trkpt lat="48.83598" lon="2.37051">
        <ele>105.6</ele>
        <time>2015-02-09T21:09:11.498Z</time>
      </trkpt>
      <trkpt lat="48.83599" lon="2.37056">
        <ele>104.8</ele>
        <time>2015-02-09T21:09:12.528Z</time>
      </trkpt>
      <trkpt lat="48.83601" lon="2.37067">
        <ele>104.2</ele>
        <time>2015-02-09T21:09:14.450Z</time>
      </trkpt>
      <trkpt lat="48.83601" lon="2.37074">
        <ele>104</ele>
        <time>2015-02-09T21:09:15.469Z</time>
      </trkpt>
      <trkpt lat="48.83603" lon="2.37084">
        <ele>103.8</ele>
        <time>2015-02-09T21:09:17.409Z</time>
      </trkpt>
      <trkpt lat="48.83604" lon="2.37089">
        <ele>103.6</ele>
        <time>2015-02-09T21:09:18.415Z</time>
      </trkpt>
      <trkpt lat="48.83607" lon="2.37101">
        <ele>102.6</ele>
        <time>2015-02-09T21:09:22.391Z</time>
      </trkpt>
      <trkpt lat="48.83608" lon="2.37105">
        <ele>102.1</ele>
        <time>2015-02-09T21:09:22.495Z</time>
      </trkpt>
      <trkpt lat="48.83612" lon="2.37114">
        <ele>100.9</ele>
        <time>2015-02-09T21:09:25.484Z</time>
      </trkpt>
      <trkpt lat="48.83614" lon="2.37118">
        <ele>100.5</ele>
        <time>2015-02-09T21:09:26.414Z</time>
      </trkpt>
      <trkpt lat="48.83618" lon="2.37127">
        <ele>99.2</ele>
        <time>2015-02-09T21:09:30.480Z</time>
      </trkpt>
      <trkpt lat="48.8362" lon="2.3713">
        <ele>98.9</ele>
        <time>2015-02-09T21:09:30.526Z</time>
      </trkpt>
      <trkpt lat="48.83623" lon="2.3714">
        <ele>98.1</ele>
        <time>2015-02-09T21:09:33.382Z</time>
      </trkpt>
      <trkpt lat="48.83624" lon="2.37144">
        <ele>98.1</ele>
        <time>2015-02-09T21:09:34.414Z</time>
      </trkpt>
      <trkpt lat="48.8363" lon="2.37151">
        <ele>97.5</ele>
        <time>2015-02-09T21:09:38.432Z</time>
      </trkpt>
      <trkpt lat="48.83633" lon="2.37152">
        <ele>97.1</ele>
        <time>2015-02-09T21:09:38.479Z</time>
      </trkpt>
      <trkpt lat="48.83641" lon="2.37147">
        <ele>95.9</ele>
        <time>2015-02-09T21:09:41.445Z</time>
      </trkpt>
      <trkpt lat="48.83643" lon="2.37145">
        <ele>95.5</ele>
        <time>2015-02-09T21:09:42.467Z</time>
      </trkpt>
      <trkpt lat="48.83649" lon="2.37137">
        <ele>94.7</ele>
        <time>2015-02-09T21:09:45.447Z</time>
      </trkpt>
      <trkpt lat="48.8365" lon="2.37134">
        <ele>94.8</ele>
        <time>2015-02-09T21:09:46.471Z</time>
      </trkpt>
      <trkpt lat="48.83656" lon="2.37128">
        <ele>95</ele>
        <time>2015-02-09T21:09:49.482Z</time>
      </trkpt>
      <trkpt lat="48.83658" lon="2.37126">
        <ele>94.8</ele>
        <time>2015-02-09T21:09:50.498Z</time>
      </trkpt>
      <trkpt lat="48.83665" lon="2.37118">
        <ele>94.5</ele>
        <time>2015-02-09T21:09:53.584Z</time>
      </trkpt>
      <trkpt lat="48.83667" lon="2.37115">
        <ele>94.5</ele>
        <time>2015-02-09T21:09:54.447Z</time>
      </trkpt>
      <trkpt lat="48.83672" lon="2.37109">
        <ele>94.3</ele>
        <time>2015-02-09T21:09:56.501Z</time>
      </trkpt>
      <trkpt lat="48.83675" lon="2.37106">
        <ele>94.1</ele>
        <time>2015-02-09T21:09:57.514Z</time>
      </trkpt>
      <trkpt lat="48.83681" lon="2.37103">
        <ele>93.9</ele>
        <time>2015-02-09T21:09:59.412Z</time>
      </trkpt>
      <trkpt lat="48.83684" lon="2.37102">
        <ele>93.8</ele>
        <time>2015-02-09T21:10:00.421Z</time>
      </trkpt>
      <trkpt lat="48.83691" lon="2.37098">
        <ele>93.8</ele>
        <time>2015-02-09T21:10:02.459Z</time>
      </trkpt>
      <trkpt lat="48.83694" lon="2.37097">
        <ele>94</ele>
        <time>2015-02-09T21:10:03.469Z</time>
      </trkpt>
      <trkpt lat="48.83701" lon="2.37094">
        <ele>93.9</ele>
        <time>2015-02-09T21:10:05.488Z</time>
      </trkpt>
      <trkpt lat="48.83704" lon="2.37093">
        <ele>93.7</ele>
        <time>2015-02-09T21:10:06.505Z</time>
      </trkpt>
      <trkpt lat="48.83711" lon="2.37092">
        <ele>92.8</ele>
        <time>2015-02-09T21:10:08.905Z</time>
      </trkpt>
      <trkpt lat="48.83715" lon="2.3709">
        <ele>92.3</ele>
        <time>2015-02-09T21:10:09.443Z</time>
      </trkpt>
      <trkpt lat="48.83722" lon="2.37088">
        <ele>91.6</ele>
        <time>2015-02-09T21:10:11.464Z</time>
      </trkpt>
      <trkpt lat="48.83726" lon="2.37085">
        <ele>91.6</ele>
        <time>2015-02-09T21:10:12.474Z</time>
      </trkpt>
      <trkpt lat="48.83734" lon="2.37084">
        <ele>92.1</ele>
        <time>2015-02-09T21:10:14.410Z</time>
      </trkpt>
      <trkpt lat="48.83762" lon="2.37072">
        <ele>91.8</ele>
        <time>2015-02-09T21:10:21.495Z</time>
      </trkpt>
      <trkpt lat="48.8377" lon="2.37071">
        <ele>91.9</ele>
        <time>2015-02-09T21:10:23.421Z</time>
      </trkpt>
      <trkpt lat="48.83774" lon="2.37071">
        <ele>91.6</ele>
        <time>2015-02-09T21:10:24.420Z</time>
      </trkpt>
      <trkpt lat="48.83782" lon="2.37067">
        <ele>91.5</ele>
        <time>2015-02-09T21:10:26.446Z</time>
      </trkpt>
      <trkpt lat="48.83786" lon="2.37067">
        <ele>91.1</ele>
        <time>2015-02-09T21:10:27.471Z</time>
      </trkpt>
      <trkpt lat="48.83793" lon="2.37063">
        <ele>90.8</ele>
        <time>2015-02-09T21:10:29.413Z</time>
      </trkpt>
      <trkpt lat="48.83797" lon="2.3706">
        <ele>91</ele>
        <time>2015-02-09T21:10:30.443Z</time>
      </trkpt>
      <trkpt lat="48.83805" lon="2.37057">
        <ele>91.3</ele>
        <time>2015-02-09T21:10:33.286Z</time>
      </trkpt>
      <trkpt lat="48.83808" lon="2.37055">
        <ele>91.1</ele>
        <time>2015-02-09T21:10:33.388Z</time>
      </trkpt>
      <trkpt lat="48.83816" lon="2.37051">
        <ele>90.7</ele>
        <time>2015-02-09T21:10:35.412Z</time>
      </trkpt>
      <trkpt lat="48.8382" lon="2.37049">
        <ele>90.5</ele>
        <time>2015-02-09T21:10:36.440Z</time>
      </trkpt>
      <trkpt lat="48.83828" lon="2.37046">
        <ele>91.3</ele>
        <time>2015-02-09T21:10:38.471Z</time>
      </trkpt>
      <trkpt lat="48.83831" lon="2.37045">
        <ele>91.4</ele>
        <time>2015-02-09T21:10:39.486Z</time>
      </trkpt>
      <trkpt lat="48.83838" lon="2.37042">
        <ele>91.7</ele>
        <time>2015-02-09T21:10:41.606Z</time>
      </trkpt>
      <trkpt lat="48.83841" lon="2.37041">
        <ele>91.9</ele>
        <time>2015-02-09T21:10:42.407Z</time>
      </trkpt>
      <trkpt lat="48.83848" lon="2.37037">
        <ele>91.8</ele>
        <time>2015-02-09T21:10:44.425Z</time>
      </trkpt>
      <trkpt lat="48.83852" lon="2.37035">
        <ele>91.8</ele>
        <time>2015-02-09T21:10:45.437Z</time>
      </trkpt>
      <trkpt lat="48.83859" lon="2.37031">
        <ele>92.2</ele>
        <time>2015-02-09T21:10:48.517Z</time>
      </trkpt>
      <trkpt lat="48.83863" lon="2.37028">
        <ele>92.3</ele>
        <time>2015-02-09T21:10:48.562Z</time>
      </trkpt>
      <trkpt lat="48.83872" lon="2.37023">
        <ele>92.2</ele>
        <time>2015-02-09T21:10:50.428Z</time>
      </trkpt>
      <trkpt lat="48.83875" lon="2.37021">
        <ele>91.7</ele>
        <time>2015-02-09T21:10:51.436Z</time>
      </trkpt>
      <trkpt lat="48.83883" lon="2.37015">
        <ele>91.8</ele>
        <time>2015-02-09T21:10:53.622Z</time>
      </trkpt>
      <trkpt lat="48.83887" lon="2.37012">
        <ele>91.6</ele>
        <time>2015-02-09T21:10:54.527Z</time>
      </trkpt>
      <trkpt lat="48.83891" lon="2.37008">
        <ele>92.1</ele>
        <time>2015-02-09T21:10:55.452Z</time>
      </trkpt>
      <trkpt lat="48.83894" lon="2.37003">
        <ele>92.8</ele>
        <time>2015-02-09T21:10:56.456Z</time>
      </trkpt>
      <trkpt lat="48.83901" lon="2.36997">
        <ele>93</ele>
        <time>2015-02-09T21:10:58.613Z</time>
      </trkpt>
      <trkpt lat="48.83905" lon="2.36993">
        <ele>93.1</ele>
        <time>2015-02-09T21:10:59.411Z</time>
      </trkpt>
      <trkpt lat="48.83921" lon="2.3698">
        <ele>93.2</ele>
        <time>2015-02-09T21:11:03.472Z</time>
      </trkpt>
      <trkpt lat="48.83925" lon="2.36976">
        <ele>93.2</ele>
        <time>2015-02-09T21:11:04.500Z</time>
      </trkpt>
      <trkpt lat="48.83929" lon="2.36973">
        <ele>93.3</ele>
        <time>2015-02-09T21:11:05.393Z</time>
      </trkpt>
      <trkpt lat="48.83933" lon="2.3697">
        <ele>93</ele>
        <time>2015-02-09T21:11:06.411Z</time>
      </trkpt>
      <trkpt lat="48.83937" lon="2.36967">
        <ele>93</ele>
        <time>2015-02-09T21:11:07.428Z</time>
      </trkpt>
      <trkpt lat="48.83946" lon="2.36962">
        <ele>92.4</ele>
        <time>2015-02-09T21:11:09.497Z</time>
      </trkpt>
      <trkpt lat="48.8395" lon="2.3696">
        <ele>92.5</ele>
        <time>2015-02-09T21:11:10.413Z</time>
      </trkpt>
      <trkpt lat="48.83954" lon="2.36956">
        <ele>92.3</ele>
        <time>2015-02-09T21:11:11.434Z</time>
      </trkpt>
      <trkpt lat="48.83958" lon="2.36953">
        <ele>92.6</ele>
        <time>2015-02-09T21:11:12.448Z</time>
      </trkpt>
      <trkpt lat="48.83963" lon="2.36949">
        <ele>92.5</ele>
        <time>2015-02-09T21:11:13.507Z</time>
      </trkpt>
      <trkpt lat="48.83967" lon="2.36946">
        <ele>92.5</ele>
        <time>2015-02-09T21:11:14.403Z</time>
      </trkpt>
      <trkpt lat="48.83975" lon="2.36939">
        <ele>92.6</ele>
        <time>2015-02-09T21:11:16.424Z</time>
      </trkpt>
      <trkpt lat="48.84006" lon="2.36915">
        <ele>92.3</ele>
        <time>2015-02-09T21:11:24.488Z</time>
      </trkpt>
      <trkpt lat="48.8401" lon="2.36911">
        <ele>92.2</ele>
        <time>2015-02-09T21:11:25.506Z</time>
      </trkpt>
      <trkpt lat="48.84014" lon="2.36908">
        <ele>92.1</ele>
        <time>2015-02-09T21:11:26.408Z</time>
      </trkpt>
      <trkpt lat="48.84022" lon="2.369">
        <ele>92.7</ele>
        <time>2015-02-09T21:11:28.442Z</time>
      </trkpt>
      <trkpt lat="48.84026" lon="2.36897">
        <ele>92.7</ele>
        <time>2015-02-09T21:11:29.445Z</time>
      </trkpt>
      <trkpt lat="48.8403" lon="2.36892">
        <ele>93.3</ele>
        <time>2015-02-09T21:11:30.451Z</time>
      </trkpt>
      <trkpt lat="48.84038" lon="2.36885">
        <ele>94</ele>
        <time>2015-02-09T21:11:32.478Z</time>
      </trkpt>
      <trkpt lat="48.84042" lon="2.36882">
        <ele>93.9</ele>
        <time>2015-02-09T21:11:33.491Z</time>
      </trkpt>
      <trkpt lat="48.84049" lon="2.36876">
        <ele>93.3</ele>
        <time>2015-02-09T21:11:35.419Z</time>
      </trkpt>
      <trkpt lat="48.84053" lon="2.36873">
        <ele>93.2</ele>
        <time>2015-02-09T21:11:36.435Z</time>
      </trkpt>
      <trkpt lat="48.8406" lon="2.36865">
        <ele>93.6</ele>
        <time>2015-02-09T21:11:38.467Z</time>
      </trkpt>
      <trkpt lat="48.84064" lon="2.36861">
        <ele>93.6</ele>
        <time>2015-02-09T21:11:39.381Z</time>
      </trkpt>
      <trkpt lat="48.84071" lon="2.36855">
        <ele>93.8</ele>
        <time>2015-02-09T21:11:41.430Z</time>
      </trkpt>
      <trkpt lat="48.84075" lon="2.36852">
        <ele>93.6</ele>
        <time>2015-02-09T21:11:42.435Z</time>
      </trkpt>
      <trkpt lat="48.84128" lon="2.36808">
        <ele>92.8</ele>
        <time>2015-02-09T21:11:55.430Z</time>
      </trkpt>
      <trkpt lat="48.84133" lon="2.36804">
        <ele>92.8</ele>
        <time>2015-02-09T21:11:56.445Z</time>
      </trkpt>
      <trkpt lat="48.84137" lon="2.368">
        <ele>92.8</ele>
        <time>2015-02-09T21:11:57.456Z</time>
      </trkpt>
      <trkpt lat="48.84142" lon="2.36796">
        <ele>92.9</ele>
        <time>2015-02-09T21:11:58.482Z</time>
      </trkpt>
      <trkpt lat="48.84147" lon="2.36792">
        <ele>92.6</ele>
        <time>2015-02-09T21:11:59.497Z</time>
      </trkpt>
      <trkpt lat="48.84151" lon="2.36788">
        <ele>92.4</ele>
        <time>2015-02-09T21:12:00.379Z</time>
      </trkpt>
      <trkpt lat="48.84155" lon="2.36784">
        <ele>92.4</ele>
        <time>2015-02-09T21:12:01.419Z</time>
      </trkpt>
      <trkpt lat="48.84163" lon="2.36777">
        <ele>92.5</ele>
        <time>2015-02-09T21:12:03.382Z</time>
      </trkpt>
      <trkpt lat="48.84166" lon="2.36775">
        <ele>92.4</ele>
        <time>2015-02-09T21:12:04.425Z</time>
      </trkpt>
      <trkpt lat="48.84174" lon="2.3677">
        <ele>93</ele>
        <time>2015-02-09T21:12:06.455Z</time>
      </trkpt>
      <trkpt lat="48.84177" lon="2.36767">
        <ele>95</ele>
        <time>2015-02-09T21:12:07.465Z</time>
      </trkpt>
      <trkpt lat="48.84185" lon="2.36773">
        <ele>93.9</ele>
        <time>2015-02-09T21:12:09.392Z</time>
      </trkpt>
      <trkpt lat="48.84188" lon="2.36775">
        <ele>93.1</ele>
        <time>2015-02-09T21:12:10.457Z</time>
      </trkpt>
      <trkpt lat="48.84195" lon="2.36779">
        <ele>91.4</ele>
        <time>2015-02-09T21:12:12.396Z</time>
      </trkpt>
      <trkpt lat="48.84198" lon="2.3678">
        <ele>91.1</ele>
        <time>2015-02-09T21:12:13.448Z</time>
      </trkpt>
      <trkpt lat="48.84205" lon="2.36772">
        <ele>90.3</ele>
        <time>2015-02-09T21:12:17.414Z</time>
      </trkpt>
      <trkpt lat="48.84206" lon="2.3677">
        <ele>90.1</ele>
        <time>2015-02-09T21:12:18.427Z</time>
      </trkpt>
      <trkpt lat="48.84212" lon="2.36761">
        <ele>89.2</ele>
        <time>2015-02-09T21:12:21.415Z</time>
      </trkpt>
      <trkpt lat="48.84214" lon="2.36758">
        <ele>88.6</ele>
        <time>2015-02-09T21:12:22.415Z</time>
      </trkpt>
      <trkpt lat="48.84218" lon="2.36752">
        <ele>87.6</ele>
        <time>2015-02-09T21:12:24.403Z</time>
      </trkpt>
      <trkpt lat="48.84221" lon="2.36748">
        <ele>87.6</ele>
        <time>2015-02-09T21:12:25.539Z</time>
      </trkpt>
      <trkpt lat="48.84226" lon="2.3674">
        <ele>86.8</ele>
        <time>2015-02-09T21:12:27.401Z</time>
      </trkpt>
      <trkpt lat="48.84229" lon="2.36735">
        <ele>86.6</ele>
        <time>2015-02-09T21:12:28.410Z</time>
      </trkpt>
      <trkpt lat="48.84233" lon="2.3673">
        <ele>86.3</ele>
        <time>2015-02-09T21:12:29.423Z</time>
      </trkpt>
      <trkpt lat="48.84236" lon="2.36726">
        <ele>85.7</ele>
        <time>2015-02-09T21:12:30.439Z</time>
      </trkpt>
      <trkpt lat="48.84239" lon="2.36721">
        <ele>85.5</ele>
        <time>2015-02-09T21:12:31.461Z</time>
      </trkpt>
      <trkpt lat="48.84243" lon="2.36715">
        <ele>84.1</ele>
        <time>2015-02-09T21:12:32.485Z</time>
      </trkpt>
      <trkpt lat="48.84246" lon="2.36709">
        <ele>82.8</ele>
        <time>2015-02-09T21:12:33.408Z</time>
      </trkpt>
      <trkpt lat="48.8425" lon="2.36702">
        <ele>81.9</ele>
        <time>2015-02-09T21:12:34.403Z</time>
      </trkpt>
      <trkpt lat="48.84253" lon="2.36696">
        <ele>80.9</ele>
        <time>2015-02-09T21:12:35.415Z</time>
      </trkpt>
      <trkpt lat="48.84257" lon="2.3669">
        <ele>79.8</ele>
        <time>2015-02-09T21:12:36.467Z</time>
      </trkpt>
      <trkpt lat="48.8426" lon="2.36685">
        <ele>78.6</ele>
        <time>2015-02-09T21:12:37.488Z</time>
      </trkpt>
      <trkpt lat="48.84264" lon="2.3668">
        <ele>78.1</ele>
        <time>2015-02-09T21:12:38.501Z</time>
      </trkpt>
      <trkpt lat="48.84268" lon="2.36675">
        <ele>78.3</ele>
        <time>2015-02-09T21:12:39.412Z</time>
      </trkpt>
      <trkpt lat="48.84271" lon="2.36669">
        <ele>78.6</ele>
        <time>2015-02-09T21:12:40.408Z</time>
      </trkpt>
      <trkpt lat="48.84275" lon="2.36664">
        <ele>78.9</ele>
        <time>2015-02-09T21:12:41.414Z</time>
      </trkpt>
      <trkpt lat="48.84278" lon="2.3666">
        <ele>79</ele>
        <time>2015-02-09T21:12:42.429Z</time>
      </trkpt>
      <trkpt lat="48.84285" lon="2.36654">
        <ele>77.7</ele>
        <time>2015-02-09T21:12:44.448Z</time>
      </trkpt>
      <trkpt lat="48.84288" lon="2.3665">
        <ele>77.8</ele>
        <time>2015-02-09T21:12:45.388Z</time>
      </trkpt>
      <trkpt lat="48.84293" lon="2.36641">
        <ele>78.1</ele>
        <time>2015-02-09T21:12:47.455Z</time>
      </trkpt>
      <trkpt lat="48.84295" lon="2.36636">
        <ele>77.9</ele>
        <time>2015-02-09T21:12:48.504Z</time>
      </trkpt>
      <trkpt lat="48.84301" lon="2.36628">
        <ele>76.9</ele>
        <time>2015-02-09T21:12:50.459Z</time>
      </trkpt>
      <trkpt lat="48.84303" lon="2.36625">
        <ele>76.4</ele>
        <time>2015-02-09T21:12:51.482Z</time>
      </trkpt>
      <trkpt lat="48.84309" lon="2.3662">
        <ele>76.5</ele>
        <time>2015-02-09T21:12:53.411Z</time>
      </trkpt>
      <trkpt lat="48.84313" lon="2.36618">
        <ele>77.2</ele>
        <time>2015-02-09T21:12:54.419Z</time>
      </trkpt>
      <trkpt lat="48.8432" lon="2.36615">
        <ele>77.3</ele>
        <time>2015-02-09T21:12:56.473Z</time>
      </trkpt>
      <trkpt lat="48.84325" lon="2.36616">
        <ele>76.4</ele>
        <time>2015-02-09T21:12:57.479Z</time>
      </trkpt>
      <trkpt lat="48.84332" lon="2.36615">
        <ele>77.1</ele>
        <time>2015-02-09T21:12:59.405Z</time>
      </trkpt>
      <trkpt lat="48.84337" lon="2.36613">
        <ele>77.5</ele>
        <time>2015-02-09T21:13:00.493Z</time>
      </trkpt>
      <trkpt lat="48.84345" lon="2.36612">
        <ele>77.9</ele>
        <time>2015-02-09T21:13:02.398Z</time>
      </trkpt>
      <trkpt lat="48.84348" lon="2.36612">
        <ele>77.6</ele>
        <time>2015-02-09T21:13:03.415Z</time>
      </trkpt>
      <trkpt lat="48.84356" lon="2.36608">
        <ele>77.7</ele>
        <time>2015-02-09T21:13:06.543Z</time>
      </trkpt>
      <trkpt lat="48.84358" lon="2.36608">
        <ele>77.8</ele>
        <time>2015-02-09T21:13:07.436Z</time>
      </trkpt>
      <trkpt lat="48.84364" lon="2.36604">
        <ele>77.4</ele>
        <time>2015-02-09T21:13:10.477Z</time>
      </trkpt>
      <trkpt lat="48.84367" lon="2.36603">
        <ele>77</ele>
        <time>2015-02-09T21:13:11.503Z</time>
      </trkpt>
      <trkpt lat="48.84372" lon="2.36599">
        <ele>76.2</ele>
        <time>2015-02-09T21:13:12.410Z</time>
      </trkpt>
      <trkpt lat="48.84377" lon="2.36595">
        <ele>75.9</ele>
        <time>2015-02-09T21:13:13.465Z</time>
      </trkpt>
      <trkpt lat="48.84382" lon="2.3659">
        <ele>75.8</ele>
        <time>2015-02-09T21:13:14.461Z</time>
      </trkpt>
      <trkpt lat="48.84387" lon="2.36584">
        <ele>76</ele>
        <time>2015-02-09T21:13:15.468Z</time>
      </trkpt>
      <trkpt lat="48.84394" lon="2.36577">
        <ele>75.9</ele>
        <time>2015-02-09T21:13:16.382Z</time>
      </trkpt>
      <trkpt lat="48.844" lon="2.3657">
        <ele>75.4</ele>
        <time>2015-02-09T21:13:17.481Z</time>
      </trkpt>
      <trkpt lat="48.84406" lon="2.36564">
        <ele>75.3</ele>
        <time>2015-02-09T21:13:18.422Z</time>
      </trkpt>
      <trkpt lat="48.84413" lon="2.36557">
        <ele>74.5</ele>
        <time>2015-02-09T21:13:19.435Z</time>
      </trkpt>
      <trkpt lat="48.84419" lon="2.36551">
        <ele>74</ele>
        <time>2015-02-09T21:13:20.476Z</time>
      </trkpt>
      <trkpt lat="48.84423" lon="2.36546">
        <ele>74</ele>
        <time>2015-02-09T21:13:21.477Z</time>
      </trkpt>
      <trkpt lat="48.8443" lon="2.36539">
        <ele>74</ele>
        <time>2015-02-09T21:13:23.484Z</time>
      </trkpt>
      <trkpt lat="48.84434" lon="2.36535">
        <ele>74.1</ele>
        <time>2015-02-09T21:13:24.495Z</time>
      </trkpt>
      <trkpt lat="48.84454" lon="2.36512">
        <ele>74.1</ele>
        <time>2015-02-09T21:13:29.468Z</time>
      </trkpt>
      <trkpt lat="48.84459" lon="2.36505">
        <ele>74.3</ele>
        <time>2015-02-09T21:13:30.481Z</time>
      </trkpt>
      <trkpt lat="48.84463" lon="2.36497">
        <ele>74.4</ele>
        <time>2015-02-09T21:13:31.491Z</time>
      </trkpt>
      <trkpt lat="48.84468" lon="2.36489">
        <ele>73.8</ele>
        <time>2015-02-09T21:13:32.373Z</time>
      </trkpt>
      <trkpt lat="48.84472" lon="2.36483">
        <ele>73.9</ele>
        <time>2015-02-09T21:13:33.403Z</time>
      </trkpt>
      <trkpt lat="48.84475" lon="2.36476">
        <ele>74.1</ele>
        <time>2015-02-09T21:13:34.419Z</time>
      </trkpt>
      <trkpt lat="48.84478" lon="2.36469">
        <ele>74.9</ele>
        <time>2015-02-09T21:13:35.457Z</time>
      </trkpt>
      <trkpt lat="48.84482" lon="2.36459">
        <ele>76.1</ele>
        <time>2015-02-09T21:13:37.432Z</time>
      </trkpt>
      <trkpt lat="48.84484" lon="2.36453">
        <ele>76.5</ele>
        <time>2015-02-09T21:13:38.386Z</time>
      </trkpt>
      <trkpt lat="48.84485" lon="2.36444">
        <ele>76</ele>
        <time>2015-02-09T21:13:41.286Z</time>
      </trkpt>
      <trkpt lat="48.84486" lon="2.3644">
        <ele>75.2</ele>
        <time>2015-02-09T21:13:41.374Z</time>
      </trkpt>
      <trkpt lat="48.84487" lon="2.36429">
        <ele>77.1</ele>
        <time>2015-02-09T21:13:44.452Z</time>
      </trkpt>
      <trkpt lat="48.84487" lon="2.36424">
        <ele>79.3</ele>
        <time>2015-02-09T21:13:45.405Z</time>
      </trkpt>
      <trkpt lat="48.84486" lon="2.36412">
        <ele>79.9</ele>
        <time>2015-02-09T21:13:48.440Z</time>
      </trkpt>
      <trkpt lat="48.84486" lon="2.36407">
        <ele>78.9</ele>
        <time>2015-02-09T21:13:49.456Z</time>
      </trkpt>
      <trkpt lat="48.84484" lon="2.36399">
        <ele>72.8</ele>
        <time>2015-02-09T21:14:16.755Z</time>
      </trkpt>
      <trkpt lat="48.84493" lon="2.36387">
        <ele>79</ele>
        <time>2015-02-09T21:14:17.424Z</time>
      </trkpt>
      <trkpt lat="48.84497" lon="2.36377">
        <ele>79.3</ele>
        <time>2015-02-09T21:14:21.851Z</time>
      </trkpt>
      <trkpt lat="48.84499" lon="2.36375">
        <ele>79.3</ele>
        <time>2015-02-09T21:14:22.513Z</time>
      </trkpt>
      <trkpt lat="48.84504" lon="2.36367">
        <ele>78.8</ele>
        <time>2015-02-09T21:14:25.413Z</time>
      </trkpt>
      <trkpt lat="48.84506" lon="2.36365">
        <ele>78.8</ele>
        <time>2015-02-09T21:14:26.428Z</time>
      </trkpt>
      <trkpt lat="48.84514" lon="2.36357">
        <ele>79.3</ele>
        <time>2015-02-09T21:14:29.458Z</time>
      </trkpt>
      <trkpt lat="48.84516" lon="2.36354">
        <ele>79.3</ele>
        <time>2015-02-09T21:14:30.476Z</time>
      </trkpt>
      <trkpt lat="48.84522" lon="2.36347">
        <ele>79.2</ele>
        <time>2015-02-09T21:14:33.271Z</time>
      </trkpt>
      <trkpt lat="48.84525" lon="2.36343">
        <ele>79.4</ele>
        <time>2015-02-09T21:14:33.373Z</time>
      </trkpt>
      <trkpt lat="48.84529" lon="2.36335">
        <ele>78.9</ele>
        <time>2015-02-09T21:14:35.414Z</time>
      </trkpt>
      <trkpt lat="48.84532" lon="2.36331">
        <ele>79</ele>
        <time>2015-02-09T21:14:36.431Z</time>
      </trkpt>
      <trkpt lat="48.84537" lon="2.36323">
        <ele>79.4</ele>
        <time>2015-02-09T21:14:38.753Z</time>
      </trkpt>
      <trkpt lat="48.8454" lon="2.3632">
        <ele>79.2</ele>
        <time>2015-02-09T21:14:39.403Z</time>
      </trkpt>
      <trkpt lat="48.84545" lon="2.36314">
        <ele>79.5</ele>
        <time>2015-02-09T21:14:41.437Z</time>
      </trkpt>
      <trkpt lat="48.84548" lon="2.3631">
        <ele>79.8</ele>
        <time>2015-02-09T21:14:42.530Z</time>
      </trkpt>
      <trkpt lat="48.84553" lon="2.36302">
        <ele>80.2</ele>
        <time>2015-02-09T21:14:44.427Z</time>
      </trkpt>
      <trkpt lat="48.84556" lon="2.36298">
        <ele>80.4</ele>
        <time>2015-02-09T21:14:45.511Z</time>
      </trkpt>
      <trkpt lat="48.84562" lon="2.3629">
        <ele>80.2</ele>
        <time>2015-02-09T21:14:47.410Z</time>
      </trkpt>
      <trkpt lat="48.84565" lon="2.36286">
        <ele>80.2</ele>
        <time>2015-02-09T21:14:48.420Z</time>
      </trkpt>
      <trkpt lat="48.84571" lon="2.36277">
        <ele>80.4</ele>
        <time>2015-02-09T21:14:50.453Z</time>
      </trkpt>
      <trkpt lat="48.84575" lon="2.36272">
        <ele>80.9</ele>
        <time>2015-02-09T21:14:51.488Z</time>
      </trkpt>
      <trkpt lat="48.84579" lon="2.36268">
        <ele>80.9</ele>
        <time>2015-02-09T21:14:52.400Z</time>
      </trkpt>
      <trkpt lat="48.84583" lon="2.36263">
        <ele>80.9</ele>
        <time>2015-02-09T21:14:53.409Z</time>
      </trkpt>
      <trkpt lat="48.84587" lon="2.36259">
        <ele>81.1</ele>
        <time>2015-02-09T21:14:54.419Z</time>
      </trkpt>
      <trkpt lat="48.8459" lon="2.36254">
        <ele>81</ele>
        <time>2015-02-09T21:14:55.444Z</time>
      </trkpt>
      <trkpt lat="48.84593" lon="2.36249">
        <ele>81.1</ele>
        <time>2015-02-09T21:14:56.447Z</time>
      </trkpt>
      <trkpt lat="48.84597" lon="2.36243">
        <ele>81.2</ele>
        <time>2015-02-09T21:14:57.459Z</time>
      </trkpt>
      <trkpt lat="48.84603" lon="2.36234">
        <ele>80.7</ele>
        <time>2015-02-09T21:14:59.481Z</time>
      </trkpt>
      <trkpt lat="48.84607" lon="2.36229">
        <ele>80.3</ele>
        <time>2015-02-09T21:15:00.376Z</time>
      </trkpt>
      <trkpt lat="48.8461" lon="2.36223">
        <ele>80.2</ele>
        <time>2015-02-09T21:15:01.488Z</time>
      </trkpt>
      <trkpt lat="48.84613" lon="2.36217">
        <ele>80.2</ele>
        <time>2015-02-09T21:15:02.568Z</time>
      </trkpt>
      <trkpt lat="48.84617" lon="2.36212">
        <ele>80.3</ele>
        <time>2015-02-09T21:15:04.097Z</time>
      </trkpt>
      <trkpt lat="48.8462" lon="2.36206">
        <ele>80</ele>
        <time>2015-02-09T21:15:04.402Z</time>
      </trkpt>
      <trkpt lat="48.84623" lon="2.36201">
        <ele>79.6</ele>
        <time>2015-02-09T21:15:05.411Z</time>
      </trkpt>
      <trkpt lat="48.84627" lon="2.36196">
        <ele>79.7</ele>
        <time>2015-02-09T21:15:06.418Z</time>
      </trkpt>
      <trkpt lat="48.8463" lon="2.3619">
        <ele>80.1</ele>
        <time>2015-02-09T21:15:07.445Z</time>
      </trkpt>
      <trkpt lat="48.84633" lon="2.36185">
        <ele>80.2</ele>
        <time>2015-02-09T21:15:08.449Z</time>
      </trkpt>
      <trkpt lat="48.84637" lon="2.3618">
        <ele>80.5</ele>
        <time>2015-02-09T21:15:09.471Z</time>
      </trkpt>
      <trkpt lat="48.8464" lon="2.36175">
        <ele>80.8</ele>
        <time>2015-02-09T21:15:10.480Z</time>
      </trkpt>
      <trkpt lat="48.84643" lon="2.36169">
        <ele>80.6</ele>
        <time>2015-02-09T21:15:11.375Z</time>
      </trkpt>
      <trkpt lat="48.84647" lon="2.36163">
        <ele>80.5</ele>
        <time>2015-02-09T21:15:12.378Z</time>
      </trkpt>
      <trkpt lat="48.8465" lon="2.36157">
        <ele>80.3</ele>
        <time>2015-02-09T21:15:13.446Z</time>
      </trkpt>
      <trkpt lat="48.84654" lon="2.36151">
        <ele>80.3</ele>
        <time>2015-02-09T21:15:14.487Z</time>
      </trkpt>
      <trkpt lat="48.84658" lon="2.36146">
        <ele>79.8</ele>
        <time>2015-02-09T21:15:15.398Z</time>
      </trkpt>
      <trkpt lat="48.84661" lon="2.36141">
        <ele>79.7</ele>
        <time>2015-02-09T21:15:16.401Z</time>
      </trkpt>
      <trkpt lat="48.84665" lon="2.36135">
        <ele>79.6</ele>
        <time>2015-02-09T21:15:17.416Z</time>
      </trkpt>
      <trkpt lat="48.84669" lon="2.3613">
        <ele>79.3</ele>
        <time>2015-02-09T21:15:18.429Z</time>
      </trkpt>
      <trkpt lat="48.84673" lon="2.36126">
        <ele>79.4</ele>
        <time>2015-02-09T21:15:19.441Z</time>
      </trkpt>
      <trkpt lat="48.84677" lon="2.36121">
        <ele>79.2</ele>
        <time>2015-02-09T21:15:20.452Z</time>
      </trkpt>
      <trkpt lat="48.8468" lon="2.36115">
        <ele>79.4</ele>
        <time>2015-02-09T21:15:21.482Z</time>
      </trkpt>
      <trkpt lat="48.84684" lon="2.36109">
        <ele>79.4</ele>
        <time>2015-02-09T21:15:22.495Z</time>
      </trkpt>
      <trkpt lat="48.84688" lon="2.36103">
        <ele>79.4</ele>
        <time>2015-02-09T21:15:23.411Z</time>
      </trkpt>
      <trkpt lat="48.84691" lon="2.36097">
        <ele>79.7</ele>
        <time>2015-02-09T21:15:24.432Z</time>
      </trkpt>
      <trkpt lat="48.84695" lon="2.36092">
        <ele>79.8</ele>
        <time>2015-02-09T21:15:25.453Z</time>
      </trkpt>
      <trkpt lat="48.84699" lon="2.36086">
        <ele>79.8</ele>
        <time>2015-02-09T21:15:26.463Z</time>
      </trkpt>
      <trkpt lat="48.84702" lon="2.3608">
        <ele>80</ele>
        <time>2015-02-09T21:15:27.470Z</time>
      </trkpt>
      <trkpt lat="48.84706" lon="2.36075">
        <ele>80</ele>
        <time>2015-02-09T21:15:28.396Z</time>
      </trkpt>
      <trkpt lat="48.84709" lon="2.36069">
        <ele>79.9</ele>
        <time>2015-02-09T21:15:29.402Z</time>
      </trkpt>
      <trkpt lat="48.84712" lon="2.36063">
        <ele>80.3</ele>
        <time>2015-02-09T21:15:30.409Z</time>
      </trkpt>
      <trkpt lat="48.84716" lon="2.36057">
        <ele>80.5</ele>
        <time>2015-02-09T21:15:31.445Z</time>
      </trkpt>
      <trkpt lat="48.84719" lon="2.36051">
        <ele>80.9</ele>
        <time>2015-02-09T21:15:32.500Z</time>
      </trkpt>
      <trkpt lat="48.84722" lon="2.36047">
        <ele>81.2</ele>
        <time>2015-02-09T21:15:33.412Z</time>
      </trkpt>
      <trkpt lat="48.84726" lon="2.36042">
        <ele>81.5</ele>
        <time>2015-02-09T21:15:34.489Z</time>
      </trkpt>
      <trkpt lat="48.8473" lon="2.36038">
        <ele>82</ele>
        <time>2015-02-09T21:15:35.412Z</time>
      </trkpt>
      <trkpt lat="48.84733" lon="2.36033">
        <ele>82.1</ele>
        <time>2015-02-09T21:15:36.438Z</time>
      </trkpt>
      <trkpt lat="48.8474" lon="2.36026">
        <ele>82.5</ele>
        <time>2015-02-09T21:15:38.413Z</time>
      </trkpt>
      <trkpt lat="48.84744" lon="2.36022">
        <ele>82.6</ele>
        <time>2015-02-09T21:15:39.431Z</time>
      </trkpt>
      <trkpt lat="48.84748" lon="2.36018">
        <ele>82.3</ele>
        <time>2015-02-09T21:15:40.468Z</time>
      </trkpt>
      <trkpt lat="48.84753" lon="2.36014">
        <ele>82.2</ele>
        <time>2015-02-09T21:15:41.490Z</time>
      </trkpt>
      <trkpt lat="48.84758" lon="2.36009">
        <ele>82.4</ele>
        <time>2015-02-09T21:15:42.483Z</time>
      </trkpt>
      <trkpt lat="48.84762" lon="2.36003">
        <ele>82.9</ele>
        <time>2015-02-09T21:15:43.492Z</time>
      </trkpt>
      <trkpt lat="48.84766" lon="2.35996">
        <ele>83.2</ele>
        <time>2015-02-09T21:15:44.396Z</time>
      </trkpt>
      <trkpt lat="48.8477" lon="2.3599">
        <ele>83.1</ele>
        <time>2015-02-09T21:15:45.400Z</time>
      </trkpt>
      <trkpt lat="48.84774" lon="2.35984">
        <ele>82.9</ele>
        <time>2015-02-09T21:15:46.413Z</time>
      </trkpt>
      <trkpt lat="48.84778" lon="2.35977">
        <ele>83.5</ele>
        <time>2015-02-09T21:15:47.471Z</time>
      </trkpt>
      <trkpt lat="48.84783" lon="2.3597">
        <ele>83.3</ele>
        <time>2015-02-09T21:15:48.465Z</time>
      </trkpt>
      <trkpt lat="48.84786" lon="2.35964">
        <ele>83.3</ele>
        <time>2015-02-09T21:15:49.471Z</time>
      </trkpt>
      <trkpt lat="48.8479" lon="2.35957">
        <ele>83.3</ele>
        <time>2015-02-09T21:15:50.397Z</time>
      </trkpt>
      <trkpt lat="48.84793" lon="2.35947">
        <ele>83.5</ele>
        <time>2015-02-09T21:15:51.403Z</time>
      </trkpt>
      <trkpt lat="48.84796" lon="2.3594">
        <ele>83.5</ele>
        <time>2015-02-09T21:15:52.452Z</time>
      </trkpt>
      <trkpt lat="48.84799" lon="2.35934">
        <ele>83.9</ele>
        <time>2015-02-09T21:15:53.469Z</time>
      </trkpt>
      <trkpt lat="48.84803" lon="2.35929">
        <ele>83.9</ele>
        <time>2015-02-09T21:15:54.481Z</time>
      </trkpt>
      <trkpt lat="48.84807" lon="2.35923">
        <ele>83.9</ele>
        <time>2015-02-09T21:15:55.445Z</time>
      </trkpt>
      <trkpt lat="48.84811" lon="2.35917">
        <ele>84</ele>
        <time>2015-02-09T21:15:56.400Z</time>
      </trkpt>
      <trkpt lat="48.84816" lon="2.35912">
        <ele>84.3</ele>
        <time>2015-02-09T21:15:57.409Z</time>
      </trkpt>
      <trkpt lat="48.84819" lon="2.35906">
        <ele>85</ele>
        <time>2015-02-09T21:15:58.430Z</time>
      </trkpt>
      <trkpt lat="48.84822" lon="2.359">
        <ele>85.3</ele>
        <time>2015-02-09T21:15:59.448Z</time>
      </trkpt>
      <trkpt lat="48.84826" lon="2.35894">
        <ele>85.4</ele>
        <time>2015-02-09T21:16:00.467Z</time>
      </trkpt>
      <trkpt lat="48.84828" lon="2.35887">
        <ele>85.4</ele>
        <time>2015-02-09T21:16:01.477Z</time>
      </trkpt>
      <trkpt lat="48.84831" lon="2.3588">
        <ele>85.7</ele>
        <time>2015-02-09T21:16:02.484Z</time>
      </trkpt>
      <trkpt lat="48.84833" lon="2.35873">
        <ele>85.8</ele>
        <time>2015-02-09T21:16:03.396Z</time>
      </trkpt>
      <trkpt lat="48.84837" lon="2.35866">
        <ele>85.6</ele>
        <time>2015-02-09T21:16:04.397Z</time>
      </trkpt>
      <trkpt lat="48.84841" lon="2.3586">
        <ele>85.9</ele>
        <time>2015-02-09T21:16:05.519Z</time>
      </trkpt>
      <trkpt lat="48.84844" lon="2.35854">
        <ele>86</ele>
        <time>2015-02-09T21:16:06.439Z</time>
      </trkpt>
      <trkpt lat="48.84847" lon="2.35848">
        <ele>86</ele>
        <time>2015-02-09T21:16:07.446Z</time>
      </trkpt>
      <trkpt lat="48.84851" lon="2.35843">
        <ele>86.3</ele>
        <time>2015-02-09T21:16:08.455Z</time>
      </trkpt>
      <trkpt lat="48.84855" lon="2.35837">
        <ele>86.8</ele>
        <time>2015-02-09T21:16:09.469Z</time>
      </trkpt>
      <trkpt lat="48.84858" lon="2.35833">
        <ele>86.7</ele>
        <time>2015-02-09T21:16:10.373Z</time>
      </trkpt>
      <trkpt lat="48.84862" lon="2.35827">
        <ele>86.6</ele>
        <time>2015-02-09T21:16:11.406Z</time>
      </trkpt>
      <trkpt lat="48.84866" lon="2.35821">
        <ele>86.2</ele>
        <time>2015-02-09T21:16:12.429Z</time>
      </trkpt>
      <trkpt lat="48.84871" lon="2.35814">
        <ele>86</ele>
        <time>2015-02-09T21:16:13.509Z</time>
      </trkpt>
      <trkpt lat="48.84876" lon="2.35808">
        <ele>86.3</ele>
        <time>2015-02-09T21:16:15.373Z</time>
      </trkpt>
      <trkpt lat="48.84879" lon="2.35801">
        <ele>86.6</ele>
        <time>2015-02-09T21:16:15.434Z</time>
      </trkpt>
      <trkpt lat="48.84884" lon="2.35795">
        <ele>87</ele>
        <time>2015-02-09T21:16:16.408Z</time>
      </trkpt>
      <trkpt lat="48.8489" lon="2.35789">
        <ele>87.2</ele>
        <time>2015-02-09T21:16:17.409Z</time>
      </trkpt>
      <trkpt lat="48.84896" lon="2.35784">
        <ele>87.4</ele>
        <time>2015-02-09T21:16:18.414Z</time>
      </trkpt>
      <trkpt lat="48.84902" lon="2.35779">
        <ele>87.2</ele>
        <time>2015-02-09T21:16:19.435Z</time>
      </trkpt>
      <trkpt lat="48.84908" lon="2.35774">
        <ele>87</ele>
        <time>2015-02-09T21:16:20.526Z</time>
      </trkpt>
      <trkpt lat="48.84913" lon="2.35768">
        <ele>87</ele>
        <time>2015-02-09T21:16:21.407Z</time>
      </trkpt>
      <trkpt lat="48.84918" lon="2.35762">
        <ele>87.3</ele>
        <time>2015-02-09T21:16:22.425Z</time>
      </trkpt>
      <trkpt lat="48.84922" lon="2.35756">
        <ele>87.5</ele>
        <time>2015-02-09T21:16:23.439Z</time>
      </trkpt>
      <trkpt lat="48.84926" lon="2.3575">
        <ele>87.6</ele>
        <time>2015-02-09T21:16:24.448Z</time>
      </trkpt>
      <trkpt lat="48.84931" lon="2.35746">
        <ele>87.4</ele>
        <time>2015-02-09T21:16:25.454Z</time>
      </trkpt>
      <trkpt lat="48.84936" lon="2.35736">
        <ele>86.7</ele>
        <time>2015-02-09T21:16:27.468Z</time>
      </trkpt>
      <trkpt lat="48.84936" lon="2.35729">
        <ele>86.2</ele>
        <time>2015-02-09T21:16:28.483Z</time>
      </trkpt>
      <trkpt lat="48.84936" lon="2.35716">
        <ele>86.8</ele>
        <time>2015-02-09T21:16:30.395Z</time>
      </trkpt>
      <trkpt lat="48.84938" lon="2.35712">
        <ele>86.7</ele>
        <time>2015-02-09T21:16:31.444Z</time>
      </trkpt>
      <trkpt lat="48.8494" lon="2.35705">
        <ele>84.7</ele>
        <time>2015-02-09T21:16:59.411Z</time>
      </trkpt>
      <trkpt lat="48.84943" lon="2.357">
        <ele>85.6</ele>
        <time>2015-02-09T21:17:00.450Z</time>
      </trkpt>
      <trkpt lat="48.84943" lon="2.35689">
        <ele>84.9</ele>
        <time>2015-02-09T21:17:03.494Z</time>
      </trkpt>
      <trkpt lat="48.84944" lon="2.35684">
        <ele>85.1</ele>
        <time>2015-02-09T21:17:04.408Z</time>
      </trkpt>
      <trkpt lat="48.84946" lon="2.35675">
        <ele>85.5</ele>
        <time>2015-02-09T21:17:06.411Z</time>
      </trkpt>
      <trkpt lat="48.84946" lon="2.3567">
        <ele>85.5</ele>
        <time>2015-02-09T21:17:07.449Z</time>
      </trkpt>
      <trkpt lat="48.84948" lon="2.3566">
        <ele>85.6</ele>
        <time>2015-02-09T21:17:09.461Z</time>
      </trkpt>
      <trkpt lat="48.84949" lon="2.35654">
        <ele>85.6</ele>
        <time>2015-02-09T21:17:10.482Z</time>
      </trkpt>
      <trkpt lat="48.84952" lon="2.35644">
        <ele>85.5</ele>
        <time>2015-02-09T21:17:12.397Z</time>
      </trkpt>
      <trkpt lat="48.84954" lon="2.35639">
        <ele>85.3</ele>
        <time>2015-02-09T21:17:13.444Z</time>
      </trkpt>
      <trkpt lat="48.84958" lon="2.35628">
        <ele>85.5</ele>
        <time>2015-02-09T21:17:15.394Z</time>
      </trkpt>
      <trkpt lat="48.8496" lon="2.35623">
        <ele>85.9</ele>
        <time>2015-02-09T21:17:16.392Z</time>
      </trkpt>
      <trkpt lat="48.84962" lon="2.35616">
        <ele>86.1</ele>
        <time>2015-02-09T21:17:17.410Z</time>
      </trkpt>
      <trkpt lat="48.84963" lon="2.35609">
        <ele>86.3</ele>
        <time>2015-02-09T21:17:18.440Z</time>
      </trkpt>
      <trkpt lat="48.84965" lon="2.35603">
        <ele>86.5</ele>
        <time>2015-02-09T21:17:19.453Z</time>
      </trkpt>
      <trkpt lat="48.84967" lon="2.35596">
        <ele>86.8</ele>
        <time>2015-02-09T21:17:20.459Z</time>
      </trkpt>
      <trkpt lat="48.8497" lon="2.35584">
        <ele>87</ele>
        <time>2015-02-09T21:17:22.483Z</time>
      </trkpt>
      <trkpt lat="48.84972" lon="2.35578">
        <ele>87.2</ele>
        <time>2015-02-09T21:17:23.407Z</time>
      </trkpt>
      <trkpt lat="48.84975" lon="2.35567">
        <ele>86.7</ele>
        <time>2015-02-09T21:17:25.555Z</time>
      </trkpt>
      <trkpt lat="48.84977" lon="2.35562">
        <ele>86.6</ele>
        <time>2015-02-09T21:17:26.409Z</time>
      </trkpt>
      <trkpt lat="48.84979" lon="2.3555">
        <ele>85.7</ele>
        <time>2015-02-09T21:17:28.464Z</time>
      </trkpt>
      <trkpt lat="48.84981" lon="2.35544">
        <ele>85.9</ele>
        <time>2015-02-09T21:17:29.411Z</time>
      </trkpt>
      <trkpt lat="48.84984" lon="2.35534">
        <ele>85.9</ele>
        <time>2015-02-09T21:17:31.447Z</time>
      </trkpt>
      <trkpt lat="48.84986" lon="2.3553">
        <ele>85.7</ele>
        <time>2015-02-09T21:17:32.479Z</time>
      </trkpt>
      <trkpt lat="48.8499" lon="2.3552">
        <ele>85.5</ele>
        <time>2015-02-09T21:17:34.386Z</time>
      </trkpt>
      <trkpt lat="48.84992" lon="2.35515">
        <ele>85.7</ele>
        <time>2015-02-09T21:17:35.461Z</time>
      </trkpt>
      <trkpt lat="48.84995" lon="2.35503">
        <ele>85.9</ele>
        <time>2015-02-09T21:17:37.494Z</time>
      </trkpt>
      <trkpt lat="48.84997" lon="2.35498">
        <ele>86.1</ele>
        <time>2015-02-09T21:17:38.366Z</time>
      </trkpt>
      <trkpt lat="48.85" lon="2.35485">
        <ele>86.5</ele>
        <time>2015-02-09T21:17:40.436Z</time>
      </trkpt>
      <trkpt lat="48.85002" lon="2.35479">
        <ele>87.1</ele>
        <time>2015-02-09T21:17:41.449Z</time>
      </trkpt>
      <trkpt lat="48.85006" lon="2.3547">
        <ele>87.4</ele>
        <time>2015-02-09T21:17:43.476Z</time>
      </trkpt>
      <trkpt lat="48.85008" lon="2.35465">
        <ele>87.3</ele>
        <time>2015-02-09T21:17:44.497Z</time>
      </trkpt>
      <trkpt lat="48.85013" lon="2.35455">
        <ele>87.3</ele>
        <time>2015-02-09T21:17:46.389Z</time>
      </trkpt>
      <trkpt lat="48.85015" lon="2.35448">
        <ele>88.1</ele>
        <time>2015-02-09T21:17:47.386Z</time>
      </trkpt>
      <trkpt lat="48.85017" lon="2.35442">
        <ele>88.3</ele>
        <time>2015-02-09T21:17:48.485Z</time>
      </trkpt>
      <trkpt lat="48.85019" lon="2.35435">
        <ele>88.7</ele>
        <time>2015-02-09T21:17:49.462Z</time>
      </trkpt>
      <trkpt lat="48.85022" lon="2.35428">
        <ele>89.1</ele>
        <time>2015-02-09T21:17:50.473Z</time>
      </trkpt>
      <trkpt lat="48.85025" lon="2.35421">
        <ele>89.8</ele>
        <time>2015-02-09T21:17:51.476Z</time>
      </trkpt>
      <trkpt lat="48.85028" lon="2.35411">
        <ele>90</ele>
        <time>2015-02-09T21:17:52.422Z</time>
      </trkpt>
      <trkpt lat="48.85031" lon="2.354">
        <ele>90.1</ele>
        <time>2015-02-09T21:17:53.428Z</time>
      </trkpt>
      <trkpt lat="48.85035" lon="2.35391">
        <ele>89.9</ele>
        <time>2015-02-09T21:17:54.449Z</time>
      </trkpt>
      <trkpt lat="48.85038" lon="2.35381">
        <ele>89.9</ele>
        <time>2015-02-09T21:17:55.468Z</time>
      </trkpt>
      <trkpt lat="48.8504" lon="2.35369">
        <ele>89.7</ele>
        <time>2015-02-09T21:17:56.484Z</time>
      </trkpt>
      <trkpt lat="48.85043" lon="2.35359">
        <ele>90.1</ele>
        <time>2015-02-09T21:17:57.494Z</time>
      </trkpt>
      <trkpt lat="48.85045" lon="2.35348">
        <ele>89.9</ele>
        <time>2015-02-09T21:17:58.436Z</time>
      </trkpt>
      <trkpt lat="48.85048" lon="2.35336">
        <ele>90.2</ele>
        <time>2015-02-09T21:17:59.455Z</time>
      </trkpt>
      <trkpt lat="48.85051" lon="2.35325">
        <ele>90.3</ele>
        <time>2015-02-09T21:18:00.372Z</time>
      </trkpt>
      <trkpt lat="48.85054" lon="2.35313">
        <ele>90.6</ele>
        <time>2015-02-09T21:18:01.428Z</time>
      </trkpt>
      <trkpt lat="48.85057" lon="2.35302">
        <ele>91.2</ele>
        <time>2015-02-09T21:18:02.430Z</time>
      </trkpt>
      <trkpt lat="48.85061" lon="2.3529">
        <ele>91.5</ele>
        <time>2015-02-09T21:18:03.442Z</time>
      </trkpt>
      <trkpt lat="48.85064" lon="2.3528">
        <ele>91.7</ele>
        <time>2015-02-09T21:18:04.471Z</time>
      </trkpt>
      <trkpt lat="48.85068" lon="2.35268">
        <ele>91.9</ele>
        <time>2015-02-09T21:18:05.485Z</time>
      </trkpt>
      <trkpt lat="48.8507" lon="2.35256">
        <ele>91.9</ele>
        <time>2015-02-09T21:18:06.395Z</time>
      </trkpt>
      <trkpt lat="48.85073" lon="2.35244">
        <ele>91.9</ele>
        <time>2015-02-09T21:18:07.434Z</time>
      </trkpt>
      <trkpt lat="48.85075" lon="2.35233">
        <ele>92.1</ele>
        <time>2015-02-09T21:18:08.451Z</time>
      </trkpt>
      <trkpt lat="48.85079" lon="2.35224">
        <ele>92.4</ele>
        <time>2015-02-09T21:18:09.468Z</time>
      </trkpt>
      <trkpt lat="48.85082" lon="2.35214">
        <ele>92.4</ele>
        <time>2015-02-09T21:18:10.476Z</time>
      </trkpt>
      <trkpt lat="48.85085" lon="2.35204">
        <ele>93</ele>
        <time>2015-02-09T21:18:11.485Z</time>
      </trkpt>
      <trkpt lat="48.85089" lon="2.35195">
        <ele>93.4</ele>
        <time>2015-02-09T21:18:12.458Z</time>
      </trkpt>
      <trkpt lat="48.85093" lon="2.35185">
        <ele>93.7</ele>
        <time>2015-02-09T21:18:13.449Z</time>
      </trkpt>
      <trkpt lat="48.85097" lon="2.35177">
        <ele>94.1</ele>
        <time>2015-02-09T21:18:14.452Z</time>
      </trkpt>
      <trkpt lat="48.851" lon="2.35168">
        <ele>94.3</ele>
        <time>2015-02-09T21:18:15.459Z</time>
      </trkpt>
      <trkpt lat="48.85103" lon="2.35161">
        <ele>94.1</ele>
        <time>2015-02-09T21:18:16.400Z</time>
      </trkpt>
      <trkpt lat="48.85105" lon="2.35153">
        <ele>93.7</ele>
        <time>2015-02-09T21:18:17.406Z</time>
      </trkpt>
      <trkpt lat="48.85107" lon="2.35143">
        <ele>92.9</ele>
        <time>2015-02-09T21:18:18.423Z</time>
      </trkpt>
      <trkpt lat="48.85109" lon="2.35134">
        <ele>91.6</ele>
        <time>2015-02-09T21:18:19.447Z</time>
      </trkpt>
      <trkpt lat="48.85112" lon="2.35122">
        <ele>91.1</ele>
        <time>2015-02-09T21:18:21.454Z</time>
      </trkpt>
      <trkpt lat="48.85114" lon="2.35118">
        <ele>90.5</ele>
        <time>2015-02-09T21:18:22.461Z</time>
      </trkpt>
      <trkpt lat="48.85118" lon="2.35109">
        <ele>88.5</ele>
        <time>2015-02-09T21:18:26.549Z</time>
      </trkpt>
      <trkpt lat="48.85119" lon="2.35108">
        <ele>88.6</ele>
        <time>2015-02-09T21:18:27.419Z</time>
      </trkpt>
      <trkpt lat="48.85124" lon="2.35118">
        <ele>85.7</ele>
        <time>2015-02-09T21:18:30.454Z</time>
      </trkpt>
      <trkpt lat="48.85125" lon="2.35121">
        <ele>85.4</ele>
        <time>2015-02-09T21:18:31.489Z</time>
      </trkpt>
      <trkpt lat="48.8513" lon="2.35128">
        <ele>84.1</ele>
        <time>2015-02-09T21:18:33.406Z</time>
      </trkpt>
      <trkpt lat="48.85132" lon="2.35131">
        <ele>83.6</ele>
        <time>2015-02-09T21:18:34.426Z</time>
      </trkpt>
      <trkpt lat="48.85137" lon="2.35137">
        <ele>83.1</ele>
        <time>2015-02-09T21:18:36.484Z</time>
      </trkpt>
      <trkpt lat="48.8514" lon="2.35139">
        <ele>83.1</ele>
        <time>2015-02-09T21:18:37.531Z</time>
      </trkpt>
      <trkpt lat="48.85148" lon="2.35146">
        <ele>82.8</ele>
        <time>2015-02-09T21:18:40.424Z</time>
      </trkpt>
      <trkpt lat="48.85151" lon="2.35148">
        <ele>82.8</ele>
        <time>2015-02-09T21:18:41.451Z</time>
      </trkpt>
      <trkpt lat="48.85157" lon="2.35152">
        <ele>83.1</ele>
        <time>2015-02-09T21:18:43.497Z</time>
      </trkpt>
      <trkpt lat="48.8516" lon="2.35153">
        <ele>82.9</ele>
        <time>2015-02-09T21:18:44.410Z</time>
      </trkpt>
      <trkpt lat="48.85166" lon="2.35157">
        <ele>82.3</ele>
        <time>2015-02-09T21:18:46.476Z</time>
      </trkpt>
      <trkpt lat="48.85169" lon="2.35159">
        <ele>82.4</ele>
        <time>2015-02-09T21:18:47.485Z</time>
      </trkpt>
      <trkpt lat="48.85175" lon="2.35163">
        <ele>82.5</ele>
        <time>2015-02-09T21:18:49.443Z</time>
      </trkpt>
      <trkpt lat="48.85178" lon="2.35165">
        <ele>82.3</ele>
        <time>2015-02-09T21:18:50.461Z</time>
      </trkpt>
      <trkpt lat="48.85184" lon="2.35168">
        <ele>82.3</ele>
        <time>2015-02-09T21:18:52.391Z</time>
      </trkpt>
      <trkpt lat="48.85188" lon="2.35169">
        <ele>82.3</ele>
        <time>2015-02-09T21:18:53.407Z</time>
      </trkpt>
      <trkpt lat="48.85195" lon="2.35173">
        <ele>82.4</ele>
        <time>2015-02-09T21:18:55.425Z</time>
      </trkpt>
      <trkpt lat="48.85198" lon="2.35175">
        <ele>82.6</ele>
        <time>2015-02-09T21:18:56.439Z</time>
      </trkpt>
      <trkpt lat="48.85204" lon="2.3518">
        <ele>82.5</ele>
        <time>2015-02-09T21:18:58.474Z</time>
      </trkpt>
      <trkpt lat="48.85208" lon="2.35182">
        <ele>82.6</ele>
        <time>2015-02-09T21:18:59.486Z</time>
      </trkpt>
      <trkpt lat="48.85215" lon="2.35187">
        <ele>82.4</ele>
        <time>2015-02-09T21:19:01.427Z</time>
      </trkpt>
      <trkpt lat="48.85218" lon="2.35189">
        <ele>82.4</ele>
        <time>2015-02-09T21:19:02.433Z</time>
      </trkpt>
      <trkpt lat="48.85225" lon="2.35194">
        <ele>82.3</ele>
        <time>2015-02-09T21:19:04.455Z</time>
      </trkpt>
      <trkpt lat="48.85228" lon="2.35196">
        <ele>82.3</ele>
        <time>2015-02-09T21:19:05.489Z</time>
      </trkpt>
      <trkpt lat="48.85234" lon="2.35201">
        <ele>81.8</ele>
        <time>2015-02-09T21:19:07.465Z</time>
      </trkpt>
      <trkpt lat="48.85238" lon="2.35203">
        <ele>81.7</ele>
        <time>2015-02-09T21:19:08.441Z</time>
      </trkpt>
      <trkpt lat="48.85245" lon="2.35208">
        <ele>82.5</ele>
        <time>2015-02-09T21:19:10.394Z</time>
      </trkpt>
      <trkpt lat="48.85249" lon="2.3521">
        <ele>82.7</ele>
        <time>2015-02-09T21:19:11.396Z</time>
      </trkpt>
      <trkpt lat="48.85257" lon="2.35215">
        <ele>82.9</ele>
        <time>2015-02-09T21:19:13.446Z</time>
      </trkpt>
      <trkpt lat="48.8526" lon="2.35217">
        <ele>82.8</ele>
        <time>2015-02-09T21:19:14.459Z</time>
      </trkpt>
      <trkpt lat="48.85267" lon="2.35219">
        <ele>82.6</ele>
        <time>2015-02-09T21:19:16.397Z</time>
      </trkpt>
      <trkpt lat="48.85271" lon="2.35218">
        <ele>82.7</ele>
        <time>2015-02-09T21:19:17.408Z</time>
      </trkpt>
      <trkpt lat="48.85275" lon="2.35211">
        <ele>82.5</ele>
        <time>2015-02-09T21:19:19.435Z</time>
      </trkpt>
      <trkpt lat="48.85277" lon="2.35206">
        <ele>82.5</ele>
        <time>2015-02-09T21:19:20.448Z</time>
      </trkpt>
      <trkpt lat="48.85279" lon="2.35194">
        <ele>81.7</ele>
        <time>2015-02-09T21:19:22.480Z</time>
      </trkpt>
      <trkpt lat="48.85281" lon="2.35187">
        <ele>81.4</ele>
        <time>2015-02-09T21:19:23.472Z</time>
      </trkpt>
      <trkpt lat="48.85283" lon="2.3518">
        <ele>81.2</ele>
        <time>2015-02-09T21:19:24.442Z</time>
      </trkpt>
      <trkpt lat="48.85284" lon="2.35172">
        <ele>81</ele>
        <time>2015-02-09T21:19:25.442Z</time>
      </trkpt>
      <trkpt lat="48.85286" lon="2.35165">
        <ele>80.8</ele>
        <time>2015-02-09T21:19:26.458Z</time>
      </trkpt>
      <trkpt lat="48.85288" lon="2.35157">
        <ele>80.6</ele>
        <time>2015-02-09T21:19:27.471Z</time>
      </trkpt>
      <trkpt lat="48.85291" lon="2.35148">
        <ele>80.2</ele>
        <time>2015-02-09T21:19:28.392Z</time>
      </trkpt>
      <trkpt lat="48.85293" lon="2.35139">
        <ele>80.2</ele>
        <time>2015-02-09T21:19:29.398Z</time>
      </trkpt>
      <trkpt lat="48.85296" lon="2.35131">
        <ele>80.3</ele>
        <time>2015-02-09T21:19:30.399Z</time>
      </trkpt>
      <trkpt lat="48.853" lon="2.35124">
        <ele>80.7</ele>
        <time>2015-02-09T21:19:31.432Z</time>
      </trkpt>
      <trkpt lat="48.85304" lon="2.35122">
        <ele>80.8</ele>
        <time>2015-02-09T21:19:32.452Z</time>
      </trkpt>
      <trkpt lat="48.85309" lon="2.35121">
        <ele>81</ele>
        <time>2015-02-09T21:19:33.448Z</time>
      </trkpt>
      <trkpt lat="48.85314" lon="2.35118">
        <ele>81.5</ele>
        <time>2015-02-09T21:19:34.465Z</time>
      </trkpt>
      <trkpt lat="48.85319" lon="2.35114">
        <ele>81.9</ele>
        <time>2015-02-09T21:19:35.473Z</time>
      </trkpt>
      <trkpt lat="48.85324" lon="2.35109">
        <ele>82.4</ele>
        <time>2015-02-09T21:19:36.377Z</time>
      </trkpt>
      <trkpt lat="48.85329" lon="2.35106">
        <ele>82.9</ele>
        <time>2015-02-09T21:19:37.427Z</time>
      </trkpt>
      <trkpt lat="48.85335" lon="2.35107">
        <ele>82.9</ele>
        <time>2015-02-09T21:19:38.447Z</time>
      </trkpt>
      <trkpt lat="48.85341" lon="2.35109">
        <ele>82.8</ele>
        <time>2015-02-09T21:19:39.454Z</time>
      </trkpt>
      <trkpt lat="48.85348" lon="2.35108">
        <ele>82.7</ele>
        <time>2015-02-09T21:19:40.458Z</time>
      </trkpt>
      <trkpt lat="48.85355" lon="2.35106">
        <ele>82.9</ele>
        <time>2015-02-09T21:19:41.462Z</time>
      </trkpt>
      <trkpt lat="48.85361" lon="2.35103">
        <ele>83.1</ele>
        <time>2015-02-09T21:19:42.479Z</time>
      </trkpt>
      <trkpt lat="48.85365" lon="2.351">
        <ele>83.3</ele>
        <time>2015-02-09T21:19:43.495Z</time>
      </trkpt>
      <trkpt lat="48.85371" lon="2.35096">
        <ele>83.3</ele>
        <time>2015-02-09T21:19:44.393Z</time>
      </trkpt>
      <trkpt lat="48.85375" lon="2.35093">
        <ele>83.7</ele>
        <time>2015-02-09T21:19:45.410Z</time>
      </trkpt>
      <trkpt lat="48.85377" lon="2.35086">
        <ele>85</ele>
        <time>2015-02-09T21:19:46.417Z</time>
      </trkpt>
      <trkpt lat="48.8538" lon="2.35081">
        <ele>85.5</ele>
        <time>2015-02-09T21:19:47.424Z</time>
      </trkpt>
      <trkpt lat="48.85384" lon="2.35076">
        <ele>85.9</ele>
        <time>2015-02-09T21:19:48.427Z</time>
      </trkpt>
      <trkpt lat="48.85386" lon="2.35071">
        <ele>86.1</ele>
        <time>2015-02-09T21:19:49.433Z</time>
      </trkpt>
      <trkpt lat="48.8539" lon="2.35063">
        <ele>86</ele>
        <time>2015-02-09T21:19:51.477Z</time>
      </trkpt>
      <trkpt lat="48.85393" lon="2.3506">
        <ele>86.1</ele>
        <time>2015-02-09T21:19:52.512Z</time>
      </trkpt>
      <trkpt lat="48.85399" lon="2.35055">
        <ele>86.3</ele>
        <time>2015-02-09T21:19:54.414Z</time>
      </trkpt>
      <trkpt lat="48.85402" lon="2.35051">
        <ele>86.5</ele>
        <time>2015-02-09T21:19:55.441Z</time>
      </trkpt>
      <trkpt lat="48.85405" lon="2.35042">
        <ele>85.9</ele>
        <time>2015-02-09T21:19:57.486Z</time>
      </trkpt>
      <trkpt lat="48.85407" lon="2.35037">
        <ele>85.9</ele>
        <time>2015-02-09T21:19:58.407Z</time>
      </trkpt>
      <trkpt lat="48.85414" lon="2.3503">
        <ele>86.1</ele>
        <time>2015-02-09T21:20:00.393Z</time>
      </trkpt>
      <trkpt lat="48.85417" lon="2.35026">
        <ele>85.9</ele>
        <time>2015-02-09T21:20:01.422Z</time>
      </trkpt>
      <trkpt lat="48.85423" lon="2.35017">
        <ele>86</ele>
        <time>2015-02-09T21:20:03.641Z</time>
      </trkpt>
      <trkpt lat="48.85426" lon="2.35014">
        <ele>85.8</ele>
        <time>2015-02-09T21:20:04.447Z</time>
      </trkpt>
      <trkpt lat="48.85434" lon="2.35012">
        <ele>86.1</ele>
        <time>2015-02-09T21:20:07.267Z</time>
      </trkpt>
      <trkpt lat="48.85437" lon="2.35014">
        <ele>86.4</ele>
        <time>2015-02-09T21:20:07.414Z</time>
      </trkpt>
      <trkpt lat="48.85442" lon="2.35019">
        <ele>86.5</ele>
        <time>2015-02-09T21:20:10.077Z</time>
      </trkpt>
      <trkpt lat="48.85445" lon="2.35022">
        <ele>86.6</ele>
        <time>2015-02-09T21:20:10.469Z</time>
      </trkpt>
      <trkpt lat="48.85449" lon="2.35028">
        <ele>86.3</ele>
        <time>2015-02-09T21:20:12.481Z</time>
      </trkpt>
      <trkpt lat="48.85454" lon="2.3503">
        <ele>85.6</ele>
        <time>2015-02-09T21:20:13.487Z</time>
      </trkpt>
      <trkpt lat="48.8546" lon="2.35033">
        <ele>85.8</ele>
        <time>2015-02-09T21:20:15.403Z</time>
      </trkpt>
      <trkpt lat="48.85463" lon="2.35036">
        <ele>85.8</ele>
        <time>2015-02-09T21:20:16.431Z</time>
      </trkpt>
      <trkpt lat="48.8547" lon="2.3504">
        <ele>85</ele>
        <time>2015-02-09T21:20:18.441Z</time>
      </trkpt>
      <trkpt lat="48.85481" lon="2.35038">
        <ele>84.8</ele>
        <time>2015-02-09T21:20:20.481Z</time>
      </trkpt>
      <trkpt lat="48.85488" lon="2.35045">
        <ele>82.5</ele>
        <time>2015-02-09T21:20:25.437Z</time>
      </trkpt>
      <trkpt lat="48.8549" lon="2.35043">
        <ele>81.9</ele>
        <time>2015-02-09T21:20:26.450Z</time>
      </trkpt>
      <trkpt lat="48.85491" lon="2.3505">
        <ele>82</ele>
        <time>2015-02-09T21:20:29.445Z</time>
      </trkpt>
      <trkpt lat="48.8549" lon="2.35058">
        <ele>82.7</ele>
        <time>2015-02-09T21:20:30.419Z</time>
      </trkpt>
      <trkpt lat="48.85495" lon="2.3505">
        <ele>84.3</ele>
        <time>2015-02-09T21:20:55.509Z</time>
      </trkpt>
      <trkpt lat="48.85497" lon="2.35047">
        <ele>84.3</ele>
        <time>2015-02-09T21:20:56.425Z</time>
      </trkpt>
      <trkpt lat="48.855" lon="2.35035">
        <ele>82.1</ele>
        <time>2015-02-09T21:21:01.498Z</time>
      </trkpt>
      <trkpt lat="48.85501" lon="2.35032">
        <ele>81.8</ele>
        <time>2015-02-09T21:21:02.404Z</time>
      </trkpt>
      <trkpt lat="48.85509" lon="2.35033">
        <ele>81</ele>
        <time>2015-02-09T21:22:18.438Z</time>
      </trkpt>
      <trkpt lat="48.85512" lon="2.35035">
        <ele>80.8</ele>
        <time>2015-02-09T21:22:19.473Z</time>
      </trkpt>
      <trkpt lat="48.85518" lon="2.35038">
        <ele>80.4</ele>
        <time>2015-02-09T21:22:21.411Z</time>
      </trkpt>
      <trkpt lat="48.85522" lon="2.3504">
        <ele>80.3</ele>
        <time>2015-02-09T21:22:22.403Z</time>
      </trkpt>
      <trkpt lat="48.85528" lon="2.35044">
        <ele>80.3</ele>
        <time>2015-02-09T21:22:24.441Z</time>
      </trkpt>
      <trkpt lat="48.85531" lon="2.35046">
        <ele>80.3</ele>
        <time>2015-02-09T21:22:25.450Z</time>
      </trkpt>
      <trkpt lat="48.85537" lon="2.3505">
        <ele>80.6</ele>
        <time>2015-02-09T21:22:28.155Z</time>
      </trkpt>
      <trkpt lat="48.85539" lon="2.35052">
        <ele>80.7</ele>
        <time>2015-02-09T21:22:28.471Z</time>
      </trkpt>
      <trkpt lat="48.85547" lon="2.35058">
        <ele>80.8</ele>
        <time>2015-02-09T21:22:31.453Z</time>
      </trkpt>
      <trkpt lat="48.8555" lon="2.35059">
        <ele>80.8</ele>
        <time>2015-02-09T21:22:32.456Z</time>
      </trkpt>
      <trkpt lat="48.85557" lon="2.35065">
        <ele>81</ele>
        <time>2015-02-09T21:22:35.403Z</time>
      </trkpt>
      <trkpt lat="48.85559" lon="2.35067">
        <ele>81</ele>
        <time>2015-02-09T21:22:36.420Z</time>
      </trkpt>
      <trkpt lat="48.85566" lon="2.35072">
        <ele>80.4</ele>
        <time>2015-02-09T21:22:39.377Z</time>
      </trkpt>
      <trkpt lat="48.85568" lon="2.35074">
        <ele>80.6</ele>
        <time>2015-02-09T21:22:40.405Z</time>
      </trkpt>
      <trkpt lat="48.85576" lon="2.35079">
        <ele>80.7</ele>
        <time>2015-02-09T21:22:44.450Z</time>
      </trkpt>
      <trkpt lat="48.85577" lon="2.3508">
        <ele>80.4</ele>
        <time>2015-02-09T21:22:45.461Z</time>
      </trkpt>
      <trkpt lat="48.85583" lon="2.35083">
        <ele>80.6</ele>
        <time>2015-02-09T21:23:25.501Z</time>
      </trkpt>
      <trkpt lat="48.85589" lon="2.35089">
        <ele>80.7</ele>
        <time>2015-02-09T21:23:26.370Z</time>
      </trkpt>
      <trkpt lat="48.85594" lon="2.35088">
        <ele>80.7</ele>
        <time>2015-02-09T21:23:38.294Z</time>
      </trkpt>
      <trkpt lat="48.85598" lon="2.35085">
        <ele>80.2</ele>
        <time>2015-02-09T21:23:38.362Z</time>
      </trkpt>
      <trkpt lat="48.85607" lon="2.35083">
        <ele>79.9</ele>
        <time>2015-02-09T21:23:41.419Z</time>
      </trkpt>
      <trkpt lat="48.8561" lon="2.35081">
        <ele>80.1</ele>
        <time>2015-02-09T21:23:42.441Z</time>
      </trkpt>
      <trkpt lat="48.85618" lon="2.35081">
        <ele>81.1</ele>
        <time>2015-02-09T21:23:45.393Z</time>
      </trkpt>
      <trkpt lat="48.8562" lon="2.35083">
        <ele>81</ele>
        <time>2015-02-09T21:23:46.394Z</time>
      </trkpt>
      <trkpt lat="48.85625" lon="2.35085">
        <ele>81.4</ele>
        <time>2015-02-09T21:23:48.478Z</time>
      </trkpt>
      <trkpt lat="48.85628" lon="2.35086">
        <ele>82</ele>
        <time>2015-02-09T21:23:49.481Z</time>
      </trkpt>
      <trkpt lat="48.85633" lon="2.35086">
        <ele>82.1</ele>
        <time>2015-02-09T21:23:50.391Z</time>
      </trkpt>
      <trkpt lat="48.85639" lon="2.35087">
        <ele>81.4</ele>
        <time>2015-02-09T21:23:51.400Z</time>
      </trkpt>
      <trkpt lat="48.85645" lon="2.3509">
        <ele>81.3</ele>
        <time>2015-02-09T21:23:53.525Z</time>
      </trkpt>
      <trkpt lat="48.85648" lon="2.35092">
        <ele>81.5</ele>
        <time>2015-02-09T21:23:54.484Z</time>
      </trkpt>
      <trkpt lat="48.85656" lon="2.35094">
        <ele>80.7</ele>
        <time>2015-02-09T21:23:56.444Z</time>
      </trkpt>
      <trkpt lat="48.8566" lon="2.35096">
        <ele>81</ele>
        <time>2015-02-09T21:23:57.448Z</time>
      </trkpt>
      <trkpt lat="48.85666" lon="2.35099">
        <ele>81.2</ele>
        <time>2015-02-09T21:23:59.492Z</time>
      </trkpt>
      <trkpt lat="48.85671" lon="2.35101">
        <ele>81</ele>
        <time>2015-02-09T21:24:00.379Z</time>
      </trkpt>
      <trkpt lat="48.85678" lon="2.35101">
        <ele>81</ele>
        <time>2015-02-09T21:24:02.371Z</time>
      </trkpt>
      <trkpt lat="48.85683" lon="2.35098">
        <ele>81.5</ele>
        <time>2015-02-09T21:24:03.398Z</time>
      </trkpt>
      <trkpt lat="48.85688" lon="2.35091">
        <ele>82.2</ele>
        <time>2015-02-09T21:24:05.423Z</time>
      </trkpt>
      <trkpt lat="48.85689" lon="2.35088">
        <ele>82.4</ele>
        <time>2015-02-09T21:24:06.440Z</time>
      </trkpt>
      <trkpt lat="48.85694" lon="2.35079">
        <ele>81.9</ele>
        <time>2015-02-09T21:24:09.477Z</time>
      </trkpt>
      <trkpt lat="48.85695" lon="2.35076">
        <ele>81.8</ele>
        <time>2015-02-09T21:24:10.478Z</time>
      </trkpt>
      <trkpt lat="48.85699" lon="2.35063">
        <ele>80.9</ele>
        <time>2015-02-09T21:24:13.403Z</time>
      </trkpt>
      <trkpt lat="48.857" lon="2.35059">
        <ele>80.6</ele>
        <time>2015-02-09T21:24:14.407Z</time>
      </trkpt>
      <trkpt lat="48.85701" lon="2.35049">
        <ele>80.7</ele>
        <time>2015-02-09T21:24:16.621Z</time>
      </trkpt>
      <trkpt lat="48.85702" lon="2.35044">
        <ele>80.9</ele>
        <time>2015-02-09T21:24:17.447Z</time>
      </trkpt>
      <trkpt lat="48.85704" lon="2.35032">
        <ele>81</ele>
        <time>2015-02-09T21:24:19.480Z</time>
      </trkpt>
      <trkpt lat="48.85706" lon="2.35028">
        <ele>81.4</ele>
        <time>2015-02-09T21:24:20.368Z</time>
      </trkpt>
      <trkpt lat="48.85709" lon="2.35018">
        <ele>82.4</ele>
        <time>2015-02-09T21:24:23.180Z</time>
      </trkpt>
      <trkpt lat="48.8571" lon="2.35015">
        <ele>83.1</ele>
        <time>2015-02-09T21:24:23.426Z</time>
      </trkpt>
      <trkpt lat="48.85713" lon="2.35003">
        <ele>83.1</ele>
        <time>2015-02-09T21:24:25.480Z</time>
      </trkpt>
      <trkpt lat="48.85715" lon="2.34997">
        <ele>83.3</ele>
        <time>2015-02-09T21:24:26.508Z</time>
      </trkpt>
      <trkpt lat="48.85718" lon="2.34985">
        <ele>83.5</ele>
        <time>2015-02-09T21:24:28.406Z</time>
      </trkpt>
      <trkpt lat="48.85719" lon="2.34979">
        <ele>83.8</ele>
        <time>2015-02-09T21:24:29.410Z</time>
      </trkpt>
      <trkpt lat="48.85722" lon="2.34971">
        <ele>84.6</ele>
        <time>2015-02-09T21:24:31.405Z</time>
      </trkpt>
      <trkpt lat="48.85723" lon="2.34965">
        <ele>85.7</ele>
        <time>2015-02-09T21:24:32.481Z</time>
      </trkpt>
      <trkpt lat="48.85727" lon="2.34954">
        <ele>86.5</ele>
        <time>2015-02-09T21:24:35.462Z</time>
      </trkpt>
      <trkpt lat="48.85727" lon="2.34951">
        <ele>86.7</ele>
        <time>2015-02-09T21:24:36.466Z</time>
      </trkpt>
      <trkpt lat="48.8573" lon="2.34938">
        <ele>86.8</ele>
        <time>2015-02-09T21:24:39.392Z</time>
      </trkpt>
      <trkpt lat="48.8573" lon="2.34935">
        <ele>86.8</ele>
        <time>2015-02-09T21:24:40.393Z</time>
      </trkpt>
      <trkpt lat="48.85733" lon="2.34923">
        <ele>87.1</ele>
        <time>2015-02-09T21:24:43.404Z</time>
      </trkpt>
      <trkpt lat="48.85734" lon="2.34915">
        <ele>87.8</ele>
        <time>2015-02-09T21:24:43.465Z</time>
      </trkpt>
      <trkpt lat="48.85736" lon="2.34908">
        <ele>88.9</ele>
        <time>2015-02-09T21:24:44.463Z</time>
      </trkpt>
      <trkpt lat="48.85737" lon="2.34901">
        <ele>89.9</ele>
        <time>2015-02-09T21:24:45.486Z</time>
      </trkpt>
      <trkpt lat="48.85739" lon="2.34889">
        <ele>90.9</ele>
        <time>2015-02-09T21:24:48.501Z</time>
      </trkpt>
      <trkpt lat="48.8574" lon="2.34883">
        <ele>91.2</ele>
        <time>2015-02-09T21:24:48.543Z</time>
      </trkpt>
      <trkpt lat="48.85743" lon="2.34874">
        <ele>90.6</ele>
        <time>2015-02-09T21:24:50.445Z</time>
      </trkpt>
      <trkpt lat="48.85745" lon="2.34869">
        <ele>90.9</ele>
        <time>2015-02-09T21:24:51.447Z</time>
      </trkpt>
      <trkpt lat="48.8575" lon="2.3486">
        <ele>92</ele>
        <time>2015-02-09T21:24:53.520Z</time>
      </trkpt>
      <trkpt lat="48.85752" lon="2.34855">
        <ele>92.5</ele>
        <time>2015-02-09T21:24:54.451Z</time>
      </trkpt>
      <trkpt lat="48.85755" lon="2.34845">
        <ele>92.8</ele>
        <time>2015-02-09T21:24:56.448Z</time>
      </trkpt>
      <trkpt lat="48.85757" lon="2.3484">
        <ele>92.7</ele>
        <time>2015-02-09T21:24:57.366Z</time>
      </trkpt>
      <trkpt lat="48.8576" lon="2.3483">
        <ele>92.2</ele>
        <time>2015-02-09T21:24:59.398Z</time>
      </trkpt>
      <trkpt lat="48.85762" lon="2.34825">
        <ele>92.2</ele>
        <time>2015-02-09T21:25:00.410Z</time>
      </trkpt>
      <trkpt lat="48.85765" lon="2.34812">
        <ele>92</ele>
        <time>2015-02-09T21:25:03.777Z</time>
      </trkpt>
      <trkpt lat="48.85766" lon="2.34808">
        <ele>91.8</ele>
        <time>2015-02-09T21:25:04.415Z</time>
      </trkpt>
      <trkpt lat="48.8577" lon="2.34797">
        <ele>91.2</ele>
        <time>2015-02-09T21:25:07.461Z</time>
      </trkpt>
      <trkpt lat="48.85771" lon="2.34793">
        <ele>91</ele>
        <time>2015-02-09T21:25:08.487Z</time>
      </trkpt>
      <trkpt lat="48.85773" lon="2.34779">
        <ele>91.1</ele>
        <time>2015-02-09T21:25:12.511Z</time>
      </trkpt>
      <trkpt lat="48.85773" lon="2.34779">
        <ele>91</ele>
        <time>2015-02-09T21:25:13.538Z</time>
      </trkpt>
      <trkpt lat="48.85779" lon="2.3477">
        <ele>89</ele>
        <time>2015-02-09T21:25:31.432Z</time>
      </trkpt>
      <trkpt lat="48.8578" lon="2.34765">
        <ele>88.8</ele>
        <time>2015-02-09T21:25:32.431Z</time>
      </trkpt>
      <trkpt lat="48.85782" lon="2.34754">
        <ele>89.2</ele>
        <time>2015-02-09T21:25:35.477Z</time>
      </trkpt>
      <trkpt lat="48.85783" lon="2.3475">
        <ele>88.9</ele>
        <time>2015-02-09T21:25:36.478Z</time>
      </trkpt>
      <trkpt lat="48.85787" lon="2.34739">
        <ele>87.9</ele>
        <time>2015-02-09T21:25:39.421Z</time>
      </trkpt>
      <trkpt lat="48.85789" lon="2.34737">
        <ele>88.1</ele>
        <time>2015-02-09T21:25:40.439Z</time>
      </trkpt>
      <trkpt lat="48.85796" lon="2.3473">
        <ele>89.1</ele>
        <time>2015-02-09T21:25:43.461Z</time>
      </trkpt>
      <trkpt lat="48.85797" lon="2.34728">
        <ele>89.7</ele>
        <time>2015-02-09T21:25:44.479Z</time>
      </trkpt>
      <trkpt lat="48.85803" lon="2.34726">
        <ele>91.7</ele>
        <time>2015-02-09T21:25:46.380Z</time>
      </trkpt>
      <trkpt lat="48.85806" lon="2.34725">
        <ele>92.7</ele>
        <time>2015-02-09T21:25:47.387Z</time>
      </trkpt>
      <trkpt lat="48.85814" lon="2.34723">
        <ele>94.7</ele>
        <time>2015-02-09T21:25:49.409Z</time>
      </trkpt>
      <trkpt lat="48.85818" lon="2.34722">
        <ele>94.2</ele>
        <time>2015-02-09T21:25:50.438Z</time>
      </trkpt>
      <trkpt lat="48.85825" lon="2.34721">
        <ele>95.3</ele>
        <time>2015-02-09T21:25:52.449Z</time>
      </trkpt>
      <trkpt lat="48.85829" lon="2.34722">
        <ele>95.6</ele>
        <time>2015-02-09T21:25:53.467Z</time>
      </trkpt>
      <trkpt lat="48.85837" lon="2.34724">
        <ele>96.6</ele>
        <time>2015-02-09T21:25:55.407Z</time>
      </trkpt>
      <trkpt lat="48.85842" lon="2.34723">
        <ele>97.6</ele>
        <time>2015-02-09T21:25:56.426Z</time>
      </trkpt>
      <trkpt lat="48.85848" lon="2.34725">
        <ele>98.1</ele>
        <time>2015-02-09T21:25:58.822Z</time>
      </trkpt>
      <trkpt lat="48.85851" lon="2.34725">
        <ele>98.4</ele>
        <time>2015-02-09T21:25:59.475Z</time>
      </trkpt>
      <trkpt lat="48.85858" lon="2.34733">
        <ele>99.2</ele>
        <time>2015-02-09T21:26:02.549Z</time>
      </trkpt>
      <trkpt lat="48.85859" lon="2.34738">
        <ele>99.5</ele>
        <time>2015-02-09T21:26:03.495Z</time>
      </trkpt>
      <trkpt lat="48.85861" lon="2.34743">
        <ele>99.8</ele>
        <time>2015-02-09T21:26:25.521Z</time>
      </trkpt>
      <trkpt lat="48.85878" lon="2.34745">
        <ele>103.4</ele>
        <time>2015-02-09T21:26:26.541Z</time>
      </trkpt>
      <trkpt lat="48.85885" lon="2.34742">
        <ele>103.3</ele>
        <time>2015-02-09T21:26:29.370Z</time>
      </trkpt>
      <trkpt lat="48.85887" lon="2.34741">
        <ele>103.5</ele>
        <time>2015-02-09T21:26:30.432Z</time>
      </trkpt>
      <trkpt lat="48.85896" lon="2.34739">
        <ele>104.2</ele>
        <time>2015-02-09T21:26:34.408Z</time>
      </trkpt>
      <trkpt lat="48.85898" lon="2.34738">
        <ele>104.3</ele>
        <time>2015-02-09T21:26:35.473Z</time>
      </trkpt>
      <trkpt lat="48.85906" lon="2.34734">
        <ele>104</ele>
        <time>2015-02-09T21:26:38.262Z</time>
      </trkpt>
      <trkpt lat="48.8591" lon="2.34732">
        <ele>104</ele>
        <time>2015-02-09T21:26:38.374Z</time>
      </trkpt>
      <trkpt lat="48.85916" lon="2.34727">
        <ele>104.1</ele>
        <time>2015-02-09T21:26:40.355Z</time>
      </trkpt>
      <trkpt lat="48.8592" lon="2.34724">
        <ele>103.9</ele>
        <time>2015-02-09T21:26:41.425Z</time>
      </trkpt>
      <trkpt lat="48.85927" lon="2.34719">
        <ele>103.7</ele>
        <time>2015-02-09T21:26:43.398Z</time>
      </trkpt>
      <trkpt lat="48.8593" lon="2.34716">
        <ele>103.5</ele>
        <time>2015-02-09T21:26:44.461Z</time>
      </trkpt>
      <trkpt lat="48.85937" lon="2.34713">
        <ele>103.4</ele>
        <time>2015-02-09T21:26:46.425Z</time>
      </trkpt>
      <trkpt lat="48.85939" lon="2.34711">
        <ele>103.1</ele>
        <time>2015-02-09T21:26:47.431Z</time>
      </trkpt>
      <trkpt lat="48.85947" lon="2.34707">
        <ele>102.7</ele>
        <time>2015-02-09T21:26:50.460Z</time>
      </trkpt>
      <trkpt lat="48.85948" lon="2.34706">
        <ele>102.9</ele>
        <time>2015-02-09T21:26:51.484Z</time>
      </trkpt>
      <trkpt lat="48.85952" lon="2.34706">
        <ele>103.7</ele>
        <time>2015-02-09T21:27:52.730Z</time>
      </trkpt>
    </trkseg>
  </trk>
</gpx>